<?xml version='1.0' encoding='UTF-8'?><gpx version="1.1" creator="JPX - https://github.com/jenetics/jpx" xmlns="http://www.topografix.com/GPX/1/1"><trk><trkseg><trkpt lat="44.909929297788864" lon="7.302631284464347"><ele>604.0</ele><time>2026-05-02T07:35:59.965Z</time></trkpt><trkpt lat="44.909994390872825" lon="7.3025601953838315"><ele>604.0</ele><time>2026-05-02T07:36:35.997Z</time></trkpt><trkpt lat="44.910066504925965" lon="7.302535638346253"><ele>604.0</ele><time>2026-05-02T07:37:00Z</time></trkpt><trkpt lat="44.9101282915131" lon="7.302614018895205"><ele>604.0</ele><time>2026-05-02T07:37:23Z</time></trkpt><trkpt lat="44.910111222123334" lon="7.302719917297031"><ele>604.0</ele><time>2026-05-02T07:37:54.999Z</time></trkpt><trkpt lat="44.91004431828606" lon="7.302841807952249"><ele>604.0</ele><time>2026-05-02T07:37:56.999Z</time></trkpt><trkpt lat="44.90997635799044" lon="7.302922411300047"><ele>604.0</ele><time>2026-05-02T07:37:57.999Z</time></trkpt><trkpt lat="44.90990027884731" lon="7.303016595547589"><ele>604.0</ele><time>2026-05-02T07:37:59.002Z</time></trkpt><trkpt lat="44.90981051417018" lon="7.3031344418278294"><ele>604.0</ele><time>2026-05-02T07:38:00.002Z</time></trkpt><trkpt lat="44.90972422222027" lon="7.303256343024618"><ele>604.0</ele><time>2026-05-02T07:38:01.001Z</time></trkpt><trkpt lat="44.90964163942962" lon="7.3033723620076145"><ele>602.25</ele><time>2026-05-02T07:38:02.001Z</time></trkpt><trkpt lat="44.90955354411288" lon="7.303471490628704"><ele>600.5</ele><time>2026-05-02T07:38:03.001Z</time></trkpt><trkpt lat="44.90946777003896" lon="7.303576069326312"><ele>598.75</ele><time>2026-05-02T07:38:04.001Z</time></trkpt><trkpt lat="44.909376016441335" lon="7.303692122740706"><ele>597.0</ele><time>2026-05-02T07:38:05.001Z</time></trkpt><trkpt lat="44.90928970163581" lon="7.30381802471184"><ele>591.5</ele><time>2026-05-02T07:38:06.001Z</time></trkpt><trkpt lat="44.909194327367985" lon="7.303944932980532"><ele>586.0</ele><time>2026-05-02T07:38:07.001Z</time></trkpt><trkpt lat="44.90910242627098" lon="7.30407319536166"><ele>580.5</ele><time>2026-05-02T07:38:08.001Z</time></trkpt><trkpt lat="44.909041305554936" lon="7.3042016740467375"><ele>575.0</ele><time>2026-05-02T07:38:09.001Z</time></trkpt><trkpt lat="44.90898139681946" lon="7.304292155796684"><ele>575.0</ele><time>2026-05-02T07:38:10.001Z</time></trkpt><trkpt lat="44.90892948062833" lon="7.304361172521337"><ele>575.0</ele><time>2026-05-02T07:38:11.001Z</time></trkpt><trkpt lat="44.90889490154073" lon="7.304441365004945"><ele>575.0</ele><time>2026-05-02T07:38:12.001Z</time></trkpt><trkpt lat="44.90885514469973" lon="7.304531684594333"><ele>575.0</ele><time>2026-05-02T07:38:14.001Z</time></trkpt><trkpt lat="44.908913340022295" lon="7.304735512374157"><ele>575.0</ele><time>2026-05-02T07:38:16Z</time></trkpt><trkpt lat="44.90897811563943" lon="7.304838747605318"><ele>572.2</ele><time>2026-05-02T07:38:17Z</time></trkpt><trkpt lat="44.90909247389537" lon="7.304905741323837"><ele>569.4</ele><time>2026-05-02T07:38:18Z</time></trkpt><trkpt lat="44.90918982299428" lon="7.304957389242898"><ele>566.6</ele><time>2026-05-02T07:38:19Z</time></trkpt><trkpt lat="44.90924768859347" lon="7.305047359888841"><ele>563.8</ele><time>2026-05-02T07:38:20Z</time></trkpt><trkpt lat="44.909290117832796" lon="7.30513373012"><ele>561.0</ele><time>2026-05-02T07:38:21Z</time></trkpt><trkpt lat="44.90928759105936" lon="7.305265471642288"><ele>560.5</ele><time>2026-05-02T07:38:22Z</time></trkpt><trkpt lat="44.90922092924463" lon="7.305410858246316"><ele>560.0</ele><time>2026-05-02T07:38:23Z</time></trkpt><trkpt lat="44.90916110265274" lon="7.305553204257447"><ele>559.5</ele><time>2026-05-02T07:38:24Z</time></trkpt><trkpt lat="44.90909884905582" lon="7.305688308439172"><ele>559.0</ele><time>2026-05-02T07:38:25Z</time></trkpt><trkpt lat="44.90899108231248" lon="7.305768279796275"><ele>554.75</ele><time>2026-05-02T07:38:26Z</time></trkpt><trkpt lat="44.908867625312865" lon="7.305779356299782"><ele>550.5</ele><time>2026-05-02T07:38:27Z</time></trkpt><trkpt lat="44.9087567903148" lon="7.305773327606352"><ele>546.25</ele><time>2026-05-02T07:38:28Z</time></trkpt><trkpt lat="44.90864954406852" lon="7.3057357979924085"><ele>542.0</ele><time>2026-05-02T07:38:29Z</time></trkpt><trkpt lat="44.908543143549245" lon="7.305627712778002"><ele>543.0</ele><time>2026-05-02T07:38:30Z</time></trkpt><trkpt lat="44.90842900676917" lon="7.30551255159329"><ele>544.0</ele><time>2026-05-02T07:38:31Z</time></trkpt><trkpt lat="44.908305166903524" lon="7.305372254370192"><ele>545.0</ele><time>2026-05-02T07:38:32Z</time></trkpt><trkpt lat="44.90819432277753" lon="7.3052395983148095"><ele>546.0</ele><time>2026-05-02T07:38:33Z</time></trkpt><trkpt lat="44.90808495157023" lon="7.305107158524927"><ele>546.0</ele><time>2026-05-02T07:38:34Z</time></trkpt><trkpt lat="44.9079767370339" lon="7.304994375351571"><ele>546.0</ele><time>2026-05-02T07:38:35Z</time></trkpt><trkpt lat="44.90788111371356" lon="7.30490803333039"><ele>546.0</ele><time>2026-05-02T07:38:36Z</time></trkpt><trkpt lat="44.90775893603561" lon="7.304884012770778"><ele>546.0</ele><time>2026-05-02T07:38:37Z</time></trkpt><trkpt lat="44.90762557080744" lon="7.30489392880889"><ele>541.4</ele><time>2026-05-02T07:38:38Z</time></trkpt><trkpt lat="44.90750994930975" lon="7.304917211548135"><ele>536.8</ele><time>2026-05-02T07:38:39Z</time></trkpt><trkpt lat="44.907410695132185" lon="7.304965398692076"><ele>532.1999999999999</ele><time>2026-05-02T07:38:40Z</time></trkpt><trkpt lat="44.90733540398926" lon="7.305060406356112"><ele>527.6</ele><time>2026-05-02T07:38:40.999Z</time></trkpt><trkpt lat="44.90730589805563" lon="7.3052120232013245"><ele>523.0</ele><time>2026-05-02T07:38:41.999Z</time></trkpt><trkpt lat="44.90731385509643" lon="7.305366831587309"><ele>523.0</ele><time>2026-05-02T07:38:42.999Z</time></trkpt><trkpt lat="44.907352301503636" lon="7.305499344777762"><ele>523.0</ele><time>2026-05-02T07:38:43.999Z</time></trkpt><trkpt lat="44.90742579157253" lon="7.305624159387454"><ele>523.0</ele><time>2026-05-02T07:38:44.999Z</time></trkpt><trkpt lat="44.90752709684344" lon="7.305711822838678"><ele>523.0</ele><time>2026-05-02T07:38:45.999Z</time></trkpt><trkpt lat="44.90762416375814" lon="7.305796902722536"><ele>523.0</ele><time>2026-05-02T07:38:46.999Z</time></trkpt><trkpt lat="44.9077000241571" lon="7.305841409977307"><ele>521.75</ele><time>2026-05-02T07:38:47.999Z</time></trkpt><trkpt lat="44.90779161372307" lon="7.305908655617003"><ele>520.5</ele><time>2026-05-02T07:38:49.999Z</time></trkpt><trkpt lat="44.90776219933841" lon="7.306056019131484"><ele>519.25</ele><time>2026-05-02T07:38:51.999Z</time></trkpt><trkpt lat="44.907618312754735" lon="7.306041060841571"><ele>518.0</ele><time>2026-05-02T07:38:52.999Z</time></trkpt><trkpt lat="44.90750127081945" lon="7.306105333811913"><ele>518.0</ele><time>2026-05-02T07:38:53.999Z</time></trkpt><trkpt lat="44.907384360996936" lon="7.306198919252889"><ele>518.0</ele><time>2026-05-02T07:38:54.999Z</time></trkpt><trkpt lat="44.90727349470559" lon="7.30624913770571"><ele>518.0</ele><time>2026-05-02T07:38:55.999Z</time></trkpt><trkpt lat="44.90718915786044" lon="7.306260565591773"><ele>518.0</ele><time>2026-05-02T07:38:56.999Z</time></trkpt><trkpt lat="44.907091352682016" lon="7.306357581812263"><ele>515.6</ele><time>2026-05-02T07:38:58.999Z</time></trkpt><trkpt lat="44.90710856680587" lon="7.306472664012055"><ele>513.1999999999999</ele><time>2026-05-02T07:38:59.999Z</time></trkpt><trkpt lat="44.90717185228117" lon="7.306604186445537"><ele>510.8</ele><time>2026-05-02T07:39:00.999Z</time></trkpt><trkpt lat="44.907259404738056" lon="7.306744546653449"><ele>508.4</ele><time>2026-05-02T07:39:01.999Z</time></trkpt><trkpt lat="44.90731768352533" lon="7.3068774120479425"><ele>506.0</ele><time>2026-05-02T07:39:02.999Z</time></trkpt><trkpt lat="44.90734635755648" lon="7.307006932389821"><ele>506.0</ele><time>2026-05-02T07:39:03.999Z</time></trkpt><trkpt lat="44.90731512963486" lon="7.3071451522053685"><ele>506.0</ele><time>2026-05-02T07:39:04.999Z</time></trkpt><trkpt lat="44.90725472701452" lon="7.307281214185615"><ele>506.0</ele><time>2026-05-02T07:39:05.999Z</time></trkpt><trkpt lat="44.907206857524656" lon="7.307457155649183"><ele>506.0</ele><time>2026-05-02T07:39:06.999Z</time></trkpt><trkpt lat="44.90718472765887" lon="7.307619543166465"><ele>504.5</ele><time>2026-05-02T07:39:07.999Z</time></trkpt><trkpt lat="44.90722198535258" lon="7.307787287285756"><ele>503.0</ele><time>2026-05-02T07:39:08.999Z</time></trkpt><trkpt lat="44.907280232336305" lon="7.30795324646437"><ele>501.5</ele><time>2026-05-02T07:39:09.999Z</time></trkpt><trkpt lat="44.907353311907656" lon="7.3081265526762085"><ele>500.0</ele><time>2026-05-02T07:39:10.999Z</time></trkpt><trkpt lat="44.90742942621914" lon="7.308317063707472"><ele>498.66666666666663</ele><time>2026-05-02T07:39:11.999Z</time></trkpt><trkpt lat="44.90752591717226" lon="7.308541572824411"><ele>497.33333333333337</ele><time>2026-05-02T07:39:12.999Z</time></trkpt><trkpt lat="44.90763469126792" lon="7.308788768682623"><ele>496.0</ele><time>2026-05-02T07:39:13.999Z</time></trkpt><trkpt lat="44.90773056066492" lon="7.309012183451628"><ele>494.0</ele><time>2026-05-02T07:39:14.999Z</time></trkpt><trkpt lat="44.90780718701572" lon="7.309199157820978"><ele>492.0</ele><time>2026-05-02T07:39:15.999Z</time></trkpt><trkpt lat="44.907869938711215" lon="7.309352066035732"><ele>490.0</ele><time>2026-05-02T07:39:16.999Z</time></trkpt><trkpt lat="44.90789767250123" lon="7.309479662137078"><ele>488.0</ele><time>2026-05-02T07:39:17.999Z</time></trkpt><trkpt lat="44.907936052317744" lon="7.309608314234746"><ele>488.0</ele><time>2026-05-02T07:39:18.999Z</time></trkpt><trkpt lat="44.907972997981304" lon="7.30973497121224"><ele>487.99999999999994</ele><time>2026-05-02T07:39:19.999Z</time></trkpt><trkpt lat="44.907966998591874" lon="7.309866357175307"><ele>487.99999999999994</ele><time>2026-05-02T07:39:20.999Z</time></trkpt><trkpt lat="44.90790867325162" lon="7.309982873831232"><ele>488.0</ele><time>2026-05-02T07:39:21.999Z</time></trkpt><trkpt lat="44.907829084963936" lon="7.310070182294149"><ele>488.0</ele><time>2026-05-02T07:39:22.999Z</time></trkpt><trkpt lat="44.9077385472355" lon="7.310180581883898"><ele>484.5</ele><time>2026-05-02T07:39:23.998Z</time></trkpt><trkpt lat="44.90763298564383" lon="7.310276738693125"><ele>481.0</ele><time>2026-05-02T07:39:24.998Z</time></trkpt><trkpt lat="44.907538785925304" lon="7.3103856878448426"><ele>477.5</ele><time>2026-05-02T07:39:25.998Z</time></trkpt><trkpt lat="44.907471877230435" lon="7.310497441137877"><ele>474.0</ele><time>2026-05-02T07:39:26.998Z</time></trkpt><trkpt lat="44.90745035829653" lon="7.3106445618580524"><ele>471.5</ele><time>2026-05-02T07:39:27.998Z</time></trkpt><trkpt lat="44.90745276074127" lon="7.310806814550214"><ele>469.0</ele><time>2026-05-02T07:39:28.998Z</time></trkpt><trkpt lat="44.90751437124113" lon="7.3109827434303805"><ele>466.5</ele><time>2026-05-02T07:39:29.998Z</time></trkpt><trkpt lat="44.90755195326518" lon="7.311183454246378"><ele>464.0</ele><time>2026-05-02T07:39:30.998Z</time></trkpt><trkpt lat="44.90757170567012" lon="7.311369702919639"><ele>461.75</ele><time>2026-05-02T07:39:31.998Z</time></trkpt><trkpt lat="44.90756106737728" lon="7.311548101005452"><ele>459.5</ele><time>2026-05-02T07:39:32.998Z</time></trkpt><trkpt lat="44.90755383996564" lon="7.31172362782094"><ele>457.25</ele><time>2026-05-02T07:39:33.998Z</time></trkpt><trkpt lat="44.90754008944329" lon="7.311904702410686"><ele>455.0</ele><time>2026-05-02T07:39:34.998Z</time></trkpt><trkpt lat="44.90751907490111" lon="7.312089557358587"><ele>454.0</ele><time>2026-05-02T07:39:35.998Z</time></trkpt><trkpt lat="44.907491212975394" lon="7.312274321863572"><ele>453.0</ele><time>2026-05-02T07:39:36.998Z</time></trkpt><trkpt lat="44.90746152435942" lon="7.312453558486207"><ele>452.0</ele><time>2026-05-02T07:39:37.998Z</time></trkpt><trkpt lat="44.90744439737348" lon="7.312630868247154"><ele>451.0</ele><time>2026-05-02T07:39:38.998Z</time></trkpt><trkpt lat="44.90743564396264" lon="7.312775735466924"><ele>451.0</ele><time>2026-05-02T07:39:39.998Z</time></trkpt><trkpt lat="44.907394662915536" lon="7.312922784307495"><ele>451.0</ele><time>2026-05-02T07:39:41.998Z</time></trkpt><trkpt lat="44.907328007566264" lon="7.313034540557461"><ele>451.0</ele><time>2026-05-02T07:39:43.998Z</time></trkpt><trkpt lat="44.90722847764444" lon="7.312944009242263"><ele>451.0</ele><time>2026-05-02T07:39:44.998Z</time></trkpt><trkpt lat="44.90713639282546" lon="7.31289440337697"><ele>451.0</ele><time>2026-05-02T07:39:45.998Z</time></trkpt><trkpt lat="44.90704631624125" lon="7.312824447561285"><ele>451.0</ele><time>2026-05-02T07:39:46.998Z</time></trkpt><trkpt lat="44.90693603299331" lon="7.312756424398495"><ele>451.0</ele><time>2026-05-02T07:39:47.998Z</time></trkpt><trkpt lat="44.906807000293895" lon="7.312665257338511"><ele>451.0</ele><time>2026-05-02T07:39:48.998Z</time></trkpt><trkpt lat="44.906665135115695" lon="7.312564985826527"><ele>451.0</ele><time>2026-05-02T07:39:49.998Z</time></trkpt><trkpt lat="44.90650305653035" lon="7.312463376243641"><ele>450.33333333333337</ele><time>2026-05-02T07:39:50.998Z</time></trkpt><trkpt lat="44.906361951361944" lon="7.312322492728275"><ele>449.66666666666663</ele><time>2026-05-02T07:39:51.998Z</time></trkpt><trkpt lat="44.906237708753956" lon="7.312175920189548"><ele>449.0</ele><time>2026-05-02T07:39:52.998Z</time></trkpt><trkpt lat="44.906121343526586" lon="7.312030376453588"><ele>450.0</ele><time>2026-05-02T07:39:53.998Z</time></trkpt><trkpt lat="44.90601689118877" lon="7.311904163176413"><ele>451.0</ele><time>2026-05-02T07:39:54.998Z</time></trkpt><trkpt lat="44.905897340872784" lon="7.311813123312411"><ele>452.0</ele><time>2026-05-02T07:39:55.998Z</time></trkpt><trkpt lat="44.90575590563245" lon="7.311761429354842"><ele>453.0</ele><time>2026-05-02T07:39:56.998Z</time></trkpt><trkpt lat="44.90558823529799" lon="7.311763899895098"><ele>453.66666666666663</ele><time>2026-05-02T07:39:57.998Z</time></trkpt><trkpt lat="44.905391418591805" lon="7.311782357519347"><ele>454.3333333333333</ele><time>2026-05-02T07:39:58.998Z</time></trkpt><trkpt lat="44.90520480872961" lon="7.311822313179098"><ele>455.0</ele><time>2026-05-02T07:39:59.998Z</time></trkpt><trkpt lat="44.905048555019874" lon="7.311902021641328"><ele>456.5</ele><time>2026-05-02T07:40:00.998Z</time></trkpt><trkpt lat="44.90490458759087" lon="7.311975750211714"><ele>458.0</ele><time>2026-05-02T07:40:01.998Z</time></trkpt><trkpt lat="44.90478478322776" lon="7.312054128656595"><ele>459.5</ele><time>2026-05-02T07:40:02.998Z</time></trkpt><trkpt lat="44.904671807642146" lon="7.312073590130284"><ele>461.0</ele><time>2026-05-02T07:40:03.998Z</time></trkpt><trkpt lat="44.904569452583566" lon="7.31205654761788"><ele>461.0</ele><time>2026-05-02T07:40:05Z</time></trkpt><trkpt lat="44.90444765990335" lon="7.311998561473986"><ele>461.0</ele><time>2026-05-02T07:40:06Z</time></trkpt><trkpt lat="44.90428282355519" lon="7.311941585696152"><ele>461.0</ele><time>2026-05-02T07:40:07Z</time></trkpt><trkpt lat="44.904120516213105" lon="7.31192982904566"><ele>461.66666666666663</ele><time>2026-05-02T07:40:08Z</time></trkpt><trkpt lat="44.90398681924666" lon="7.311904177741164"><ele>462.3333333333333</ele><time>2026-05-02T07:40:09Z</time></trkpt><trkpt lat="44.90390514744346" lon="7.311909670843423"><ele>463.0</ele><time>2026-05-02T07:40:10Z</time></trkpt><trkpt lat="44.90386551816247" lon="7.3118227916983125"><ele>463.66666666666663</ele><time>2026-05-02T07:40:11Z</time></trkpt><trkpt lat="44.903854544166514" lon="7.3117228314449045"><ele>464.3333333333333</ele><time>2026-05-02T07:40:12Z</time></trkpt><trkpt lat="44.903879436688236" lon="7.311613620824224"><ele>465.0</ele><time>2026-05-02T07:40:13Z</time></trkpt><trkpt lat="44.903912189152216" lon="7.31152431878497"><ele>465.0</ele><time>2026-05-02T07:40:14Z</time></trkpt><trkpt lat="44.9039533875419" lon="7.311446065660969"><ele>465.0</ele><time>2026-05-02T07:40:18Z</time></trkpt><trkpt lat="44.90400055141021" lon="7.311314466166511"><ele>465.0</ele><time>2026-05-02T07:40:21Z</time></trkpt><trkpt lat="44.90402628683955" lon="7.311215531347273"><ele>465.0</ele><time>2026-05-02T07:40:22Z</time></trkpt><trkpt lat="44.904046297318594" lon="7.3110763124931255"><ele>465.0</ele><time>2026-05-02T07:40:23Z</time></trkpt><trkpt lat="44.904083673494256" lon="7.310911615031015"><ele>468.0</ele><time>2026-05-02T07:40:24Z</time></trkpt><trkpt lat="44.90414508369478" lon="7.310728286311077"><ele>471.0</ele><time>2026-05-02T07:40:25Z</time></trkpt><trkpt lat="44.90422354546679" lon="7.310525411075368"><ele>474.0</ele><time>2026-05-02T07:40:26Z</time></trkpt><trkpt lat="44.90430038966688" lon="7.310321313936935"><ele>476.0</ele><time>2026-05-02T07:40:27Z</time></trkpt><trkpt lat="44.90439670302901" lon="7.310075003756203"><ele>478.0</ele><time>2026-05-02T07:40:28Z</time></trkpt><trkpt lat="44.90450209856315" lon="7.309781696417033"><ele>480.0</ele><time>2026-05-02T07:40:29Z</time></trkpt><trkpt lat="44.90458807646267" lon="7.3095847315945655"><ele>481.6</ele><time>2026-05-02T07:40:30Z</time></trkpt><trkpt lat="44.9046193840899" lon="7.309499285122155"><ele>483.2</ele><time>2026-05-02T07:40:31Z</time></trkpt><trkpt lat="44.90464108216845" lon="7.309404741921795"><ele>484.79999999999995</ele><time>2026-05-02T07:40:34Z</time></trkpt><trkpt lat="44.90450987574677" lon="7.309352892725052"><ele>486.4</ele><time>2026-05-02T07:40:35Z</time></trkpt><trkpt lat="44.904419473873844" lon="7.309317094859697"><ele>488.0</ele><time>2026-05-02T07:40:36Z</time></trkpt><trkpt lat="44.90432477549189" lon="7.309237467484173"><ele>487.5</ele><time>2026-05-02T07:40:37Z</time></trkpt><trkpt lat="44.90424645832206" lon="7.309132685954442"><ele>487.0</ele><time>2026-05-02T07:40:38Z</time></trkpt><trkpt lat="44.90422277402421" lon="7.308988959162529"><ele>486.5</ele><time>2026-05-02T07:40:39Z</time></trkpt><trkpt lat="44.904207633937354" lon="7.30881111036341"><ele>486.0</ele><time>2026-05-02T07:40:40Z</time></trkpt><trkpt lat="44.90418134347855" lon="7.308599244657442"><ele>487.33333333333337</ele><time>2026-05-02T07:40:41Z</time></trkpt><trkpt lat="44.90418257314721" lon="7.308368631718247"><ele>488.6666666666667</ele><time>2026-05-02T07:40:42Z</time></trkpt><trkpt lat="44.904183610093746" lon="7.308130682063979"><ele>490.0</ele><time>2026-05-02T07:40:42.999Z</time></trkpt><trkpt lat="44.90417471938088" lon="7.307929478153545"><ele>491.25</ele><time>2026-05-02T07:40:43.999Z</time></trkpt><trkpt lat="44.90413135228387" lon="7.3077553677194755"><ele>492.5</ele><time>2026-05-02T07:40:44.999Z</time></trkpt><trkpt lat="44.90405421611964" lon="7.307589932800366"><ele>493.75</ele><time>2026-05-02T07:40:45.999Z</time></trkpt><trkpt lat="44.90395644028" lon="7.307418533984323"><ele>495.0</ele><time>2026-05-02T07:40:46.999Z</time></trkpt><trkpt lat="44.90386424932209" lon="7.3072211247704955"><ele>497.66666666666663</ele><time>2026-05-02T07:40:47.999Z</time></trkpt><trkpt lat="44.90377812390657" lon="7.306999717326371"><ele>500.3333333333333</ele><time>2026-05-02T07:40:48.999Z</time></trkpt><trkpt lat="44.90370985993286" lon="7.306802198938878"><ele>503.0</ele><time>2026-05-02T07:40:49.999Z</time></trkpt><trkpt lat="44.90366366296373" lon="7.306615983878974"><ele>503.0</ele><time>2026-05-02T07:40:50.999Z</time></trkpt><trkpt lat="44.903661725374086" lon="7.3064243003270715"><ele>503.0</ele><time>2026-05-02T07:40:51.999Z</time></trkpt><trkpt lat="44.903638085502294" lon="7.306217187140118"><ele>503.0</ele><time>2026-05-02T07:40:52.999Z</time></trkpt><trkpt lat="44.90363300843439" lon="7.306005800741752"><ele>503.0</ele><time>2026-05-02T07:40:53.999Z</time></trkpt><trkpt lat="44.90362293577392" lon="7.305842387807454"><ele>502.16666666666663</ele><time>2026-05-02T07:40:54.999Z</time></trkpt><trkpt lat="44.90360700578457" lon="7.305738865194474"><ele>501.3333333333333</ele><time>2026-05-02T07:40:55.999Z</time></trkpt><trkpt lat="44.9035463800658" lon="7.3056828749159815"><ele>500.5</ele><time>2026-05-02T07:40:56.999Z</time></trkpt><trkpt lat="44.90346642904503" lon="7.305667996632829"><ele>499.66666666666663</ele><time>2026-05-02T07:40:57.999Z</time></trkpt><trkpt lat="44.90336767359533" lon="7.305658800719438"><ele>498.8333333333333</ele><time>2026-05-02T07:40:58.999Z</time></trkpt><trkpt lat="44.90327448786964" lon="7.305621559459645"><ele>498.0</ele><time>2026-05-02T07:40:59.999Z</time></trkpt><trkpt lat="44.903191591379866" lon="7.305543257673843"><ele>499.6666666666667</ele><time>2026-05-02T07:41:00.999Z</time></trkpt><trkpt lat="44.90313391560663" lon="7.305485595870787"><ele>501.33333333333337</ele><time>2026-05-02T07:41:01.999Z</time></trkpt><trkpt lat="44.903074527412606" lon="7.305414140082446"><ele>503.0</ele><time>2026-05-02T07:41:03.999Z</time></trkpt><trkpt lat="44.90303671677754" lon="7.305329771564734"><ele>504.6666666666667</ele><time>2026-05-02T07:41:06.999Z</time></trkpt><trkpt lat="44.9030665954543" lon="7.305230339781529"><ele>506.33333333333337</ele><time>2026-05-02T07:41:08.999Z</time></trkpt><trkpt lat="44.90310621260113" lon="7.305158040361648"><ele>508.0</ele><time>2026-05-02T07:41:09.999Z</time></trkpt><trkpt lat="44.90316995913796" lon="7.304999869494342"><ele>508.0</ele><time>2026-05-02T07:41:10.999Z</time></trkpt><trkpt lat="44.90325767313239" lon="7.304825953280928"><ele>508.0</ele><time>2026-05-02T07:41:11.999Z</time></trkpt><trkpt lat="44.90333209582088" lon="7.304709644912885"><ele>508.0</ele><time>2026-05-02T07:41:12.999Z</time></trkpt><trkpt lat="44.90316548602829" lon="7.3043015341762"><ele>509.75</ele><time>2026-05-02T07:41:13.999Z</time></trkpt><trkpt lat="44.903205196042165" lon="7.30418090299975"><ele>511.5</ele><time>2026-05-02T07:41:14.999Z</time></trkpt><trkpt lat="44.903100542955585" lon="7.304016738334208"><ele>513.25</ele><time>2026-05-02T07:41:19.999Z</time></trkpt><trkpt lat="44.9029483675582" lon="7.3040755301696505"><ele>515.0</ele><time>2026-05-02T07:41:20.999Z</time></trkpt><trkpt lat="44.90283021776566" lon="7.304195393519548"><ele>515.0</ele><time>2026-05-02T07:41:21.999Z</time></trkpt><trkpt lat="44.90274547622173" lon="7.304254269395056"><ele>515.0</ele><time>2026-05-02T07:41:22.999Z</time></trkpt><trkpt lat="44.90258611770311" lon="7.304305698496614"><ele>515.0</ele><time>2026-05-02T07:41:23.999Z</time></trkpt><trkpt lat="44.902457990624505" lon="7.304306797979503"><ele>515.0</ele><time>2026-05-02T07:41:24.999Z</time></trkpt><trkpt lat="44.90230973104631" lon="7.304306926373982"><ele>514.4</ele><time>2026-05-02T07:41:25.999Z</time></trkpt><trkpt lat="44.90217526573178" lon="7.304280315249694"><ele>513.8</ele><time>2026-05-02T07:41:26.999Z</time></trkpt><trkpt lat="44.90206745973423" lon="7.304257963117605"><ele>513.2</ele><time>2026-05-02T07:41:27.999Z</time></trkpt><trkpt lat="44.90197647752122" lon="7.304248722729151"><ele>512.6</ele><time>2026-05-02T07:41:28.999Z</time></trkpt><trkpt lat="44.901916123513644" lon="7.304184627615993"><ele>512.0</ele><time>2026-05-02T07:41:29.999Z</time></trkpt><trkpt lat="44.901886359457215" lon="7.3040990354917605"><ele>512.0</ele><time>2026-05-02T07:41:30.998Z</time></trkpt><trkpt lat="44.901864105506824" lon="7.303995160851039"><ele>512.0</ele><time>2026-05-02T07:41:31.998Z</time></trkpt><trkpt lat="44.901837852789384" lon="7.303878249193346"><ele>512.0</ele><time>2026-05-02T07:41:32.998Z</time></trkpt><trkpt lat="44.90180871436208" lon="7.3037890259408496"><ele>512.0</ele><time>2026-05-02T07:41:33.998Z</time></trkpt><trkpt lat="44.90169644265073" lon="7.3039116858296165"><ele>512.0</ele><time>2026-05-02T07:41:36.998Z</time></trkpt><trkpt lat="44.901639401459775" lon="7.304054006780504"><ele>511.25</ele><time>2026-05-02T07:41:37.998Z</time></trkpt><trkpt lat="44.90156091397933" lon="7.304193390128683"><ele>510.5</ele><time>2026-05-02T07:41:38.998Z</time></trkpt><trkpt lat="44.901466043205176" lon="7.304325831418656"><ele>509.75</ele><time>2026-05-02T07:41:39.998Z</time></trkpt><trkpt lat="44.90138009276415" lon="7.304435353187263"><ele>509.0</ele><time>2026-05-02T07:41:40.998Z</time></trkpt><trkpt lat="44.90127993715257" lon="7.304502114282068"><ele>509.0</ele><time>2026-05-02T07:41:41.998Z</time></trkpt><trkpt lat="44.90117862849158" lon="7.304587251877517"><ele>509.0</ele><time>2026-05-02T07:41:42.998Z</time></trkpt><trkpt lat="44.901058200905055" lon="7.304683228650509"><ele>509.0</ele><time>2026-05-02T07:41:43.998Z</time></trkpt><trkpt lat="44.90095584681641" lon="7.304768118203784"><ele>509.0</ele><time>2026-05-02T07:41:44.998Z</time></trkpt><trkpt lat="44.900878029226405" lon="7.304784486593274"><ele>506.0</ele><time>2026-05-02T07:41:45.998Z</time></trkpt><trkpt lat="44.9007415744188" lon="7.304803476019148"><ele>503.0</ele><time>2026-05-02T07:41:46.998Z</time></trkpt><trkpt lat="44.9005984676353" lon="7.304857261765981"><ele>500.0</ele><time>2026-05-02T07:41:47.998Z</time></trkpt><trkpt lat="44.900458787000986" lon="7.304886509089773"><ele>497.0</ele><time>2026-05-02T07:41:48.998Z</time></trkpt><trkpt lat="44.90031731743834" lon="7.304914240448406"><ele>497.0</ele><time>2026-05-02T07:41:49.998Z</time></trkpt><trkpt lat="44.90017078746458" lon="7.30493634347207"><ele>497.00000000000006</ele><time>2026-05-02T07:41:50.998Z</time></trkpt><trkpt lat="44.90005563582414" lon="7.304950701303229"><ele>497.00000000000006</ele><time>2026-05-02T07:41:51.998Z</time></trkpt><trkpt lat="44.89995764305273" lon="7.304956256174647"><ele>497.0</ele><time>2026-05-02T07:41:52.998Z</time></trkpt><trkpt lat="44.899889039910796" lon="7.3049308260725105"><ele>497.0</ele><time>2026-05-02T07:41:53.998Z</time></trkpt><trkpt lat="44.899820196164384" lon="7.304881868367218"><ele>496.99999999999994</ele><time>2026-05-02T07:41:54.998Z</time></trkpt><trkpt lat="44.89975841026285" lon="7.30481542675147"><ele>497.0</ele><time>2026-05-02T07:41:55.998Z</time></trkpt><trkpt lat="44.8997009584997" lon="7.304753464876615"><ele>497.0</ele><time>2026-05-02T07:41:56.998Z</time></trkpt><trkpt lat="44.89965530842204" lon="7.304674212434727"><ele>497.0</ele><time>2026-05-02T07:41:57.998Z</time></trkpt><trkpt lat="44.89962155517881" lon="7.304536884015099"><ele>496.99999999999994</ele><time>2026-05-02T07:41:58.998Z</time></trkpt><trkpt lat="44.89956521858184" lon="7.304412366661534"><ele>497.0</ele><time>2026-05-02T07:41:59.998Z</time></trkpt><trkpt lat="44.899490977546435" lon="7.304255273817851"><ele>498.40000000000003</ele><time>2026-05-02T07:42:00.998Z</time></trkpt><trkpt lat="44.899444854399896" lon="7.304085310393223"><ele>499.80000000000007</ele><time>2026-05-02T07:42:01.998Z</time></trkpt><trkpt lat="44.899357929001056" lon="7.303947841913282"><ele>501.2</ele><time>2026-05-02T07:42:02.998Z</time></trkpt><trkpt lat="44.899307289521666" lon="7.303814216231813"><ele>502.6</ele><time>2026-05-02T07:42:03.998Z</time></trkpt><trkpt lat="44.899285094745814" lon="7.303726659992038"><ele>504.0</ele><time>2026-05-02T07:42:04.998Z</time></trkpt><trkpt lat="44.89926998426516" lon="7.303630579584512"><ele>504.1666666666667</ele><time>2026-05-02T07:42:05.998Z</time></trkpt><trkpt lat="44.899271881549836" lon="7.303521608060422"><ele>504.33333333333337</ele><time>2026-05-02T07:42:06.998Z</time></trkpt><trkpt lat="44.8992911898505" lon="7.303394175834635"><ele>504.5</ele><time>2026-05-02T07:42:07.998Z</time></trkpt><trkpt lat="44.89931678982062" lon="7.303296437523165"><ele>504.6666666666667</ele><time>2026-05-02T07:42:08.998Z</time></trkpt><trkpt lat="44.89928878422985" lon="7.303212011386706"><ele>504.83333333333337</ele><time>2026-05-02T07:42:11Z</time></trkpt><trkpt lat="44.89918944134059" lon="7.303192771292857"><ele>505.0</ele><time>2026-05-02T07:42:13Z</time></trkpt><trkpt lat="44.89911860281479" lon="7.303278305521596"><ele>504.00000000000006</ele><time>2026-05-02T07:42:14Z</time></trkpt><trkpt lat="44.899112156900486" lon="7.303381437709069"><ele>503.0</ele><time>2026-05-02T07:42:15Z</time></trkpt><trkpt lat="44.899057314331365" lon="7.303517707336175"><ele>502.0</ele><time>2026-05-02T07:42:16Z</time></trkpt><trkpt lat="44.8989926379451" lon="7.303600532876182"><ele>501.0</ele><time>2026-05-02T07:42:17Z</time></trkpt><trkpt lat="44.89890442929685" lon="7.303659216967162"><ele>500.00000000000006</ele><time>2026-05-02T07:42:18Z</time></trkpt><trkpt lat="44.89883470116746" lon="7.303690336138297"><ele>499.0</ele><time>2026-05-02T07:42:19Z</time></trkpt><trkpt lat="44.89872920088747" lon="7.303704425495085"><ele>499.0</ele><time>2026-05-02T07:42:20Z</time></trkpt><trkpt lat="44.89865994777793" lon="7.30364022440822"><ele>499.0</ele><time>2026-05-02T07:42:21Z</time></trkpt><trkpt lat="44.898552811585624" lon="7.3035766779141715"><ele>499.0</ele><time>2026-05-02T07:42:22Z</time></trkpt><trkpt lat="44.898453604160764" lon="7.303499925508952"><ele>499.0</ele><time>2026-05-02T07:42:23Z</time></trkpt><trkpt lat="44.898362552029425" lon="7.303435360994268"><ele>499.0</ele><time>2026-05-02T07:42:24Z</time></trkpt><trkpt lat="44.89826593803438" lon="7.303450379261503"><ele>500.0</ele><time>2026-05-02T07:42:25Z</time></trkpt><trkpt lat="44.898181819116324" lon="7.303535089596895"><ele>501.0</ele><time>2026-05-02T07:42:26Z</time></trkpt><trkpt lat="44.898130683907254" lon="7.30372793117034"><ele>502.0</ele><time>2026-05-02T07:42:27Z</time></trkpt><trkpt lat="44.898114260347775" lon="7.303927915122217"><ele>503.0</ele><time>2026-05-02T07:42:28Z</time></trkpt><trkpt lat="44.89808939429191" lon="7.30410524959685"><ele>498.75</ele><time>2026-05-02T07:42:29Z</time></trkpt><trkpt lat="44.89804523666659" lon="7.304279697889212"><ele>494.5</ele><time>2026-05-02T07:42:30Z</time></trkpt><trkpt lat="44.89798397276159" lon="7.304434016712675"><ele>490.25</ele><time>2026-05-02T07:42:31Z</time></trkpt><trkpt lat="44.897902465008244" lon="7.304598265446939"><ele>486.0</ele><time>2026-05-02T07:42:32Z</time></trkpt><trkpt lat="44.89780923814632" lon="7.304767582979324"><ele>484.0</ele><time>2026-05-02T07:42:33Z</time></trkpt><trkpt lat="44.8977092285761" lon="7.304948050805586"><ele>482.0</ele><time>2026-05-02T07:42:34Z</time></trkpt><trkpt lat="44.897616928809256" lon="7.305109375223916"><ele>480.0</ele><time>2026-05-02T07:42:35Z</time></trkpt><trkpt lat="44.897526167209904" lon="7.3052723994265865"><ele>479.0</ele><time>2026-05-02T07:42:36Z</time></trkpt><trkpt lat="44.897448734147474" lon="7.305419334564429"><ele>478.0</ele><time>2026-05-02T07:42:37Z</time></trkpt><trkpt lat="44.89735786462304" lon="7.305562584871849"><ele>477.0</ele><time>2026-05-02T07:42:38Z</time></trkpt><trkpt lat="44.89726919652017" lon="7.30568194395373"><ele>476.0</ele><time>2026-05-02T07:42:39Z</time></trkpt><trkpt lat="44.89719152042983" lon="7.305757288037298"><ele>474.4</ele><time>2026-05-02T07:42:40Z</time></trkpt><trkpt lat="44.89708093209855" lon="7.305782162525462"><ele>472.8</ele><time>2026-05-02T07:42:41Z</time></trkpt><trkpt lat="44.897024317924206" lon="7.305741937398458"><ele>471.19999999999993</ele><time>2026-05-02T07:42:42Z</time></trkpt><trkpt lat="44.89692086104932" lon="7.305706446232269"><ele>469.59999999999997</ele><time>2026-05-02T07:42:43Z</time></trkpt><trkpt lat="44.896809159771635" lon="7.305710009397279"><ele>468.0</ele><time>2026-05-02T07:42:44Z</time></trkpt><trkpt lat="44.89672175030328" lon="7.305709739543704"><ele>466.5</ele><time>2026-05-02T07:42:44.999Z</time></trkpt><trkpt lat="44.89664381800853" lon="7.30587888045758"><ele>465.0</ele><time>2026-05-02T07:42:45.999Z</time></trkpt><trkpt lat="44.896554933304216" lon="7.306015602300504"><ele>463.5</ele><time>2026-05-02T07:42:46.999Z</time></trkpt><trkpt lat="44.896476333277555" lon="7.306161138283945"><ele>462.0</ele><time>2026-05-02T07:42:47.999Z</time></trkpt><trkpt lat="44.896411864816244" lon="7.306318419051756"><ele>461.6</ele><time>2026-05-02T07:42:48.999Z</time></trkpt><trkpt lat="44.89635180493348" lon="7.306467245601714"><ele>461.20000000000005</ele><time>2026-05-02T07:42:49.999Z</time></trkpt><trkpt lat="44.8963099875068" lon="7.306566434716318"><ele>460.8</ele><time>2026-05-02T07:42:50.999Z</time></trkpt><trkpt lat="44.896286940402135" lon="7.3066691030999085"><ele>460.4</ele><time>2026-05-02T07:42:51.999Z</time></trkpt><trkpt lat="44.89631927488295" lon="7.306777858643825"><ele>460.0</ele><time>2026-05-02T07:42:52.999Z</time></trkpt><trkpt lat="44.896414543170685" lon="7.306846586788289"><ele>460.0</ele><time>2026-05-02T07:42:53.999Z</time></trkpt><trkpt lat="44.89650781072476" lon="7.306892838281995"><ele>460.0</ele><time>2026-05-02T07:42:54.999Z</time></trkpt><trkpt lat="44.89659724809346" lon="7.306957182361399"><ele>460.0</ele><time>2026-05-02T07:42:55.999Z</time></trkpt><trkpt lat="44.896637475552026" lon="7.307042915534971"><ele>460.0</ele><time>2026-05-02T07:42:56.999Z</time></trkpt><trkpt lat="44.896641747378084" lon="7.307156710590052"><ele>460.0</ele><time>2026-05-02T07:42:57.999Z</time></trkpt><trkpt lat="44.896588515796154" lon="7.307297118089446"><ele>457.75</ele><time>2026-05-02T07:42:58.999Z</time></trkpt><trkpt lat="44.89654063085012" lon="7.30744584996347"><ele>455.5</ele><time>2026-05-02T07:42:59.999Z</time></trkpt><trkpt lat="44.89648148806675" lon="7.307609942629002"><ele>453.25</ele><time>2026-05-02T07:43:00.999Z</time></trkpt><trkpt lat="44.89640538322977" lon="7.30779197548396"><ele>451.0</ele><time>2026-05-02T07:43:01.999Z</time></trkpt><trkpt lat="44.89631995357149" lon="7.307944403512509"><ele>449.0</ele><time>2026-05-02T07:43:02.999Z</time></trkpt><trkpt lat="44.89627057447515" lon="7.308115598276442"><ele>447.0</ele><time>2026-05-02T07:43:03.999Z</time></trkpt><trkpt lat="44.89622353684371" lon="7.308268688361732"><ele>445.0</ele><time>2026-05-02T07:43:04.999Z</time></trkpt><trkpt lat="44.8961934197674" lon="7.308441489331674"><ele>443.0</ele><time>2026-05-02T07:43:05.999Z</time></trkpt><trkpt lat="44.89614682848738" lon="7.308621100623789"><ele>443.0</ele><time>2026-05-02T07:43:06.999Z</time></trkpt><trkpt lat="44.89609280551735" lon="7.308809406858017"><ele>443.0</ele><time>2026-05-02T07:43:07.999Z</time></trkpt><trkpt lat="44.89603818507682" lon="7.308988878956954"><ele>443.0</ele><time>2026-05-02T07:43:08.999Z</time></trkpt><trkpt lat="44.89597726633398" lon="7.309149959991132"><ele>443.0</ele><time>2026-05-02T07:43:09.999Z</time></trkpt><trkpt lat="44.89590656850638" lon="7.309287332075008"><ele>444.0</ele><time>2026-05-02T07:43:10.999Z</time></trkpt><trkpt lat="44.895832724405835" lon="7.3094246637666735"><ele>445.0</ele><time>2026-05-02T07:43:11.999Z</time></trkpt><trkpt lat="44.89575682878505" lon="7.30957142195231"><ele>446.0</ele><time>2026-05-02T07:43:12.999Z</time></trkpt><trkpt lat="44.89567378128137" lon="7.309723991572395"><ele>447.0</ele><time>2026-05-02T07:43:13.999Z</time></trkpt><trkpt lat="44.89558278222263" lon="7.309885004033855"><ele>444.33333333333337</ele><time>2026-05-02T07:43:14.999Z</time></trkpt><trkpt lat="44.89548958448142" lon="7.310049843949546"><ele>441.6666666666667</ele><time>2026-05-02T07:43:15.999Z</time></trkpt><trkpt lat="44.89539291350642" lon="7.310226958932396"><ele>439.0</ele><time>2026-05-02T07:43:16.999Z</time></trkpt><trkpt lat="44.89529436304728" lon="7.3104042381540495"><ele>439.0</ele><time>2026-05-02T07:43:17.999Z</time></trkpt><trkpt lat="44.89519560028085" lon="7.31055807449035"><ele>439.0</ele><time>2026-05-02T07:43:18.999Z</time></trkpt><trkpt lat="44.89508610502998" lon="7.310684355884263"><ele>439.0</ele><time>2026-05-02T07:43:19.999Z</time></trkpt><trkpt lat="44.89497129119751" lon="7.310800614538629"><ele>439.0</ele><time>2026-05-02T07:43:20.999Z</time></trkpt><trkpt lat="44.894857043653346" lon="7.310904515519897"><ele>437.75</ele><time>2026-05-02T07:43:21.999Z</time></trkpt><trkpt lat="44.894736857060416" lon="7.311018078223472"><ele>436.5</ele><time>2026-05-02T07:43:22.999Z</time></trkpt><trkpt lat="44.894625385689245" lon="7.311131592255034"><ele>435.25</ele><time>2026-05-02T07:43:23.999Z</time></trkpt><trkpt lat="44.89452165755795" lon="7.311238780961897"><ele>434.0</ele><time>2026-05-02T07:43:24.999Z</time></trkpt><trkpt lat="44.89441624008958" lon="7.31135712181538"><ele>433.5</ele><time>2026-05-02T07:43:25.999Z</time></trkpt><trkpt lat="44.89431720884266" lon="7.311482397925297"><ele>433.0</ele><time>2026-05-02T07:43:26.999Z</time></trkpt><trkpt lat="44.89422787894586" lon="7.311607844071227"><ele>432.5</ele><time>2026-05-02T07:43:27.999Z</time></trkpt><trkpt lat="44.89413336169843" lon="7.311752480705662"><ele>432.0</ele><time>2026-05-02T07:43:28.999Z</time></trkpt><trkpt lat="44.894053711559565" lon="7.311894770505339"><ele>430.75</ele><time>2026-05-02T07:43:29.999Z</time></trkpt><trkpt lat="44.89399780613463" lon="7.312040387570413"><ele>429.5</ele><time>2026-05-02T07:43:30.999Z</time></trkpt><trkpt lat="44.8939684442048" lon="7.3121982025178065"><ele>428.25</ele><time>2026-05-02T07:43:31.998Z</time></trkpt><trkpt lat="44.89397828071195" lon="7.312358498635999"><ele>427.0</ele><time>2026-05-02T07:43:32.998Z</time></trkpt><trkpt lat="44.89397630311912" lon="7.312537352592936"><ele>426.25</ele><time>2026-05-02T07:43:33.998Z</time></trkpt><trkpt lat="44.893933781682634" lon="7.312699994304686"><ele>425.5</ele><time>2026-05-02T07:43:34.998Z</time></trkpt><trkpt lat="44.89387380316585" lon="7.312849966556101"><ele>424.75</ele><time>2026-05-02T07:43:35.998Z</time></trkpt><trkpt lat="44.893811074703905" lon="7.312991389980606"><ele>424.0</ele><time>2026-05-02T07:43:36.998Z</time></trkpt><trkpt lat="44.89374365607833" lon="7.3131130514097125"><ele>422.2</ele><time>2026-05-02T07:43:37.998Z</time></trkpt><trkpt lat="44.89366796581734" lon="7.313191623897707"><ele>420.4</ele><time>2026-05-02T07:43:38.998Z</time></trkpt><trkpt lat="44.89357626047843" lon="7.313229761143571"><ele>418.6</ele><time>2026-05-02T07:43:39.998Z</time></trkpt><trkpt lat="44.89346073148201" lon="7.313237022420356"><ele>416.8</ele><time>2026-05-02T07:43:40.998Z</time></trkpt><trkpt lat="44.8933188720292" lon="7.313257214568382"><ele>415.0</ele><time>2026-05-02T07:43:41.998Z</time></trkpt><trkpt lat="44.89318428898926" lon="7.3132899095221475"><ele>412.5</ele><time>2026-05-02T07:43:42.998Z</time></trkpt><trkpt lat="44.893054371532884" lon="7.313336748925964"><ele>410.0</ele><time>2026-05-02T07:43:43.998Z</time></trkpt><trkpt lat="44.892938839060605" lon="7.313434049120967"><ele>407.5</ele><time>2026-05-02T07:43:44.998Z</time></trkpt><trkpt lat="44.89282932159678" lon="7.313516189170978"><ele>405.0</ele><time>2026-05-02T07:43:45.998Z</time></trkpt><trkpt lat="44.89274296528334" lon="7.313647457586214"><ele>405.0</ele><time>2026-05-02T07:43:46.998Z</time></trkpt><trkpt lat="44.89264765065061" lon="7.313798969525174"><ele>405.0</ele><time>2026-05-02T07:43:47.998Z</time></trkpt><trkpt lat="44.89256468576348" lon="7.313939504024864"><ele>405.0</ele><time>2026-05-02T07:43:48.998Z</time></trkpt><trkpt lat="44.89247127298989" lon="7.314037896014071"><ele>405.0</ele><time>2026-05-02T07:43:49.998Z</time></trkpt><trkpt lat="44.89235872709678" lon="7.314087813079353"><ele>403.75</ele><time>2026-05-02T07:43:50.998Z</time></trkpt><trkpt lat="44.89223520653977" lon="7.314165725222676"><ele>402.5</ele><time>2026-05-02T07:43:51.998Z</time></trkpt><trkpt lat="44.892109829450234" lon="7.3142601535949385"><ele>401.25</ele><time>2026-05-02T07:43:52.998Z</time></trkpt><trkpt lat="44.89199539901594" lon="7.314414052556063"><ele>400.0</ele><time>2026-05-02T07:43:53.998Z</time></trkpt><trkpt lat="44.891895552636406" lon="7.314579875308863"><ele>399.5</ele><time>2026-05-02T07:43:54.998Z</time></trkpt><trkpt lat="44.89182816318569" lon="7.314754993069205"><ele>399.0</ele><time>2026-05-02T07:43:55.998Z</time></trkpt><trkpt lat="44.89173423438136" lon="7.314870159940113"><ele>398.5</ele><time>2026-05-02T07:43:56.998Z</time></trkpt><trkpt lat="44.89164611019267" lon="7.314931356666668"><ele>398.0</ele><time>2026-05-02T07:43:57.998Z</time></trkpt><trkpt lat="44.891554814342655" lon="7.314946844006435"><ele>397.75</ele><time>2026-05-02T07:43:58.998Z</time></trkpt><trkpt lat="44.89143162418924" lon="7.314973600332427"><ele>397.5</ele><time>2026-05-02T07:43:59.998Z</time></trkpt><trkpt lat="44.89127475754486" lon="7.314984285241008"><ele>397.25</ele><time>2026-05-02T07:44:00.998Z</time></trkpt><trkpt lat="44.89111099556886" lon="7.314965566282609"><ele>397.0</ele><time>2026-05-02T07:44:01.998Z</time></trkpt><trkpt lat="44.890955389438005" lon="7.314948095317661"><ele>396.75</ele><time>2026-05-02T07:44:02.998Z</time></trkpt><trkpt lat="44.89083340261364" lon="7.3149074697235275"><ele>396.5</ele><time>2026-05-02T07:44:03.998Z</time></trkpt><trkpt lat="44.89071859928511" lon="7.314852382121084"><ele>396.25</ele><time>2026-05-02T07:44:04.998Z</time></trkpt><trkpt lat="44.890607792049195" lon="7.314768975365935"><ele>396.0</ele><time>2026-05-02T07:44:05.998Z</time></trkpt><trkpt lat="44.89048704939489" lon="7.314671468552013"><ele>396.25</ele><time>2026-05-02T07:44:06.998Z</time></trkpt><trkpt lat="44.89033955150221" lon="7.314617862368241"><ele>396.5</ele><time>2026-05-02T07:44:07.998Z</time></trkpt><trkpt lat="44.89018612765483" lon="7.314577513961071"><ele>396.75</ele><time>2026-05-02T07:44:08.998Z</time></trkpt><trkpt lat="44.89005180281991" lon="7.314538052882446"><ele>397.0</ele><time>2026-05-02T07:44:09.998Z</time></trkpt><trkpt lat="44.88992658249475" lon="7.314474152659306"><ele>397.0</ele><time>2026-05-02T07:44:10.998Z</time></trkpt><trkpt lat="44.88980759223487" lon="7.314348131266895"><ele>397.0</ele><time>2026-05-02T07:44:11.998Z</time></trkpt><trkpt lat="44.889692548511995" lon="7.314215117038638"><ele>397.0</ele><time>2026-05-02T07:44:12.998Z</time></trkpt><trkpt lat="44.88960054902242" lon="7.314039944842443"><ele>397.33333333333337</ele><time>2026-05-02T07:44:13.998Z</time></trkpt><trkpt lat="44.889469820078816" lon="7.313883743612168"><ele>397.66666666666663</ele><time>2026-05-02T07:44:14.998Z</time></trkpt><trkpt lat="44.8893406917898" lon="7.31377664370386"><ele>398.0</ele><time>2026-05-02T07:44:16Z</time></trkpt><trkpt lat="44.88920758435579" lon="7.3136994214487485"><ele>397.5</ele><time>2026-05-02T07:44:17Z</time></trkpt><trkpt lat="44.889091358881814" lon="7.313630881133925"><ele>397.0</ele><time>2026-05-02T07:44:18Z</time></trkpt><trkpt lat="44.88901051899178" lon="7.313498706742878"><ele>396.5</ele><time>2026-05-02T07:44:19Z</time></trkpt><trkpt lat="44.8889695783272" lon="7.313317197993245"><ele>396.0</ele><time>2026-05-02T07:44:20Z</time></trkpt><trkpt lat="44.888921762770835" lon="7.313111402921961"><ele>396.0</ele><time>2026-05-02T07:44:21Z</time></trkpt><trkpt lat="44.88889073453572" lon="7.312890463516272"><ele>396.0</ele><time>2026-05-02T07:44:22Z</time></trkpt><trkpt lat="44.88884539855361" lon="7.312710234506171"><ele>396.0</ele><time>2026-05-02T07:44:23Z</time></trkpt><trkpt lat="44.88881011641826" lon="7.3125572575013145"><ele>396.0</ele><time>2026-05-02T07:44:24Z</time></trkpt><trkpt lat="44.88878181739127" lon="7.312426579827127"><ele>396.0</ele><time>2026-05-02T07:44:25Z</time></trkpt><trkpt lat="44.888716218481896" lon="7.312356422626276"><ele>396.0</ele><time>2026-05-02T07:44:26Z</time></trkpt><trkpt lat="44.88862169514523" lon="7.312326564743607"><ele>396.0</ele><time>2026-05-02T07:44:27Z</time></trkpt><trkpt lat="44.888493493830794" lon="7.312374824099137"><ele>396.0</ele><time>2026-05-02T07:44:28Z</time></trkpt><trkpt lat="44.88835171164057" lon="7.312421437762604"><ele>395.5</ele><time>2026-05-02T07:44:29Z</time></trkpt><trkpt lat="44.888209673112016" lon="7.312468543569922"><ele>395.0</ele><time>2026-05-02T07:44:30Z</time></trkpt><trkpt lat="44.88806311247014" lon="7.312507365427718"><ele>394.5</ele><time>2026-05-02T07:44:31Z</time></trkpt><trkpt lat="44.887923819230004" lon="7.312506331501856"><ele>394.0</ele><time>2026-05-02T07:44:32Z</time></trkpt><trkpt lat="44.8877857895988" lon="7.3125320673889656"><ele>394.0</ele><time>2026-05-02T07:44:33Z</time></trkpt><trkpt lat="44.887639810942005" lon="7.312504469110047"><ele>394.0</ele><time>2026-05-02T07:44:34Z</time></trkpt><trkpt lat="44.887490680124614" lon="7.3124842564877826"><ele>394.0</ele><time>2026-05-02T07:44:35Z</time></trkpt><trkpt lat="44.887337707105594" lon="7.312463921160839"><ele>393.75</ele><time>2026-05-02T07:44:36Z</time></trkpt><trkpt lat="44.887191534542076" lon="7.312450685766578"><ele>393.5</ele><time>2026-05-02T07:44:37Z</time></trkpt><trkpt lat="44.887079000535785" lon="7.312452101489052"><ele>393.25</ele><time>2026-05-02T07:44:38Z</time></trkpt><trkpt lat="44.88696096028178" lon="7.312450066198364"><ele>393.0</ele><time>2026-05-02T07:44:39Z</time></trkpt><trkpt lat="44.886852052518016" lon="7.312476115621899"><ele>392.8333333333333</ele><time>2026-05-02T07:44:40Z</time></trkpt><trkpt lat="44.886756239195215" lon="7.312511022189528"><ele>392.66666666666663</ele><time>2026-05-02T07:44:41Z</time></trkpt><trkpt lat="44.886681851955736" lon="7.312488797199931"><ele>392.5</ele><time>2026-05-02T07:44:42Z</time></trkpt><trkpt lat="44.886595796642126" lon="7.31254066670228"><ele>392.3333333333333</ele><time>2026-05-02T07:44:43Z</time></trkpt><trkpt lat="44.88652565036473" lon="7.312581911466213"><ele>392.16666666666663</ele><time>2026-05-02T07:44:44Z</time></trkpt><trkpt lat="44.88646151729432" lon="7.312584689718018"><ele>392.0</ele><time>2026-05-02T07:44:45Z</time></trkpt><trkpt lat="44.88639945465235" lon="7.312508124302947"><ele>392.0</ele><time>2026-05-02T07:44:46Z</time></trkpt><trkpt lat="44.886355343171054" lon="7.312358820963062"><ele>392.0</ele><time>2026-05-02T07:44:46.999Z</time></trkpt><trkpt lat="44.886252678315365" lon="7.312263381921152"><ele>392.0</ele><time>2026-05-02T07:44:47.999Z</time></trkpt><trkpt lat="44.886153929259045" lon="7.312123913750576"><ele>392.0</ele><time>2026-05-02T07:44:48.999Z</time></trkpt><trkpt lat="44.88604630282252" lon="7.312038464137747"><ele>392.0</ele><time>2026-05-02T07:44:49.999Z</time></trkpt><trkpt lat="44.885966917464664" lon="7.311961558126364"><ele>392.0</ele><time>2026-05-02T07:44:50.999Z</time></trkpt><trkpt lat="44.88590134235653" lon="7.3118884902727865"><ele>392.0</ele><time>2026-05-02T07:44:51.999Z</time></trkpt><trkpt lat="44.88586038645369" lon="7.311810127263871"><ele>392.0</ele><time>2026-05-02T07:44:55.999Z</time></trkpt><trkpt lat="44.88579761792185" lon="7.311678381982592"><ele>392.0</ele><time>2026-05-02T07:44:57.999Z</time></trkpt><trkpt lat="44.88580571171057" lon="7.311539531099948"><ele>392.20000000000005</ele><time>2026-05-02T07:44:58.999Z</time></trkpt><trkpt lat="44.88581646435338" lon="7.311365976332116"><ele>392.4</ele><time>2026-05-02T07:44:59.999Z</time></trkpt><trkpt lat="44.88584000429027" lon="7.3112083561158"><ele>392.6</ele><time>2026-05-02T07:45:00.999Z</time></trkpt><trkpt lat="44.88584851473919" lon="7.311077971426516"><ele>392.79999999999995</ele><time>2026-05-02T07:45:01.999Z</time></trkpt><trkpt lat="44.88585156866969" lon="7.3109731117930705"><ele>393.0</ele><time>2026-05-02T07:45:02.999Z</time></trkpt><trkpt lat="44.885863238053176" lon="7.310824802619353"><ele>393.0</ele><time>2026-05-02T07:45:04.999Z</time></trkpt><trkpt lat="44.88587332191164" lon="7.310731924541302"><ele>393.0</ele><time>2026-05-02T07:45:05.999Z</time></trkpt><trkpt lat="44.88588281327299" lon="7.31061086991373"><ele>393.0</ele><time>2026-05-02T07:45:06.999Z</time></trkpt><trkpt lat="44.88589547527848" lon="7.31047201984222"><ele>393.0</ele><time>2026-05-02T07:45:07.999Z</time></trkpt><trkpt lat="44.885937352416" lon="7.310324609261665"><ele>393.0</ele><time>2026-05-02T07:45:08.999Z</time></trkpt><trkpt lat="44.88597533587971" lon="7.310190397306056"><ele>393.2</ele><time>2026-05-02T07:45:09.999Z</time></trkpt><trkpt lat="44.886034583621345" lon="7.310021321950051"><ele>393.4</ele><time>2026-05-02T07:49:53.998Z</time></trkpt><trkpt lat="44.88598368073874" lon="7.309904166682404"><ele>393.59999999999997</ele><time>2026-05-02T07:50:35Z</time></trkpt><trkpt lat="44.88593939148186" lon="7.309830877433763"><ele>393.79999999999995</ele><time>2026-05-02T07:50:37Z</time></trkpt><trkpt lat="44.885926973471626" lon="7.309659816480233"><ele>394.0</ele><time>2026-05-02T07:50:39Z</time></trkpt><trkpt lat="44.8859457604984" lon="7.309544391431982"><ele>395.0</ele><time>2026-05-02T07:50:40Z</time></trkpt><trkpt lat="44.88596042149335" lon="7.3094141721063846"><ele>396.0</ele><time>2026-05-02T07:50:41Z</time></trkpt><trkpt lat="44.885973441827886" lon="7.309264991156515"><ele>397.0</ele><time>2026-05-02T07:50:42Z</time></trkpt><trkpt lat="44.885982882652506" lon="7.30909651019077"><ele>398.0</ele><time>2026-05-02T07:50:43Z</time></trkpt><trkpt lat="44.885992252409224" lon="7.308908169713875"><ele>398.5</ele><time>2026-05-02T07:50:44Z</time></trkpt><trkpt lat="44.88600794619989" lon="7.308714665584749"><ele>399.0</ele><time>2026-05-02T07:50:45Z</time></trkpt><trkpt lat="44.88602376492048" lon="7.308524532518945"><ele>399.5</ele><time>2026-05-02T07:50:46Z</time></trkpt><trkpt lat="44.88603934189678" lon="7.308332005912552"><ele>400.0</ele><time>2026-05-02T07:50:47Z</time></trkpt><trkpt lat="44.88605220675353" lon="7.30815519507402"><ele>400.75</ele><time>2026-05-02T07:50:48Z</time></trkpt><trkpt lat="44.88606287797121" lon="7.307975019147526"><ele>401.5</ele><time>2026-05-02T07:50:49Z</time></trkpt><trkpt lat="44.88607488793219" lon="7.307767467267623"><ele>402.25</ele><time>2026-05-02T07:50:50Z</time></trkpt><trkpt lat="44.886092932012076" lon="7.307566878203954"><ele>403.0</ele><time>2026-05-02T07:50:51Z</time></trkpt><trkpt lat="44.88610912066351" lon="7.3074077362654615"><ele>403.0</ele><time>2026-05-02T07:50:52Z</time></trkpt><trkpt lat="44.886120197504574" lon="7.307274075189986"><ele>403.0</ele><time>2026-05-02T07:50:53Z</time></trkpt><trkpt lat="44.886117755951226" lon="7.307168087411476"><ele>403.0</ele><time>2026-05-02T07:50:54Z</time></trkpt><trkpt lat="44.886144271144424" lon="7.30701132965724"><ele>403.0</ele><time>2026-05-02T07:50:56Z</time></trkpt><trkpt lat="44.88616544142165" lon="7.306910411573404"><ele>403.0</ele><time>2026-05-02T07:50:57.999Z</time></trkpt><trkpt lat="44.88599148878367" lon="7.306888752274694"><ele>402.00000000000006</ele><time>2026-05-02T07:50:59.999Z</time></trkpt><trkpt lat="44.88590944276734" lon="7.306918901816256"><ele>401.0</ele><time>2026-05-02T07:51:00.999Z</time></trkpt><trkpt lat="44.88581720866705" lon="7.30693339735979"><ele>400.0</ele><time>2026-05-02T07:51:01.999Z</time></trkpt><trkpt lat="44.88574372162584" lon="7.3070277621200725"><ele>399.0</ele><time>2026-05-02T07:51:02.999Z</time></trkpt><trkpt lat="44.885667944903446" lon="7.307111253281565"><ele>398.00000000000006</ele><time>2026-05-02T07:51:03.999Z</time></trkpt><trkpt lat="44.88560744914544" lon="7.307164360618751"><ele>397.0</ele><time>2026-05-02T07:51:04.999Z</time></trkpt><trkpt lat="44.88548018184059" lon="7.307176034131867"><ele>397.0</ele><time>2026-05-02T07:51:06.999Z</time></trkpt><trkpt lat="44.885403140768815" lon="7.307185785544447"><ele>397.0</ele><time>2026-05-02T07:51:07.999Z</time></trkpt><trkpt lat="44.8852808986698" lon="7.307204038823843"><ele>397.0</ele><time>2026-05-02T07:51:08.999Z</time></trkpt><trkpt lat="44.88513907243947" lon="7.307241448393724"><ele>397.0</ele><time>2026-05-02T07:51:09.999Z</time></trkpt><trkpt lat="44.885020693988196" lon="7.3072540145814555"><ele>396.75</ele><time>2026-05-02T07:51:10.999Z</time></trkpt><trkpt lat="44.8848922062082" lon="7.307261895990597"><ele>396.5</ele><time>2026-05-02T07:51:11.999Z</time></trkpt><trkpt lat="44.884767751543066" lon="7.3072782308105015"><ele>396.25</ele><time>2026-05-02T07:51:12.999Z</time></trkpt><trkpt lat="44.884640926742875" lon="7.307264289799718"><ele>396.0</ele><time>2026-05-02T07:51:13.999Z</time></trkpt><trkpt lat="44.8845304638658" lon="7.307292992283649"><ele>396.0</ele><time>2026-05-02T07:51:14.999Z</time></trkpt><trkpt lat="44.88443402195686" lon="7.3072961937781375"><ele>396.0</ele><time>2026-05-02T07:51:15.999Z</time></trkpt><trkpt lat="44.884339263983456" lon="7.30728320205571"><ele>396.0</ele><time>2026-05-02T07:51:16.999Z</time></trkpt><trkpt lat="44.88426117782599" lon="7.3073061658309335"><ele>396.0</ele><time>2026-05-02T07:51:18.999Z</time></trkpt><trkpt lat="44.884177519538596" lon="7.307295550291505"><ele>396.0</ele><time>2026-05-02T07:51:25.999Z</time></trkpt><trkpt lat="44.88409839009425" lon="7.307309706649842"><ele>396.0</ele><time>2026-05-02T07:51:26.999Z</time></trkpt><trkpt lat="44.8839865969036" lon="7.307303646335697"><ele>395.6</ele><time>2026-05-02T07:51:27.999Z</time></trkpt><trkpt lat="44.8838889782889" lon="7.307309577831702"><ele>395.20000000000005</ele><time>2026-05-02T07:51:28.999Z</time></trkpt><trkpt lat="44.88377782406378" lon="7.307316331781245"><ele>394.79999999999995</ele><time>2026-05-02T07:51:29.999Z</time></trkpt><trkpt lat="44.8836655671612" lon="7.307323152731742"><ele>394.4</ele><time>2026-05-02T07:51:30.999Z</time></trkpt><trkpt lat="44.88356692520307" lon="7.307329146407294"><ele>394.0</ele><time>2026-05-02T07:51:31.999Z</time></trkpt><trkpt lat="44.88349456292385" lon="7.307350559704303"><ele>394.0</ele><time>2026-05-02T07:51:32.999Z</time></trkpt><trkpt lat="44.883393594821726" lon="7.3073230264949"><ele>394.0</ele><time>2026-05-02T07:51:34.999Z</time></trkpt><trkpt lat="44.88338137215037" lon="7.307226983884213"><ele>394.0</ele><time>2026-05-02T07:51:35.999Z</time></trkpt><trkpt lat="44.883330285471565" lon="7.3071613346944595"><ele>394.0</ele><time>2026-05-02T07:51:37.999Z</time></trkpt><trkpt lat="44.88323729349174" lon="7.307294659976666"><ele>394.0</ele><time>2026-05-02T07:51:39.999Z</time></trkpt><trkpt lat="44.883134278981366" lon="7.307403141157328"><ele>394.0</ele><time>2026-05-02T07:51:41.999Z</time></trkpt><trkpt lat="44.88303898059515" lon="7.307400623721523"><ele>394.0</ele><time>2026-05-02T07:51:42.999Z</time></trkpt><trkpt lat="44.88293227802687" lon="7.307426584363624"><ele>394.0</ele><time>2026-05-02T07:51:43.999Z</time></trkpt><trkpt lat="44.882817527059814" lon="7.3074556390438445"><ele>394.0</ele><time>2026-05-02T07:51:44.998Z</time></trkpt><trkpt lat="44.882695999959566" lon="7.307491945637132"><ele>394.0</ele><time>2026-05-02T07:51:45.998Z</time></trkpt><trkpt lat="44.882572440152785" lon="7.3075414499509845"><ele>393.83333333333337</ele><time>2026-05-02T07:51:46.998Z</time></trkpt><trkpt lat="44.88247404240644" lon="7.307608063445461"><ele>393.6666666666667</ele><time>2026-05-02T07:51:47.998Z</time></trkpt><trkpt lat="44.882394494514195" lon="7.3076374671917925"><ele>393.5</ele><time>2026-05-02T07:51:48.998Z</time></trkpt><trkpt lat="44.88231255170819" lon="7.307678172126267"><ele>393.33333333333337</ele><time>2026-05-02T07:51:50.998Z</time></trkpt><trkpt lat="44.882287063489684" lon="7.307760685564203"><ele>393.1666666666667</ele><time>2026-05-02T07:51:51.998Z</time></trkpt><trkpt lat="44.88228468964839" lon="7.3078830590297805"><ele>393.0</ele><time>2026-05-02T07:51:52.998Z</time></trkpt><trkpt lat="44.88225539649845" lon="7.308007369850844"><ele>392.79999999999995</ele><time>2026-05-02T07:51:53.998Z</time></trkpt><trkpt lat="44.8822225625002" lon="7.30814303838642"><ele>392.6</ele><time>2026-05-02T07:51:54.998Z</time></trkpt><trkpt lat="44.882178482437304" lon="7.308290437685052"><ele>392.4</ele><time>2026-05-02T07:51:55.998Z</time></trkpt><trkpt lat="44.88213733970091" lon="7.308421162841928"><ele>392.20000000000005</ele><time>2026-05-02T07:51:56.998Z</time></trkpt><trkpt lat="44.88209155079383" lon="7.308555056070713"><ele>392.0</ele><time>2026-05-02T07:51:57.998Z</time></trkpt><trkpt lat="44.882046215544214" lon="7.30869787718439"><ele>392.0</ele><time>2026-05-02T07:51:58.998Z</time></trkpt><trkpt lat="44.882000239754205" lon="7.308845295557347"><ele>392.0</ele><time>2026-05-02T07:51:59.998Z</time></trkpt><trkpt lat="44.88194933618373" lon="7.308998949318046"><ele>392.0</ele><time>2026-05-02T07:52:00.998Z</time></trkpt><trkpt lat="44.88189212895822" lon="7.30915913066582"><ele>392.0</ele><time>2026-05-02T07:52:01.998Z</time></trkpt><trkpt lat="44.88183426104061" lon="7.309307955062968"><ele>391.8</ele><time>2026-05-02T07:52:02.998Z</time></trkpt><trkpt lat="44.88175815229524" lon="7.309436601934202"><ele>391.6</ele><time>2026-05-02T07:52:03.998Z</time></trkpt><trkpt lat="44.88169716159901" lon="7.3095836378637"><ele>391.40000000000003</ele><time>2026-05-02T07:52:04.998Z</time></trkpt><trkpt lat="44.881652681471216" lon="7.309711934208255"><ele>391.20000000000005</ele><time>2026-05-02T07:52:05.998Z</time></trkpt><trkpt lat="44.88163620819338" lon="7.30983942714538"><ele>391.0</ele><time>2026-05-02T07:52:06.998Z</time></trkpt><trkpt lat="44.881620912838095" lon="7.309933245515576"><ele>390.8</ele><time>2026-05-02T07:52:07.998Z</time></trkpt><trkpt lat="44.88162033089462" lon="7.310035265228454"><ele>390.6</ele><time>2026-05-02T07:52:08.998Z</time></trkpt><trkpt lat="44.88159890163961" lon="7.310169015996421"><ele>390.4</ele><time>2026-05-02T07:52:09.998Z</time></trkpt><trkpt lat="44.881615531461755" lon="7.310315663947765"><ele>390.2</ele><time>2026-05-02T07:52:10.998Z</time></trkpt><trkpt lat="44.88160544922134" lon="7.310468451867831"><ele>390.0</ele><time>2026-05-02T07:52:11.998Z</time></trkpt><trkpt lat="44.881594336966835" lon="7.310626400996977"><ele>390.0</ele><time>2026-05-02T07:52:12.998Z</time></trkpt><trkpt lat="44.88156870194927" lon="7.310784122241668"><ele>390.0</ele><time>2026-05-02T07:52:13.998Z</time></trkpt><trkpt lat="44.88157964207486" lon="7.310948719640222"><ele>390.0</ele><time>2026-05-02T07:52:14.998Z</time></trkpt><trkpt lat="44.881567831357884" lon="7.311114279993037"><ele>390.0</ele><time>2026-05-02T07:52:15.998Z</time></trkpt><trkpt lat="44.88155799423501" lon="7.311279763790005"><ele>389.75</ele><time>2026-05-02T07:52:16.998Z</time></trkpt><trkpt lat="44.88154460091886" lon="7.311438493838801"><ele>389.5</ele><time>2026-05-02T07:52:17.998Z</time></trkpt><trkpt lat="44.8815199636836" lon="7.311597569880968"><ele>389.25</ele><time>2026-05-02T07:52:18.998Z</time></trkpt><trkpt lat="44.88150940353394" lon="7.311768527679097"><ele>389.0</ele><time>2026-05-02T07:52:19.998Z</time></trkpt><trkpt lat="44.881519720491426" lon="7.311935373801298"><ele>389.0</ele><time>2026-05-02T07:52:20.998Z</time></trkpt><trkpt lat="44.88151396942888" lon="7.312094568910346"><ele>389.0</ele><time>2026-05-02T07:52:21.998Z</time></trkpt><trkpt lat="44.88150724224642" lon="7.312264482403288"><ele>389.0</ele><time>2026-05-02T07:52:22.998Z</time></trkpt><trkpt lat="44.88150148476215" lon="7.312440652944926"><ele>389.0</ele><time>2026-05-02T07:52:23.998Z</time></trkpt><trkpt lat="44.88149525750556" lon="7.312612085190158"><ele>388.4</ele><time>2026-05-02T07:52:24.998Z</time></trkpt><trkpt lat="44.88149118121786" lon="7.312758577899306"><ele>387.79999999999995</ele><time>2026-05-02T07:52:25.998Z</time></trkpt><trkpt lat="44.88147841099533" lon="7.312911227057295"><ele>387.20000000000005</ele><time>2026-05-02T07:52:26.998Z</time></trkpt><trkpt lat="44.881464418058286" lon="7.31306325292541"><ele>386.6</ele><time>2026-05-02T07:52:27.998Z</time></trkpt><trkpt lat="44.88144146844893" lon="7.3132218917106275"><ele>386.0</ele><time>2026-05-02T07:52:28.998Z</time></trkpt><trkpt lat="44.88141794249228" lon="7.31338776983071"><ele>385.75</ele><time>2026-05-02T07:52:29.998Z</time></trkpt><trkpt lat="44.881389852339964" lon="7.313546138325321"><ele>385.5</ele><time>2026-05-02T07:52:30.998Z</time></trkpt><trkpt lat="44.881354646473135" lon="7.313712464096006"><ele>385.25</ele><time>2026-05-02T07:52:31.997Z</time></trkpt><trkpt lat="44.881327605143845" lon="7.3138679299366745"><ele>385.0</ele><time>2026-05-02T07:52:32.997Z</time></trkpt><trkpt lat="44.88130935223154" lon="7.314019077066568"><ele>385.00000000000006</ele><time>2026-05-02T07:52:33.997Z</time></trkpt><trkpt lat="44.88129705613888" lon="7.3141448869058925"><ele>385.0</ele><time>2026-05-02T07:52:34.997Z</time></trkpt><trkpt lat="44.88128416118014" lon="7.314273617989579"><ele>385.0</ele><time>2026-05-02T07:52:36Z</time></trkpt><trkpt lat="44.88125925315438" lon="7.3143767973769975"><ele>385.0</ele><time>2026-05-02T07:52:37Z</time></trkpt><trkpt lat="44.88126072949757" lon="7.314491920220501"><ele>385.00000000000006</ele><time>2026-05-02T07:52:38Z</time></trkpt><trkpt lat="44.88124952237695" lon="7.314603878648046"><ele>385.0</ele><time>2026-05-02T07:52:44Z</time></trkpt><trkpt lat="44.8814460791274" lon="7.314662486204635"><ele>385.0</ele><time>2026-05-02T07:52:47Z</time></trkpt><trkpt lat="44.8815341419427" lon="7.314636145160319"><ele>385.0</ele><time>2026-05-02T07:52:48Z</time></trkpt><trkpt lat="44.88163335829615" lon="7.314634503390797"><ele>385.0</ele><time>2026-05-02T07:52:49Z</time></trkpt><trkpt lat="44.881744908880464" lon="7.314641541819828"><ele>385.0</ele><time>2026-05-02T07:52:50Z</time></trkpt><trkpt lat="44.88186447586327" lon="7.314648708315257"><ele>385.0</ele><time>2026-05-02T07:52:51Z</time></trkpt><trkpt lat="44.88198429127477" lon="7.314645598288267"><ele>385.0</ele><time>2026-05-02T07:52:52Z</time></trkpt><trkpt lat="44.88212088516717" lon="7.314643156433854"><ele>385.0</ele><time>2026-05-02T07:52:53Z</time></trkpt><trkpt lat="44.8822655154594" lon="7.314642326756128"><ele>385.0</ele><time>2026-05-02T07:52:54Z</time></trkpt><trkpt lat="44.88239515960445" lon="7.314644508108262"><ele>385.0</ele><time>2026-05-02T07:52:55Z</time></trkpt><trkpt lat="44.882515736085836" lon="7.314643816978123"><ele>385.5</ele><time>2026-05-02T07:52:56Z</time></trkpt><trkpt lat="44.882626520875945" lon="7.314647983267728"><ele>386.0</ele><time>2026-05-02T07:52:57Z</time></trkpt><trkpt lat="44.88273318624193" lon="7.314649685828457"><ele>386.5</ele><time>2026-05-02T07:52:58Z</time></trkpt><trkpt lat="44.88284611399251" lon="7.314652386038087"><ele>387.0</ele><time>2026-05-02T07:52:59Z</time></trkpt><trkpt lat="44.882968189919374" lon="7.314648872781663"><ele>387.0</ele><time>2026-05-02T07:52:59.999Z</time></trkpt><trkpt lat="44.88308994782434" lon="7.314657418207766"><ele>387.0</ele><time>2026-05-02T07:53:00.999Z</time></trkpt><trkpt lat="44.883210047833444" lon="7.314664027394414"><ele>387.0</ele><time>2026-05-02T07:53:01.999Z</time></trkpt><trkpt lat="44.883326893500815" lon="7.314663101316135"><ele>387.0</ele><time>2026-05-02T07:53:02.999Z</time></trkpt><trkpt lat="44.883448202036675" lon="7.314666735873707"><ele>386.8</ele><time>2026-05-02T07:53:03.999Z</time></trkpt><trkpt lat="44.88355428617702" lon="7.314671756224106"><ele>386.6</ele><time>2026-05-02T07:53:04.999Z</time></trkpt><trkpt lat="44.88365372072847" lon="7.314670604035801"><ele>386.40000000000003</ele><time>2026-05-02T07:53:05.999Z</time></trkpt><trkpt lat="44.88374729250696" lon="7.3146726291953374"><ele>386.20000000000005</ele><time>2026-05-02T07:53:06.999Z</time></trkpt><trkpt lat="44.883850080012735" lon="7.31467211090158"><ele>386.0</ele><time>2026-05-02T07:53:07.999Z</time></trkpt><trkpt lat="44.88395040509777" lon="7.314672873747041"><ele>386.0</ele><time>2026-05-02T07:53:08.999Z</time></trkpt><trkpt lat="44.884040041005484" lon="7.314669209753424"><ele>386.0</ele><time>2026-05-02T07:53:09.999Z</time></trkpt><trkpt lat="44.88411746907296" lon="7.314665190884903"><ele>386.0</ele><time>2026-05-02T07:53:10.999Z</time></trkpt><trkpt lat="44.88421379321722" lon="7.314673135942814"><ele>386.0</ele><time>2026-05-02T07:53:12.999Z</time></trkpt><trkpt lat="44.884287263925316" lon="7.314675866698952"><ele>386.0</ele><time>2026-05-02T07:53:15.999Z</time></trkpt><trkpt lat="44.88415307115154" lon="7.314643436180631"><ele>386.0</ele><time>2026-05-02T07:53:25.999Z</time></trkpt><trkpt lat="44.88410258865807" lon="7.31453419103898"><ele>386.0</ele><time>2026-05-02T07:53:28.999Z</time></trkpt><trkpt lat="44.8841156756354" lon="7.314430975693874"><ele>386.0</ele><time>2026-05-02T07:53:29.999Z</time></trkpt><trkpt lat="44.884137409541374" lon="7.3143223746503585"><ele>386.0</ele><time>2026-05-02T07:53:31.999Z</time></trkpt><trkpt lat="44.88425425879933" lon="7.314303053208418"><ele>386.0</ele><time>2026-05-02T07:54:13.998Z</time></trkpt><trkpt lat="44.884116508095154" lon="7.314238537174472"><ele>385.99999999999994</ele><time>2026-05-02T08:14:02Z</time></trkpt><trkpt lat="44.88421118746974" lon="7.31422217509265"><ele>386.0</ele><time>2026-05-02T08:14:09Z</time></trkpt><trkpt lat="44.88417367757214" lon="7.3143072421410915"><ele>386.0</ele><time>2026-05-02T08:17:48Z</time></trkpt><trkpt lat="44.88410981055461" lon="7.314331512002689"><ele>386.0</ele><time>2026-05-02T08:17:51Z</time></trkpt><trkpt lat="44.88406653701837" lon="7.314400604043957"><ele>385.99999999999994</ele><time>2026-05-02T08:17:54Z</time></trkpt><trkpt lat="44.884075930624284" lon="7.314527265156592"><ele>386.0</ele><time>2026-05-02T08:17:56Z</time></trkpt><trkpt lat="44.884053560578494" lon="7.314624468999794"><ele>386.0</ele><time>2026-05-02T08:18:02Z</time></trkpt><trkpt lat="44.88393434850608" lon="7.314618347853651"><ele>386.0</ele><time>2026-05-02T08:18:04Z</time></trkpt><trkpt lat="44.883862238709824" lon="7.314613885987754"><ele>386.0</ele><time>2026-05-02T08:18:05Z</time></trkpt><trkpt lat="44.883774120942185" lon="7.314617756632658"><ele>386.0</ele><time>2026-05-02T08:18:06Z</time></trkpt><trkpt lat="44.88367384573191" lon="7.314617726597007"><ele>386.0</ele><time>2026-05-02T08:18:07Z</time></trkpt><trkpt lat="44.88357145713059" lon="7.314614658926911"><ele>386.0</ele><time>2026-05-02T08:18:08Z</time></trkpt><trkpt lat="44.88347464154008" lon="7.314613120437989"><ele>386.0</ele><time>2026-05-02T08:18:09Z</time></trkpt><trkpt lat="44.88337920741929" lon="7.314611143494922"><ele>386.0</ele><time>2026-05-02T08:18:10Z</time></trkpt><trkpt lat="44.8832778675228" lon="7.314599275909725"><ele>386.0</ele><time>2026-05-02T08:18:11Z</time></trkpt><trkpt lat="44.8831667136336" lon="7.3146147906934225"><ele>386.0</ele><time>2026-05-02T08:18:12Z</time></trkpt><trkpt lat="44.88305646142927" lon="7.314596615673837"><ele>386.25</ele><time>2026-05-02T08:18:13Z</time></trkpt><trkpt lat="44.88293686556619" lon="7.314616398874525"><ele>386.5</ele><time>2026-05-02T08:18:14Z</time></trkpt><trkpt lat="44.882828028935485" lon="7.314614472190619"><ele>386.75</ele><time>2026-05-02T08:18:15Z</time></trkpt><trkpt lat="44.88271363955565" lon="7.3145891794092135"><ele>387.0</ele><time>2026-05-02T08:18:16Z</time></trkpt><trkpt lat="44.88260544998937" lon="7.314587074350138"><ele>386.5</ele><time>2026-05-02T08:18:17Z</time></trkpt><trkpt lat="44.882463707918745" lon="7.314584316459031"><ele>386.0</ele><time>2026-05-02T08:18:18Z</time></trkpt><trkpt lat="44.88234312588329" lon="7.314581970331983"><ele>385.5</ele><time>2026-05-02T08:18:19Z</time></trkpt><trkpt lat="44.882216802752865" lon="7.314614509003599"><ele>385.0</ele><time>2026-05-02T08:18:20Z</time></trkpt><trkpt lat="44.882089521440115" lon="7.314615530969115"><ele>385.0</ele><time>2026-05-02T08:18:21Z</time></trkpt><trkpt lat="44.88195022671452" lon="7.314614963493553"><ele>385.0</ele><time>2026-05-02T08:18:22Z</time></trkpt><trkpt lat="44.881810776500586" lon="7.314614994390689"><ele>385.0</ele><time>2026-05-02T08:18:23Z</time></trkpt><trkpt lat="44.88168510790081" lon="7.314610367049274"><ele>385.0</ele><time>2026-05-02T08:18:24Z</time></trkpt><trkpt lat="44.881563392818165" lon="7.314607339136992"><ele>385.0</ele><time>2026-05-02T08:18:25Z</time></trkpt><trkpt lat="44.88143059928446" lon="7.314604999028442"><ele>385.0</ele><time>2026-05-02T08:18:26Z</time></trkpt><trkpt lat="44.88127646425504" lon="7.314606326616021"><ele>385.0</ele><time>2026-05-02T08:18:27Z</time></trkpt><trkpt lat="44.88113052235771" lon="7.314604546897684"><ele>385.0</ele><time>2026-05-02T08:18:28Z</time></trkpt><trkpt lat="44.88100390027786" lon="7.314601400126787"><ele>385.2</ele><time>2026-05-02T08:18:29Z</time></trkpt><trkpt lat="44.880892429361474" lon="7.314601489071165"><ele>385.4</ele><time>2026-05-02T08:18:30Z</time></trkpt><trkpt lat="44.88079438664501" lon="7.314600692069285"><ele>385.6</ele><time>2026-05-02T08:18:31Z</time></trkpt><trkpt lat="44.88071127957342" lon="7.314597114717848"><ele>385.8</ele><time>2026-05-02T08:18:32Z</time></trkpt><trkpt lat="44.88059594487255" lon="7.31459860547423"><ele>386.0</ele><time>2026-05-02T08:18:33.999Z</time></trkpt><trkpt lat="44.880459656344684" lon="7.314573282146035"><ele>386.0</ele><time>2026-05-02T08:18:35.999Z</time></trkpt><trkpt lat="44.88036691763885" lon="7.314546048869767"><ele>386.0</ele><time>2026-05-02T08:18:36.999Z</time></trkpt><trkpt lat="44.880266963302624" lon="7.314465556703275"><ele>386.0</ele><time>2026-05-02T08:18:37.999Z</time></trkpt><trkpt lat="44.88014671767894" lon="7.314487771612398"><ele>386.0</ele><time>2026-05-02T08:18:38.999Z</time></trkpt><trkpt lat="44.880045105937725" lon="7.314408223971099"><ele>386.0</ele><time>2026-05-02T08:18:39.999Z</time></trkpt><trkpt lat="44.879945004442334" lon="7.314313940049682"><ele>385.75</ele><time>2026-05-02T08:18:40.999Z</time></trkpt><trkpt lat="44.87985237071976" lon="7.314228470069719"><ele>385.5</ele><time>2026-05-02T08:18:41.999Z</time></trkpt><trkpt lat="44.87975474777754" lon="7.3141514175518285"><ele>385.25</ele><time>2026-05-02T08:18:42.999Z</time></trkpt><trkpt lat="44.879644974138415" lon="7.31406908376692"><ele>385.0</ele><time>2026-05-02T08:18:43.999Z</time></trkpt><trkpt lat="44.87953028217701" lon="7.313980673752985"><ele>385.0</ele><time>2026-05-02T08:18:44.999Z</time></trkpt><trkpt lat="44.87943111674983" lon="7.313903771754651"><ele>385.0</ele><time>2026-05-02T08:18:45.999Z</time></trkpt><trkpt lat="44.87932796120151" lon="7.3138238522042105"><ele>385.0</ele><time>2026-05-02T08:18:46.999Z</time></trkpt><trkpt lat="44.87920879240752" lon="7.313730190976703"><ele>385.0</ele><time>2026-05-02T08:18:47.999Z</time></trkpt><trkpt lat="44.87908120442452" lon="7.313632698747911"><ele>385.0</ele><time>2026-05-02T08:18:48.999Z</time></trkpt><trkpt lat="44.878966657126" lon="7.313550313553618"><ele>385.0</ele><time>2026-05-02T08:18:49.999Z</time></trkpt><trkpt lat="44.878856698736826" lon="7.313479305435515"><ele>385.0</ele><time>2026-05-02T08:18:50.999Z</time></trkpt><trkpt lat="44.878733979505355" lon="7.313416235497903"><ele>385.0</ele><time>2026-05-02T08:18:51.999Z</time></trkpt><trkpt lat="44.878594385466414" lon="7.313360148301627"><ele>385.0</ele><time>2026-05-02T08:18:52.999Z</time></trkpt><trkpt lat="44.87846546396796" lon="7.313316821468257"><ele>385.0</ele><time>2026-05-02T08:18:53.999Z</time></trkpt><trkpt lat="44.87834026162594" lon="7.313279108931297"><ele>385.0</ele><time>2026-05-02T08:18:54.999Z</time></trkpt><trkpt lat="44.87821722363513" lon="7.313239463673513"><ele>385.0</ele><time>2026-05-02T08:18:55.999Z</time></trkpt><trkpt lat="44.878098993760354" lon="7.313198844276525"><ele>385.0</ele><time>2026-05-02T08:18:56.999Z</time></trkpt><trkpt lat="44.8779826294955" lon="7.313156292893071"><ele>385.0</ele><time>2026-05-02T08:18:57.999Z</time></trkpt><trkpt lat="44.87787187519824" lon="7.313120338448658"><ele>385.0</ele><time>2026-05-02T08:18:58.999Z</time></trkpt><trkpt lat="44.8777732044264" lon="7.3130880793757385"><ele>385.0</ele><time>2026-05-02T08:18:59.999Z</time></trkpt><trkpt lat="44.87768289972247" lon="7.313057468822662"><ele>385.0</ele><time>2026-05-02T08:19:00.999Z</time></trkpt><trkpt lat="44.87760452711434" lon="7.313025502648606"><ele>384.8</ele><time>2026-05-02T08:19:01.999Z</time></trkpt><trkpt lat="44.87752996381771" lon="7.312991236275298"><ele>384.6</ele><time>2026-05-02T08:19:02.999Z</time></trkpt><trkpt lat="44.8774532346333" lon="7.312953406062656"><ele>384.4</ele><time>2026-05-02T08:19:03.999Z</time></trkpt><trkpt lat="44.87737052051207" lon="7.31290336977127"><ele>384.2</ele><time>2026-05-02T08:19:04.999Z</time></trkpt><trkpt lat="44.87728882241057" lon="7.312836111434818"><ele>384.0</ele><time>2026-05-02T08:19:05.999Z</time></trkpt><trkpt lat="44.8772006372291" lon="7.312750504739963"><ele>384.0</ele><time>2026-05-02T08:19:06.999Z</time></trkpt><trkpt lat="44.87710599696414" lon="7.312652899966991"><ele>384.0</ele><time>2026-05-02T08:19:07.999Z</time></trkpt><trkpt lat="44.87701604985423" lon="7.312558876802294"><ele>384.0</ele><time>2026-05-02T08:19:08.999Z</time></trkpt><trkpt lat="44.87693292405001" lon="7.312474304149654"><ele>384.0</ele><time>2026-05-02T08:19:09.999Z</time></trkpt><trkpt lat="44.87685271169054" lon="7.312395875522403"><ele>384.0</ele><time>2026-05-02T08:19:10.999Z</time></trkpt><trkpt lat="44.876775548452045" lon="7.312318632765329"><ele>383.6</ele><time>2026-05-02T08:19:11.999Z</time></trkpt><trkpt lat="44.8766923161063" lon="7.312238029184546"><ele>383.2</ele><time>2026-05-02T08:19:12.999Z</time></trkpt><trkpt lat="44.87660408139615" lon="7.3121559349896526"><ele>382.8</ele><time>2026-05-02T08:19:13.999Z</time></trkpt><trkpt lat="44.87651505603928" lon="7.312078731420573"><ele>382.40000000000003</ele><time>2026-05-02T08:19:14.999Z</time></trkpt><trkpt lat="44.87642714592473" lon="7.3120031643029435"><ele>382.0</ele><time>2026-05-02T08:19:15.999Z</time></trkpt><trkpt lat="44.8763374690608" lon="7.3119209696558425"><ele>382.0</ele><time>2026-05-02T08:19:16.999Z</time></trkpt><trkpt lat="44.87624216407126" lon="7.311839021287458"><ele>382.0</ele><time>2026-05-02T08:19:17.999Z</time></trkpt><trkpt lat="44.87614893526721" lon="7.3117655428410355"><ele>382.0</ele><time>2026-05-02T08:19:18.999Z</time></trkpt><trkpt lat="44.87605111261422" lon="7.3116915240078315"><ele>382.0</ele><time>2026-05-02T08:19:19.999Z</time></trkpt><trkpt lat="44.87595690789349" lon="7.311598492927255"><ele>382.0</ele><time>2026-05-02T08:19:20.999Z</time></trkpt><trkpt lat="44.87583670005269" lon="7.311532066206413"><ele>382.0</ele><time>2026-05-02T08:19:21.998Z</time></trkpt><trkpt lat="44.87574161398952" lon="7.311452216321001"><ele>382.0</ele><time>2026-05-02T08:19:22.998Z</time></trkpt><trkpt lat="44.87564020613055" lon="7.311367437423196"><ele>382.0</ele><time>2026-05-02T08:19:23.998Z</time></trkpt><trkpt lat="44.87553052673221" lon="7.311271258529401"><ele>382.0</ele><time>2026-05-02T08:19:24.998Z</time></trkpt><trkpt lat="44.87542129216597" lon="7.3111716208058235"><ele>382.0</ele><time>2026-05-02T08:19:25.998Z</time></trkpt><trkpt lat="44.8753237186781" lon="7.311072218244056"><ele>382.0</ele><time>2026-05-02T08:19:26.998Z</time></trkpt><trkpt lat="44.87523284606709" lon="7.310970904638961"><ele>382.0</ele><time>2026-05-02T08:19:27.998Z</time></trkpt><trkpt lat="44.875149411389735" lon="7.310870822229742"><ele>382.0</ele><time>2026-05-02T08:19:28.998Z</time></trkpt><trkpt lat="44.8750531410832" lon="7.310749820175839"><ele>381.5</ele><time>2026-05-02T08:19:29.998Z</time></trkpt><trkpt lat="44.87494414562029" lon="7.310605052173231"><ele>381.0</ele><time>2026-05-02T08:19:30.998Z</time></trkpt><trkpt lat="44.874841005708355" lon="7.3104592798959525"><ele>380.5</ele><time>2026-05-02T08:19:31.998Z</time></trkpt><trkpt lat="44.87474866435317" lon="7.310313380662886"><ele>380.0</ele><time>2026-05-02T08:19:32.998Z</time></trkpt><trkpt lat="44.87466824338777" lon="7.310180223626723"><ele>380.0</ele><time>2026-05-02T08:19:33.998Z</time></trkpt><trkpt lat="44.87459443033823" lon="7.3100589755935665"><ele>380.0</ele><time>2026-05-02T08:19:34.998Z</time></trkpt><trkpt lat="44.87454576839256" lon="7.309924942076126"><ele>380.0</ele><time>2026-05-02T08:19:35.998Z</time></trkpt><trkpt lat="44.874486254907794" lon="7.309807551329667"><ele>380.0</ele><time>2026-05-02T08:19:36.998Z</time></trkpt><trkpt lat="44.874416575274545" lon="7.30969918814856"><ele>380.0</ele><time>2026-05-02T08:19:37.998Z</time></trkpt><trkpt lat="44.874360060636825" lon="7.3095735898903005"><ele>380.4</ele><time>2026-05-02T08:19:38.998Z</time></trkpt><trkpt lat="44.87431966652937" lon="7.309434884118846"><ele>380.8</ele><time>2026-05-02T08:19:39.998Z</time></trkpt><trkpt lat="44.87427015093518" lon="7.309296398592645"><ele>381.20000000000005</ele><time>2026-05-02T08:19:40.998Z</time></trkpt><trkpt lat="44.87422604489502" lon="7.309157786691733"><ele>381.6</ele><time>2026-05-02T08:19:41.998Z</time></trkpt><trkpt lat="44.87419041164773" lon="7.3090376586505466"><ele>382.0</ele><time>2026-05-02T08:19:42.998Z</time></trkpt><trkpt lat="44.87416084667648" lon="7.308932061410796"><ele>382.5</ele><time>2026-05-02T08:19:43.998Z</time></trkpt><trkpt lat="44.87413498351271" lon="7.308839304408662"><ele>383.0</ele><time>2026-05-02T08:19:44.998Z</time></trkpt><trkpt lat="44.8741084137597" lon="7.308749447840434"><ele>383.5</ele><time>2026-05-02T08:19:45.998Z</time></trkpt><trkpt lat="44.87407909501933" lon="7.308651045183977"><ele>384.0</ele><time>2026-05-02T08:19:46.998Z</time></trkpt><trkpt lat="44.874044340124314" lon="7.308534397356489"><ele>384.50000000000006</ele><time>2026-05-02T08:19:47.998Z</time></trkpt><trkpt lat="44.87400811763263" lon="7.30840710733929"><ele>385.0</ele><time>2026-05-02T08:19:48.998Z</time></trkpt><trkpt lat="44.87398061467555" lon="7.308267492051449"><ele>385.0</ele><time>2026-05-02T08:19:50Z</time></trkpt><trkpt lat="44.873973128927354" lon="7.308109780032629"><ele>385.0</ele><time>2026-05-02T08:19:51Z</time></trkpt><trkpt lat="44.87396160660703" lon="7.307973679400124"><ele>385.0</ele><time>2026-05-02T08:19:52Z</time></trkpt><trkpt lat="44.87394953684781" lon="7.307828426555185"><ele>385.0</ele><time>2026-05-02T08:19:53Z</time></trkpt><trkpt lat="44.87393818318047" lon="7.3076914398129365"><ele>385.0</ele><time>2026-05-02T08:19:54Z</time></trkpt><trkpt lat="44.87392667207113" lon="7.307552553413881"><ele>385.00000000000006</ele><time>2026-05-02T08:19:55Z</time></trkpt><trkpt lat="44.873914337925605" lon="7.3074053361927245"><ele>385.0</ele><time>2026-05-02T08:19:56Z</time></trkpt><trkpt lat="44.87390363196158" lon="7.307281889006509"><ele>385.0</ele><time>2026-05-02T08:19:57Z</time></trkpt><trkpt lat="44.87389167972323" lon="7.307147731316851"><ele>385.0</ele><time>2026-05-02T08:19:58Z</time></trkpt><trkpt lat="44.87387969984416" lon="7.307025095209548"><ele>385.00000000000006</ele><time>2026-05-02T08:19:59Z</time></trkpt><trkpt lat="44.873859702407664" lon="7.306932271822803"><ele>385.0</ele><time>2026-05-02T08:20:00Z</time></trkpt><trkpt lat="44.8738408370698" lon="7.3068432547868065"><ele>385.0</ele><time>2026-05-02T08:20:01Z</time></trkpt><trkpt lat="44.873830321305" lon="7.306660403326336"><ele>385.0</ele><time>2026-05-02T08:20:03Z</time></trkpt><trkpt lat="44.87381697739564" lon="7.306560949996561"><ele>385.0</ele><time>2026-05-02T08:20:04Z</time></trkpt><trkpt lat="44.87374499830487" lon="7.306423692426038"><ele>385.0</ele><time>2026-05-02T08:20:06Z</time></trkpt><trkpt lat="44.873627793826515" lon="7.306441226012622"><ele>385.0</ele><time>2026-05-02T08:20:07Z</time></trkpt><trkpt lat="44.87353656946005" lon="7.306428617203667"><ele>385.0</ele><time>2026-05-02T08:20:08Z</time></trkpt><trkpt lat="44.87343952495957" lon="7.3063949655040945"><ele>385.0</ele><time>2026-05-02T08:20:09Z</time></trkpt><trkpt lat="44.873347698601435" lon="7.306409349089645"><ele>385.0</ele><time>2026-05-02T08:20:10Z</time></trkpt><trkpt lat="44.87325340937383" lon="7.306358352680261"><ele>385.0</ele><time>2026-05-02T08:20:11Z</time></trkpt><trkpt lat="44.87316572419013" lon="7.306337654662047"><ele>385.0</ele><time>2026-05-02T08:20:12Z</time></trkpt><trkpt lat="44.87308460552877" lon="7.3063163412735355"><ele>384.8</ele><time>2026-05-02T08:20:13Z</time></trkpt><trkpt lat="44.873006865844154" lon="7.306282776926957"><ele>384.6</ele><time>2026-05-02T08:20:14Z</time></trkpt><trkpt lat="44.8729264648116" lon="7.306228111140943"><ele>384.4</ele><time>2026-05-02T08:20:15Z</time></trkpt><trkpt lat="44.87283850862208" lon="7.3061741888081215"><ele>384.2</ele><time>2026-05-02T08:20:16Z</time></trkpt><trkpt lat="44.872743282122315" lon="7.3061075811819105"><ele>384.0</ele><time>2026-05-02T08:20:17Z</time></trkpt><trkpt lat="44.872666610740076" lon="7.306006788955029"><ele>384.2</ele><time>2026-05-02T08:20:18Z</time></trkpt><trkpt lat="44.872600184460964" lon="7.305901689338482"><ele>384.4</ele><time>2026-05-02T08:20:19Z</time></trkpt><trkpt lat="44.87254762244317" lon="7.305787560436594"><ele>384.6</ele><time>2026-05-02T08:20:20Z</time></trkpt><trkpt lat="44.87250029851322" lon="7.30564561537108"><ele>384.8</ele><time>2026-05-02T08:20:21Z</time></trkpt><trkpt lat="44.87245866784608" lon="7.305498714055847"><ele>385.0</ele><time>2026-05-02T08:20:22Z</time></trkpt><trkpt lat="44.872427355091055" lon="7.30536799566014"><ele>385.0</ele><time>2026-05-02T08:20:23Z</time></trkpt><trkpt lat="44.87239551965351" lon="7.305234163298412"><ele>385.0</ele><time>2026-05-02T08:20:24Z</time></trkpt><trkpt lat="44.87235392469464" lon="7.3050921115365375"><ele>385.0</ele><time>2026-05-02T08:20:25Z</time></trkpt><trkpt lat="44.87231638871624" lon="7.304917896107662"><ele>385.0</ele><time>2026-05-02T08:20:26Z</time></trkpt><trkpt lat="44.87225354536405" lon="7.304732566734363"><ele>385.5</ele><time>2026-05-02T08:20:27Z</time></trkpt><trkpt lat="44.87219080355978" lon="7.304555324301339"><ele>386.0</ele><time>2026-05-02T08:20:28Z</time></trkpt><trkpt lat="44.87213179778821" lon="7.304395318531345"><ele>386.5</ele><time>2026-05-02T08:20:29Z</time></trkpt><trkpt lat="44.8720439864332" lon="7.304262839298442"><ele>387.0</ele><time>2026-05-02T08:20:30Z</time></trkpt><trkpt lat="44.871979589322066" lon="7.304128710701865"><ele>387.0</ele><time>2026-05-02T08:20:31Z</time></trkpt><trkpt lat="44.87191023135329" lon="7.30401881850674"><ele>387.0</ele><time>2026-05-02T08:20:32Z</time></trkpt><trkpt lat="44.87183573757929" lon="7.30392750302617"><ele>387.0</ele><time>2026-05-02T08:20:33Z</time></trkpt><trkpt lat="44.87175369195101" lon="7.303834914369302"><ele>387.0</ele><time>2026-05-02T08:20:34Z</time></trkpt><trkpt lat="44.871662071019216" lon="7.303748339029304"><ele>387.0</ele><time>2026-05-02T08:20:35Z</time></trkpt><trkpt lat="44.8715709036053" lon="7.303687432107752"><ele>387.20000000000005</ele><time>2026-05-02T08:20:36Z</time></trkpt><trkpt lat="44.8714833304296" lon="7.303639996529447"><ele>387.4</ele><time>2026-05-02T08:20:37Z</time></trkpt><trkpt lat="44.871397377969004" lon="7.303562641363109"><ele>387.6</ele><time>2026-05-02T08:20:38Z</time></trkpt><trkpt lat="44.871335785979014" lon="7.3034386003763565"><ele>387.79999999999995</ele><time>2026-05-02T08:20:38.999Z</time></trkpt><trkpt lat="44.87127680503194" lon="7.30329868934624"><ele>388.0</ele><time>2026-05-02T08:20:39.999Z</time></trkpt><trkpt lat="44.87124071347767" lon="7.303141824136019"><ele>388.0</ele><time>2026-05-02T08:20:40.999Z</time></trkpt><trkpt lat="44.87120156507029" lon="7.302992604269837"><ele>388.0</ele><time>2026-05-02T08:20:41.999Z</time></trkpt><trkpt lat="44.871165822256586" lon="7.302856519062146"><ele>388.0</ele><time>2026-05-02T08:20:42.999Z</time></trkpt><trkpt lat="44.871130422065534" lon="7.302718666623454"><ele>388.0</ele><time>2026-05-02T08:20:43.999Z</time></trkpt><trkpt lat="44.87109223819845" lon="7.302569658347173"><ele>388.0</ele><time>2026-05-02T08:20:44.999Z</time></trkpt><trkpt lat="44.871051794528995" lon="7.302412272513959"><ele>388.0</ele><time>2026-05-02T08:20:45.999Z</time></trkpt><trkpt lat="44.87101214590224" lon="7.302260261797383"><ele>388.0</ele><time>2026-05-02T08:20:46.999Z</time></trkpt><trkpt lat="44.87097173364137" lon="7.302114187195902"><ele>388.0</ele><time>2026-05-02T08:20:47.999Z</time></trkpt><trkpt lat="44.87092846544864" lon="7.301963854790594"><ele>388.0</ele><time>2026-05-02T08:20:48.999Z</time></trkpt><trkpt lat="44.87088573256832" lon="7.30182521363576"><ele>388.0</ele><time>2026-05-02T08:20:49.999Z</time></trkpt><trkpt lat="44.870839137904476" lon="7.301678429963356"><ele>389.00000000000006</ele><time>2026-05-02T08:20:50.999Z</time></trkpt><trkpt lat="44.87078389029285" lon="7.301554092327015"><ele>390.0</ele><time>2026-05-02T08:20:51.999Z</time></trkpt><trkpt lat="44.87074268728044" lon="7.301436744451053"><ele>391.0</ele><time>2026-05-02T08:20:52.999Z</time></trkpt><trkpt lat="44.8707090827583" lon="7.301334791338207"><ele>392.0</ele><time>2026-05-02T08:20:53.999Z</time></trkpt><trkpt lat="44.87067323149611" lon="7.30125101991597"><ele>393.00000000000006</ele><time>2026-05-02T08:20:54.999Z</time></trkpt><trkpt lat="44.8706457169221" lon="7.301114369131446"><ele>394.0</ele><time>2026-05-02T08:20:56.999Z</time></trkpt><trkpt lat="44.87074147085912" lon="7.301055517958847"><ele>394.6666666666667</ele><time>2026-05-02T08:20:58.999Z</time></trkpt><trkpt lat="44.870842051301494" lon="7.301043974195745"><ele>395.33333333333337</ele><time>2026-05-02T08:20:59.999Z</time></trkpt><trkpt lat="44.87092052236758" lon="7.301028783547249"><ele>396.0</ele><time>2026-05-02T08:21:00.999Z</time></trkpt><trkpt lat="44.87098308876013" lon="7.300952561501213"><ele>396.66666666666663</ele><time>2026-05-02T08:21:02.999Z</time></trkpt><trkpt lat="44.87098063455151" lon="7.300852139937575"><ele>397.3333333333333</ele><time>2026-05-02T08:21:03.999Z</time></trkpt><trkpt lat="44.87094874351142" lon="7.300736435867168"><ele>398.0</ele><time>2026-05-02T08:21:04.999Z</time></trkpt><trkpt lat="44.87092648272804" lon="7.300600056717077"><ele>403.0</ele><time>2026-05-02T08:21:05.999Z</time></trkpt><trkpt lat="44.87098584968093" lon="7.300466456127114"><ele>408.0</ele><time>2026-05-02T08:21:06.999Z</time></trkpt><trkpt lat="44.87103077057893" lon="7.300312267549086"><ele>413.0</ele><time>2026-05-02T08:21:07.999Z</time></trkpt><trkpt lat="44.8711006524601" lon="7.300153868043042"><ele>418.0</ele><time>2026-05-02T08:21:08.999Z</time></trkpt><trkpt lat="44.871192137621115" lon="7.2999927192004055"><ele>418.0</ele><time>2026-05-02T08:21:09.999Z</time></trkpt><trkpt lat="44.87126717628831" lon="7.29981319074436"><ele>418.0</ele><time>2026-05-02T08:21:10.999Z</time></trkpt><trkpt lat="44.871358198238006" lon="7.299673908744251"><ele>418.0</ele><time>2026-05-02T08:21:11.999Z</time></trkpt><trkpt lat="44.87142467919444" lon="7.299536713257077"><ele>418.0</ele><time>2026-05-02T08:21:12.999Z</time></trkpt><trkpt lat="44.871485540153785" lon="7.299395840683923"><ele>419.5</ele><time>2026-05-02T08:21:13.999Z</time></trkpt><trkpt lat="44.871549937370126" lon="7.299252157629297"><ele>421.0</ele><time>2026-05-02T08:21:14.999Z</time></trkpt><trkpt lat="44.87162377866201" lon="7.2991058721756445"><ele>422.5</ele><time>2026-05-02T08:21:15.999Z</time></trkpt><trkpt lat="44.87170422207449" lon="7.298955694996856"><ele>424.0</ele><time>2026-05-02T08:21:16.999Z</time></trkpt><trkpt lat="44.87177529080721" lon="7.298803921354317"><ele>427.5</ele><time>2026-05-02T08:21:17.999Z</time></trkpt><trkpt lat="44.871806777171145" lon="7.298634040346399"><ele>431.0</ele><time>2026-05-02T08:21:18.999Z</time></trkpt><trkpt lat="44.87185742202669" lon="7.298486396182234"><ele>434.5</ele><time>2026-05-02T08:21:19.999Z</time></trkpt><trkpt lat="44.871875116682475" lon="7.2983337716339864"><ele>438.0</ele><time>2026-05-02T08:21:20.999Z</time></trkpt><trkpt lat="44.87187384615868" lon="7.298186690296771"><ele>437.59999999999997</ele><time>2026-05-02T08:21:21.999Z</time></trkpt><trkpt lat="44.871798705845386" lon="7.298041764737577"><ele>437.19999999999993</ele><time>2026-05-02T08:21:22.999Z</time></trkpt><trkpt lat="44.87173434123579" lon="7.297920429543513"><ele>436.8</ele><time>2026-05-02T08:21:23.999Z</time></trkpt><trkpt lat="44.871665878137414" lon="7.2977906317114645"><ele>436.4</ele><time>2026-05-02T08:21:24.999Z</time></trkpt><trkpt lat="44.87161395276388" lon="7.297669738491915"><ele>436.0</ele><time>2026-05-02T08:21:25.999Z</time></trkpt><trkpt lat="44.87158175594276" lon="7.297551938379172"><ele>436.00000000000006</ele><time>2026-05-02T08:21:26.998Z</time></trkpt><trkpt lat="44.87156728495163" lon="7.297439684898823"><ele>436.0</ele><time>2026-05-02T08:21:27.998Z</time></trkpt><trkpt lat="44.87160123917701" lon="7.29733021362441"><ele>436.0</ele><time>2026-05-02T08:21:28.998Z</time></trkpt><trkpt lat="44.87162104606634" lon="7.29719400637544"><ele>436.0</ele><time>2026-05-02T08:21:30.998Z</time></trkpt><trkpt lat="44.871649890548795" lon="7.297053203923954"><ele>436.00000000000006</ele><time>2026-05-02T08:21:32.998Z</time></trkpt><trkpt lat="44.87166200929793" lon="7.296949978305416"><ele>436.0</ele><time>2026-05-02T08:21:33.998Z</time></trkpt><trkpt lat="44.871708726012805" lon="7.296826801416878"><ele>437.1666666666667</ele><time>2026-05-02T08:21:35.998Z</time></trkpt><trkpt lat="44.87172049189775" lon="7.296712565131005"><ele>438.33333333333337</ele><time>2026-05-02T08:21:38.998Z</time></trkpt><trkpt lat="44.871756298410176" lon="7.296623248516736"><ele>439.5</ele><time>2026-05-02T08:21:42.998Z</time></trkpt><trkpt lat="44.87185713976309" lon="7.2966160313490604"><ele>440.66666666666663</ele><time>2026-05-02T08:37:28.999Z</time></trkpt><trkpt lat="44.87192001572086" lon="7.296562050106272"><ele>441.8333333333333</ele><time>2026-05-02T08:37:29.999Z</time></trkpt><trkpt lat="44.87198296734668" lon="7.2965047566794095"><ele>443.0</ele><time>2026-05-02T08:37:30.999Z</time></trkpt><trkpt lat="44.87204815798026" lon="7.296444551823226"><ele>444.79999999999995</ele><time>2026-05-02T08:37:31.999Z</time></trkpt><trkpt lat="44.872018602178784" lon="7.296263255029362"><ele>446.59999999999997</ele><time>2026-05-02T08:37:32.999Z</time></trkpt><trkpt lat="44.872097940297714" lon="7.2961193105451265"><ele>448.40000000000003</ele><time>2026-05-02T08:37:34.999Z</time></trkpt><trkpt lat="44.872189392855404" lon="7.296054881470204"><ele>450.20000000000005</ele><time>2026-05-02T08:37:35.999Z</time></trkpt><trkpt lat="44.872259958669275" lon="7.296053715425299"><ele>452.0</ele><time>2026-05-02T08:37:36.999Z</time></trkpt><trkpt lat="44.87236731462983" lon="7.296037611766083"><ele>452.0</ele><time>2026-05-02T08:37:38.999Z</time></trkpt><trkpt lat="44.87242463878217" lon="7.2959908399709175"><ele>452.0</ele><time>2026-05-02T08:37:40.999Z</time></trkpt><trkpt lat="44.87245954639065" lon="7.295878840640045"><ele>452.0</ele><time>2026-05-02T08:37:42.999Z</time></trkpt><trkpt lat="44.87259625331875" lon="7.2957687129163205"><ele>452.0</ele><time>2026-05-02T08:37:44.999Z</time></trkpt><trkpt lat="44.872790500376006" lon="7.295942004229635"><ele>453.8</ele><time>2026-05-02T08:37:45.999Z</time></trkpt><trkpt lat="44.87287771462006" lon="7.295889943915984"><ele>455.6</ele><time>2026-05-02T08:37:46.999Z</time></trkpt><trkpt lat="44.872970741329496" lon="7.295822206654962"><ele>457.40000000000003</ele><time>2026-05-02T08:37:47.999Z</time></trkpt><trkpt lat="44.873048488290436" lon="7.295736089893708"><ele>459.20000000000005</ele><time>2026-05-02T08:37:48.999Z</time></trkpt><trkpt lat="44.87312825016081" lon="7.295650597595547"><ele>461.0</ele><time>2026-05-02T08:37:49.999Z</time></trkpt><trkpt lat="44.87319974320454" lon="7.2956045758821135"><ele>460.99999999999994</ele><time>2026-05-02T08:37:50.999Z</time></trkpt><trkpt lat="44.87326847778246" lon="7.295548866159867"><ele>461.0</ele><time>2026-05-02T08:37:51.999Z</time></trkpt><trkpt lat="44.873325224050014" lon="7.295486420984398"><ele>461.0</ele><time>2026-05-02T08:37:52.999Z</time></trkpt><trkpt lat="44.87337736559645" lon="7.295422732862812"><ele>461.0</ele><time>2026-05-02T08:37:53.999Z</time></trkpt><trkpt lat="44.87346278132788" lon="7.295266171713817"><ele>460.99999999999994</ele><time>2026-05-02T08:37:55.999Z</time></trkpt><trkpt lat="44.873524959465804" lon="7.295228152486556"><ele>461.0</ele><time>2026-05-02T08:37:56.999Z</time></trkpt><trkpt lat="44.87359897482925" lon="7.295190499070204"><ele>462.20000000000005</ele><time>2026-05-02T08:37:57.998Z</time></trkpt><trkpt lat="44.87367326392436" lon="7.295129165723493"><ele>463.40000000000003</ele><time>2026-05-02T08:37:58.998Z</time></trkpt><trkpt lat="44.87374634217486" lon="7.295054821705477"><ele>464.6</ele><time>2026-05-02T08:37:59.998Z</time></trkpt><trkpt lat="44.87380746050672" lon="7.29496219757982"><ele>465.8</ele><time>2026-05-02T08:38:00.998Z</time></trkpt><trkpt lat="44.87382301319429" lon="7.294799474397036"><ele>467.0</ele><time>2026-05-02T08:38:02.998Z</time></trkpt><trkpt lat="44.87392681181963" lon="7.294717375750967"><ele>468.25</ele><time>2026-05-02T08:38:04.998Z</time></trkpt><trkpt lat="44.87403405291248" lon="7.2946352383760455"><ele>469.5</ele><time>2026-05-02T08:38:05.998Z</time></trkpt><trkpt lat="44.87416006131465" lon="7.294561500543662"><ele>470.75</ele><time>2026-05-02T08:38:06.998Z</time></trkpt><trkpt lat="44.874269550951304" lon="7.294467111641702"><ele>472.0</ele><time>2026-05-02T08:38:07.998Z</time></trkpt><trkpt lat="44.87436417191294" lon="7.2943728054770745"><ele>473.0</ele><time>2026-05-02T08:38:08.998Z</time></trkpt><trkpt lat="44.874438110190724" lon="7.2942692787042525"><ele>474.00000000000006</ele><time>2026-05-02T08:38:09.998Z</time></trkpt><trkpt lat="44.87447926304648" lon="7.294134558143456"><ele>475.00000000000006</ele><time>2026-05-02T08:38:10.998Z</time></trkpt><trkpt lat="44.874532113113645" lon="7.2940209290524"><ele>476.0</ele><time>2026-05-02T08:38:11.998Z</time></trkpt><trkpt lat="44.874549855706945" lon="7.293899310242207"><ele>477.0</ele><time>2026-05-02T08:38:12.998Z</time></trkpt><trkpt lat="44.87457209601439" lon="7.293760613701537"><ele>478.6</ele><time>2026-05-02T08:38:13.998Z</time></trkpt><trkpt lat="44.87457668718094" lon="7.293599899406521"><ele>480.20000000000005</ele><time>2026-05-02T08:38:14.998Z</time></trkpt><trkpt lat="44.87460308541574" lon="7.293447626163902"><ele>481.8</ele><time>2026-05-02T08:38:15.998Z</time></trkpt><trkpt lat="44.8746212934289" lon="7.293288214419402"><ele>483.4</ele><time>2026-05-02T08:38:16.998Z</time></trkpt><trkpt lat="44.87463638070838" lon="7.293177097718673"><ele>485.0</ele><time>2026-05-02T08:38:17.998Z</time></trkpt><trkpt lat="44.87464302644049" lon="7.293049101666025"><ele>488.16666666666663</ele><time>2026-05-02T08:38:18.998Z</time></trkpt><trkpt lat="44.87461922578098" lon="7.292937298223269"><ele>491.3333333333333</ele><time>2026-05-02T08:38:19.998Z</time></trkpt><trkpt lat="44.87457731412827" lon="7.292841749226983"><ele>494.5</ele><time>2026-05-02T08:38:20.998Z</time></trkpt><trkpt lat="44.87453874875427" lon="7.292740989886685"><ele>497.66666666666663</ele><time>2026-05-02T08:38:21.998Z</time></trkpt><trkpt lat="44.87451583686404" lon="7.292641167087472"><ele>500.8333333333333</ele><time>2026-05-02T08:38:23.998Z</time></trkpt><trkpt lat="44.87460718654579" lon="7.292690736416484"><ele>504.0</ele><time>2026-05-02T08:38:26.998Z</time></trkpt><trkpt lat="44.87464773829857" lon="7.292760071442174"><ele>504.0</ele><time>2026-05-02T08:38:27.998Z</time></trkpt><trkpt lat="44.87469887509487" lon="7.292849099657779"><ele>504.0</ele><time>2026-05-02T08:38:28.998Z</time></trkpt><trkpt lat="44.8747562450589" lon="7.292958387500231"><ele>504.0</ele><time>2026-05-02T08:38:29.998Z</time></trkpt><trkpt lat="44.87479393327824" lon="7.2930624434033735"><ele>504.0</ele><time>2026-05-02T08:38:30.998Z</time></trkpt><trkpt lat="44.874814570893285" lon="7.2931468886891935"><ele>504.0</ele><time>2026-05-02T08:38:31.998Z</time></trkpt><trkpt lat="44.874932838503746" lon="7.2931920963161465"><ele>504.0</ele><time>2026-05-02T08:38:33.998Z</time></trkpt><trkpt lat="44.87500490471428" lon="7.293182854429008"><ele>505.4</ele><time>2026-05-02T08:38:34.998Z</time></trkpt><trkpt lat="44.87508256779721" lon="7.293137283352989"><ele>506.79999999999995</ele><time>2026-05-02T08:38:35.998Z</time></trkpt><trkpt lat="44.87518945372951" lon="7.29309796729179"><ele>508.20000000000005</ele><time>2026-05-02T08:38:36.998Z</time></trkpt><trkpt lat="44.875308525203636" lon="7.293068240416896"><ele>509.6</ele><time>2026-05-02T08:38:37.998Z</time></trkpt><trkpt lat="44.87543333357593" lon="7.293027390061718"><ele>511.0</ele><time>2026-05-02T08:38:38.998Z</time></trkpt><trkpt lat="44.8755264111796" lon="7.2929764762734"><ele>511.0</ele><time>2026-05-02T08:38:39.998Z</time></trkpt><trkpt lat="44.87561740794182" lon="7.292934591177467"><ele>511.0</ele><time>2026-05-02T08:38:41Z</time></trkpt><trkpt lat="44.87569445825568" lon="7.292852970592334"><ele>511.0</ele><time>2026-05-02T08:38:42Z</time></trkpt><trkpt lat="44.875762449505324" lon="7.292743768173757"><ele>511.0</ele><time>2026-05-02T08:38:43Z</time></trkpt><trkpt lat="44.875843669652035" lon="7.292622120141315"><ele>511.0</ele><time>2026-05-02T08:38:44Z</time></trkpt><trkpt lat="44.87593718903726" lon="7.292497325354791"><ele>511.0</ele><time>2026-05-02T08:38:45Z</time></trkpt><trkpt lat="44.876005758198616" lon="7.292396957202545"><ele>511.0</ele><time>2026-05-02T08:38:46Z</time></trkpt><trkpt lat="44.87606587877245" lon="7.292290201052254"><ele>511.0</ele><time>2026-05-02T08:38:47Z</time></trkpt><trkpt lat="44.87611827422908" lon="7.292157874236128"><ele>511.0</ele><time>2026-05-02T08:38:48Z</time></trkpt><trkpt lat="44.87613490854189" lon="7.291984125866738"><ele>511.0</ele><time>2026-05-02T08:38:50Z</time></trkpt><trkpt lat="44.87608835673768" lon="7.291860702146376"><ele>511.0</ele><time>2026-05-02T08:38:52Z</time></trkpt><trkpt lat="44.87599792540244" lon="7.291796164426613"><ele>511.0</ele><time>2026-05-02T08:38:54Z</time></trkpt><trkpt lat="44.87585249972549" lon="7.29174740569899"><ele>511.0</ele><time>2026-05-02T08:38:56Z</time></trkpt><trkpt lat="44.87574762789174" lon="7.291676528028244"><ele>511.0</ele><time>2026-05-02T08:38:57Z</time></trkpt><trkpt lat="44.875684663348366" lon="7.291559869337171"><ele>511.57142857142856</ele><time>2026-05-02T08:38:58Z</time></trkpt><trkpt lat="44.87564925540398" lon="7.291473074074389"><ele>512.1428571428571</ele><time>2026-05-02T08:38:59Z</time></trkpt><trkpt lat="44.875617313703586" lon="7.29138495575495"><ele>512.7142857142858</ele><time>2026-05-02T08:39:00Z</time></trkpt><trkpt lat="44.875584238287615" lon="7.291285363171087"><ele>513.2857142857142</ele><time>2026-05-02T08:39:01Z</time></trkpt><trkpt lat="44.8755373037546" lon="7.291225282562486"><ele>513.8571428571429</ele><time>2026-05-02T08:39:02Z</time></trkpt><trkpt lat="44.87548044286006" lon="7.291171322325039"><ele>514.4285714285714</ele><time>2026-05-02T08:39:03Z</time></trkpt><trkpt lat="44.875451665384524" lon="7.291078480333879"><ele>515.0</ele><time>2026-05-02T08:39:04Z</time></trkpt><trkpt lat="44.87539939011401" lon="7.290958819380816"><ele>515.0</ele><time>2026-05-02T08:39:06Z</time></trkpt><trkpt lat="44.87545468880353" lon="7.290897282880335"><ele>515.0</ele><time>2026-05-02T08:39:08Z</time></trkpt><trkpt lat="44.875514120522396" lon="7.290860346706473"><ele>515.0</ele><time>2026-05-02T08:39:09Z</time></trkpt><trkpt lat="44.875649151742806" lon="7.2909461006664245"><ele>515.0</ele><time>2026-05-02T08:39:11Z</time></trkpt><trkpt lat="44.87571689258714" lon="7.290996446002047"><ele>515.0</ele><time>2026-05-02T08:39:12Z</time></trkpt><trkpt lat="44.87577926512914" lon="7.291038489611051"><ele>515.0</ele><time>2026-05-02T08:39:13Z</time></trkpt><trkpt lat="44.87585361578899" lon="7.291062840046012"><ele>515.0</ele><time>2026-05-02T08:39:14Z</time></trkpt><trkpt lat="44.87593486672766" lon="7.2910672566117105"><ele>515.0</ele><time>2026-05-02T08:39:14.999Z</time></trkpt><trkpt lat="44.87599914652343" lon="7.291050957244369"><ele>515.0</ele><time>2026-05-02T08:39:15.999Z</time></trkpt><trkpt lat="44.876080886344" lon="7.291013249970416"><ele>515.0</ele><time>2026-05-02T08:39:16.999Z</time></trkpt><trkpt lat="44.87617732803041" lon="7.290987599754451"><ele>515.0</ele><time>2026-05-02T08:39:17.999Z</time></trkpt><trkpt lat="44.87625492160768" lon="7.290959224828044"><ele>515.0</ele><time>2026-05-02T08:39:18.999Z</time></trkpt><trkpt lat="44.87634487391883" lon="7.2909111922471705"><ele>516.8333333333333</ele><time>2026-05-02T08:39:19.999Z</time></trkpt><trkpt lat="44.87642798435034" lon="7.290865126065284"><ele>518.6666666666666</ele><time>2026-05-02T08:39:20.999Z</time></trkpt><trkpt lat="44.87651033085491" lon="7.290819308478724"><ele>520.5</ele><time>2026-05-02T08:39:21.999Z</time></trkpt><trkpt lat="44.876602998730895" lon="7.29080439057603"><ele>522.3333333333334</ele><time>2026-05-02T08:39:22.999Z</time></trkpt><trkpt lat="44.87669967753908" lon="7.290819925155111"><ele>524.1666666666667</ele><time>2026-05-02T08:39:23.999Z</time></trkpt><trkpt lat="44.87676347777484" lon="7.290789466806903"><ele>526.0</ele><time>2026-05-02T08:39:24.999Z</time></trkpt><trkpt lat="44.87680927549347" lon="7.290689153399677"><ele>528.2</ele><time>2026-05-02T08:39:26.999Z</time></trkpt><trkpt lat="44.87686297230191" lon="7.290637582417778"><ele>530.4000000000001</ele><time>2026-05-02T08:39:27.999Z</time></trkpt><trkpt lat="44.876912668225366" lon="7.2905286546428085"><ele>532.6</ele><time>2026-05-02T08:39:29.999Z</time></trkpt><trkpt lat="44.8769794884131" lon="7.290425456902553"><ele>534.8000000000001</ele><time>2026-05-02T08:39:30.999Z</time></trkpt><trkpt lat="44.87708229201622" lon="7.290299847451652"><ele>537.0</ele><time>2026-05-02T08:39:32.999Z</time></trkpt><trkpt lat="44.877119386360434" lon="7.290210719796562"><ele>537.4</ele><time>2026-05-02T08:39:33.999Z</time></trkpt><trkpt lat="44.87714267181745" lon="7.2901213664461375"><ele>537.8000000000001</ele><time>2026-05-02T08:39:34.999Z</time></trkpt><trkpt lat="44.877136131315964" lon="7.2900222299410995"><ele>538.2</ele><time>2026-05-02T08:39:35.999Z</time></trkpt><trkpt lat="44.87712642785453" lon="7.2898566441389585"><ele>538.6</ele><time>2026-05-02T08:39:36.999Z</time></trkpt><trkpt lat="44.87709002338259" lon="7.2897175562825955"><ele>539.0</ele><time>2026-05-02T08:39:37.999Z</time></trkpt><trkpt lat="44.87705602505949" lon="7.289538845260583"><ele>539.0</ele><time>2026-05-02T08:39:38.999Z</time></trkpt><trkpt lat="44.87697676182682" lon="7.289390920787675"><ele>539.0</ele><time>2026-05-02T08:39:39.999Z</time></trkpt><trkpt lat="44.87690704215067" lon="7.289246531113383"><ele>539.0</ele><time>2026-05-02T08:39:40.999Z</time></trkpt><trkpt lat="44.87682580122931" lon="7.289137877728295"><ele>539.0</ele><time>2026-05-02T08:39:41.999Z</time></trkpt><trkpt lat="44.876738557263955" lon="7.289087850213422"><ele>539.8</ele><time>2026-05-02T08:39:42.999Z</time></trkpt><trkpt lat="44.876700224805326" lon="7.288943944108461"><ele>540.5999999999999</ele><time>2026-05-02T08:39:44.999Z</time></trkpt><trkpt lat="44.876704371475086" lon="7.288830015113124"><ele>541.4</ele><time>2026-05-02T08:39:45.999Z</time></trkpt><trkpt lat="44.876718780106884" lon="7.288699872511247"><ele>542.1999999999999</ele><time>2026-05-02T08:39:46.999Z</time></trkpt><trkpt lat="44.876734342498025" lon="7.288548200703227"><ele>543.0</ele><time>2026-05-02T08:39:47.999Z</time></trkpt><trkpt lat="44.8767480965545" lon="7.288425692484194"><ele>544.0</ele><time>2026-05-02T08:39:48.999Z</time></trkpt><trkpt lat="44.87675200740479" lon="7.2883247060650795"><ele>545.0</ele><time>2026-05-02T08:39:49.999Z</time></trkpt><trkpt lat="44.87675981422653" lon="7.288213762280227"><ele>546.0</ele><time>2026-05-02T08:39:50.999Z</time></trkpt><trkpt lat="44.87674832808027" lon="7.288123418592326"><ele>547.0</ele><time>2026-05-02T08:39:51.999Z</time></trkpt><trkpt lat="44.87672128686881" lon="7.288042222344586"><ele>548.0</ele><time>2026-05-02T08:39:52.999Z</time></trkpt><trkpt lat="44.87668352321967" lon="7.2879607128189345"><ele>549.0</ele><time>2026-05-02T08:39:53.999Z</time></trkpt><trkpt lat="44.876636700732185" lon="7.287875845385428"><ele>550.0</ele><time>2026-05-02T08:39:54.999Z</time></trkpt><trkpt lat="44.87659665309623" lon="7.287793870897329"><ele>549.6666666666667</ele><time>2026-05-02T08:39:55.999Z</time></trkpt><trkpt lat="44.87656985990045" lon="7.287671942547164"><ele>549.3333333333334</ele><time>2026-05-02T08:39:57.999Z</time></trkpt><trkpt lat="44.87664714640981" lon="7.287648150863605"><ele>549.0</ele><time>2026-05-02T08:39:59.999Z</time></trkpt><trkpt lat="44.8767492437466" lon="7.287664508283319"><ele>548.6666666666666</ele><time>2026-05-02T08:40:01.998Z</time></trkpt><trkpt lat="44.876794287876436" lon="7.287587061173274"><ele>548.3333333333333</ele><time>2026-05-02T08:40:02.998Z</time></trkpt><trkpt lat="44.87684384448781" lon="7.287489444404604"><ele>548.0</ele><time>2026-05-02T08:40:03.998Z</time></trkpt><trkpt lat="44.876902000504096" lon="7.28741702241082"><ele>548.0</ele><time>2026-05-02T08:40:04.998Z</time></trkpt><trkpt lat="44.87695790451009" lon="7.2873231620125445"><ele>548.0</ele><time>2026-05-02T08:40:07.998Z</time></trkpt><trkpt lat="44.87689311403703" lon="7.287202722665931"><ele>548.0</ele><time>2026-05-02T08:40:09.998Z</time></trkpt><trkpt lat="44.87684862228543" lon="7.287106733517239"><ele>548.0</ele><time>2026-05-02T08:40:11.998Z</time></trkpt><trkpt lat="44.876869481861185" lon="7.2869674780030405"><ele>548.0</ele><time>2026-05-02T08:40:12.998Z</time></trkpt><trkpt lat="44.87687454940451" lon="7.286842292818706"><ele>550.8</ele><time>2026-05-02T08:40:13.998Z</time></trkpt><trkpt lat="44.87687611086872" lon="7.286712186292841"><ele>553.5999999999999</ele><time>2026-05-02T08:40:14.998Z</time></trkpt><trkpt lat="44.87685335481461" lon="7.286561521562654"><ele>556.4000000000001</ele><time>2026-05-02T08:40:15.998Z</time></trkpt><trkpt lat="44.87683776579296" lon="7.286411798439548"><ele>559.2</ele><time>2026-05-02T08:40:16.998Z</time></trkpt><trkpt lat="44.87683670173531" lon="7.286289941636823"><ele>562.0</ele><time>2026-05-02T08:40:17.998Z</time></trkpt><trkpt lat="44.87684513881764" lon="7.286193713769925"><ele>562.8333333333334</ele><time>2026-05-02T08:40:18.998Z</time></trkpt><trkpt lat="44.876867951187826" lon="7.2860919251192"><ele>563.6666666666667</ele><time>2026-05-02T08:40:19.998Z</time></trkpt><trkpt lat="44.876886268334125" lon="7.286006438607807"><ele>564.5</ele><time>2026-05-02T08:40:20.998Z</time></trkpt><trkpt lat="44.876907422393764" lon="7.285903312438809"><ele>565.3333333333334</ele><time>2026-05-02T08:40:21.998Z</time></trkpt><trkpt lat="44.876937232082525" lon="7.285786809686296"><ele>566.1666666666666</ele><time>2026-05-02T08:40:22.998Z</time></trkpt><trkpt lat="44.87695764034474" lon="7.285666375306048"><ele>567.0</ele><time>2026-05-02T08:40:23.998Z</time></trkpt><trkpt lat="44.87698086986559" lon="7.285522709370853"><ele>569.0</ele><time>2026-05-02T08:40:24.998Z</time></trkpt><trkpt lat="44.877015762220566" lon="7.285385277403432"><ele>571.0</ele><time>2026-05-02T08:40:25.998Z</time></trkpt><trkpt lat="44.877047493889165" lon="7.285235777084987"><ele>573.0</ele><time>2026-05-02T08:40:26.998Z</time></trkpt><trkpt lat="44.87707903869493" lon="7.285079984406608"><ele>575.0</ele><time>2026-05-02T08:40:27.998Z</time></trkpt><trkpt lat="44.877100370582454" lon="7.284934519063862"><ele>577.0</ele><time>2026-05-02T08:40:28.998Z</time></trkpt><trkpt lat="44.877119170312184" lon="7.284796922094768"><ele>580.4</ele><time>2026-05-02T08:40:29.998Z</time></trkpt><trkpt lat="44.87712676519425" lon="7.284670915094643"><ele>583.8000000000001</ele><time>2026-05-02T08:40:30.998Z</time></trkpt><trkpt lat="44.87713002879524" lon="7.284520780954994"><ele>587.2</ele><time>2026-05-02T08:40:31.998Z</time></trkpt><trkpt lat="44.87715139863472" lon="7.284400299514298"><ele>590.6</ele><time>2026-05-02T08:40:32.998Z</time></trkpt><trkpt lat="44.87722087462147" lon="7.2842683233561365"><ele>594.0</ele><time>2026-05-02T08:40:34.998Z</time></trkpt><trkpt lat="44.87730546851631" lon="7.28421190643168"><ele>594.0</ele><time>2026-05-02T08:40:35.998Z</time></trkpt><trkpt lat="44.877399449809275" lon="7.284164386885323"><ele>594.0</ele><time>2026-05-02T08:40:36.998Z</time></trkpt><trkpt lat="44.877459951418004" lon="7.284110721529814"><ele>594.0</ele><time>2026-05-02T08:40:37.998Z</time></trkpt><trkpt lat="44.87749963755805" lon="7.284036443696965"><ele>594.0</ele><time>2026-05-02T08:40:38.998Z</time></trkpt><trkpt lat="44.87752279791436" lon="7.283874672838308"><ele>594.0</ele><time>2026-05-02T08:40:40.998Z</time></trkpt><trkpt lat="44.877560042194624" lon="7.283735519955343"><ele>599.0</ele><time>2026-05-02T08:40:42.998Z</time></trkpt><trkpt lat="44.87763382145566" lon="7.283718799122491"><ele>604.0</ele><time>2026-05-02T08:40:44.998Z</time></trkpt><trkpt lat="44.877559210500756" lon="7.283610395822509"><ele>609.0</ele><time>2026-05-02T08:40:50Z</time></trkpt><trkpt lat="44.87742602903368" lon="7.283297589061919"><ele>614.0</ele><time>2026-05-02T08:40:54Z</time></trkpt><trkpt lat="44.87739735540253" lon="7.2831702346392735"><ele>617.4</ele><time>2026-05-02T08:40:56Z</time></trkpt><trkpt lat="44.877403356877565" lon="7.283010539892271"><ele>620.8</ele><time>2026-05-02T08:40:58Z</time></trkpt><trkpt lat="44.87739187321129" lon="7.28292063724491"><ele>624.2</ele><time>2026-05-02T08:40:59Z</time></trkpt><trkpt lat="44.87740064133242" lon="7.282758316153604"><ele>627.6</ele><time>2026-05-02T08:41:01Z</time></trkpt><trkpt lat="44.87742742069415" lon="7.282613813057868"><ele>631.0</ele><time>2026-05-02T08:41:03Z</time></trkpt><trkpt lat="44.87748203784022" lon="7.282464698055134"><ele>631.0</ele><time>2026-05-02T08:41:05Z</time></trkpt><trkpt lat="44.877538433919185" lon="7.282357079762568"><ele>631.0</ele><time>2026-05-02T08:41:07Z</time></trkpt><trkpt lat="44.87760704429194" lon="7.282313711018746"><ele>631.0</ele><time>2026-05-02T08:41:09Z</time></trkpt><trkpt lat="44.87768001807627" lon="7.28233478823354"><ele>631.0</ele><time>2026-05-02T08:41:11Z</time></trkpt><trkpt lat="44.87777160228335" lon="7.2822752749513056"><ele>631.0</ele><time>2026-05-02T08:41:12Z</time></trkpt><trkpt lat="44.87783051122475" lon="7.282220720281798"><ele>631.0</ele><time>2026-05-02T08:41:14Z</time></trkpt><trkpt lat="44.877909479249645" lon="7.282135873175506"><ele>626.75</ele><time>2026-05-02T08:41:17Z</time></trkpt><trkpt lat="44.8779701464724" lon="7.28196540796126"><ele>622.5</ele><time>2026-05-02T08:41:18.999Z</time></trkpt><trkpt lat="44.87797016546348" lon="7.281808493030711"><ele>618.25</ele><time>2026-05-02T08:41:19.999Z</time></trkpt><trkpt lat="44.877988522741475" lon="7.281638576761541"><ele>614.0</ele><time>2026-05-02T08:41:20.999Z</time></trkpt><trkpt lat="44.87800098575293" lon="7.281484936499727"><ele>616.6</ele><time>2026-05-02T08:41:21.999Z</time></trkpt><trkpt lat="44.87800686396572" lon="7.281286078963651"><ele>619.2</ele><time>2026-05-02T08:41:23.999Z</time></trkpt><trkpt lat="44.87802418183659" lon="7.281199800403986"><ele>621.8000000000001</ele><time>2026-05-02T08:41:24.999Z</time></trkpt><trkpt lat="44.87807887378534" lon="7.281122923716426"><ele>624.4</ele><time>2026-05-02T08:41:25.999Z</time></trkpt><trkpt lat="44.87816856704489" lon="7.281034432205317"><ele>627.0</ele><time>2026-05-02T08:41:26.999Z</time></trkpt><trkpt lat="44.87823309704414" lon="7.280925187127035"><ele>627.0</ele><time>2026-05-02T08:41:27.999Z</time></trkpt><trkpt lat="44.878233713656826" lon="7.280823498820855"><ele>627.0</ele><time>2026-05-02T08:41:28.999Z</time></trkpt><trkpt lat="44.878263307826664" lon="7.2806305700142175"><ele>627.0</ele><time>2026-05-02T08:41:30.999Z</time></trkpt><trkpt lat="44.87828976792019" lon="7.280485587124693"><ele>627.0</ele><time>2026-05-02T08:41:31.999Z</time></trkpt><trkpt lat="44.878298605270444" lon="7.2803502952649035"><ele>627.0</ele><time>2026-05-02T08:41:32.999Z</time></trkpt><trkpt lat="44.87834196045951" lon="7.280236655447959"><ele>627.0</ele><time>2026-05-02T08:41:34.999Z</time></trkpt><trkpt lat="44.878362727741134" lon="7.280140138204137"><ele>627.0</ele><time>2026-05-02T08:41:36.999Z</time></trkpt><trkpt lat="44.87841820905723" lon="7.280030001585524"><ele>627.0</ele><time>2026-05-02T08:41:38.999Z</time></trkpt><trkpt lat="44.87845843636426" lon="7.2799588421186305"><ele>627.0</ele><time>2026-05-02T08:41:40.999Z</time></trkpt><trkpt lat="44.878480526797055" lon="7.2798492332783455"><ele>627.0</ele><time>2026-05-02T08:41:42.999Z</time></trkpt><trkpt lat="44.87838821276393" lon="7.27967657014374"><ele>627.0</ele><time>2026-05-02T08:41:45.999Z</time></trkpt><trkpt lat="44.87840578778015" lon="7.279337098637725"><ele>627.0</ele><time>2026-05-02T08:41:47.999Z</time></trkpt><trkpt lat="44.87833978719691" lon="7.279188441494739"><ele>627.0</ele><time>2026-05-02T08:41:49.999Z</time></trkpt><trkpt lat="44.87830569090782" lon="7.279104438462804"><ele>627.0</ele><time>2026-05-02T08:41:50.999Z</time></trkpt><trkpt lat="44.8782759632608" lon="7.279018715708057"><ele>623.6666666666666</ele><time>2026-05-02T08:41:51.999Z</time></trkpt><trkpt lat="44.87824795259758" lon="7.2789239305990785"><ele>620.3333333333334</ele><time>2026-05-02T08:41:52.999Z</time></trkpt><trkpt lat="44.87822010734342" lon="7.27881827394774"><ele>617.0</ele><time>2026-05-02T08:41:53.999Z</time></trkpt><trkpt lat="44.87819189874976" lon="7.278718663455995"><ele>613.6666666666667</ele><time>2026-05-02T08:41:54.999Z</time></trkpt><trkpt lat="44.87815841645524" lon="7.27863498609168"><ele>610.3333333333334</ele><time>2026-05-02T08:41:55.999Z</time></trkpt><trkpt lat="44.8780986418938" lon="7.278561117096898"><ele>607.0</ele><time>2026-05-02T08:41:56.999Z</time></trkpt><trkpt lat="44.87802381359782" lon="7.278521479542991"><ele>607.0</ele><time>2026-05-02T08:41:57.999Z</time></trkpt><trkpt lat="44.877952486476346" lon="7.27848277504997"><ele>607.0</ele><time>2026-05-02T08:41:58.999Z</time></trkpt><trkpt lat="44.87785985786784" lon="7.27846907873051"><ele>607.0</ele><time>2026-05-02T08:41:59.999Z</time></trkpt><trkpt lat="44.87776851512773" lon="7.278460685510466"><ele>607.0</ele><time>2026-05-02T08:42:00.999Z</time></trkpt><trkpt lat="44.87766969231694" lon="7.278427498963951"><ele>607.0</ele><time>2026-05-02T08:42:01.999Z</time></trkpt><trkpt lat="44.87758208496914" lon="7.278420201645549"><ele>609.8000000000001</ele><time>2026-05-02T08:42:02.999Z</time></trkpt><trkpt lat="44.87746717756722" lon="7.2784136926086385"><ele>612.6</ele><time>2026-05-02T08:42:03.999Z</time></trkpt><trkpt lat="44.877390915950464" lon="7.278392966277624"><ele>615.4000000000001</ele><time>2026-05-02T08:42:04.999Z</time></trkpt><trkpt lat="44.877295792289054" lon="7.2782998561305545"><ele>618.2</ele><time>2026-05-02T08:42:06.998Z</time></trkpt><trkpt lat="44.877275015931005" lon="7.2782075579041665"><ele>621.0</ele><time>2026-05-02T08:42:07.998Z</time></trkpt><trkpt lat="44.87731735500023" lon="7.277936627620461"><ele>621.0</ele><time>2026-05-02T08:42:09.998Z</time></trkpt><trkpt lat="44.877303558185254" lon="7.277842155404073"><ele>621.0</ele><time>2026-05-02T08:42:10.998Z</time></trkpt><trkpt lat="44.877196637580255" lon="7.277771045943154"><ele>621.0</ele><time>2026-05-02T08:42:12.998Z</time></trkpt><trkpt lat="44.877109402649936" lon="7.277672999980252"><ele>621.0</ele><time>2026-05-02T08:42:14.998Z</time></trkpt><trkpt lat="44.87708986600367" lon="7.277562571796699"><ele>621.0</ele><time>2026-05-02T08:42:16.998Z</time></trkpt><trkpt lat="44.87712316659574" lon="7.277434371711841"><ele>621.0</ele><time>2026-05-02T08:42:18.998Z</time></trkpt><trkpt lat="44.87716107163315" lon="7.277331814354914"><ele>621.0</ele><time>2026-05-02T08:42:19.998Z</time></trkpt><trkpt lat="44.87722601378455" lon="7.277213989780744"><ele>621.0</ele><time>2026-05-02T08:42:20.998Z</time></trkpt><trkpt lat="44.877272208258624" lon="7.2770900610131095"><ele>621.0</ele><time>2026-05-02T08:42:21.998Z</time></trkpt><trkpt lat="44.877317385621765" lon="7.276989349124342"><ele>621.0</ele><time>2026-05-02T08:42:22.998Z</time></trkpt><trkpt lat="44.8773490382352" lon="7.276869930267143"><ele>622.8333333333334</ele><time>2026-05-02T08:42:23.998Z</time></trkpt><trkpt lat="44.87738287043089" lon="7.27676749522501"><ele>624.6666666666666</ele><time>2026-05-02T08:42:24.998Z</time></trkpt><trkpt lat="44.877437590381625" lon="7.276715339243984"><ele>626.5</ele><time>2026-05-02T08:42:25.998Z</time></trkpt><trkpt lat="44.877492345942066" lon="7.276612888782077"><ele>628.3333333333333</ele><time>2026-05-02T08:42:27.998Z</time></trkpt><trkpt lat="44.877566023438504" lon="7.276587018618271"><ele>630.1666666666666</ele><time>2026-05-02T08:42:28.998Z</time></trkpt><trkpt lat="44.8776526792261" lon="7.276617710613976"><ele>632.0</ele><time>2026-05-02T08:42:30.998Z</time></trkpt><trkpt lat="44.877730109354104" lon="7.276493103662167"><ele>629.6</ele><time>2026-05-02T08:42:34.998Z</time></trkpt><trkpt lat="44.87780730538216" lon="7.276351863312544"><ele>627.2</ele><time>2026-05-02T08:42:35.998Z</time></trkpt><trkpt lat="44.877872157558876" lon="7.276256986167781"><ele>624.8</ele><time>2026-05-02T08:42:36.998Z</time></trkpt><trkpt lat="44.877927758925715" lon="7.276204945401772"><ele>622.4</ele><time>2026-05-02T08:42:37.998Z</time></trkpt><trkpt lat="44.87798960071886" lon="7.276099898141211"><ele>620.0</ele><time>2026-05-02T08:42:38.998Z</time></trkpt><trkpt lat="44.87804833832873" lon="7.276004351559799"><ele>620.0</ele><time>2026-05-02T08:42:39.998Z</time></trkpt><trkpt lat="44.8781020629991" lon="7.275931660971846"><ele>620.0</ele><time>2026-05-02T08:42:40.998Z</time></trkpt><trkpt lat="44.878162956344774" lon="7.275832993697301"><ele>620.0</ele><time>2026-05-02T08:42:42.998Z</time></trkpt><trkpt lat="44.87820043284179" lon="7.275679250212693"><ele>620.0</ele><time>2026-05-02T08:42:44.998Z</time></trkpt><trkpt lat="44.878182589562876" lon="7.27555607754913"><ele>620.0</ele><time>2026-05-02T08:42:45.998Z</time></trkpt><trkpt lat="44.87819145436895" lon="7.27543489309625"><ele>619.0</ele><time>2026-05-02T08:42:46.998Z</time></trkpt><trkpt lat="44.87814651668877" lon="7.275349254669598"><ele>618.0</ele><time>2026-05-02T08:42:47.998Z</time></trkpt><trkpt lat="44.87808448280316" lon="7.275256723223632"><ele>617.0</ele><time>2026-05-02T08:42:48.998Z</time></trkpt><trkpt lat="44.87801962413612" lon="7.275162464763903"><ele>616.0</ele><time>2026-05-02T08:42:49.998Z</time></trkpt><trkpt lat="44.877967617456335" lon="7.275074620025892"><ele>615.0</ele><time>2026-05-02T08:42:50.998Z</time></trkpt><trkpt lat="44.87789498813221" lon="7.275001304550592"><ele>614.0</ele><time>2026-05-02T08:42:51.998Z</time></trkpt><trkpt lat="44.877825177518396" lon="7.274882268316081"><ele>616.0</ele><time>2026-05-02T08:42:54Z</time></trkpt><trkpt lat="44.87784018488149" lon="7.2746980185564"><ele>618.0</ele><time>2026-05-02T08:42:56Z</time></trkpt><trkpt lat="44.877860308683836" lon="7.274612723243914"><ele>620.0</ele><time>2026-05-02T08:42:57Z</time></trkpt><trkpt lat="44.8778741082844" lon="7.274501668321065"><ele>622.0</ele><time>2026-05-02T08:42:58Z</time></trkpt><trkpt lat="44.877901098567406" lon="7.2744090482595105"><ele>624.0</ele><time>2026-05-02T08:42:59Z</time></trkpt><trkpt lat="44.877970605516815" lon="7.274286483563149"><ele>624.0</ele><time>2026-05-02T08:43:01Z</time></trkpt><trkpt lat="44.878091776582416" lon="7.274203848124396"><ele>624.0</ele><time>2026-05-02T08:43:03Z</time></trkpt><trkpt lat="44.878165618829335" lon="7.2741321059306845"><ele>624.0</ele><time>2026-05-02T08:43:04Z</time></trkpt><trkpt lat="44.87821938996119" lon="7.274067085886615"><ele>624.0</ele><time>2026-05-02T08:43:05Z</time></trkpt><trkpt lat="44.87826877235262" lon="7.274002846290496"><ele>624.0</ele><time>2026-05-02T08:43:06Z</time></trkpt><trkpt lat="44.87833313572897" lon="7.273953949366637"><ele>624.0</ele><time>2026-05-02T08:43:07Z</time></trkpt><trkpt lat="44.8784256568068" lon="7.27390805804564"><ele>619.5</ele><time>2026-05-02T08:43:08Z</time></trkpt><trkpt lat="44.87851719548946" lon="7.273850991911873"><ele>615.0</ele><time>2026-05-02T08:43:09Z</time></trkpt><trkpt lat="44.878572818338604" lon="7.273803423557744"><ele>610.5</ele><time>2026-05-02T08:43:10Z</time></trkpt><trkpt lat="44.87861717609912" lon="7.273708098720192"><ele>606.0</ele><time>2026-05-02T08:43:12Z</time></trkpt><trkpt lat="44.87861809783319" lon="7.273566294254147"><ele>601.5</ele><time>2026-05-02T08:43:15Z</time></trkpt><trkpt lat="44.8785762993522" lon="7.273473903692385"><ele>597.0</ele><time>2026-05-02T08:43:16Z</time></trkpt><trkpt lat="44.87850640333419" lon="7.273373242334802"><ele>602.5</ele><time>2026-05-02T08:43:17Z</time></trkpt><trkpt lat="44.878412709140655" lon="7.273269646618032"><ele>608.0</ele><time>2026-05-02T08:43:18Z</time></trkpt><trkpt lat="44.87835634201909" lon="7.273175007229145"><ele>613.5</ele><time>2026-05-02T08:43:19Z</time></trkpt><trkpt lat="44.87831175078504" lon="7.273096578981551"><ele>619.0</ele><time>2026-05-02T08:43:20Z</time></trkpt><trkpt lat="44.87827225095937" lon="7.273011499972607"><ele>624.5</ele><time>2026-05-02T08:43:21Z</time></trkpt><trkpt lat="44.87822424113517" lon="7.272946613945375"><ele>630.0</ele><time>2026-05-02T08:43:22Z</time></trkpt><trkpt lat="44.87820890216862" lon="7.272816790413348"><ele>630.0</ele><time>2026-05-02T08:43:23.999Z</time></trkpt><trkpt lat="44.878213613861796" lon="7.272696360770144"><ele>630.0</ele><time>2026-05-02T08:43:25.999Z</time></trkpt><trkpt lat="44.878181708774264" lon="7.272403659452115"><ele>630.0</ele><time>2026-05-02T08:43:29.999Z</time></trkpt><trkpt lat="44.87816632930071" lon="7.272273659619587"><ele>630.0</ele><time>2026-05-02T08:43:30.999Z</time></trkpt><trkpt lat="44.87815886636382" lon="7.272150303798584"><ele>628.6</ele><time>2026-05-02T08:43:31.999Z</time></trkpt><trkpt lat="44.87814261345963" lon="7.272036117886814"><ele>627.2</ele><time>2026-05-02T08:43:32.999Z</time></trkpt><trkpt lat="44.87810766274933" lon="7.271929302096868"><ele>625.8</ele><time>2026-05-02T08:43:33.999Z</time></trkpt><trkpt lat="44.87807685020287" lon="7.271824210431458"><ele>624.4</ele><time>2026-05-02T08:43:34.999Z</time></trkpt><trkpt lat="44.87804454941568" lon="7.27172010422082"><ele>623.0</ele><time>2026-05-02T08:43:35.999Z</time></trkpt><trkpt lat="44.87799444510497" lon="7.2715495447346274"><ele>626.5</ele><time>2026-05-02T08:43:37.999Z</time></trkpt><trkpt lat="44.87794768799305" lon="7.2714025295735825"><ele>630.0</ele><time>2026-05-02T08:43:39.999Z</time></trkpt><trkpt lat="44.87786945925128" lon="7.271274551360466"><ele>633.5</ele><time>2026-05-02T08:43:41.999Z</time></trkpt><trkpt lat="44.87782317709732" lon="7.271192578025505"><ele>637.0</ele><time>2026-05-02T08:43:42.999Z</time></trkpt><trkpt lat="44.87778150311468" lon="7.271116962973256"><ele>640.5</ele><time>2026-05-02T08:43:43.999Z</time></trkpt><trkpt lat="44.87773692654159" lon="7.271043898202228"><ele>644.0</ele><time>2026-05-02T08:43:44.999Z</time></trkpt><trkpt lat="44.87769179370046" lon="7.270981597477668"><ele>644.0</ele><time>2026-05-02T08:43:50.999Z</time></trkpt><trkpt lat="44.87766700169284" lon="7.27088279853524"><ele>644.0</ele><time>2026-05-02T08:43:53.999Z</time></trkpt><trkpt lat="44.87759347231853" lon="7.270837674654899"><ele>644.0</ele><time>2026-05-02T08:43:57.999Z</time></trkpt><trkpt lat="44.87749925247381" lon="7.270772174469614"><ele>644.0</ele><time>2026-05-02T08:43:59.999Z</time></trkpt><trkpt lat="44.87739951105515" lon="7.270692241794875"><ele>644.0</ele><time>2026-05-02T08:44:01.999Z</time></trkpt><trkpt lat="44.87730117653649" lon="7.27068089246099"><ele>646.1666666666666</ele><time>2026-05-02T08:44:03.999Z</time></trkpt><trkpt lat="44.877208575020006" lon="7.270625357241983"><ele>648.3333333333333</ele><time>2026-05-02T08:44:05.999Z</time></trkpt><trkpt lat="44.87713241189668" lon="7.270574604141255"><ele>650.5</ele><time>2026-05-02T08:44:08.999Z</time></trkpt><trkpt lat="44.87706079486116" lon="7.270546877416174"><ele>652.6666666666666</ele><time>2026-05-02T08:44:10.998Z</time></trkpt><trkpt lat="44.87697041484814" lon="7.270471909021131"><ele>654.8333333333334</ele><time>2026-05-02T08:44:12.998Z</time></trkpt><trkpt lat="44.87689400901658" lon="7.2704408285492566"><ele>657.0</ele><time>2026-05-02T08:44:13.998Z</time></trkpt><trkpt lat="44.87678164738249" lon="7.270453651147187"><ele>657.0</ele><time>2026-05-02T08:44:15.998Z</time></trkpt><trkpt lat="44.876720331273965" lon="7.270484907125212"><ele>657.0</ele><time>2026-05-02T08:44:16.998Z</time></trkpt><trkpt lat="44.87666606265835" lon="7.270535539879377"><ele>657.0</ele><time>2026-05-02T08:44:17.998Z</time></trkpt><trkpt lat="44.87660523763623" lon="7.270580613463156"><ele>657.0</ele><time>2026-05-02T08:44:19.998Z</time></trkpt><trkpt lat="44.87666315979423" lon="7.27068054917226"><ele>657.0</ele><time>2026-05-02T08:44:21.998Z</time></trkpt><trkpt lat="44.876722161493866" lon="7.270723047829797"><ele>657.0</ele><time>2026-05-02T08:44:22.998Z</time></trkpt><trkpt lat="44.876816809795514" lon="7.270798942719588"><ele>661.4000000000001</ele><time>2026-05-02T08:44:24.998Z</time></trkpt><trkpt lat="44.87673195025399" lon="7.270865521346669"><ele>665.8000000000001</ele><time>2026-05-02T08:44:27.998Z</time></trkpt><trkpt lat="44.87666011468405" lon="7.270860488587839"><ele>670.2</ele><time>2026-05-02T08:44:29.998Z</time></trkpt><trkpt lat="44.87659363890202" lon="7.270878925609472"><ele>674.6</ele><time>2026-05-02T08:44:32.998Z</time></trkpt><trkpt lat="44.876504280874116" lon="7.270935246537464"><ele>679.0</ele><time>2026-05-02T08:44:34.998Z</time></trkpt><trkpt lat="44.87633172178746" lon="7.271057757001126"><ele>679.0</ele><time>2026-05-02T08:44:35.998Z</time></trkpt><trkpt lat="44.87623258745078" lon="7.271065133031964"><ele>679.0</ele><time>2026-05-02T08:44:36.998Z</time></trkpt><trkpt lat="44.87613830615328" lon="7.271025852075408"><ele>679.0</ele><time>2026-05-02T08:44:37.998Z</time></trkpt><trkpt lat="44.87605941535204" lon="7.27103436265685"><ele>679.0</ele><time>2026-05-02T08:44:38.998Z</time></trkpt><trkpt lat="44.875968314185464" lon="7.27103447962061"><ele>679.0</ele><time>2026-05-02T08:44:39.998Z</time></trkpt><trkpt lat="44.875883916395544" lon="7.271062996007481"><ele>685.3333333333334</ele><time>2026-05-02T08:44:40.998Z</time></trkpt><trkpt lat="44.87578804295025" lon="7.271150417804442"><ele>691.6666666666666</ele><time>2026-05-02T08:44:42.998Z</time></trkpt><trkpt lat="44.87570859272752" lon="7.271164972837703"><ele>698.0</ele><time>2026-05-02T08:44:45.998Z</time></trkpt><trkpt lat="44.875415206430844" lon="7.2712162665509394"><ele>698.0</ele><time>2026-05-02T08:44:46.998Z</time></trkpt><trkpt lat="44.87534180570563" lon="7.271239265127643"><ele>698.0</ele><time>2026-05-02T08:44:47.998Z</time></trkpt><trkpt lat="44.875269610695" lon="7.271255049351765"><ele>698.0</ele><time>2026-05-02T08:44:48.998Z</time></trkpt><trkpt lat="44.87520529020726" lon="7.271273009234798"><ele>698.0</ele><time>2026-05-02T08:44:49.998Z</time></trkpt><trkpt lat="44.87514292482121" lon="7.271299644410639"><ele>698.0</ele><time>2026-05-02T08:44:51.998Z</time></trkpt><trkpt lat="44.875035314795774" lon="7.271358761766763"><ele>698.0</ele><time>2026-05-02T08:48:15.999Z</time></trkpt><trkpt lat="44.87495315570326" lon="7.271410331337882"><ele>702.25</ele><time>2026-05-02T08:48:16.999Z</time></trkpt><trkpt lat="44.8748473436781" lon="7.271509674272877"><ele>706.5</ele><time>2026-05-02T08:48:17.998Z</time></trkpt><trkpt lat="44.87473273635158" lon="7.271600505463048"><ele>710.75</ele><time>2026-05-02T08:48:18.998Z</time></trkpt><trkpt lat="44.87466064798034" lon="7.271699318463333"><ele>715.0</ele><time>2026-05-02T08:48:19.998Z</time></trkpt><trkpt lat="44.87457481369536" lon="7.271850951957984"><ele>715.0</ele><time>2026-05-02T08:48:20.998Z</time></trkpt><trkpt lat="44.87450593334406" lon="7.27203004380126"><ele>715.0</ele><time>2026-05-02T08:48:21.998Z</time></trkpt><trkpt lat="44.87445836600647" lon="7.272171030946739"><ele>715.0</ele><time>2026-05-02T08:48:22.998Z</time></trkpt><trkpt lat="44.87439788305872" lon="7.2723066961006"><ele>715.0</ele><time>2026-05-02T08:48:23.998Z</time></trkpt><trkpt lat="44.87436531504754" lon="7.272438412229099"><ele>715.1666666666667</ele><time>2026-05-02T08:48:24.998Z</time></trkpt><trkpt lat="44.87431266391694" lon="7.272538141210329"><ele>715.3333333333334</ele><time>2026-05-02T08:48:25.998Z</time></trkpt><trkpt lat="44.87425247997403" lon="7.272617821844787"><ele>715.5</ele><time>2026-05-02T08:48:26.998Z</time></trkpt><trkpt lat="44.87418031205067" lon="7.272699541338979"><ele>715.6666666666666</ele><time>2026-05-02T08:48:27.998Z</time></trkpt><trkpt lat="44.87410106390472" lon="7.272775768911459"><ele>715.8333333333333</ele><time>2026-05-02T08:48:28.998Z</time></trkpt><trkpt lat="44.874042528989314" lon="7.27284991541389"><ele>716.0</ele><time>2026-05-02T08:48:29.998Z</time></trkpt><trkpt lat="44.873990303165606" lon="7.272902139242687"><ele>717.0</ele><time>2026-05-02T08:48:30.998Z</time></trkpt><trkpt lat="44.87390250598281" lon="7.272938046063513"><ele>718.0</ele><time>2026-05-02T08:48:32.998Z</time></trkpt><trkpt lat="44.873801900763254" lon="7.272808425023189"><ele>719.0</ele><time>2026-05-02T08:48:34.998Z</time></trkpt><trkpt lat="44.87375234670827" lon="7.272691525602919"><ele>720.0</ele><time>2026-05-02T08:48:35.998Z</time></trkpt><trkpt lat="44.87368001075239" lon="7.272586564252485"><ele>721.0</ele><time>2026-05-02T08:48:36.998Z</time></trkpt><trkpt lat="44.87359895809983" lon="7.27252410038533"><ele>721.0</ele><time>2026-05-02T08:48:37.998Z</time></trkpt><trkpt lat="44.87352634177636" lon="7.27247688602448"><ele>721.0</ele><time>2026-05-02T08:48:38.998Z</time></trkpt><trkpt lat="44.87347608819171" lon="7.272388856848698"><ele>721.0</ele><time>2026-05-02T08:48:39.998Z</time></trkpt><trkpt lat="44.8734188815202" lon="7.27231244634894"><ele>721.0</ele><time>2026-05-02T08:48:40.998Z</time></trkpt><trkpt lat="44.87337293530929" lon="7.272248610310444"><ele>721.0</ele><time>2026-05-02T08:48:41.998Z</time></trkpt><trkpt lat="44.87338639420946" lon="7.272063211646006"><ele>721.0</ele><time>2026-05-02T08:48:44.998Z</time></trkpt><trkpt lat="44.873442134684616" lon="7.271977290887075"><ele>722.8</ele><time>2026-05-02T08:48:45.998Z</time></trkpt><trkpt lat="44.87346362283155" lon="7.271882199474867"><ele>724.5999999999999</ele><time>2026-05-02T08:48:46.998Z</time></trkpt><trkpt lat="44.873518694422465" lon="7.271795848697905"><ele>726.4</ele><time>2026-05-02T08:48:47.998Z</time></trkpt><trkpt lat="44.87359690046068" lon="7.271698963194416"><ele>728.2</ele><time>2026-05-02T08:48:48.998Z</time></trkpt><trkpt lat="44.873666246358525" lon="7.271588111981648"><ele>730.0</ele><time>2026-05-02T08:48:49.998Z</time></trkpt><trkpt lat="44.87373583326418" lon="7.271435026345548"><ele>734.0</ele><time>2026-05-02T08:48:50.998Z</time></trkpt><trkpt lat="44.87381585638641" lon="7.271266931304263"><ele>738.0</ele><time>2026-05-02T08:48:51.998Z</time></trkpt><trkpt lat="44.8738760416557" lon="7.271095106779862"><ele>742.0</ele><time>2026-05-02T08:48:52.998Z</time></trkpt><trkpt lat="44.87394187451302" lon="7.2709540477237455"><ele>746.0</ele><time>2026-05-02T08:48:53.998Z</time></trkpt><trkpt lat="44.87397912503881" lon="7.2708469438887375"><ele>746.0</ele><time>2026-05-02T08:48:54.998Z</time></trkpt><trkpt lat="44.87403999414368" lon="7.270689081303448"><ele>746.0</ele><time>2026-05-02T08:48:55.998Z</time></trkpt><trkpt lat="44.87406198002101" lon="7.270568877034337"><ele>746.0</ele><time>2026-05-02T08:48:56.998Z</time></trkpt><trkpt lat="44.874085338738354" lon="7.270421213944645"><ele>746.0</ele><time>2026-05-02T08:48:57.998Z</time></trkpt><trkpt lat="44.874126462677964" lon="7.2702560132543494"><ele>746.0</ele><time>2026-05-02T08:48:58.998Z</time></trkpt><trkpt lat="44.87413928702425" lon="7.270134303302649"><ele>746.25</ele><time>2026-05-02T08:48:59.998Z</time></trkpt><trkpt lat="44.87412832809351" lon="7.270026500905759"><ele>746.5</ele><time>2026-05-02T08:49:00.998Z</time></trkpt><trkpt lat="44.87409626616202" lon="7.2698737456502505"><ele>746.75</ele><time>2026-05-02T08:49:01.998Z</time></trkpt><trkpt lat="44.87404956296823" lon="7.269704723598625"><ele>747.0</ele><time>2026-05-02T08:49:02.998Z</time></trkpt><trkpt lat="44.873995468548415" lon="7.269532337340984"><ele>747.0</ele><time>2026-05-02T08:49:03.998Z</time></trkpt><trkpt lat="44.87393761092117" lon="7.269382606577565"><ele>747.0</ele><time>2026-05-02T08:49:04.997Z</time></trkpt><trkpt lat="44.873867751195476" lon="7.269221335885186"><ele>747.0</ele><time>2026-05-02T08:49:05.997Z</time></trkpt><trkpt lat="44.87380036222587" lon="7.269073638185119"><ele>747.0</ele><time>2026-05-02T08:49:06.997Z</time></trkpt><trkpt lat="44.873740910046294" lon="7.268968070114647"><ele>750.3333333333334</ele><time>2026-05-02T08:49:07.997Z</time></trkpt><trkpt lat="44.87366348903073" lon="7.268889369015356"><ele>753.6666666666666</ele><time>2026-05-02T08:49:09Z</time></trkpt><trkpt lat="44.873579400556025" lon="7.2688018989453"><ele>757.0</ele><time>2026-05-02T08:49:10Z</time></trkpt><trkpt lat="44.87350328734357" lon="7.268726216875738"><ele>760.3333333333333</ele><time>2026-05-02T08:49:11Z</time></trkpt><trkpt lat="44.87346030593784" lon="7.2686444831774635"><ele>763.6666666666666</ele><time>2026-05-02T08:49:12Z</time></trkpt><trkpt lat="44.873454174627895" lon="7.268531185204401"><ele>767.0</ele><time>2026-05-02T08:49:14Z</time></trkpt><trkpt lat="44.87351267891861" lon="7.26847599539604"><ele>767.0</ele><time>2026-05-02T08:49:17Z</time></trkpt><trkpt lat="44.87355275059989" lon="7.268401249525448"><ele>767.0</ele><time>2026-05-02T08:49:18Z</time></trkpt><trkpt lat="44.8735964969345" lon="7.268303225973858"><ele>767.0</ele><time>2026-05-02T08:49:19Z</time></trkpt><trkpt lat="44.87371970422055" lon="7.268352837192259"><ele>767.0</ele><time>2026-05-02T08:49:20Z</time></trkpt><trkpt lat="44.87378677872125" lon="7.2682918435862"><ele>767.0</ele><time>2026-05-02T08:49:23Z</time></trkpt><trkpt lat="44.87384693652384" lon="7.268196587969348"><ele>767.0</ele><time>2026-05-02T08:49:25Z</time></trkpt><trkpt lat="44.873903085527154" lon="7.268141990733085"><ele>790.0</ele><time>2026-05-02T08:49:27Z</time></trkpt><trkpt lat="44.87446320369161" lon="7.268030153313827"><ele>790.0</ele><time>2026-05-02T08:49:30Z</time></trkpt><trkpt lat="44.87454791300291" lon="7.268009516845988"><ele>790.0</ele><time>2026-05-02T08:49:31Z</time></trkpt><trkpt lat="44.874636302573606" lon="7.267973689539854"><ele>790.0</ele><time>2026-05-02T08:49:32Z</time></trkpt><trkpt lat="44.87473044299206" lon="7.267926019824224"><ele>790.0</ele><time>2026-05-02T08:49:33Z</time></trkpt><trkpt lat="44.87483232503702" lon="7.267833940518004"><ele>790.0</ele><time>2026-05-02T08:49:33.999Z</time></trkpt><trkpt lat="44.87494885911357" lon="7.267741448900153"><ele>790.0</ele><time>2026-05-02T08:49:34.999Z</time></trkpt><trkpt lat="44.875043822780746" lon="7.267646929405969"><ele>790.0</ele><time>2026-05-02T08:49:35.999Z</time></trkpt><trkpt lat="44.87513288067379" lon="7.267575970237969"><ele>790.0</ele><time>2026-05-02T08:49:36.999Z</time></trkpt><trkpt lat="44.87522751587982" lon="7.267497062300618"><ele>790.0</ele><time>2026-05-02T08:49:37.999Z</time></trkpt><trkpt lat="44.87531453334402" lon="7.267424912428188"><ele>790.0</ele><time>2026-05-02T08:49:38.999Z</time></trkpt><trkpt lat="44.875406433018355" lon="7.267372090915333"><ele>785.4</ele><time>2026-05-02T08:49:39.999Z</time></trkpt><trkpt lat="44.875505830437405" lon="7.267358079992351"><ele>780.8</ele><time>2026-05-02T08:49:40.999Z</time></trkpt><trkpt lat="44.87557144489344" lon="7.26736165454008"><ele>776.2</ele><time>2026-05-02T08:49:41.999Z</time></trkpt><trkpt lat="44.87568832687602" lon="7.2673359877908315"><ele>771.6</ele><time>2026-05-02T08:49:43.999Z</time></trkpt><trkpt lat="44.8757662204479" lon="7.267383374149211"><ele>767.0</ele><time>2026-05-02T08:49:44.999Z</time></trkpt><trkpt lat="44.875858332778954" lon="7.2674155446733755"><ele>767.0</ele><time>2026-05-02T08:49:45.999Z</time></trkpt><trkpt lat="44.87592187449715" lon="7.267373707236332"><ele>767.0</ele><time>2026-05-02T08:49:46.999Z</time></trkpt><trkpt lat="44.87603276409731" lon="7.267416378567557"><ele>767.0</ele><time>2026-05-02T08:49:47.999Z</time></trkpt><trkpt lat="44.87615333365207" lon="7.267471766629098"><ele>767.0</ele><time>2026-05-02T08:49:48.999Z</time></trkpt><trkpt lat="44.876290457615404" lon="7.267500192221122"><ele>766.0</ele><time>2026-05-02T08:49:49.999Z</time></trkpt><trkpt lat="44.87638783948212" lon="7.267555158810473"><ele>765.0</ele><time>2026-05-02T08:49:50.999Z</time></trkpt><trkpt lat="44.87654833434819" lon="7.26748706540545"><ele>764.0</ele><time>2026-05-02T08:49:51.999Z</time></trkpt><trkpt lat="44.87663469587078" lon="7.267552641279961"><ele>763.0</ele><time>2026-05-02T08:49:52.999Z</time></trkpt><trkpt lat="44.876735116027916" lon="7.267584370134417"><ele>763.25</ele><time>2026-05-02T08:49:53.999Z</time></trkpt><trkpt lat="44.8768540778491" lon="7.2675021846970775"><ele>763.5</ele><time>2026-05-02T08:49:54.999Z</time></trkpt><trkpt lat="44.876960300105715" lon="7.267451461142801"><ele>763.75</ele><time>2026-05-02T08:49:55.999Z</time></trkpt><trkpt lat="44.87706590100628" lon="7.267396330379986"><ele>764.0</ele><time>2026-05-02T08:49:56.999Z</time></trkpt><trkpt lat="44.87716331220715" lon="7.267424840403294"><ele>764.0</ele><time>2026-05-02T08:49:57.999Z</time></trkpt><trkpt lat="44.877299855322626" lon="7.267435225357663"><ele>764.0</ele><time>2026-05-02T08:49:58.999Z</time></trkpt><trkpt lat="44.877418214802965" lon="7.2674115938525485"><ele>764.0</ele><time>2026-05-02T08:49:59.999Z</time></trkpt><trkpt lat="44.87752617324716" lon="7.267441416742565"><ele>764.0</ele><time>2026-05-02T08:50:00.999Z</time></trkpt><trkpt lat="44.877649324218716" lon="7.267470903207265"><ele>763.75</ele><time>2026-05-02T08:50:01.999Z</time></trkpt><trkpt lat="44.87777040290633" lon="7.267441918023175"><ele>763.5</ele><time>2026-05-02T08:50:02.999Z</time></trkpt><trkpt lat="44.877887264321664" lon="7.267386801117089"><ele>763.25</ele><time>2026-05-02T08:50:03.999Z</time></trkpt><trkpt lat="44.87799424225912" lon="7.267334063158444"><ele>763.0</ele><time>2026-05-02T08:50:04.999Z</time></trkpt><trkpt lat="44.878088896880136" lon="7.267278587814178"><ele>765.4</ele><time>2026-05-02T08:50:05.999Z</time></trkpt><trkpt lat="44.87815543862584" lon="7.267221803039958"><ele>767.8</ele><time>2026-05-02T08:50:06.999Z</time></trkpt><trkpt lat="44.87821037974385" lon="7.267163332977862"><ele>770.2</ele><time>2026-05-02T08:50:07.999Z</time></trkpt><trkpt lat="44.87824340871862" lon="7.267033320633721"><ele>772.6</ele><time>2026-05-02T08:50:09.999Z</time></trkpt><trkpt lat="44.878206677657076" lon="7.266820805745386"><ele>775.0</ele><time>2026-05-02T08:50:10.999Z</time></trkpt><trkpt lat="44.87823199317662" lon="7.2666542414869895"><ele>775.0</ele><time>2026-05-02T08:50:11.999Z</time></trkpt><trkpt lat="44.87823682823498" lon="7.266489694985225"><ele>775.0</ele><time>2026-05-02T08:50:12.999Z</time></trkpt><trkpt lat="44.87826637374177" lon="7.266326094199329"><ele>775.0</ele><time>2026-05-02T08:50:13.999Z</time></trkpt><trkpt lat="44.87832879658858" lon="7.26626103712902"><ele>775.0</ele><time>2026-05-02T08:50:14.999Z</time></trkpt><trkpt lat="44.878395972704084" lon="7.266169171770201"><ele>775.0</ele><time>2026-05-02T08:50:15.999Z</time></trkpt><trkpt lat="44.87843483328849" lon="7.2660364975150165"><ele>775.4</ele><time>2026-05-02T08:50:16.999Z</time></trkpt><trkpt lat="44.87847768995323" lon="7.265960350339879"><ele>775.8</ele><time>2026-05-02T08:50:17.999Z</time></trkpt><trkpt lat="44.87852638607568" lon="7.265807508865827"><ele>776.2</ele><time>2026-05-02T08:50:19.999Z</time></trkpt><trkpt lat="44.8786307817364" lon="7.265711261849542"><ele>776.6</ele><time>2026-05-02T08:50:21.998Z</time></trkpt><trkpt lat="44.87873103233951" lon="7.265634914567957"><ele>777.0</ele><time>2026-05-02T08:50:23.998Z</time></trkpt><trkpt lat="44.87881730236549" lon="7.265556024539672"><ele>777.0</ele><time>2026-05-02T08:50:25.998Z</time></trkpt><trkpt lat="44.87888992781243" lon="7.265484686380755"><ele>777.0</ele><time>2026-05-02T08:50:27.998Z</time></trkpt><trkpt lat="44.87891972145795" lon="7.265380732886141"><ele>777.0</ele><time>2026-05-02T08:50:29.998Z</time></trkpt><trkpt lat="44.878905182031794" lon="7.265249699545377"><ele>777.0</ele><time>2026-05-02T08:50:31.998Z</time></trkpt><trkpt lat="44.87891645206012" lon="7.26511340715764"><ele>777.0</ele><time>2026-05-02T08:50:32.998Z</time></trkpt><trkpt lat="44.878907137619976" lon="7.265014217268424"><ele>777.0</ele><time>2026-05-02T08:50:33.998Z</time></trkpt><trkpt lat="44.87887059887529" lon="7.264928306334514"><ele>777.0</ele><time>2026-05-02T08:50:35.998Z</time></trkpt><trkpt lat="44.87877652913628" lon="7.264856925389664"><ele>777.0</ele><time>2026-05-02T08:50:37.998Z</time></trkpt><trkpt lat="44.878703313417084" lon="7.26484303189159"><ele>777.0</ele><time>2026-05-02T08:50:39.998Z</time></trkpt><trkpt lat="44.87861889349021" lon="7.264822440532602"><ele>777.0</ele><time>2026-05-02T08:50:40.998Z</time></trkpt><trkpt lat="44.878558594235805" lon="7.264781909090263"><ele>777.0</ele><time>2026-05-02T08:50:41.998Z</time></trkpt><trkpt lat="44.87846542523894" lon="7.264676422691406"><ele>774.0</ele><time>2026-05-02T08:50:43.998Z</time></trkpt><trkpt lat="44.87839935431823" lon="7.264646628756505"><ele>771.0</ele><time>2026-05-02T08:50:44.998Z</time></trkpt><trkpt lat="44.87832638792122" lon="7.264657113404778"><ele>768.0</ele><time>2026-05-02T08:50:45.998Z</time></trkpt><trkpt lat="44.878259196204105" lon="7.264651655847988"><ele>765.0</ele><time>2026-05-02T08:50:46.998Z</time></trkpt><trkpt lat="44.8781660933853" lon="7.264611519199302"><ele>762.0</ele><time>2026-05-02T08:50:48.998Z</time></trkpt><trkpt lat="44.878106443987015" lon="7.264564051416928"><ele>759.0</ele><time>2026-05-02T08:50:49.998Z</time></trkpt><trkpt lat="44.87805233776333" lon="7.264501413596802"><ele>756.0</ele><time>2026-05-02T08:50:50.998Z</time></trkpt><trkpt lat="44.87799331371453" lon="7.264434844853422"><ele>756.0</ele><time>2026-05-02T08:50:51.998Z</time></trkpt><trkpt lat="44.8779238705259" lon="7.264375586526319"><ele>756.0</ele><time>2026-05-02T08:50:52.998Z</time></trkpt><trkpt lat="44.877847872231165" lon="7.264323115962909"><ele>756.0</ele><time>2026-05-02T08:50:53.998Z</time></trkpt><trkpt lat="44.877779121775326" lon="7.264287281091766"><ele>756.0</ele><time>2026-05-02T08:50:54.998Z</time></trkpt><trkpt lat="44.87769142786069" lon="7.264287504711746"><ele>756.0</ele><time>2026-05-02T08:50:55.998Z</time></trkpt><trkpt lat="44.87760939296647" lon="7.264301386669759"><ele>756.0</ele><time>2026-05-02T08:50:56.998Z</time></trkpt><trkpt lat="44.87753053483736" lon="7.264312325953784"><ele>755.6666666666666</ele><time>2026-05-02T08:50:57.998Z</time></trkpt><trkpt lat="44.877454276322815" lon="7.2643097936933945"><ele>755.3333333333334</ele><time>2026-05-02T08:50:58.998Z</time></trkpt><trkpt lat="44.87738613520903" lon="7.264289995049817"><ele>755.0</ele><time>2026-05-02T08:50:59.998Z</time></trkpt><trkpt lat="44.87731573093655" lon="7.26429175381687"><ele>754.6666666666667</ele><time>2026-05-02T08:51:00.998Z</time></trkpt><trkpt lat="44.87724597693077" lon="7.264286882476638"><ele>754.3333333333334</ele><time>2026-05-02T08:51:01.998Z</time></trkpt><trkpt lat="44.87715988094024" lon="7.264187423931648"><ele>754.0</ele><time>2026-05-02T08:51:03.998Z</time></trkpt><trkpt lat="44.877107960519794" lon="7.2640902505822815"><ele>754.0</ele><time>2026-05-02T08:51:04.998Z</time></trkpt><trkpt lat="44.87704585205275" lon="7.264005172009602"><ele>754.0</ele><time>2026-05-02T08:51:05.998Z</time></trkpt><trkpt lat="44.876983132221284" lon="7.263929717078635"><ele>754.0</ele><time>2026-05-02T08:51:06.997Z</time></trkpt><trkpt lat="44.876970622502384" lon="7.263833097724472"><ele>754.0</ele><time>2026-05-02T08:51:07.997Z</time></trkpt><trkpt lat="44.87693088247748" lon="7.263694086997071"><ele>754.0</ele><time>2026-05-02T08:51:09.997Z</time></trkpt><trkpt lat="44.87681364096419" lon="7.26359432702825"><ele>750.6666666666667</ele><time>2026-05-02T08:51:11.997Z</time></trkpt><trkpt lat="44.87673110814476" lon="7.26352725879875"><ele>747.3333333333334</ele><time>2026-05-02T08:51:12.997Z</time></trkpt><trkpt lat="44.87663238418642" lon="7.263459636839551"><ele>744.0</ele><time>2026-05-02T08:51:14Z</time></trkpt><trkpt lat="44.876564433424065" lon="7.263431015831219"><ele>740.6666666666666</ele><time>2026-05-02T08:51:15Z</time></trkpt><trkpt lat="44.87649609035755" lon="7.2634289000736425"><ele>737.3333333333333</ele><time>2026-05-02T08:51:17Z</time></trkpt><trkpt lat="44.87642933015063" lon="7.263464678817391"><ele>734.0</ele><time>2026-05-02T08:51:20Z</time></trkpt><trkpt lat="44.87650215310283" lon="7.26340507588067"><ele>734.0</ele><time>2026-05-02T08:51:26Z</time></trkpt><trkpt lat="44.876591726870636" lon="7.263348822596051"><ele>734.0</ele><time>2026-05-02T08:51:29Z</time></trkpt><trkpt lat="44.87666839982916" lon="7.263349221223619"><ele>734.0</ele><time>2026-05-02T08:51:31Z</time></trkpt><trkpt lat="44.876753030675346" lon="7.263356211671446"><ele>734.0</ele><time>2026-05-02T08:51:33Z</time></trkpt><trkpt lat="44.876841380562986" lon="7.2633428456705005"><ele>734.0</ele><time>2026-05-02T08:51:35Z</time></trkpt><trkpt lat="44.876923799456996" lon="7.263336010284618"><ele>734.0</ele><time>2026-05-02T08:51:37.999Z</time></trkpt><trkpt lat="44.87701071970085" lon="7.263365706588093"><ele>732.8333333333333</ele><time>2026-05-02T08:51:42.999Z</time></trkpt><trkpt lat="44.87710117511375" lon="7.26339880084788"><ele>731.6666666666666</ele><time>2026-05-02T08:51:44.999Z</time></trkpt><trkpt lat="44.877206903379765" lon="7.263430648575626"><ele>730.5</ele><time>2026-05-02T08:51:46.999Z</time></trkpt><trkpt lat="44.877268979309925" lon="7.263388462773121"><ele>729.3333333333334</ele><time>2026-05-02T08:51:48.999Z</time></trkpt><trkpt lat="44.877232942166565" lon="7.263290492068381"><ele>728.1666666666667</ele><time>2026-05-02T08:51:51.999Z</time></trkpt><trkpt lat="44.877182187521726" lon="7.263235408246997"><ele>727.0</ele><time>2026-05-02T08:51:53.999Z</time></trkpt><trkpt lat="44.8772316115545" lon="7.263141004187786"><ele>727.0</ele><time>2026-05-02T08:51:57.999Z</time></trkpt><trkpt lat="44.87735503928641" lon="7.2631386663570385"><ele>727.0</ele><time>2026-05-02T08:51:59.999Z</time></trkpt><trkpt lat="44.87740894669581" lon="7.263052550331268"><ele>727.0</ele><time>2026-05-02T08:52:01.999Z</time></trkpt><trkpt lat="44.87745447483418" lon="7.262890182024521"><ele>727.0</ele><time>2026-05-02T08:52:03.999Z</time></trkpt><trkpt lat="44.87754214602454" lon="7.262812713733575"><ele>727.0</ele><time>2026-05-02T08:52:05.999Z</time></trkpt><trkpt lat="44.87762089149815" lon="7.2627806542835796"><ele>722.6666666666667</ele><time>2026-05-02T08:52:07.999Z</time></trkpt><trkpt lat="44.87771162359089" lon="7.2627663555462725"><ele>718.3333333333334</ele><time>2026-05-02T08:52:09.999Z</time></trkpt><trkpt lat="44.87781252421826" lon="7.2627401191840555"><ele>714.0</ele><time>2026-05-02T08:52:11.999Z</time></trkpt><trkpt lat="44.877878000953366" lon="7.262702412786513"><ele>709.6666666666666</ele><time>2026-05-02T08:52:13.999Z</time></trkpt><trkpt lat="44.87795670683722" lon="7.262661591991594"><ele>705.3333333333333</ele><time>2026-05-02T08:52:15.999Z</time></trkpt><trkpt lat="44.87801915011128" lon="7.262620936199833"><ele>701.0</ele><time>2026-05-02T08:52:17.999Z</time></trkpt><trkpt lat="44.878086062037085" lon="7.262510825147275"><ele>701.0</ele><time>2026-05-02T08:52:19.999Z</time></trkpt><trkpt lat="44.8781649223408" lon="7.262414551159561"><ele>701.0</ele><time>2026-05-02T08:52:20.999Z</time></trkpt><trkpt lat="44.87824599394586" lon="7.26234626171337"><ele>701.0</ele><time>2026-05-02T08:52:21.999Z</time></trkpt><trkpt lat="44.87835277661959" lon="7.262311184743031"><ele>701.0</ele><time>2026-05-02T08:52:22.998Z</time></trkpt><trkpt lat="44.87846919886114" lon="7.26223167002717"><ele>701.0</ele><time>2026-05-02T08:52:23.998Z</time></trkpt><trkpt lat="44.87857208557238" lon="7.262140097879961"><ele>695.25</ele><time>2026-05-02T08:52:24.998Z</time></trkpt><trkpt lat="44.87865188904088" lon="7.2620187243751495"><ele>689.5</ele><time>2026-05-02T08:52:25.998Z</time></trkpt><trkpt lat="44.87871681875994" lon="7.2618751163859105"><ele>683.75</ele><time>2026-05-02T08:52:26.998Z</time></trkpt><trkpt lat="44.87880486057295" lon="7.261750811502709"><ele>678.0</ele><time>2026-05-02T08:52:27.998Z</time></trkpt><trkpt lat="44.87889423917838" lon="7.261681231077731"><ele>678.0</ele><time>2026-05-02T08:52:28.998Z</time></trkpt><trkpt lat="44.878970649589235" lon="7.261675298892064"><ele>678.0</ele><time>2026-05-02T08:52:29.998Z</time></trkpt><trkpt lat="44.8790449130042" lon="7.261671534674531"><ele>678.0</ele><time>2026-05-02T08:52:30.998Z</time></trkpt><trkpt lat="44.87915326009474" lon="7.261714610319225"><ele>678.0</ele><time>2026-05-02T08:52:32.998Z</time></trkpt><trkpt lat="44.87922914331256" lon="7.261804985961822"><ele>678.0</ele><time>2026-05-02T08:52:34.998Z</time></trkpt><trkpt lat="44.879316155305865" lon="7.261872946834252"><ele>678.8571428571428</ele><time>2026-05-02T08:52:36.998Z</time></trkpt><trkpt lat="44.87939209303412" lon="7.261934584952448"><ele>679.7142857142858</ele><time>2026-05-02T08:52:38.998Z</time></trkpt><trkpt lat="44.87945503339299" lon="7.261928755546822"><ele>680.5714285714286</ele><time>2026-05-02T08:52:41.998Z</time></trkpt><trkpt lat="44.879526783126494" lon="7.261901887117208"><ele>681.4285714285713</ele><time>2026-05-02T08:52:44.998Z</time></trkpt><trkpt lat="44.87958934123817" lon="7.261883541164921"><ele>682.2857142857142</ele><time>2026-05-02T08:52:46.998Z</time></trkpt><trkpt lat="44.879639044239156" lon="7.261813175111021"><ele>683.1428571428571</ele><time>2026-05-02T08:52:48.998Z</time></trkpt><trkpt lat="44.87969759239317" lon="7.261732676909848"><ele>684.0</ele><time>2026-05-02T08:52:50.998Z</time></trkpt><trkpt lat="44.87975479997884" lon="7.261669576217758"><ele>684.0</ele><time>2026-05-02T08:52:53.998Z</time></trkpt><trkpt lat="44.87984431780657" lon="7.2616744203935175"><ele>684.0</ele><time>2026-05-02T08:53:04.998Z</time></trkpt><trkpt lat="44.879883471778875" lon="7.261577072135529"><ele>684.0</ele><time>2026-05-02T08:53:08.998Z</time></trkpt><trkpt lat="44.879902394937396" lon="7.261411109741155"><ele>684.0</ele><time>2026-05-02T08:53:17.997Z</time></trkpt><trkpt lat="44.879942826777" lon="7.261331596170858"><ele>684.0</ele><time>2026-05-02T08:53:18.997Z</time></trkpt><trkpt lat="44.88003797325185" lon="7.261229527773078"><ele>680.8333333333334</ele><time>2026-05-02T08:53:21Z</time></trkpt><trkpt lat="44.88011672602371" lon="7.261129061842707"><ele>677.6666666666666</ele><time>2026-05-02T08:53:23Z</time></trkpt><trkpt lat="44.88017068944927" lon="7.2610505384872575"><ele>674.5</ele><time>2026-05-02T08:53:25Z</time></trkpt><trkpt lat="44.88021305857909" lon="7.260969399189752"><ele>671.3333333333333</ele><time>2026-05-02T08:53:27Z</time></trkpt><trkpt lat="44.88025396749878" lon="7.260897379333902"><ele>668.1666666666666</ele><time>2026-05-02T08:53:29Z</time></trkpt><trkpt lat="44.880320481706605" lon="7.260831803260195"><ele>665.0</ele><time>2026-05-02T08:53:31Z</time></trkpt><trkpt lat="44.88040302585537" lon="7.2607732192458"><ele>665.0</ele><time>2026-05-02T08:53:33Z</time></trkpt><trkpt lat="44.880486716893834" lon="7.260773843727946"><ele>665.0</ele><time>2026-05-02T08:53:36Z</time></trkpt><trkpt lat="44.880595641932075" lon="7.260782774932332"><ele>665.0</ele><time>2026-05-02T08:53:38Z</time></trkpt><trkpt lat="44.88068784371316" lon="7.260750844172377"><ele>665.0</ele><time>2026-05-02T08:53:40Z</time></trkpt><trkpt lat="44.880760104402206" lon="7.260713891521503"><ele>665.0</ele><time>2026-05-02T08:53:41.999Z</time></trkpt><trkpt lat="44.88080797761247" lon="7.260640164737816"><ele>665.0</ele><time>2026-05-02T08:53:44.999Z</time></trkpt><trkpt lat="44.8808394532431" lon="7.260560514610378"><ele>660.0</ele><time>2026-05-02T08:53:46.999Z</time></trkpt><trkpt lat="44.88083492329547" lon="7.260438817282055"><ele>655.0</ele><time>2026-05-02T08:53:48.999Z</time></trkpt><trkpt lat="44.88084367890117" lon="7.260273379154911"><ele>650.0</ele><time>2026-05-02T08:53:50.999Z</time></trkpt><trkpt lat="44.88087276159043" lon="7.260088936930913"><ele>645.0</ele><time>2026-05-02T08:53:52.999Z</time></trkpt><trkpt lat="44.88088496909988" lon="7.259993674599289"><ele>640.0</ele><time>2026-05-02T08:53:55.999Z</time></trkpt><trkpt lat="44.8808943215414" lon="7.259869898187558"><ele>638.3333333333334</ele><time>2026-05-02T08:53:57.999Z</time></trkpt><trkpt lat="44.88091662050099" lon="7.259776545564692"><ele>636.6666666666666</ele><time>2026-05-02T08:53:59.999Z</time></trkpt><trkpt lat="44.881006984057926" lon="7.259394682239633"><ele>635.0</ele><time>2026-05-02T08:54:02.999Z</time></trkpt><trkpt lat="44.88110508668323" lon="7.259316035569591"><ele>635.0</ele><time>2026-05-02T08:54:04.999Z</time></trkpt><trkpt lat="44.8811531626035" lon="7.259227647714347"><ele>635.0</ele><time>2026-05-02T08:54:06.999Z</time></trkpt><trkpt lat="44.88120994383644" lon="7.259068973364499"><ele>635.0</ele><time>2026-05-02T08:54:08.999Z</time></trkpt><trkpt lat="44.881241880964275" lon="7.258963582503654"><ele>635.0</ele><time>2026-05-02T08:54:09.999Z</time></trkpt><trkpt lat="44.881272876225616" lon="7.258856851066951"><ele>635.0</ele><time>2026-05-02T08:54:10.999Z</time></trkpt><trkpt lat="44.88131364609433" lon="7.258774938452962"><ele>635.0</ele><time>2026-05-02T08:54:11.999Z</time></trkpt><trkpt lat="44.881330459734" lon="7.258625892994935"><ele>632.3333333333333</ele><time>2026-05-02T08:54:13.999Z</time></trkpt><trkpt lat="44.88134769250674" lon="7.258514508211961"><ele>629.6666666666666</ele><time>2026-05-02T08:54:15.999Z</time></trkpt><trkpt lat="44.88136146622801" lon="7.2584198454061255"><ele>627.0</ele><time>2026-05-02T08:54:17.999Z</time></trkpt><trkpt lat="44.881382862334256" lon="7.258268955796681"><ele>624.3333333333334</ele><time>2026-05-02T08:54:19.999Z</time></trkpt><trkpt lat="44.88141033248548" lon="7.258152057278766"><ele>621.6666666666667</ele><time>2026-05-02T08:54:21.999Z</time></trkpt><trkpt lat="44.881433702115466" lon="7.258065926967833"><ele>619.0</ele><time>2026-05-02T08:54:23.999Z</time></trkpt><trkpt lat="44.88145223557965" lon="7.257961008612914"><ele>612.6666666666667</ele><time>2026-05-02T08:54:27.998Z</time></trkpt><trkpt lat="44.881507503618806" lon="7.257891315920198"><ele>606.3333333333334</ele><time>2026-05-02T08:54:30.998Z</time></trkpt><trkpt lat="44.88179787031001" lon="7.257582132062085"><ele>600.0</ele><time>2026-05-02T08:54:34.998Z</time></trkpt><trkpt lat="44.88186205794896" lon="7.257492131141882"><ele>600.0</ele><time>2026-05-02T08:54:35.998Z</time></trkpt><trkpt lat="44.88192836987346" lon="7.257409748147886"><ele>600.0</ele><time>2026-05-02T08:54:36.998Z</time></trkpt><trkpt lat="44.88200271216518" lon="7.257337948979753"><ele>600.0</ele><time>2026-05-02T08:54:37.998Z</time></trkpt><trkpt lat="44.88208851150812" lon="7.2572797849257435"><ele>600.0</ele><time>2026-05-02T08:54:38.998Z</time></trkpt><trkpt lat="44.882189940812765" lon="7.2572158336318875"><ele>600.0</ele><time>2026-05-02T08:54:39.998Z</time></trkpt><trkpt lat="44.88230557414758" lon="7.257150694647251"><ele>595.4</ele><time>2026-05-02T08:54:40.998Z</time></trkpt><trkpt lat="44.88241600273679" lon="7.2570864849342565"><ele>590.8</ele><time>2026-05-02T08:54:41.998Z</time></trkpt><trkpt lat="44.88250929478474" lon="7.257026225020989"><ele>586.2</ele><time>2026-05-02T08:54:42.998Z</time></trkpt><trkpt lat="44.88258706400273" lon="7.256972983532615"><ele>581.6</ele><time>2026-05-02T08:54:43.998Z</time></trkpt><trkpt lat="44.88264682446107" lon="7.256939440402613"><ele>577.0</ele><time>2026-05-02T08:54:44.998Z</time></trkpt><trkpt lat="44.88275318366551" lon="7.256928070591829"><ele>575.1666666666667</ele><time>2026-05-02T08:54:46.998Z</time></trkpt><trkpt lat="44.882872271566974" lon="7.256992744345136"><ele>573.3333333333334</ele><time>2026-05-02T08:54:48.998Z</time></trkpt><trkpt lat="44.882941296788594" lon="7.2570280727922905"><ele>571.5</ele><time>2026-05-02T08:54:49.998Z</time></trkpt><trkpt lat="44.88300838404067" lon="7.257065873647068"><ele>569.6666666666666</ele><time>2026-05-02T08:54:50.998Z</time></trkpt><trkpt lat="44.88307548116847" lon="7.257103274090207"><ele>567.8333333333333</ele><time>2026-05-02T08:54:51.998Z</time></trkpt><trkpt lat="44.883139504454654" lon="7.2571334758412345"><ele>566.0</ele><time>2026-05-02T08:54:52.998Z</time></trkpt><trkpt lat="44.88317340700697" lon="7.257241040464527"><ele>566.0</ele><time>2026-05-02T08:54:53.998Z</time></trkpt><trkpt lat="44.88325117583127" lon="7.257295623771754"><ele>566.0</ele><time>2026-05-02T08:54:55.998Z</time></trkpt><trkpt lat="44.8833056275686" lon="7.25734404276484"><ele>566.0</ele><time>2026-05-02T08:54:58.998Z</time></trkpt><trkpt lat="44.88329328020179" lon="7.257209174563891"><ele>566.0</ele><time>2026-05-02T08:55:03.998Z</time></trkpt><trkpt lat="44.88323688794345" lon="7.257107440588603"><ele>566.0</ele><time>2026-05-02T08:55:04.998Z</time></trkpt><trkpt lat="44.88318214951341" lon="7.257024565438065"><ele>566.0</ele><time>2026-05-02T08:55:05.998Z</time></trkpt><trkpt lat="44.88314724090827" lon="7.256930207144679"><ele>566.0</ele><time>2026-05-02T08:55:06.998Z</time></trkpt><trkpt lat="44.88313093409164" lon="7.256827849699616"><ele>566.0</ele><time>2026-05-02T08:55:07.998Z</time></trkpt><trkpt lat="44.883106986153905" lon="7.2567105182911416"><ele>566.0</ele><time>2026-05-02T08:55:08.998Z</time></trkpt><trkpt lat="44.88308035969923" lon="7.256594545065058"><ele>566.0</ele><time>2026-05-02T08:55:09.998Z</time></trkpt><trkpt lat="44.88303384423293" lon="7.256486455461424"><ele>566.0</ele><time>2026-05-02T08:55:10.998Z</time></trkpt><trkpt lat="44.88297721269055" lon="7.256372081741598"><ele>566.0</ele><time>2026-05-02T08:55:11.998Z</time></trkpt><trkpt lat="44.88291407144368" lon="7.25626599415649"><ele>564.0</ele><time>2026-05-02T08:55:12.998Z</time></trkpt><trkpt lat="44.88284665652553" lon="7.256181887908551"><ele>562.0</ele><time>2026-05-02T08:55:13.997Z</time></trkpt><trkpt lat="44.88278001065199" lon="7.256094236440724"><ele>560.0</ele><time>2026-05-02T08:55:14.997Z</time></trkpt><trkpt lat="44.88270915007815" lon="7.256042968967016"><ele>558.0</ele><time>2026-05-02T08:55:15.997Z</time></trkpt><trkpt lat="44.88263472938384" lon="7.256018506468428"><ele>556.0</ele><time>2026-05-02T08:55:16.997Z</time></trkpt><trkpt lat="44.88256451461317" lon="7.256004329336127"><ele>554.0</ele><time>2026-05-02T08:55:17.997Z</time></trkpt><trkpt lat="44.88249660026735" lon="7.2559564418821925"><ele>554.0</ele><time>2026-05-02T08:55:19.997Z</time></trkpt><trkpt lat="44.88256962144316" lon="7.255881101017113"><ele>554.0</ele><time>2026-05-02T08:55:21.997Z</time></trkpt><trkpt lat="44.88264999641175" lon="7.255885929128926"><ele>554.0</ele><time>2026-05-02T08:55:22.997Z</time></trkpt><trkpt lat="44.882724353044054" lon="7.255894786776054"><ele>554.0</ele><time>2026-05-02T08:55:23.997Z</time></trkpt><trkpt lat="44.88282723209728" lon="7.255883153090072"><ele>554.0</ele><time>2026-05-02T08:55:26Z</time></trkpt><trkpt lat="44.882891800854885" lon="7.255852183660404"><ele>554.0</ele><time>2026-05-02T08:55:27Z</time></trkpt><trkpt lat="44.882965241161536" lon="7.255850789167261"><ele>552.0</ele><time>2026-05-02T08:55:28Z</time></trkpt><trkpt lat="44.883057901331014" lon="7.255882901701711"><ele>550.0</ele><time>2026-05-02T08:55:30Z</time></trkpt><trkpt lat="44.883149265694705" lon="7.2558619033323515"><ele>548.0</ele><time>2026-05-02T08:55:32Z</time></trkpt><trkpt lat="44.883225575104625" lon="7.255834030276155"><ele>546.0</ele><time>2026-05-02T08:55:34Z</time></trkpt><trkpt lat="44.88329187949009" lon="7.255873660308629"><ele>544.0</ele><time>2026-05-02T08:55:36Z</time></trkpt><trkpt lat="44.883360665085135" lon="7.255887266098612"><ele>542.0</ele><time>2026-05-02T08:55:38Z</time></trkpt><trkpt lat="44.88337120227304" lon="7.255661754601669"><ele>537.6666666666666</ele><time>2026-05-02T08:55:42Z</time></trkpt><trkpt lat="44.88332412709904" lon="7.255601915873502"><ele>533.3333333333333</ele><time>2026-05-02T08:55:43Z</time></trkpt><trkpt lat="44.883253594417205" lon="7.255562722034869"><ele>529.0</ele><time>2026-05-02T08:55:44Z</time></trkpt><trkpt lat="44.883181452028964" lon="7.25552515013707"><ele>524.6666666666666</ele><time>2026-05-02T08:55:44.999Z</time></trkpt><trkpt lat="44.88308980515589" lon="7.255487331531529"><ele>520.3333333333334</ele><time>2026-05-02T08:55:45.999Z</time></trkpt><trkpt lat="44.88301502758869" lon="7.255436347960113"><ele>516.0</ele><time>2026-05-02T08:55:46.999Z</time></trkpt><trkpt lat="44.88294704035788" lon="7.255380812951792"><ele>516.0</ele><time>2026-05-02T08:55:47.999Z</time></trkpt><trkpt lat="44.88289302672934" lon="7.255308250681805"><ele>516.0</ele><time>2026-05-02T08:55:48.999Z</time></trkpt><trkpt lat="44.88281083014782" lon="7.2552344341014905"><ele>516.0</ele><time>2026-05-02T08:55:49.999Z</time></trkpt><trkpt lat="44.88273859343366" lon="7.255142644854289"><ele>516.0</ele><time>2026-05-02T08:55:50.999Z</time></trkpt><trkpt lat="44.882680687771035" lon="7.255044084803477"><ele>516.0</ele><time>2026-05-02T08:55:51.999Z</time></trkpt><trkpt lat="44.882611320962475" lon="7.254939983924176"><ele>514.0</ele><time>2026-05-02T08:55:52.999Z</time></trkpt><trkpt lat="44.8825499941973" lon="7.254830986205895"><ele>512.0</ele><time>2026-05-02T08:55:53.999Z</time></trkpt><trkpt lat="44.88264276928155" lon="7.254523403537071"><ele>510.0</ele><time>2026-05-02T08:55:54.999Z</time></trkpt><trkpt lat="44.882581741413134" lon="7.25443503783318"><ele>508.0</ele><time>2026-05-02T08:55:55.999Z</time></trkpt><trkpt lat="44.88252212263235" lon="7.254329161824918"><ele>507.50000000000006</ele><time>2026-05-02T08:55:56.999Z</time></trkpt><trkpt lat="44.882471754434036" lon="7.2542349873366865"><ele>507.0</ele><time>2026-05-02T08:55:57.999Z</time></trkpt><trkpt lat="44.882421471302614" lon="7.254137086926092"><ele>506.5</ele><time>2026-05-02T08:55:58.999Z</time></trkpt><trkpt lat="44.88237084059295" lon="7.254038510028195"><ele>506.0</ele><time>2026-05-02T08:55:59.999Z</time></trkpt><trkpt lat="44.88232129142801" lon="7.253952438811757"><ele>505.50000000000006</ele><time>2026-05-02T08:56:00.999Z</time></trkpt><trkpt lat="44.88227577211217" lon="7.253872349171898"><ele>505.0</ele><time>2026-05-02T08:56:01.999Z</time></trkpt><trkpt lat="44.882213133111144" lon="7.253939101658917"><ele>506.85714285714283</ele><time>2026-05-02T08:56:15.999Z</time></trkpt><trkpt lat="44.88226462490321" lon="7.253883763950455"><ele>508.71428571428567</ele><time>2026-05-02T08:59:55.999Z</time></trkpt><trkpt lat="44.88234086402228" lon="7.253825770206928"><ele>510.57142857142856</ele><time>2026-05-02T08:59:58.999Z</time></trkpt><trkpt lat="44.88240810177674" lon="7.2538291414143465"><ele>512.4285714285714</ele><time>2026-05-02T09:00:00.999Z</time></trkpt><trkpt lat="44.88246565866361" lon="7.253783830988684"><ele>514.2857142857142</ele><time>2026-05-02T09:00:02.999Z</time></trkpt><trkpt lat="44.88249775382687" lon="7.253702776168606"><ele>516.1428571428571</ele><time>2026-05-02T09:00:03.999Z</time></trkpt><trkpt lat="44.88252438631446" lon="7.253598410480887"><ele>518.0</ele><time>2026-05-02T09:00:04.999Z</time></trkpt><trkpt lat="44.88251905348257" lon="7.253508026967801"><ele>518.0</ele><time>2026-05-02T09:00:05.999Z</time></trkpt><trkpt lat="44.882485076487335" lon="7.2534053265833345"><ele>518.0</ele><time>2026-05-02T09:00:07.999Z</time></trkpt><trkpt lat="44.88240995234516" lon="7.253418416623338"><ele>518.0</ele><time>2026-05-02T09:00:09.999Z</time></trkpt><trkpt lat="44.88234428769728" lon="7.2533897217161964"><ele>518.0</ele><time>2026-05-02T09:00:10.999Z</time></trkpt><trkpt lat="44.882265357143375" lon="7.253365924532879"><ele>518.0</ele><time>2026-05-02T09:00:11.999Z</time></trkpt><trkpt lat="44.8820440019294" lon="7.253131643757202"><ele>520.6666666666666</ele><time>2026-05-02T09:00:15.999Z</time></trkpt><trkpt lat="44.88198842110347" lon="7.253078369535661"><ele>523.3333333333333</ele><time>2026-05-02T09:00:16.999Z</time></trkpt><trkpt lat="44.88193075670967" lon="7.253012761694965"><ele>526.0</ele><time>2026-05-02T09:00:17.999Z</time></trkpt><trkpt lat="44.88186083799083" lon="7.2529685782021"><ele>528.6666666666666</ele><time>2026-05-02T09:00:18.999Z</time></trkpt><trkpt lat="44.881791902376975" lon="7.252913833537362"><ele>531.3333333333334</ele><time>2026-05-02T09:00:19.999Z</time></trkpt><trkpt lat="44.88168763213594" lon="7.252893037633512"><ele>534.0</ele><time>2026-05-02T09:00:20.999Z</time></trkpt><trkpt lat="44.88158352308893" lon="7.252865487118873"><ele>534.0</ele><time>2026-05-02T09:00:21.999Z</time></trkpt><trkpt lat="44.88150078801091" lon="7.252828712077235"><ele>534.0</ele><time>2026-05-02T09:00:22.999Z</time></trkpt><trkpt lat="44.88144123435715" lon="7.252780885501143"><ele>534.0</ele><time>2026-05-02T09:00:23.999Z</time></trkpt><trkpt lat="44.88134338510113" lon="7.252791994137839"><ele>534.0</ele><time>2026-05-02T09:00:24.999Z</time></trkpt><trkpt lat="44.881269247956986" lon="7.25277749952942"><ele>534.0</ele><time>2026-05-02T09:00:25.999Z</time></trkpt><trkpt lat="44.88116468368596" lon="7.25276203902886"><ele>534.0</ele><time>2026-05-02T09:00:26.999Z</time></trkpt><trkpt lat="44.88106668581537" lon="7.252723400757062"><ele>534.0</ele><time>2026-05-02T09:00:27.999Z</time></trkpt><trkpt lat="44.88097248224925" lon="7.252724364220496"><ele>534.0</ele><time>2026-05-02T09:00:28.999Z</time></trkpt><trkpt lat="44.88086658263869" lon="7.252721280377703"><ele>534.0</ele><time>2026-05-02T09:00:29.999Z</time></trkpt><trkpt lat="44.880766262004485" lon="7.252726537451549"><ele>534.0</ele><time>2026-05-02T09:00:30.999Z</time></trkpt><trkpt lat="44.88067675162511" lon="7.252734958415977"><ele>534.0</ele><time>2026-05-02T09:00:31.999Z</time></trkpt><trkpt lat="44.88058443649444" lon="7.252732023116601"><ele>533.1666666666666</ele><time>2026-05-02T09:00:32.999Z</time></trkpt><trkpt lat="44.880502695163706" lon="7.252731979831518"><ele>532.3333333333334</ele><time>2026-05-02T09:00:33.999Z</time></trkpt><trkpt lat="44.88042968224324" lon="7.252726193097714"><ele>531.5</ele><time>2026-05-02T09:00:34.999Z</time></trkpt><trkpt lat="44.880355792022925" lon="7.252706591781888"><ele>530.6666666666667</ele><time>2026-05-02T09:00:35.999Z</time></trkpt><trkpt lat="44.88027495385389" lon="7.252679990186072"><ele>529.8333333333334</ele><time>2026-05-02T09:00:36.999Z</time></trkpt><trkpt lat="44.88017171381002" lon="7.252636030453739"><ele>529.0</ele><time>2026-05-02T09:00:37.999Z</time></trkpt><trkpt lat="44.880074016643135" lon="7.2526160694828095"><ele>528.5</ele><time>2026-05-02T09:00:38.999Z</time></trkpt><trkpt lat="44.87995676268312" lon="7.2525650525421685"><ele>528.0</ele><time>2026-05-02T09:00:39.998Z</time></trkpt><trkpt lat="44.8798532550078" lon="7.252541923552427"><ele>527.5</ele><time>2026-05-02T09:00:40.998Z</time></trkpt><trkpt lat="44.87974430832501" lon="7.2524875681323095"><ele>527.0</ele><time>2026-05-02T09:00:41.998Z</time></trkpt><trkpt lat="44.87964381235974" lon="7.252427100787374"><ele>527.0</ele><time>2026-05-02T09:00:42.998Z</time></trkpt><trkpt lat="44.879534678511" lon="7.2523425421894805"><ele>527.0</ele><time>2026-05-02T09:00:43.998Z</time></trkpt><trkpt lat="44.87943836918878" lon="7.252277434811865"><ele>527.0</ele><time>2026-05-02T09:00:44.998Z</time></trkpt><trkpt lat="44.87934319655871" lon="7.252199329529869"><ele>527.0</ele><time>2026-05-02T09:00:45.998Z</time></trkpt><trkpt lat="44.87925038931274" lon="7.252100194188642"><ele>533.0</ele><time>2026-05-02T09:00:46.998Z</time></trkpt><trkpt lat="44.87913492328891" lon="7.252002056559953"><ele>539.0</ele><time>2026-05-02T09:00:47.998Z</time></trkpt><trkpt lat="44.87903827438401" lon="7.251894276419014"><ele>545.0</ele><time>2026-05-02T09:00:48.998Z</time></trkpt><trkpt lat="44.87894486755177" lon="7.251803353006964"><ele>551.0</ele><time>2026-05-02T09:00:49.998Z</time></trkpt><trkpt lat="44.87885725898024" lon="7.251718491971614"><ele>551.0</ele><time>2026-05-02T09:00:50.998Z</time></trkpt><trkpt lat="44.87876402525134" lon="7.25165976127512"><ele>551.0</ele><time>2026-05-02T09:00:51.998Z</time></trkpt><trkpt lat="44.87865136580914" lon="7.251616895107297"><ele>551.0</ele><time>2026-05-02T09:00:52.998Z</time></trkpt><trkpt lat="44.8785441567125" lon="7.251574415872447"><ele>551.0</ele><time>2026-05-02T09:00:53.998Z</time></trkpt><trkpt lat="44.87846052837413" lon="7.2515147555776585"><ele>551.0</ele><time>2026-05-02T09:00:54.998Z</time></trkpt><trkpt lat="44.87840257702298" lon="7.251461685765565"><ele>552.3333333333333</ele><time>2026-05-02T09:00:55.998Z</time></trkpt><trkpt lat="44.878367982229186" lon="7.251378612931901"><ele>553.6666666666666</ele><time>2026-05-02T09:00:56.998Z</time></trkpt><trkpt lat="44.87834975963773" lon="7.251261184918435"><ele>555.0</ele><time>2026-05-02T09:00:57.998Z</time></trkpt><trkpt lat="44.878356987394525" lon="7.251156735767087"><ele>556.3333333333334</ele><time>2026-05-02T09:00:58.998Z</time></trkpt><trkpt lat="44.87833473879975" lon="7.251019750580397"><ele>557.6666666666667</ele><time>2026-05-02T09:00:59.998Z</time></trkpt><trkpt lat="44.87831131106601" lon="7.250869321530128"><ele>559.0</ele><time>2026-05-02T09:01:00.998Z</time></trkpt><trkpt lat="44.87828490452687" lon="7.250744746385186"><ele>559.0</ele><time>2026-05-02T09:01:02.998Z</time></trkpt><trkpt lat="44.878208727757944" lon="7.250769179409254"><ele>559.0</ele><time>2026-05-02T09:01:03.998Z</time></trkpt><trkpt lat="44.878111533424246" lon="7.250699293505453"><ele>559.0</ele><time>2026-05-02T09:01:05.998Z</time></trkpt><trkpt lat="44.878037947407215" lon="7.250578827996101"><ele>559.0</ele><time>2026-05-02T09:01:09.998Z</time></trkpt><trkpt lat="44.877993124900534" lon="7.250479640180955"><ele>559.0</ele><time>2026-05-02T09:01:12.998Z</time></trkpt><trkpt lat="44.87793429826334" lon="7.250512766874366"><ele>559.0</ele><time>2026-05-02T09:01:16.998Z</time></trkpt><trkpt lat="44.87787202604362" lon="7.250499284176549"><ele>559.0</ele><time>2026-05-02T09:01:17.998Z</time></trkpt><trkpt lat="44.87785741807628" lon="7.250688371260962"><ele>559.0</ele><time>2026-05-02T09:01:19.998Z</time></trkpt><trkpt lat="44.87786391508281" lon="7.250819923563765"><ele>559.0</ele><time>2026-05-02T09:01:21.998Z</time></trkpt><trkpt lat="44.8778157475269" lon="7.251000126243594"><ele>559.0</ele><time>2026-05-02T09:01:22.998Z</time></trkpt><trkpt lat="44.87773242872898" lon="7.250976863210058"><ele>559.0</ele><time>2026-05-02T09:01:25.998Z</time></trkpt><trkpt lat="44.87766546918002" lon="7.250648389830666"><ele>559.0</ele><time>2026-05-02T09:01:30.997Z</time></trkpt><trkpt lat="44.87764527817306" lon="7.250550314298268"><ele>559.0</ele><time>2026-05-02T09:01:35.998Z</time></trkpt><trkpt lat="44.877579300835265" lon="7.250492411005453"><ele>559.0</ele><time>2026-05-02T09:01:37.998Z</time></trkpt><trkpt lat="44.8775209217887" lon="7.250392191548961"><ele>563.5</ele><time>2026-05-02T09:01:39.998Z</time></trkpt><trkpt lat="44.87747284741116" lon="7.2502711019765425"><ele>568.0</ele><time>2026-05-02T09:01:41.998Z</time></trkpt><trkpt lat="44.877458064292775" lon="7.250096818008593"><ele>572.5</ele><time>2026-05-02T09:01:44Z</time></trkpt><trkpt lat="44.87759899359836" lon="7.249847026513296"><ele>577.0</ele><time>2026-05-02T09:01:45.001Z</time></trkpt><trkpt lat="44.87760356760025" lon="7.249690676435048"><ele>579.2</ele><time>2026-05-02T09:01:46Z</time></trkpt><trkpt lat="44.877618159857725" lon="7.249586297955406"><ele>581.4000000000001</ele><time>2026-05-02T09:01:47Z</time></trkpt><trkpt lat="44.87758880610024" lon="7.249394415753657"><ele>583.5999999999999</ele><time>2026-05-02T09:01:49Z</time></trkpt><trkpt lat="44.87751175630291" lon="7.249241693190841"><ele>585.8</ele><time>2026-05-02T09:01:51Z</time></trkpt><trkpt lat="44.877482457155544" lon="7.249146228489509"><ele>588.0</ele><time>2026-05-02T09:01:52Z</time></trkpt><trkpt lat="44.877443041132416" lon="7.249043499705982"><ele>592.0</ele><time>2026-05-02T09:01:53Z</time></trkpt><trkpt lat="44.87745246449678" lon="7.248864858209143"><ele>596.0</ele><time>2026-05-02T09:01:55Z</time></trkpt><trkpt lat="44.877467861848764" lon="7.2487517757047835"><ele>600.0</ele><time>2026-05-02T09:01:56Z</time></trkpt><trkpt lat="44.87749137700661" lon="7.248605293112302"><ele>604.0</ele><time>2026-05-02T09:01:57Z</time></trkpt><trkpt lat="44.87748385706575" lon="7.248473314866901"><ele>608.0</ele><time>2026-05-02T09:01:58Z</time></trkpt><trkpt lat="44.877460423965594" lon="7.248354765437978"><ele>608.0</ele><time>2026-05-02T09:01:59Z</time></trkpt><trkpt lat="44.87741858963588" lon="7.248276981674873"><ele>608.0</ele><time>2026-05-02T09:02:00Z</time></trkpt><trkpt lat="44.877379167036885" lon="7.248171001407888"><ele>608.0</ele><time>2026-05-02T09:02:01Z</time></trkpt><trkpt lat="44.87733670151803" lon="7.248050842569982"><ele>608.0</ele><time>2026-05-02T09:02:02Z</time></trkpt><trkpt lat="44.877331231084284" lon="7.247924755768465"><ele>608.0</ele><time>2026-05-02T09:02:03Z</time></trkpt><trkpt lat="44.87733917473327" lon="7.247799686091507"><ele>608.0</ele><time>2026-05-02T09:02:04Z</time></trkpt><trkpt lat="44.87735046264314" lon="7.247668981309465"><ele>609.6666666666666</ele><time>2026-05-02T09:02:05Z</time></trkpt><trkpt lat="44.87733398849574" lon="7.247564591136755"><ele>611.3333333333333</ele><time>2026-05-02T09:02:06Z</time></trkpt><trkpt lat="44.877300406907345" lon="7.24744980255125"><ele>613.0</ele><time>2026-05-02T09:02:07Z</time></trkpt><trkpt lat="44.877264501074535" lon="7.247357956154599"><ele>614.6666666666666</ele><time>2026-05-02T09:02:08Z</time></trkpt><trkpt lat="44.877229363517884" lon="7.2472834647399"><ele>616.3333333333334</ele><time>2026-05-02T09:02:11Z</time></trkpt><trkpt lat="44.877191739226845" lon="7.2471538594930145"><ele>618.0</ele><time>2026-05-02T09:02:13Z</time></trkpt><trkpt lat="44.87718362180371" lon="7.247041876870479"><ele>622.0</ele><time>2026-05-02T09:02:15Z</time></trkpt><trkpt lat="44.87716068101363" lon="7.246903458101385"><ele>626.0</ele><time>2026-05-02T09:02:17Z</time></trkpt><trkpt lat="44.87715220820043" lon="7.246765297059128"><ele>630.0</ele><time>2026-05-02T09:02:19Z</time></trkpt><trkpt lat="44.87718156602843" lon="7.2466506354638955"><ele>634.0</ele><time>2026-05-02T09:02:22Z</time></trkpt><trkpt lat="44.877095525109056" lon="7.2461634705686535"><ele>638.1666666666667</ele><time>2026-05-02T09:02:24Z</time></trkpt><trkpt lat="44.87705351604822" lon="7.246037375249464"><ele>642.3333333333334</ele><time>2026-05-02T09:02:25Z</time></trkpt><trkpt lat="44.87702465491239" lon="7.245928157246327"><ele>646.5</ele><time>2026-05-02T09:02:26Z</time></trkpt><trkpt lat="44.876991635338605" lon="7.24582553014452"><ele>650.6666666666666</ele><time>2026-05-02T09:02:27Z</time></trkpt><trkpt lat="44.87702351154264" lon="7.24570161611689"><ele>654.8333333333333</ele><time>2026-05-02T09:02:29Z</time></trkpt><trkpt lat="44.87709358405183" lon="7.245746793522838"><ele>659.0</ele><time>2026-05-02T09:02:31Z</time></trkpt><trkpt lat="44.877157614818195" lon="7.245813063915145"><ele>659.0</ele><time>2026-05-02T09:02:33Z</time></trkpt><trkpt lat="44.87726672945356" lon="7.245893789823066"><ele>659.0</ele><time>2026-05-02T09:02:35Z</time></trkpt><trkpt lat="44.8773608765417" lon="7.245912945902783"><ele>659.0</ele><time>2026-05-02T09:02:37Z</time></trkpt><trkpt lat="44.877440853541295" lon="7.2459375152748455"><ele>659.0</ele><time>2026-05-02T09:02:38Z</time></trkpt><trkpt lat="44.87751843316866" lon="7.24598312984536"><ele>659.0</ele><time>2026-05-02T09:02:39Z</time></trkpt><trkpt lat="44.87820343737434" lon="7.246524241110517"><ele>659.4000000000001</ele><time>2026-05-02T09:02:41Z</time></trkpt><trkpt lat="44.878299284919024" lon="7.2465485772432165"><ele>659.8</ele><time>2026-05-02T09:02:44.999Z</time></trkpt><trkpt lat="44.878361504142184" lon="7.246569849600709"><ele>660.2</ele><time>2026-05-02T09:02:45.999Z</time></trkpt><trkpt lat="44.878420772862015" lon="7.246633355014181"><ele>660.5999999999999</ele><time>2026-05-02T09:02:46.999Z</time></trkpt><trkpt lat="44.878473519540805" lon="7.246783521877568"><ele>661.0</ele><time>2026-05-02T09:02:48.999Z</time></trkpt><trkpt lat="44.87852369541237" lon="7.246900270986611"><ele>661.0</ele><time>2026-05-02T09:02:50.999Z</time></trkpt><trkpt lat="44.878538723296955" lon="7.247046228160776"><ele>661.0</ele><time>2026-05-02T09:02:52.999Z</time></trkpt><trkpt lat="44.87855890985415" lon="7.247193208057413"><ele>661.0</ele><time>2026-05-02T09:02:54.999Z</time></trkpt><trkpt lat="44.87856364256735" lon="7.247330959251369"><ele>661.0</ele><time>2026-05-02T09:02:56.999Z</time></trkpt><trkpt lat="44.878649370710356" lon="7.247373686641633"><ele>661.0</ele><time>2026-05-02T09:02:59.999Z</time></trkpt><trkpt lat="44.878736989105796" lon="7.247315831205684"><ele>661.0</ele><time>2026-05-02T09:03:01.999Z</time></trkpt><trkpt lat="44.87883020311442" lon="7.247268645429188"><ele>661.0</ele><time>2026-05-02T09:03:03.999Z</time></trkpt><trkpt lat="44.87893194511374" lon="7.2472156704154065"><ele>661.0</ele><time>2026-05-02T09:03:05.999Z</time></trkpt><trkpt lat="44.879029383479924" lon="7.247144405980887"><ele>661.0</ele><time>2026-05-02T09:03:07.999Z</time></trkpt><trkpt lat="44.87908545289962" lon="7.247095933208921"><ele>661.0</ele><time>2026-05-02T09:03:08.999Z</time></trkpt><trkpt lat="44.87918364832859" lon="7.247052120867198"><ele>658.1999999999999</ele><time>2026-05-02T09:03:10.999Z</time></trkpt><trkpt lat="44.87927610574117" lon="7.247015152608846"><ele>655.4</ele><time>2026-05-02T09:03:12.999Z</time></trkpt><trkpt lat="44.87938956624809" lon="7.247041643372321"><ele>652.6</ele><time>2026-05-02T09:03:14.999Z</time></trkpt><trkpt lat="44.87950646286391" lon="7.247064662192196"><ele>649.8</ele><time>2026-05-02T09:03:16.999Z</time></trkpt><trkpt lat="44.879588524114546" lon="7.247063996241213"><ele>647.0</ele><time>2026-05-02T09:03:18.999Z</time></trkpt><trkpt lat="44.87966032647408" lon="7.24699752119905"><ele>647.0</ele><time>2026-05-02T09:03:22.999Z</time></trkpt><trkpt lat="44.8796375291929" lon="7.246852989464958"><ele>647.0</ele><time>2026-05-02T09:03:24.999Z</time></trkpt><trkpt lat="44.87962737823758" lon="7.246693513089088"><ele>647.0</ele><time>2026-05-02T09:03:26.999Z</time></trkpt><trkpt lat="44.879621528343584" lon="7.246586341854646"><ele>647.0</ele><time>2026-05-02T09:03:27.999Z</time></trkpt><trkpt lat="44.87959831374103" lon="7.246475910443023"><ele>647.0</ele><time>2026-05-02T09:03:28.999Z</time></trkpt><trkpt lat="44.8795687047093" lon="7.246381992599185"><ele>647.0</ele><time>2026-05-02T09:03:29.998Z</time></trkpt><trkpt lat="44.87954005740207" lon="7.246280117671644"><ele>644.4</ele><time>2026-05-02T09:03:30.998Z</time></trkpt><trkpt lat="44.87951091242596" lon="7.24610948322283"><ele>641.8000000000001</ele><time>2026-05-02T09:03:32.998Z</time></trkpt><trkpt lat="44.8795195803616" lon="7.245960454051466"><ele>639.2</ele><time>2026-05-02T09:03:34.998Z</time></trkpt><trkpt lat="44.87954877033309" lon="7.245833327768239"><ele>636.6</ele><time>2026-05-02T09:03:36.998Z</time></trkpt><trkpt lat="44.87947968445384" lon="7.245722584030571"><ele>634.0</ele><time>2026-05-02T09:03:38.998Z</time></trkpt><trkpt lat="44.879365994583665" lon="7.245708003438434"><ele>634.0</ele><time>2026-05-02T09:03:40.998Z</time></trkpt><trkpt lat="44.87929263096208" lon="7.245701317537288"><ele>634.0</ele><time>2026-05-02T09:03:41.998Z</time></trkpt><trkpt lat="44.87921925437257" lon="7.245657751635058"><ele>634.0</ele><time>2026-05-02T09:03:42.998Z</time></trkpt><trkpt lat="44.87915376268849" lon="7.245597579511322"><ele>634.0</ele><time>2026-05-02T09:03:43.998Z</time></trkpt><trkpt lat="44.87909605969878" lon="7.245537936715309"><ele>634.0</ele><time>2026-05-02T09:03:44.998Z</time></trkpt><trkpt lat="44.87907376579846" lon="7.245450397492963"><ele>634.0</ele><time>2026-05-02T09:03:45.998Z</time></trkpt><trkpt lat="44.87900724975194" lon="7.245342715775358"><ele>638.6</ele><time>2026-05-02T09:03:46.998Z</time></trkpt><trkpt lat="44.87894122399871" lon="7.245264866119809"><ele>643.2</ele><time>2026-05-02T09:03:47.998Z</time></trkpt><trkpt lat="44.87884070403415" lon="7.24519804920795"><ele>647.8000000000001</ele><time>2026-05-02T09:03:48.998Z</time></trkpt><trkpt lat="44.87876480594682" lon="7.245129780518374"><ele>652.4</ele><time>2026-05-02T09:03:50Z</time></trkpt><trkpt lat="44.87871685438352" lon="7.245040060472551"><ele>657.0</ele><time>2026-05-02T09:03:51Z</time></trkpt><trkpt lat="44.878678444048205" lon="7.244933320737603"><ele>657.0</ele><time>2026-05-02T09:03:52Z</time></trkpt><trkpt lat="44.878629185957756" lon="7.244833697673713"><ele>657.0</ele><time>2026-05-02T09:03:53Z</time></trkpt><trkpt lat="44.87857609058601" lon="7.244757050482613"><ele>657.0</ele><time>2026-05-02T09:03:54Z</time></trkpt><trkpt lat="44.87848836559469" lon="7.244675475616564"><ele>657.0</ele><time>2026-05-02T09:03:55Z</time></trkpt><trkpt lat="44.87839014540875" lon="7.244577252824295"><ele>657.0</ele><time>2026-05-02T09:03:56Z</time></trkpt><trkpt lat="44.87828743680027" lon="7.244464338686591"><ele>661.4000000000001</ele><time>2026-05-02T09:03:57Z</time></trkpt><trkpt lat="44.8782019753491" lon="7.244371803850952"><ele>665.8000000000001</ele><time>2026-05-02T09:03:58Z</time></trkpt><trkpt lat="44.878153612313085" lon="7.244292551194692"><ele>670.2</ele><time>2026-05-02T09:03:59Z</time></trkpt><trkpt lat="44.87813443753376" lon="7.2441951534549665"><ele>674.6</ele><time>2026-05-02T09:04:00Z</time></trkpt><trkpt lat="44.87811831864466" lon="7.244030575024909"><ele>679.0</ele><time>2026-05-02T09:04:01Z</time></trkpt><trkpt lat="44.87809719319701" lon="7.243905933229362"><ele>679.4000000000001</ele><time>2026-05-02T09:04:02Z</time></trkpt><trkpt lat="44.87811456535699" lon="7.2438045003690785"><ele>679.8</ele><time>2026-05-02T09:04:03Z</time></trkpt><trkpt lat="44.878198841607414" lon="7.243814867856366"><ele>680.2</ele><time>2026-05-02T09:04:04Z</time></trkpt><trkpt lat="44.87836017589298" lon="7.243791003683781"><ele>680.5999999999999</ele><time>2026-05-02T09:04:06Z</time></trkpt><trkpt lat="44.878443849109644" lon="7.2437016616931915"><ele>681.0</ele><time>2026-05-02T09:04:07Z</time></trkpt><trkpt lat="44.87848138854026" lon="7.243537087977759"><ele>681.0</ele><time>2026-05-02T09:04:09Z</time></trkpt><trkpt lat="44.87850922495294" lon="7.243432035634834"><ele>681.0</ele><time>2026-05-02T09:04:10Z</time></trkpt><trkpt lat="44.878494586782175" lon="7.2433240788049575"><ele>681.0</ele><time>2026-05-02T09:04:11Z</time></trkpt><trkpt lat="44.87841190162105" lon="7.243180594468016"><ele>681.0</ele><time>2026-05-02T09:04:12Z</time></trkpt><trkpt lat="44.87834062971944" lon="7.2430737172244894"><ele>681.0</ele><time>2026-05-02T09:04:13Z</time></trkpt><trkpt lat="44.87823903776801" lon="7.243021155073497"><ele>681.0</ele><time>2026-05-02T09:04:14Z</time></trkpt><trkpt lat="44.878146501817106" lon="7.24299547062068"><ele>681.0</ele><time>2026-05-02T09:04:16Z</time></trkpt><trkpt lat="44.878079649364174" lon="7.24292640032197"><ele>681.0</ele><time>2026-05-02T09:04:18Z</time></trkpt><trkpt lat="44.87804103581908" lon="7.242853414402784"><ele>681.0</ele><time>2026-05-02T09:04:22Z</time></trkpt><trkpt lat="44.878054751618436" lon="7.242754229910882"><ele>681.0</ele><time>2026-05-02T09:04:27Z</time></trkpt><trkpt lat="44.87811432113813" lon="7.242715376960117"><ele>681.0</ele><time>2026-05-02T09:04:29Z</time></trkpt><trkpt lat="44.87818269638055" lon="7.2426116146139226"><ele>681.0</ele><time>2026-05-02T09:04:32Z</time></trkpt><trkpt lat="44.878236330310905" lon="7.242532450211521"><ele>681.0</ele><time>2026-05-02T09:04:33Z</time></trkpt><trkpt lat="44.87822969788405" lon="7.242438113337594"><ele>681.0</ele><time>2026-05-02T09:04:34Z</time></trkpt><trkpt lat="44.87820638866589" lon="7.242308330274142"><ele>681.0</ele><time>2026-05-02T09:04:35Z</time></trkpt><trkpt lat="44.87818029406907" lon="7.24215306320047"><ele>681.0</ele><time>2026-05-02T09:04:36Z</time></trkpt><trkpt lat="44.87817818047587" lon="7.242017342945999"><ele>681.0</ele><time>2026-05-02T09:04:37Z</time></trkpt><trkpt lat="44.87812664193521" lon="7.241915680686542"><ele>679.3333333333334</ele><time>2026-05-02T09:04:39Z</time></trkpt><trkpt lat="44.87807901322264" lon="7.241808371839922"><ele>677.6666666666666</ele><time>2026-05-02T09:04:41Z</time></trkpt><trkpt lat="44.87805316146855" lon="7.241668466593613"><ele>676.0</ele><time>2026-05-02T09:04:43Z</time></trkpt><trkpt lat="44.878007372594894" lon="7.241568198035571"><ele>674.3333333333333</ele><time>2026-05-02T09:04:45Z</time></trkpt><trkpt lat="44.87800175984482" lon="7.241475649985476"><ele>672.6666666666666</ele><time>2026-05-02T09:04:47Z</time></trkpt><trkpt lat="44.8779400391999" lon="7.241371704149286"><ele>671.0</ele><time>2026-05-02T09:04:47.999Z</time></trkpt><trkpt lat="44.877850203436786" lon="7.241237370957312"><ele>667.0</ele><time>2026-05-02T09:04:49.999Z</time></trkpt><trkpt lat="44.87781097036986" lon="7.24114214467475"><ele>663.0</ele><time>2026-05-02T09:04:50.999Z</time></trkpt><trkpt lat="44.87776518976822" lon="7.241001044833076"><ele>659.0</ele><time>2026-05-02T09:04:51.999Z</time></trkpt><trkpt lat="44.87772608249597" lon="7.240834906244937"><ele>655.0</ele><time>2026-05-02T09:04:52.999Z</time></trkpt><trkpt lat="44.877684764724755" lon="7.240696856283871"><ele>651.0</ele><time>2026-05-02T09:04:53.999Z</time></trkpt><trkpt lat="44.87765715380193" lon="7.24055884753613"><ele>649.0</ele><time>2026-05-02T09:04:54.999Z</time></trkpt><trkpt lat="44.87763858582009" lon="7.240394888650195"><ele>647.0</ele><time>2026-05-02T09:04:55.999Z</time></trkpt><trkpt lat="44.87762580366735" lon="7.240252290913827"><ele>645.0</ele><time>2026-05-02T09:04:56.999Z</time></trkpt><trkpt lat="44.877647334981766" lon="7.240083595314914"><ele>643.0</ele><time>2026-05-02T09:04:57.999Z</time></trkpt><trkpt lat="44.87769314372407" lon="7.239879380267798"><ele>643.5</ele><time>2026-05-02T09:04:58.999Z</time></trkpt><trkpt lat="44.87770771623675" lon="7.239625368159645"><ele>644.0</ele><time>2026-05-02T09:04:59.999Z</time></trkpt><trkpt lat="44.87766377370349" lon="7.239438629503842"><ele>644.5</ele><time>2026-05-02T09:05:00.999Z</time></trkpt><trkpt lat="44.87763997935718" lon="7.239300296139515"><ele>645.0</ele><time>2026-05-02T09:05:01.999Z</time></trkpt><trkpt lat="44.877575637694285" lon="7.239181054574308"><ele>650.8</ele><time>2026-05-02T09:05:04.999Z</time></trkpt><trkpt lat="44.87749065366214" lon="7.2390861364448735"><ele>656.6</ele><time>2026-05-02T09:05:05.999Z</time></trkpt><trkpt lat="44.8774233193398" lon="7.2389781616699365"><ele>662.4000000000001</ele><time>2026-05-02T09:05:06.999Z</time></trkpt><trkpt lat="44.87734779364778" lon="7.23888632514562"><ele>668.2</ele><time>2026-05-02T09:05:07.999Z</time></trkpt><trkpt lat="44.877298705107506" lon="7.238814478585068"><ele>674.0</ele><time>2026-05-02T09:05:08.999Z</time></trkpt><trkpt lat="44.87727833680294" lon="7.238699586845975"><ele>674.0</ele><time>2026-05-02T09:05:10.999Z</time></trkpt><trkpt lat="44.87731886578428" lon="7.238618512001565"><ele>674.0</ele><time>2026-05-02T09:05:13.999Z</time></trkpt><trkpt lat="44.877360307037044" lon="7.23855000373484"><ele>674.0</ele><time>2026-05-02T09:05:15.999Z</time></trkpt><trkpt lat="44.87747596269412" lon="7.238530668843831"><ele>674.0</ele><time>2026-05-02T09:05:17.999Z</time></trkpt><trkpt lat="44.87756236032845" lon="7.23847435368413"><ele>674.0</ele><time>2026-05-02T09:05:19.999Z</time></trkpt><trkpt lat="44.877521574188584" lon="7.2383518324349225"><ele>674.0</ele><time>2026-05-02T09:05:22.999Z</time></trkpt><trkpt lat="44.87740773858535" lon="7.238273770108136"><ele>674.0</ele><time>2026-05-02T09:05:24.999Z</time></trkpt><trkpt lat="44.87731603903734" lon="7.238146457433101"><ele>674.0</ele><time>2026-05-02T09:05:26.999Z</time></trkpt><trkpt lat="44.877257404986004" lon="7.238096521672726"><ele>674.0</ele><time>2026-05-02T09:05:27.999Z</time></trkpt><trkpt lat="44.87719184126995" lon="7.23805165032369"><ele>674.0</ele><time>2026-05-02T09:05:28.999Z</time></trkpt><trkpt lat="44.877135855426715" lon="7.237986073073817"><ele>674.0</ele><time>2026-05-02T09:05:29.999Z</time></trkpt><trkpt lat="44.87710185513639" lon="7.237897814310769"><ele>674.0</ele><time>2026-05-02T09:05:30.999Z</time></trkpt><trkpt lat="44.877036333531414" lon="7.237808471715686"><ele>676.0</ele><time>2026-05-02T09:05:32.999Z</time></trkpt><trkpt lat="44.87694700145666" lon="7.237739877015241"><ele>678.0</ele><time>2026-05-02T09:05:34.998Z</time></trkpt><trkpt lat="44.876860944092364" lon="7.237621657514176"><ele>680.0</ele><time>2026-05-02T09:05:36.998Z</time></trkpt><trkpt lat="44.87682926372269" lon="7.237543894357723"><ele>682.0</ele><time>2026-05-02T09:05:37.998Z</time></trkpt><trkpt lat="44.87676792280144" lon="7.2373882747097245"><ele>684.0</ele><time>2026-05-02T09:05:39.998Z</time></trkpt><trkpt lat="44.87673085567347" lon="7.237260090959731"><ele>684.0</ele><time>2026-05-02T09:05:41.998Z</time></trkpt><trkpt lat="44.87674804305169" lon="7.237140132232726"><ele>684.0</ele><time>2026-05-02T09:05:43.998Z</time></trkpt><trkpt lat="44.87679439017154" lon="7.237017962435729"><ele>684.0</ele><time>2026-05-02T09:05:45.998Z</time></trkpt><trkpt lat="44.87676408029492" lon="7.236931845056992"><ele>684.0</ele><time>2026-05-02T09:05:48.998Z</time></trkpt><trkpt lat="44.87672154113407" lon="7.236844674687087"><ele>684.0</ele><time>2026-05-02T09:05:51.998Z</time></trkpt><trkpt lat="44.87666380609632" lon="7.236743083236682"><ele>684.0</ele><time>2026-05-02T09:05:53.998Z</time></trkpt><trkpt lat="44.87658836045494" lon="7.236668036153114"><ele>684.0</ele><time>2026-05-02T09:05:56Z</time></trkpt><trkpt lat="44.87653219778558" lon="7.2365856208905965"><ele>684.0</ele><time>2026-05-02T09:05:58Z</time></trkpt><trkpt lat="44.87650308687564" lon="7.23649533397732"><ele>684.0</ele><time>2026-05-02T09:06:01Z</time></trkpt><trkpt lat="44.87645094858026" lon="7.23642599698781"><ele>684.0</ele><time>2026-05-02T09:06:05Z</time></trkpt><trkpt lat="44.87645686797408" lon="7.236334668749871"><ele>684.0</ele><time>2026-05-02T09:06:13Z</time></trkpt><trkpt lat="44.87649303889308" lon="7.236244570204158"><ele>684.0</ele><time>2026-05-02T09:06:17Z</time></trkpt><trkpt lat="44.87645751481936" lon="7.2361034001451925"><ele>684.1666666666666</ele><time>2026-05-02T09:06:19Z</time></trkpt><trkpt lat="44.87641672462531" lon="7.235990529347046"><ele>684.3333333333334</ele><time>2026-05-02T09:06:21Z</time></trkpt><trkpt lat="44.87637696317973" lon="7.235891315550343"><ele>684.5</ele><time>2026-05-02T09:06:32Z</time></trkpt><trkpt lat="44.876437636155714" lon="7.235810543242838"><ele>684.6666666666667</ele><time>2026-05-02T09:07:33.999Z</time></trkpt><trkpt lat="44.87639269108733" lon="7.2357292090466485"><ele>684.8333333333334</ele><time>2026-05-02T09:07:36.999Z</time></trkpt><trkpt lat="44.87632097382154" lon="7.235715858227032"><ele>685.0</ele><time>2026-05-02T09:08:24Z</time></trkpt><trkpt lat="44.87624132995536" lon="7.235704181715047"><ele>687.5</ele><time>2026-05-02T09:08:34Z</time></trkpt><trkpt lat="44.876271271244896" lon="7.235624883206541"><ele>690.0</ele><time>2026-05-02T09:08:40Z</time></trkpt><trkpt lat="44.87627650055578" lon="7.2355200428453745"><ele>692.5</ele><time>2026-05-02T09:08:44Z</time></trkpt><trkpt lat="44.876323541224124" lon="7.23542049395061"><ele>695.0</ele><time>2026-05-02T09:10:44Z</time></trkpt><trkpt lat="44.87636373795622" lon="7.235338813011416"><ele>697.5</ele><time>2026-05-02T09:10:46Z</time></trkpt><trkpt lat="44.87637315509487" lon="7.235220019092725"><ele>700.0</ele><time>2026-05-02T09:10:50Z</time></trkpt><trkpt lat="44.87639280335664" lon="7.235120584349603"><ele>700.0</ele><time>2026-05-02T09:10:53Z</time></trkpt><trkpt lat="44.87642230356112" lon="7.235023038488099"><ele>700.0</ele><time>2026-05-02T09:10:56Z</time></trkpt><trkpt lat="44.87641579062546" lon="7.234923569229663"><ele>700.0</ele><time>2026-05-02T09:10:57.999Z</time></trkpt><trkpt lat="44.8764208275185" lon="7.234826515569697"><ele>700.0</ele><time>2026-05-02T09:10:59.999Z</time></trkpt><trkpt lat="44.87644411711562" lon="7.234711149455294"><ele>700.0</ele><time>2026-05-02T09:11:02.999Z</time></trkpt><trkpt lat="44.87644026454158" lon="7.234621002531951"><ele>700.0</ele><time>2026-05-02T09:11:05.999Z</time></trkpt><trkpt lat="44.87644353350262" lon="7.234514787803293"><ele>700.0</ele><time>2026-05-02T09:11:09.999Z</time></trkpt><trkpt lat="44.87646644984813" lon="7.23442429540196"><ele>702.6666666666667</ele><time>2026-05-02T09:11:12.999Z</time></trkpt><trkpt lat="44.876499217645595" lon="7.234321498301835"><ele>705.3333333333334</ele><time>2026-05-02T09:11:15.999Z</time></trkpt><trkpt lat="44.876555161894075" lon="7.234258143769173"><ele>708.0</ele><time>2026-05-02T09:11:17.999Z</time></trkpt><trkpt lat="44.87657228973899" lon="7.234159591585147"><ele>710.6666666666666</ele><time>2026-05-02T09:11:20.999Z</time></trkpt><trkpt lat="44.876609870601506" lon="7.234086928102679"><ele>713.3333333333333</ele><time>2026-05-02T09:11:23.999Z</time></trkpt><trkpt lat="44.87661861342574" lon="7.233969737984404"><ele>716.0</ele><time>2026-05-02T09:11:26.999Z</time></trkpt><trkpt lat="44.87667678142908" lon="7.233867239061727"><ele>718.0</ele><time>2026-05-02T09:11:28.999Z</time></trkpt><trkpt lat="44.87672916075182" lon="7.233757483755331"><ele>720.0</ele><time>2026-05-02T09:11:31.999Z</time></trkpt><trkpt lat="44.876803043901134" lon="7.2336598763416236"><ele>722.0</ele><time>2026-05-02T09:11:37.999Z</time></trkpt><trkpt lat="44.87683132859973" lon="7.23353175135471"><ele>724.0</ele><time>2026-05-02T09:11:39.999Z</time></trkpt><trkpt lat="44.8768991177007" lon="7.233398450951494"><ele>726.0</ele><time>2026-05-02T09:11:41.999Z</time></trkpt><trkpt lat="44.87694458372715" lon="7.233311026222888"><ele>726.0</ele><time>2026-05-02T09:11:42.999Z</time></trkpt><trkpt lat="44.877011435807425" lon="7.233249333517495"><ele>726.0</ele><time>2026-05-02T09:11:46.998Z</time></trkpt><trkpt lat="44.876968895638505" lon="7.233174327951129"><ele>726.0</ele><time>2026-05-02T09:11:50.998Z</time></trkpt><trkpt lat="44.8769646858796" lon="7.233035241539589"><ele>726.0</ele><time>2026-05-02T09:11:53.998Z</time></trkpt><trkpt lat="44.87694082187796" lon="7.232914378844903"><ele>726.0</ele><time>2026-05-02T09:11:56.998Z</time></trkpt><trkpt lat="44.87688572366687" lon="7.232805819685415"><ele>726.0</ele><time>2026-05-02T09:11:58.998Z</time></trkpt><trkpt lat="44.876823466095466" lon="7.232712856201146"><ele>729.3333333333334</ele><time>2026-05-02T09:12:00.998Z</time></trkpt><trkpt lat="44.876790618382124" lon="7.232587810343408"><ele>732.6666666666666</ele><time>2026-05-02T09:12:03.998Z</time></trkpt><trkpt lat="44.87679170468314" lon="7.232484949518733"><ele>736.0</ele><time>2026-05-02T09:12:07.998Z</time></trkpt><trkpt lat="44.876846696664856" lon="7.232436483855875"><ele>739.3333333333333</ele><time>2026-05-02T09:12:13Z</time></trkpt><trkpt lat="44.87693064343272" lon="7.23245800619177"><ele>742.6666666666666</ele><time>2026-05-02T09:17:15.999Z</time></trkpt><trkpt lat="44.87703743305001" lon="7.232483026602639"><ele>746.0</ele><time>2026-05-02T09:17:17.999Z</time></trkpt><trkpt lat="44.87712598590944" lon="7.232487775063279"><ele>746.0</ele><time>2026-05-02T09:17:19.999Z</time></trkpt><trkpt lat="44.87719055777604" lon="7.232484242893604"><ele>746.0</ele><time>2026-05-02T09:17:21.999Z</time></trkpt><trkpt lat="44.87727123535563" lon="7.232482176999591"><ele>746.0</ele><time>2026-05-02T09:17:24.999Z</time></trkpt><trkpt lat="44.87735362954186" lon="7.232512377341459"><ele>746.0</ele><time>2026-05-02T09:17:27.999Z</time></trkpt><trkpt lat="44.87741672582737" lon="7.23253287894308"><ele>746.0</ele><time>2026-05-02T09:17:29.999Z</time></trkpt><trkpt lat="44.87747673864014" lon="7.232572466245116"><ele>746.0</ele><time>2026-05-02T09:17:31.999Z</time></trkpt><trkpt lat="44.877519967989485" lon="7.232657418405617"><ele>746.0</ele><time>2026-05-02T09:17:34.999Z</time></trkpt><trkpt lat="44.87751158256168" lon="7.232795122826981"><ele>746.0</ele><time>2026-05-02T09:17:37.999Z</time></trkpt><trkpt lat="44.87751491250532" lon="7.232907320474364"><ele>746.0</ele><time>2026-05-02T09:17:40.999Z</time></trkpt><trkpt lat="44.87753991836258" lon="7.233020957969524"><ele>746.0</ele><time>2026-05-02T09:17:43.999Z</time></trkpt><trkpt lat="44.87759292791248" lon="7.2330999803267915"><ele>746.0</ele><time>2026-05-02T09:17:46.999Z</time></trkpt><trkpt lat="44.877661324767345" lon="7.233144722978132"><ele>746.0</ele><time>2026-05-02T09:17:49.999Z</time></trkpt><trkpt lat="44.87773558070968" lon="7.2331709186396225"><ele>746.0</ele><time>2026-05-02T09:17:51.999Z</time></trkpt><trkpt lat="44.87780475434569" lon="7.233148378973609"><ele>747.5</ele><time>2026-05-02T09:17:53.999Z</time></trkpt><trkpt lat="44.87787327321334" lon="7.233144790604542"><ele>749.0</ele><time>2026-05-02T09:17:55.999Z</time></trkpt><trkpt lat="44.877941179330506" lon="7.233184241527499"><ele>750.5</ele><time>2026-05-02T09:17:57.999Z</time></trkpt><trkpt lat="44.878032660795704" lon="7.233238699416382"><ele>752.0</ele><time>2026-05-02T09:17:59.998Z</time></trkpt><trkpt lat="44.878131890566145" lon="7.233322892114422"><ele>753.5</ele><time>2026-05-02T09:18:01.998Z</time></trkpt><trkpt lat="44.878188187197416" lon="7.233365238130921"><ele>755.0</ele><time>2026-05-02T09:18:02.998Z</time></trkpt><trkpt lat="44.878283990434845" lon="7.233449847346171"><ele>755.0</ele><time>2026-05-02T09:18:04.998Z</time></trkpt><trkpt lat="44.87834229786808" lon="7.233504883202277"><ele>755.0</ele><time>2026-05-02T09:18:06.998Z</time></trkpt><trkpt lat="44.87840001721537" lon="7.233631862754627"><ele>755.0</ele><time>2026-05-02T09:18:08.998Z</time></trkpt><trkpt lat="44.878446036293965" lon="7.2337814501143285"><ele>755.0</ele><time>2026-05-02T09:18:10.998Z</time></trkpt><trkpt lat="44.87846848172585" lon="7.233874732946767"><ele>755.0</ele><time>2026-05-02T09:18:11.998Z</time></trkpt><trkpt lat="44.87850043564732" lon="7.233957125409317"><ele>755.0</ele><time>2026-05-02T09:18:12.998Z</time></trkpt><trkpt lat="44.87854718348937" lon="7.234076130637482"><ele>753.0</ele><time>2026-05-02T09:18:14.998Z</time></trkpt><trkpt lat="44.87859845151779" lon="7.2342053284613534"><ele>751.0</ele><time>2026-05-02T09:18:16.998Z</time></trkpt><trkpt lat="44.87864126712292" lon="7.234312900011895"><ele>749.0</ele><time>2026-05-02T09:18:18.998Z</time></trkpt><trkpt lat="44.878703137300555" lon="7.234387236621104"><ele>747.0</ele><time>2026-05-02T09:18:20.998Z</time></trkpt><trkpt lat="44.87873248854942" lon="7.234477881816499"><ele>745.0</ele><time>2026-05-02T09:18:22.998Z</time></trkpt><trkpt lat="44.87881481770574" lon="7.234462136929427"><ele>743.0</ele><time>2026-05-02T09:18:25.998Z</time></trkpt><trkpt lat="44.87881261119318" lon="7.234357531724083"><ele>743.0</ele><time>2026-05-02T09:18:27.998Z</time></trkpt><trkpt lat="44.87882714726464" lon="7.234253965879703"><ele>743.0</ele><time>2026-05-02T09:18:29.998Z</time></trkpt><trkpt lat="44.87891338193306" lon="7.234142928647201"><ele>743.0</ele><time>2026-05-02T09:18:32Z</time></trkpt><trkpt lat="44.8789766310516" lon="7.234020667066827"><ele>743.0</ele><time>2026-05-02T09:18:34Z</time></trkpt><trkpt lat="44.87903141854895" lon="7.233885524226266"><ele>743.0</ele><time>2026-05-02T09:18:37Z</time></trkpt><trkpt lat="44.87904171943665" lon="7.233759750297813"><ele>745.8333333333333</ele><time>2026-05-02T09:18:39Z</time></trkpt><trkpt lat="44.879041635432" lon="7.233665671937973"><ele>748.6666666666666</ele><time>2026-05-02T09:18:41Z</time></trkpt><trkpt lat="44.87900871251323" lon="7.233572206792007"><ele>751.5</ele><time>2026-05-02T09:18:44Z</time></trkpt><trkpt lat="44.87900523571021" lon="7.233454486132945"><ele>754.3333333333334</ele><time>2026-05-02T09:18:45Z</time></trkpt><trkpt lat="44.878999438684076" lon="7.233330046511533"><ele>757.1666666666667</ele><time>2026-05-02T09:18:46Z</time></trkpt><trkpt lat="44.879017150025966" lon="7.2332051447860675"><ele>760.0</ele><time>2026-05-02T09:18:47Z</time></trkpt><trkpt lat="44.87900404029068" lon="7.23309477777487"><ele>763.5</ele><time>2026-05-02T09:18:48Z</time></trkpt><trkpt lat="44.87899917480437" lon="7.232976509414556"><ele>767.0</ele><time>2026-05-02T09:18:49Z</time></trkpt><trkpt lat="44.87901291115902" lon="7.232862545841018"><ele>770.5</ele><time>2026-05-02T09:18:50Z</time></trkpt><trkpt lat="44.87903017705149" lon="7.23275588297126"><ele>774.0</ele><time>2026-05-02T09:18:51Z</time></trkpt><trkpt lat="44.87905630943089" lon="7.232663157202799"><ele>777.4999999999999</ele><time>2026-05-02T09:18:52Z</time></trkpt><trkpt lat="44.87908731819913" lon="7.2325797369183"><ele>781.0</ele><time>2026-05-02T09:18:53Z</time></trkpt><trkpt lat="44.87913318683748" lon="7.232421870358617"><ele>782.1666666666666</ele><time>2026-05-02T09:18:55Z</time></trkpt><trkpt lat="44.87916233960847" lon="7.232241080527502"><ele>783.3333333333333</ele><time>2026-05-02T09:18:57Z</time></trkpt><trkpt lat="44.87918115345565" lon="7.232146727309591"><ele>784.5</ele><time>2026-05-02T09:18:58Z</time></trkpt><trkpt lat="44.87919152470911" lon="7.232036242879986"><ele>785.6666666666667</ele><time>2026-05-02T09:18:59Z</time></trkpt><trkpt lat="44.879227486322606" lon="7.23195599007962"><ele>786.8333333333334</ele><time>2026-05-02T09:19:00Z</time></trkpt><trkpt lat="44.87929474715517" lon="7.231850761477308"><ele>788.0</ele><time>2026-05-02T09:19:02Z</time></trkpt><trkpt lat="44.879354129166806" lon="7.231722336332953"><ele>788.0000000000001</ele><time>2026-05-02T09:19:04Z</time></trkpt><trkpt lat="44.87937216641285" lon="7.2316156615618725"><ele>788.0</ele><time>2026-05-02T09:19:06Z</time></trkpt><trkpt lat="44.87941695824907" lon="7.231499780539804"><ele>788.0</ele><time>2026-05-02T09:19:08Z</time></trkpt><trkpt lat="44.87944388341407" lon="7.231404798002415"><ele>788.0</ele><time>2026-05-02T09:19:10Z</time></trkpt><trkpt lat="44.87948495298563" lon="7.231330325336739"><ele>788.0000000000001</ele><time>2026-05-02T09:19:13Z</time></trkpt><trkpt lat="44.879515206317926" lon="7.231247595083188"><ele>788.0</ele><time>2026-05-02T09:19:16Z</time></trkpt><trkpt lat="44.87954074238924" lon="7.231143640955408"><ele>792.1666666666667</ele><time>2026-05-02T09:19:18.999Z</time></trkpt><trkpt lat="44.879601507487465" lon="7.231025814618338"><ele>796.3333333333334</ele><time>2026-05-02T09:19:20.999Z</time></trkpt><trkpt lat="44.8796282639827" lon="7.230915962433929"><ele>800.5</ele><time>2026-05-02T09:19:23.999Z</time></trkpt><trkpt lat="44.87965840311322" lon="7.230821346379082"><ele>804.6666666666667</ele><time>2026-05-02T09:19:25.999Z</time></trkpt><trkpt lat="44.879687155373595" lon="7.230735299076002"><ele>808.8333333333334</ele><time>2026-05-02T09:19:28.999Z</time></trkpt><trkpt lat="44.87975096747561" lon="7.230665223527067"><ele>813.0</ele><time>2026-05-02T09:19:31.999Z</time></trkpt><trkpt lat="44.879813988094796" lon="7.230627192122543"><ele>813.0</ele><time>2026-05-02T09:19:35.999Z</time></trkpt><trkpt lat="44.879859939305355" lon="7.230695808786644"><ele>813.0</ele><time>2026-05-02T09:19:40.999Z</time></trkpt><trkpt lat="44.87995008173379" lon="7.230766872677975"><ele>813.0</ele><time>2026-05-02T09:19:43.999Z</time></trkpt><trkpt lat="44.87999655728805" lon="7.230836535465219"><ele>813.0</ele><time>2026-05-02T09:19:45.999Z</time></trkpt><trkpt lat="44.880074924582395" lon="7.23086321246527"><ele>813.0</ele><time>2026-05-02T09:19:48.999Z</time></trkpt><trkpt lat="44.88014386615357" lon="7.23089681139006"><ele>813.0</ele><time>2026-05-02T09:19:50.999Z</time></trkpt><trkpt lat="44.880219417091176" lon="7.230939541800959"><ele>818.0</ele><time>2026-05-02T09:19:52.999Z</time></trkpt><trkpt lat="44.880262706081645" lon="7.231047651785369"><ele>823.0</ele><time>2026-05-02T09:19:54.999Z</time></trkpt><trkpt lat="44.88032308077956" lon="7.231104406444107"><ele>828.0</ele><time>2026-05-02T09:19:56.999Z</time></trkpt><trkpt lat="44.88039762290059" lon="7.231174378520478"><ele>833.0</ele><time>2026-05-02T09:19:58.999Z</time></trkpt><trkpt lat="44.88049342673461" lon="7.2312153819233425"><ele>838.0</ele><time>2026-05-02T09:20:01.999Z</time></trkpt><trkpt lat="44.88051950525933" lon="7.23133143292717"><ele>843.0</ele><time>2026-05-02T09:20:05.998Z</time></trkpt><trkpt lat="44.880529152595834" lon="7.231438045179584"><ele>839.3333333333334</ele><time>2026-05-02T09:20:07.998Z</time></trkpt><trkpt lat="44.88057107634274" lon="7.231567543370215"><ele>835.6666666666667</ele><time>2026-05-02T09:20:10.998Z</time></trkpt><trkpt lat="44.88061294789886" lon="7.231670249145153"><ele>832.0</ele><time>2026-05-02T09:20:13.998Z</time></trkpt><trkpt lat="44.88068679305086" lon="7.231712448028727"><ele>828.3333333333334</ele><time>2026-05-02T09:20:15.998Z</time></trkpt><trkpt lat="44.88077748233467" lon="7.231736928075291"><ele>824.6666666666667</ele><time>2026-05-02T09:20:17.998Z</time></trkpt><trkpt lat="44.880855489741144" lon="7.231765592703922"><ele>821.0</ele><time>2026-05-02T09:20:19.998Z</time></trkpt><trkpt lat="44.880936394519324" lon="7.231863180089465"><ele>825.4</ele><time>2026-05-02T09:20:22.998Z</time></trkpt><trkpt lat="44.880991668621625" lon="7.231970005388689"><ele>829.8</ele><time>2026-05-02T09:20:24.998Z</time></trkpt><trkpt lat="44.88101434999796" lon="7.23207302671534"><ele>834.1999999999999</ele><time>2026-05-02T09:20:26.998Z</time></trkpt><trkpt lat="44.88102493087513" lon="7.232201347143693"><ele>838.5999999999999</ele><time>2026-05-02T09:20:28.998Z</time></trkpt><trkpt lat="44.88107104475542" lon="7.232330456281366"><ele>843.0</ele><time>2026-05-02T09:20:31.998Z</time></trkpt><trkpt lat="44.881089693976065" lon="7.232463777299364"><ele>843.0</ele><time>2026-05-02T09:20:34.998Z</time></trkpt><trkpt lat="44.88115301724606" lon="7.232517065880625"><ele>843.0</ele><time>2026-05-02T09:20:38Z</time></trkpt><trkpt lat="44.881212853096585" lon="7.232550419842986"><ele>843.0</ele><time>2026-05-02T09:27:59.999Z</time></trkpt><trkpt lat="44.88130966026795" lon="7.232556529031617"><ele>843.0</ele><time>2026-05-02T09:28:01.999Z</time></trkpt><trkpt lat="44.88137510948859" lon="7.232560420397008"><ele>843.0</ele><time>2026-05-02T09:28:02.999Z</time></trkpt><trkpt lat="44.88145027121576" lon="7.2325667999610035"><ele>843.0</ele><time>2026-05-02T09:28:03.999Z</time></trkpt><trkpt lat="44.881533742130536" lon="7.232581618777801"><ele>843.0</ele><time>2026-05-02T09:28:04.999Z</time></trkpt><trkpt lat="44.88161641198295" lon="7.232612886949612"><ele>843.0</ele><time>2026-05-02T09:28:05.999Z</time></trkpt><trkpt lat="44.88168899770183" lon="7.232637999422566"><ele>843.0</ele><time>2026-05-02T09:28:06.999Z</time></trkpt><trkpt lat="44.88175533225912" lon="7.232636841054182"><ele>843.0</ele><time>2026-05-02T09:28:07.999Z</time></trkpt><trkpt lat="44.881872597798" lon="7.232692589706255"><ele>843.0</ele><time>2026-05-02T09:28:09.999Z</time></trkpt><trkpt lat="44.88190686992666" lon="7.232782337715674"><ele>843.0</ele><time>2026-05-02T09:28:10.999Z</time></trkpt><trkpt lat="44.88194156475702" lon="7.232919776318018"><ele>843.4</ele><time>2026-05-02T09:28:11.999Z</time></trkpt><trkpt lat="44.88196907802113" lon="7.233018597285216"><ele>843.8</ele><time>2026-05-02T09:28:12.999Z</time></trkpt><trkpt lat="44.88203709869346" lon="7.2331312421763645"><ele>844.2</ele><time>2026-05-02T09:28:14.999Z</time></trkpt><trkpt lat="44.882079148266214" lon="7.23329188814862"><ele>844.6</ele><time>2026-05-02T09:28:16.999Z</time></trkpt><trkpt lat="44.8821486501655" lon="7.233439666680216"><ele>845.0</ele><time>2026-05-02T09:28:18.998Z</time></trkpt><trkpt lat="44.882207679162306" lon="7.233580216475107"><ele>845.0000000000001</ele><time>2026-05-02T09:28:20.998Z</time></trkpt><trkpt lat="44.882239735916706" lon="7.2336639992034275"><ele>845.0</ele><time>2026-05-02T09:28:21.998Z</time></trkpt><trkpt lat="44.88226002946607" lon="7.233762338632379"><ele>845.0</ele><time>2026-05-02T09:28:22.998Z</time></trkpt><trkpt lat="44.882290372216175" lon="7.233855770614363"><ele>845.0</ele><time>2026-05-02T09:28:23.998Z</time></trkpt><trkpt lat="44.8823103594117" lon="7.233942649687178"><ele>845.0000000000001</ele><time>2026-05-02T09:28:24.998Z</time></trkpt><trkpt lat="44.882362073164465" lon="7.234063326647862"><ele>845.0</ele><time>2026-05-02T09:28:26.998Z</time></trkpt><trkpt lat="44.882461202749525" lon="7.234001928179134"><ele>845.0000000000001</ele><time>2026-05-02T09:28:28.998Z</time></trkpt><trkpt lat="44.882484902552065" lon="7.233919460866446"><ele>845.0</ele><time>2026-05-02T09:28:29.998Z</time></trkpt><trkpt lat="44.882569001444125" lon="7.2338351629764475"><ele>845.0</ele><time>2026-05-02T09:28:31.998Z</time></trkpt><trkpt lat="44.882627205891815" lon="7.233718072242212"><ele>845.0</ele><time>2026-05-02T09:28:33.998Z</time></trkpt><trkpt lat="44.88270681347444" lon="7.233655471377599"><ele>845.0000000000001</ele><time>2026-05-02T09:28:35.998Z</time></trkpt><trkpt lat="44.88274230813152" lon="7.233567364482414"><ele>845.0</ele><time>2026-05-02T09:28:36.998Z</time></trkpt><trkpt lat="44.882792441078365" lon="7.233484900922317"><ele>844.25</ele><time>2026-05-02T09:28:37.998Z</time></trkpt><trkpt lat="44.8828454618665" lon="7.233387614868787"><ele>843.5</ele><time>2026-05-02T09:28:38.998Z</time></trkpt><trkpt lat="44.88291183754374" lon="7.23321573245369"><ele>842.75</ele><time>2026-05-02T09:28:40.998Z</time></trkpt><trkpt lat="44.88297705756274" lon="7.233081019928097"><ele>842.0</ele><time>2026-05-02T09:28:42.998Z</time></trkpt><trkpt lat="44.88304568031997" lon="7.23295533509235"><ele>842.0</ele><time>2026-05-02T09:28:44.998Z</time></trkpt><trkpt lat="44.88312054966556" lon="7.232825536216271"><ele>842.0</ele><time>2026-05-02T09:28:46.998Z</time></trkpt><trkpt lat="44.883182973088516" lon="7.232698293570559"><ele>842.0</ele><time>2026-05-02T09:28:48.998Z</time></trkpt><trkpt lat="44.88324341114396" lon="7.232564993168496"><ele>842.0</ele><time>2026-05-02T09:28:50.998Z</time></trkpt><trkpt lat="44.883285155296235" lon="7.232493240055694"><ele>842.0</ele><time>2026-05-02T09:28:51.998Z</time></trkpt><trkpt lat="44.883332170831764" lon="7.232426664196009"><ele>842.0</ele><time>2026-05-02T09:28:52.998Z</time></trkpt><trkpt lat="44.883363853097336" lon="7.232340607483678"><ele>842.0</ele><time>2026-05-02T09:28:53.998Z</time></trkpt><trkpt lat="44.88344334877937" lon="7.232213040952457"><ele>842.0</ele><time>2026-05-02T09:28:55.998Z</time></trkpt><trkpt lat="44.88350608458913" lon="7.232105494146085"><ele>842.0</ele><time>2026-05-02T09:28:57.998Z</time></trkpt><trkpt lat="44.883571705794495" lon="7.232014708585563"><ele>842.0</ele><time>2026-05-02T09:29:00Z</time></trkpt><trkpt lat="44.88364496356817" lon="7.231970342300883"><ele>843.2</ele><time>2026-05-02T09:29:03Z</time></trkpt><trkpt lat="44.88368333381366" lon="7.232046750160774"><ele>844.4000000000001</ele><time>2026-05-02T09:29:04Z</time></trkpt><trkpt lat="44.88376395612835" lon="7.232175831751187"><ele>845.5999999999999</ele><time>2026-05-02T09:29:06Z</time></trkpt><trkpt lat="44.88383194189346" lon="7.232314776527808"><ele>846.8</ele><time>2026-05-02T09:29:08Z</time></trkpt><trkpt lat="44.88387153799596" lon="7.232400394397599"><ele>848.0</ele><time>2026-05-02T09:29:09Z</time></trkpt><trkpt lat="44.883933097136556" lon="7.232534373395"><ele>848.0</ele><time>2026-05-02T09:29:11Z</time></trkpt><trkpt lat="44.88399342940899" lon="7.232666487431786"><ele>848.0</ele><time>2026-05-02T09:29:13Z</time></trkpt><trkpt lat="44.884043220338654" lon="7.232772301835372"><ele>848.0</ele><time>2026-05-02T09:29:15Z</time></trkpt><trkpt lat="44.884108731761856" lon="7.232908671092241"><ele>848.0</ele><time>2026-05-02T09:29:17Z</time></trkpt><trkpt lat="44.884159274694255" lon="7.232974940793691"><ele>848.0</ele><time>2026-05-02T09:29:18Z</time></trkpt><trkpt lat="44.88421560700211" lon="7.233109842855087"><ele>847.5999999999999</ele><time>2026-05-02T09:29:20Z</time></trkpt><trkpt lat="44.8842821889107" lon="7.233244877410587"><ele>847.1999999999999</ele><time>2026-05-02T09:29:22Z</time></trkpt><trkpt lat="44.884375608215144" lon="7.233352483004405"><ele>846.8</ele><time>2026-05-02T09:29:24Z</time></trkpt><trkpt lat="44.88443250108515" lon="7.233447049716932"><ele>846.4</ele><time>2026-05-02T09:29:26Z</time></trkpt><trkpt lat="44.88442818351489" lon="7.233574568278791"><ele>846.0</ele><time>2026-05-02T09:29:28Z</time></trkpt><trkpt lat="44.884396270667246" lon="7.2337167175358035"><ele>846.0</ele><time>2026-05-02T09:29:30Z</time></trkpt><trkpt lat="44.88445860260577" lon="7.233830503168853"><ele>846.0</ele><time>2026-05-02T09:29:32Z</time></trkpt><trkpt lat="44.88453208301473" lon="7.233956055537105"><ele>846.0</ele><time>2026-05-02T09:29:34Z</time></trkpt><trkpt lat="44.88464884423056" lon="7.234012115258367"><ele>846.0</ele><time>2026-05-02T09:29:35.999Z</time></trkpt><trkpt lat="44.88470820534942" lon="7.234054918955906"><ele>846.0</ele><time>2026-05-02T09:29:36.999Z</time></trkpt><trkpt lat="44.88476358701621" lon="7.234117942316441"><ele>843.5999999999999</ele><time>2026-05-02T09:29:37.999Z</time></trkpt><trkpt lat="44.88488027982268" lon="7.23420576872148"><ele>841.2</ele><time>2026-05-02T09:29:39.999Z</time></trkpt><trkpt lat="44.88493620412937" lon="7.234248207897376"><ele>838.8</ele><time>2026-05-02T09:29:40.999Z</time></trkpt><trkpt lat="44.88502209946173" lon="7.234362831356273"><ele>836.4000000000001</ele><time>2026-05-02T09:29:42.999Z</time></trkpt><trkpt lat="44.88511572627312" lon="7.2344138551958785"><ele>834.0</ele><time>2026-05-02T09:29:44.999Z</time></trkpt><trkpt lat="44.8852221486774" lon="7.234467380556099"><ele>834.0</ele><time>2026-05-02T09:29:46.999Z</time></trkpt><trkpt lat="44.88528647872333" lon="7.23448669661541"><ele>834.0</ele><time>2026-05-02T09:29:47.999Z</time></trkpt><trkpt lat="44.88535357140558" lon="7.2344748729118376"><ele>834.0</ele><time>2026-05-02T09:29:49.999Z</time></trkpt><trkpt lat="44.88541881687697" lon="7.234490823709138"><ele>834.0</ele><time>2026-05-02T09:29:52.999Z</time></trkpt><trkpt lat="44.88549394795033" lon="7.234539617053164"><ele>834.0</ele><time>2026-05-02T09:32:54.998Z</time></trkpt><trkpt lat="44.885521519449384" lon="7.234632688569661"><ele>834.0</ele><time>2026-05-02T09:42:46.998Z</time></trkpt><trkpt lat="44.88542500527581" lon="7.234690422311506"><ele>834.0</ele><time>2026-05-02T09:42:48.998Z</time></trkpt><trkpt lat="44.885355317876794" lon="7.2346680916520985"><ele>834.0</ele><time>2026-05-02T09:42:49.998Z</time></trkpt><trkpt lat="44.88528870218279" lon="7.234662313656712"><ele>834.0</ele><time>2026-05-02T09:42:50.998Z</time></trkpt><trkpt lat="44.885214774360676" lon="7.234671881480355"><ele>834.0</ele><time>2026-05-02T09:42:51.998Z</time></trkpt><trkpt lat="44.885141609724755" lon="7.234693338178543"><ele>834.0</ele><time>2026-05-02T09:42:52.998Z</time></trkpt><trkpt lat="44.88507340383646" lon="7.234643918808205"><ele>834.0</ele><time>2026-05-02T09:42:53.998Z</time></trkpt><trkpt lat="44.88500989560927" lon="7.234580238190764"><ele>834.0</ele><time>2026-05-02T09:42:54.998Z</time></trkpt><trkpt lat="44.88493018663379" lon="7.234526519439278"><ele>831.5</ele><time>2026-05-02T09:42:55.998Z</time></trkpt><trkpt lat="44.88484071627337" lon="7.234490914108163"><ele>829.0</ele><time>2026-05-02T09:42:56.998Z</time></trkpt><trkpt lat="44.88475027184421" lon="7.234486981814919"><ele>826.5</ele><time>2026-05-02T09:42:57.998Z</time></trkpt><trkpt lat="44.884667116375255" lon="7.234578623646343"><ele>824.0</ele><time>2026-05-02T09:42:58.998Z</time></trkpt><trkpt lat="44.88460186328601" lon="7.234646611567687"><ele>821.5</ele><time>2026-05-02T09:42:59.998Z</time></trkpt><trkpt lat="44.884537874554454" lon="7.234686622640622"><ele>819.0</ele><time>2026-05-02T09:43:00.998Z</time></trkpt><trkpt lat="44.88448813118352" lon="7.2347425396954295"><ele>819.0</ele><time>2026-05-02T09:43:01.998Z</time></trkpt><trkpt lat="44.88441561197957" lon="7.234710174597728"><ele>819.0</ele><time>2026-05-02T09:43:02.998Z</time></trkpt><trkpt lat="44.8843710703891" lon="7.23463818840472"><ele>819.0</ele><time>2026-05-02T09:43:03.998Z</time></trkpt><trkpt lat="44.88431786015715" lon="7.234585728388715"><ele>819.0</ele><time>2026-05-02T09:43:04.998Z</time></trkpt><trkpt lat="44.88422269984819" lon="7.234472840781804"><ele>819.0</ele><time>2026-05-02T09:43:06.998Z</time></trkpt><trkpt lat="44.88415690136339" lon="7.2343290294565845"><ele>818.8333333333334</ele><time>2026-05-02T09:43:08.998Z</time></trkpt><trkpt lat="44.88412771263044" lon="7.234240755643911"><ele>818.6666666666667</ele><time>2026-05-02T09:43:09.998Z</time></trkpt><trkpt lat="44.88409488595705" lon="7.234143577361192"><ele>818.5</ele><time>2026-05-02T09:43:10.998Z</time></trkpt><trkpt lat="44.88406321871193" lon="7.234043912063339"><ele>818.3333333333334</ele><time>2026-05-02T09:43:11.998Z</time></trkpt><trkpt lat="44.88403047702037" lon="7.233936482904819"><ele>818.1666666666667</ele><time>2026-05-02T09:43:12.998Z</time></trkpt><trkpt lat="44.883984720439976" lon="7.233851671355214"><ele>818.0</ele><time>2026-05-02T09:43:13.998Z</time></trkpt><trkpt lat="44.88394618475139" lon="7.23368205733689"><ele>818.0000000000001</ele><time>2026-05-02T09:43:15.998Z</time></trkpt><trkpt lat="44.88392484915799" lon="7.233595701982531"><ele>818.0</ele><time>2026-05-02T09:43:16.998Z</time></trkpt><trkpt lat="44.88387648961898" lon="7.233527183783726"><ele>818.0</ele><time>2026-05-02T09:43:17.998Z</time></trkpt><trkpt lat="44.883833422825504" lon="7.233458941245426"><ele>818.0</ele><time>2026-05-02T09:43:18.998Z</time></trkpt><trkpt lat="44.8837633513741" lon="7.233425128098335"><ele>818.0000000000001</ele><time>2026-05-02T09:43:19.998Z</time></trkpt><trkpt lat="44.88369625479198" lon="7.233359255232834"><ele>818.0</ele><time>2026-05-02T09:43:20.998Z</time></trkpt><trkpt lat="44.88358592441666" lon="7.233288227076047"><ele>818.0</ele><time>2026-05-02T09:43:22.998Z</time></trkpt><trkpt lat="44.88347830575466" lon="7.233391934628452"><ele>818.0</ele><time>2026-05-02T09:43:24.998Z</time></trkpt><trkpt lat="44.883456801800456" lon="7.23349354853253"><ele>818.0</ele><time>2026-05-02T09:43:25.998Z</time></trkpt><trkpt lat="44.883435821658935" lon="7.233639401920663"><ele>818.0</ele><time>2026-05-02T09:43:27.998Z</time></trkpt><trkpt lat="44.883413362743084" lon="7.233748676801479"><ele>818.0</ele><time>2026-05-02T09:43:29.998Z</time></trkpt><trkpt lat="44.883352980724084" lon="7.233803410842715"><ele>818.2</ele><time>2026-05-02T09:43:31.998Z</time></trkpt><trkpt lat="44.883286264826516" lon="7.23391311199911"><ele>818.4</ele><time>2026-05-02T09:43:33.997Z</time></trkpt><trkpt lat="44.88317643398499" lon="7.233992647334598"><ele>818.6</ele><time>2026-05-02T09:43:35.997Z</time></trkpt><trkpt lat="44.883134860801384" lon="7.234067734289319"><ele>818.8000000000001</ele><time>2026-05-02T09:43:36.997Z</time></trkpt><trkpt lat="44.88304444973164" lon="7.234160626203152"><ele>819.0</ele><time>2026-05-02T09:43:39Z</time></trkpt><trkpt lat="44.88300708496107" lon="7.2342332507749925"><ele>812.75</ele><time>2026-05-02T09:43:40Z</time></trkpt><trkpt lat="44.88290752935109" lon="7.234363882352703"><ele>806.5</ele><time>2026-05-02T09:43:42Z</time></trkpt><trkpt lat="44.8828562843607" lon="7.2344341248173265"><ele>800.25</ele><time>2026-05-02T09:43:43Z</time></trkpt><trkpt lat="44.88276913025745" lon="7.234565885985766"><ele>794.0</ele><time>2026-05-02T09:43:45Z</time></trkpt><trkpt lat="44.882694936824024" lon="7.234702560355435"><ele>795.2</ele><time>2026-05-02T09:43:47Z</time></trkpt><trkpt lat="44.88263096289054" lon="7.2348517078852"><ele>796.4000000000001</ele><time>2026-05-02T09:43:49Z</time></trkpt><trkpt lat="44.88259067523599" lon="7.234932223175118"><ele>797.6</ele><time>2026-05-02T09:43:50Z</time></trkpt><trkpt lat="44.88252915536062" lon="7.235069154851802"><ele>798.8</ele><time>2026-05-02T09:43:52Z</time></trkpt><trkpt lat="44.88245121668764" lon="7.235200888716332"><ele>800.0</ele><time>2026-05-02T09:43:54Z</time></trkpt><trkpt lat="44.882432861656156" lon="7.235285956500123"><ele>800.0000000000001</ele><time>2026-05-02T09:43:55Z</time></trkpt><trkpt lat="44.88241092100474" lon="7.23537492319522"><ele>800.0</ele><time>2026-05-02T09:43:56Z</time></trkpt><trkpt lat="44.88238092856695" lon="7.235478860814768"><ele>800.0</ele><time>2026-05-02T09:43:57Z</time></trkpt><trkpt lat="44.882349580351644" lon="7.235592558680375"><ele>800.0</ele><time>2026-05-02T09:43:58Z</time></trkpt><trkpt lat="44.88231729712229" lon="7.235691431567857"><ele>800.0</ele><time>2026-05-02T09:43:59Z</time></trkpt><trkpt lat="44.88229004792209" lon="7.235777897133892"><ele>800.0000000000001</ele><time>2026-05-02T09:44:00Z</time></trkpt><trkpt lat="44.88227357445625" lon="7.235865742954121"><ele>800.0</ele><time>2026-05-02T09:44:01Z</time></trkpt><trkpt lat="44.882266986112306" lon="7.2359598872317035"><ele>796.0000000000001</ele><time>2026-05-02T09:44:02Z</time></trkpt><trkpt lat="44.882258585406014" lon="7.236059604120695"><ele>792.0</ele><time>2026-05-02T09:44:03Z</time></trkpt><trkpt lat="44.88225012374907" lon="7.236172569264559"><ele>788.0</ele><time>2026-05-02T09:44:03.999Z</time></trkpt><trkpt lat="44.882233055169564" lon="7.23627627711875"><ele>784.0</ele><time>2026-05-02T09:44:04.999Z</time></trkpt><trkpt lat="44.882210297679684" lon="7.236370924318887"><ele>780.0000000000001</ele><time>2026-05-02T09:44:05.999Z</time></trkpt><trkpt lat="44.88218169265867" lon="7.236473616432771"><ele>776.0</ele><time>2026-05-02T09:44:06.999Z</time></trkpt><trkpt lat="44.88214682033552" lon="7.236567619082926"><ele>773.8333333333334</ele><time>2026-05-02T09:44:07.999Z</time></trkpt><trkpt lat="44.88211901256062" lon="7.2366573814378174"><ele>771.6666666666667</ele><time>2026-05-02T09:44:08.999Z</time></trkpt><trkpt lat="44.88209203258088" lon="7.236758656456978"><ele>769.5</ele><time>2026-05-02T09:44:09.999Z</time></trkpt><trkpt lat="44.8820748741157" lon="7.236856732525934"><ele>767.3333333333334</ele><time>2026-05-02T09:44:10.999Z</time></trkpt><trkpt lat="44.88205990395398" lon="7.236948404086825"><ele>765.1666666666667</ele><time>2026-05-02T09:44:11.999Z</time></trkpt><trkpt lat="44.881976825323044" lon="7.2370885780937"><ele>763.0</ele><time>2026-05-02T09:44:13.999Z</time></trkpt><trkpt lat="44.88189057816536" lon="7.237103059239861"><ele>763.0</ele><time>2026-05-02T09:44:14.999Z</time></trkpt><trkpt lat="44.88182259762069" lon="7.237135077368463"><ele>763.0</ele><time>2026-05-02T09:44:15.999Z</time></trkpt><trkpt lat="44.881757005494514" lon="7.237167716453149"><ele>763.0</ele><time>2026-05-02T09:44:16.999Z</time></trkpt><trkpt lat="44.88169358356052" lon="7.237188728871239"><ele>763.0</ele><time>2026-05-02T09:44:17.999Z</time></trkpt><trkpt lat="44.881632269521866" lon="7.237210922552711"><ele>763.0</ele><time>2026-05-02T09:44:18.999Z</time></trkpt><trkpt lat="44.88153277277557" lon="7.237327714315303"><ele>763.0</ele><time>2026-05-02T09:44:20.999Z</time></trkpt><trkpt lat="44.881521217997616" lon="7.23743332368633"><ele>764.5</ele><time>2026-05-02T09:44:21.999Z</time></trkpt><trkpt lat="44.88147278187068" lon="7.237493816325366"><ele>766.0</ele><time>2026-05-02T09:44:22.999Z</time></trkpt><trkpt lat="44.88143270702094" lon="7.237572218166816"><ele>767.5</ele><time>2026-05-02T09:44:23.999Z</time></trkpt><trkpt lat="44.88133251694991" lon="7.237675319658987"><ele>769.0</ele><time>2026-05-02T09:44:25.999Z</time></trkpt><trkpt lat="44.88126174534781" lon="7.237663169398382"><ele>770.4999999999999</ele><time>2026-05-02T09:44:26.999Z</time></trkpt><trkpt lat="44.88119653736195" lon="7.237681978376917"><ele>772.0</ele><time>2026-05-02T09:44:27.999Z</time></trkpt><trkpt lat="44.881088424398186" lon="7.23771416033799"><ele>772.0000000000001</ele><time>2026-05-02T09:44:29.999Z</time></trkpt><trkpt lat="44.88100643213709" lon="7.237750937445288"><ele>772.0</ele><time>2026-05-02T09:44:31.999Z</time></trkpt><trkpt lat="44.88097185105289" lon="7.237839804056105"><ele>772.0</ele><time>2026-05-02T09:44:33.999Z</time></trkpt><trkpt lat="44.880905759029375" lon="7.237849499980066"><ele>772.0</ele><time>2026-05-02T09:44:36.999Z</time></trkpt><trkpt lat="44.88093162859952" lon="7.237766299726625"><ele>772.0</ele><time>2026-05-02T09:44:38.999Z</time></trkpt><trkpt lat="44.880986980953665" lon="7.237710260330241"><ele>772.0000000000001</ele><time>2026-05-02T09:44:39.999Z</time></trkpt><trkpt lat="44.88103872011204" lon="7.237649844018468"><ele>772.0</ele><time>2026-05-02T09:44:40.999Z</time></trkpt><trkpt lat="44.88109604109192" lon="7.237584615085533"><ele>772.0000000000001</ele><time>2026-05-02T09:44:41.999Z</time></trkpt><trkpt lat="44.8811467193412" lon="7.23751104670296"><ele>772.0</ele><time>2026-05-02T09:44:42.999Z</time></trkpt><trkpt lat="44.88119584174873" lon="7.237428131835777"><ele>772.0</ele><time>2026-05-02T09:44:43.999Z</time></trkpt><trkpt lat="44.881241354251586" lon="7.237345451774061"><ele>772.0</ele><time>2026-05-02T09:44:44.999Z</time></trkpt><trkpt lat="44.88128438644097" lon="7.2372582317453364"><ele>772.0</ele><time>2026-05-02T09:44:45.999Z</time></trkpt><trkpt lat="44.881308764833335" lon="7.237167539006487"><ele>772.0000000000001</ele><time>2026-05-02T09:44:46.999Z</time></trkpt><trkpt lat="44.88132568971277" lon="7.237070236403183"><ele>772.0</ele><time>2026-05-02T09:44:47.999Z</time></trkpt><trkpt lat="44.88135067151456" lon="7.236965093883367"><ele>772.1666666666666</ele><time>2026-05-02T09:44:48.999Z</time></trkpt><trkpt lat="44.88136774375607" lon="7.236874078761142"><ele>772.3333333333333</ele><time>2026-05-02T09:44:49.999Z</time></trkpt><trkpt lat="44.88137952949329" lon="7.236784254165756"><ele>772.5</ele><time>2026-05-02T09:44:50.998Z</time></trkpt><trkpt lat="44.88139206875994" lon="7.236692870073638"><ele>772.6666666666667</ele><time>2026-05-02T09:44:51.998Z</time></trkpt><trkpt lat="44.88140716139129" lon="7.236512258066417"><ele>772.8333333333334</ele><time>2026-05-02T09:44:53.998Z</time></trkpt><trkpt lat="44.88138713680211" lon="7.23642796086517"><ele>773.0</ele><time>2026-05-02T09:44:54.998Z</time></trkpt><trkpt lat="44.88135543478275" lon="7.236340333803603"><ele>773.0000000000001</ele><time>2026-05-02T09:44:55.998Z</time></trkpt><trkpt lat="44.88131463209674" lon="7.236246465139366"><ele>773.0</ele><time>2026-05-02T09:44:56.998Z</time></trkpt><trkpt lat="44.8812759131836" lon="7.2361532759283005"><ele>773.0</ele><time>2026-05-02T09:44:57.998Z</time></trkpt><trkpt lat="44.88124162546943" lon="7.236062586783821"><ele>773.0</ele><time>2026-05-02T09:44:58.998Z</time></trkpt><trkpt lat="44.881209464690656" lon="7.235977979672203"><ele>773.0000000000001</ele><time>2026-05-02T09:44:59.998Z</time></trkpt><trkpt lat="44.88118693413485" lon="7.2358829573140655"><ele>773.0</ele><time>2026-05-02T09:45:00.998Z</time></trkpt><trkpt lat="44.8812165958362" lon="7.235708061484529"><ele>774.5000000000001</ele><time>2026-05-02T09:45:02.998Z</time></trkpt><trkpt lat="44.881225030213464" lon="7.235598773204508"><ele>776.0</ele><time>2026-05-02T09:45:03.998Z</time></trkpt><trkpt lat="44.88121910652092" lon="7.235476403822824"><ele>777.5</ele><time>2026-05-02T09:45:04.998Z</time></trkpt><trkpt lat="44.88115283291582" lon="7.235360591867285"><ele>779.0</ele><time>2026-05-02T09:45:05.998Z</time></trkpt><trkpt lat="44.88110498585549" lon="7.235240328494379"><ele>780.5000000000001</ele><time>2026-05-02T09:45:06.998Z</time></trkpt><trkpt lat="44.881065961245305" lon="7.235149842253306"><ele>782.0</ele><time>2026-05-02T09:45:07.998Z</time></trkpt><trkpt lat="44.88102035489684" lon="7.235070453860284"><ele>782.0000000000001</ele><time>2026-05-02T09:45:08.998Z</time></trkpt><trkpt lat="44.88097239340871" lon="7.234992564395093"><ele>782.0</ele><time>2026-05-02T09:45:09.998Z</time></trkpt><trkpt lat="44.880966252381235" lon="7.234872129339851"><ele>782.0</ele><time>2026-05-02T09:45:10.998Z</time></trkpt><trkpt lat="44.88093374123432" lon="7.23477282696439"><ele>782.0</ele><time>2026-05-02T09:45:11.998Z</time></trkpt><trkpt lat="44.88090175615498" lon="7.234694342412689"><ele>782.0000000000001</ele><time>2026-05-02T09:45:12.998Z</time></trkpt><trkpt lat="44.880829140053926" lon="7.234612865393656"><ele>782.0</ele><time>2026-05-02T09:45:14.998Z</time></trkpt><trkpt lat="44.88071198538474" lon="7.234683819169223"><ele>776.0</ele><time>2026-05-02T09:45:16.998Z</time></trkpt><trkpt lat="44.88068545249392" lon="7.234842118089516"><ele>770.0</ele><time>2026-05-02T09:45:17.998Z</time></trkpt><trkpt lat="44.88064545047728" lon="7.235006196267743"><ele>764.0</ele><time>2026-05-02T09:45:19.998Z</time></trkpt><trkpt lat="44.880601013013816" lon="7.235102235442125"><ele>758.0</ele><time>2026-05-02T09:45:20.998Z</time></trkpt><trkpt lat="44.88054464419689" lon="7.235190991768643"><ele>752.0</ele><time>2026-05-02T09:45:21.998Z</time></trkpt><trkpt lat="44.8804955252301" lon="7.23525108789874"><ele>752.0</ele><time>2026-05-02T09:45:22.998Z</time></trkpt><trkpt lat="44.88043367331142" lon="7.235307703810672"><ele>752.0</ele><time>2026-05-02T09:45:23.998Z</time></trkpt><trkpt lat="44.88036524894492" lon="7.235355142701325"><ele>752.0</ele><time>2026-05-02T09:45:24.998Z</time></trkpt><trkpt lat="44.880290541505545" lon="7.235391758285234"><ele>752.0</ele><time>2026-05-02T09:45:25.998Z</time></trkpt><trkpt lat="44.88022397472634" lon="7.2353819885535255"><ele>752.0</ele><time>2026-05-02T09:45:26.998Z</time></trkpt><trkpt lat="44.880156757825176" lon="7.235252889636896"><ele>752.0</ele><time>2026-05-02T09:45:28.998Z</time></trkpt><trkpt lat="44.88011282803094" lon="7.235080436300956"><ele>749.6</ele><time>2026-05-02T09:45:30.998Z</time></trkpt><trkpt lat="44.88007251102029" lon="7.234916151952422"><ele>747.2</ele><time>2026-05-02T09:45:32.998Z</time></trkpt><trkpt lat="44.88003719484975" lon="7.234757252797222"><ele>744.8</ele><time>2026-05-02T09:45:34.998Z</time></trkpt><trkpt lat="44.880003010894676" lon="7.234608504628006"><ele>742.4</ele><time>2026-05-02T09:45:36.997Z</time></trkpt><trkpt lat="44.87998190273517" lon="7.234524523239593"><ele>740.0</ele><time>2026-05-02T09:45:37.997Z</time></trkpt><trkpt lat="44.87995786594468" lon="7.234430984727828"><ele>740.0</ele><time>2026-05-02T09:45:38.997Z</time></trkpt><trkpt lat="44.87993213332491" lon="7.23433084691505"><ele>740.0</ele><time>2026-05-02T09:45:39.997Z</time></trkpt><trkpt lat="44.87990305999268" lon="7.234215933430705"><ele>740.0</ele><time>2026-05-02T09:45:40.997Z</time></trkpt><trkpt lat="44.87987641231674" lon="7.234100927663143"><ele>740.0</ele><time>2026-05-02T09:45:41.997Z</time></trkpt><trkpt lat="44.879851916271726" lon="7.233994192671818"><ele>740.0</ele><time>2026-05-02T09:45:42.997Z</time></trkpt><trkpt lat="44.8798278058046" lon="7.233890328807412"><ele>740.0</ele><time>2026-05-02T09:45:44Z</time></trkpt><trkpt lat="44.879804081149054" lon="7.233804717916992"><ele>740.0</ele><time>2026-05-02T09:45:45Z</time></trkpt><trkpt lat="44.87975210462479" lon="7.233664160669864"><ele>740.0</ele><time>2026-05-02T09:45:47Z</time></trkpt><trkpt lat="44.87965890402027" lon="7.233598490899503"><ele>740.0</ele><time>2026-05-02T09:45:49Z</time></trkpt><trkpt lat="44.8796009987444" lon="7.23369898674099"><ele>740.0</ele><time>2026-05-02T09:45:51Z</time></trkpt><trkpt lat="44.87958559575151" lon="7.2338498880083195"><ele>740.0</ele><time>2026-05-02T09:45:52Z</time></trkpt><trkpt lat="44.87960107060218" lon="7.234014624583104"><ele>740.0</ele><time>2026-05-02T09:45:53Z</time></trkpt><trkpt lat="44.87961119431318" lon="7.234159939536572"><ele>740.0</ele><time>2026-05-02T09:45:54Z</time></trkpt><trkpt lat="44.8796090229542" lon="7.2342611841698"><ele>740.0</ele><time>2026-05-02T09:45:55Z</time></trkpt><trkpt lat="44.879580360582395" lon="7.234413264660492"><ele>740.0</ele><time>2026-05-02T09:45:57Z</time></trkpt><trkpt lat="44.87952552316061" lon="7.234562457578874"><ele>740.0</ele><time>2026-05-02T09:45:59Z</time></trkpt><trkpt lat="44.87949152041043" lon="7.234687493038503"><ele>736.4</ele><time>2026-05-02T09:46:01Z</time></trkpt><trkpt lat="44.879442741995646" lon="7.234804663112242"><ele>732.8</ele><time>2026-05-02T09:46:03Z</time></trkpt><trkpt lat="44.879433303375286" lon="7.234934843726573"><ele>729.2</ele><time>2026-05-02T09:46:05Z</time></trkpt><trkpt lat="44.87935384255222" lon="7.235070500012525"><ele>725.6</ele><time>2026-05-02T09:46:07Z</time></trkpt><trkpt lat="44.879325705415134" lon="7.235154099374344"><ele>722.0</ele><time>2026-05-02T09:46:07.999Z</time></trkpt><trkpt lat="44.87927658081534" lon="7.235322577364109"><ele>722.0</ele><time>2026-05-02T09:46:09.999Z</time></trkpt><trkpt lat="44.879289882504686" lon="7.235415554117376"><ele>722.0</ele><time>2026-05-02T09:46:10.999Z</time></trkpt><trkpt lat="44.87919494947672" lon="7.235502202549931"><ele>722.0</ele><time>2026-05-02T09:46:12.999Z</time></trkpt><trkpt lat="44.87919049220133" lon="7.235592958517736"><ele>722.0</ele><time>2026-05-02T09:46:13.999Z</time></trkpt><trkpt lat="44.879171426417784" lon="7.235702796915442"><ele>722.0</ele><time>2026-05-02T09:46:14.999Z</time></trkpt><trkpt lat="44.87912224330516" lon="7.235822498884397"><ele>722.0</ele><time>2026-05-02T09:46:16.999Z</time></trkpt><trkpt lat="44.87905770553993" lon="7.235959900336155"><ele>719.1666666666666</ele><time>2026-05-02T09:46:18.999Z</time></trkpt><trkpt lat="44.87901115894805" lon="7.236052848513288"><ele>716.3333333333333</ele><time>2026-05-02T09:46:19.999Z</time></trkpt><trkpt lat="44.878969425835244" lon="7.236134528937255"><ele>713.5</ele><time>2026-05-02T09:46:20.999Z</time></trkpt><trkpt lat="44.878901654957076" lon="7.2361557694718455"><ele>710.6666666666666</ele><time>2026-05-02T09:46:22.999Z</time></trkpt><trkpt lat="44.87882854759475" lon="7.236144710362596"><ele>707.8333333333334</ele><time>2026-05-02T09:46:47.999Z</time></trkpt><trkpt lat="44.878770402795276" lon="7.236021586253572"><ele>705.0</ele><time>2026-05-02T09:46:49.999Z</time></trkpt><trkpt lat="44.878716454506986" lon="7.235940821382827"><ele>705.0</ele><time>2026-05-02T09:46:50.999Z</time></trkpt><trkpt lat="44.87866066851989" lon="7.235837897830579"><ele>705.0</ele><time>2026-05-02T09:46:51.999Z</time></trkpt><trkpt lat="44.878654176598" lon="7.2356890394161555"><ele>705.0</ele><time>2026-05-02T09:46:52.999Z</time></trkpt><trkpt lat="44.87862012989317" lon="7.235577119655296"><ele>705.0</ele><time>2026-05-02T09:46:53.998Z</time></trkpt><trkpt lat="44.87859108026065" lon="7.235468604565416"><ele>705.0</ele><time>2026-05-02T09:46:54.998Z</time></trkpt><trkpt lat="44.87856708612617" lon="7.235371536415527"><ele>705.0</ele><time>2026-05-02T09:46:55.998Z</time></trkpt><trkpt lat="44.878528417265834" lon="7.235280645087756"><ele>708.6666666666666</ele><time>2026-05-02T09:46:56.998Z</time></trkpt><trkpt lat="44.878502893463626" lon="7.235174144727538"><ele>712.3333333333334</ele><time>2026-05-02T09:46:57.998Z</time></trkpt><trkpt lat="44.87848144497272" lon="7.235067750951635"><ele>716.0</ele><time>2026-05-02T09:46:58.998Z</time></trkpt><trkpt lat="44.87846589869589" lon="7.234950353253932"><ele>719.6666666666667</ele><time>2026-05-02T09:46:59.998Z</time></trkpt><trkpt lat="44.87843866085808" lon="7.234833511123524"><ele>723.3333333333334</ele><time>2026-05-02T09:47:00.998Z</time></trkpt><trkpt lat="44.87841266630257" lon="7.234727962265548"><ele>727.0</ele><time>2026-05-02T09:47:01.998Z</time></trkpt><trkpt lat="44.87838575355106" lon="7.234628890062044"><ele>727.8333333333334</ele><time>2026-05-02T09:47:02.998Z</time></trkpt><trkpt lat="44.87835630311797" lon="7.23452615335359"><ele>728.6666666666667</ele><time>2026-05-02T09:47:03.998Z</time></trkpt><trkpt lat="44.87832629627086" lon="7.234428750197533"><ele>729.5</ele><time>2026-05-02T09:47:04.998Z</time></trkpt><trkpt lat="44.87829539652682" lon="7.234323268810661"><ele>730.3333333333334</ele><time>2026-05-02T09:47:05.998Z</time></trkpt><trkpt lat="44.87826394639577" lon="7.234213220512915"><ele>731.1666666666666</ele><time>2026-05-02T09:47:06.998Z</time></trkpt><trkpt lat="44.878228959888325" lon="7.23410313615934"><ele>732.0</ele><time>2026-05-02T09:47:07.998Z</time></trkpt><trkpt lat="44.87819010314548" lon="7.2339966325234215"><ele>735.8333333333334</ele><time>2026-05-02T09:47:08.998Z</time></trkpt><trkpt lat="44.87814947853469" lon="7.233890881027906"><ele>739.6666666666666</ele><time>2026-05-02T09:47:09.998Z</time></trkpt><trkpt lat="44.87810411737561" lon="7.233782830609047"><ele>743.5</ele><time>2026-05-02T09:47:10.998Z</time></trkpt><trkpt lat="44.87805630828013" lon="7.233679348278378"><ele>747.3333333333333</ele><time>2026-05-02T09:47:11.998Z</time></trkpt><trkpt lat="44.878003966738135" lon="7.233608956071487"><ele>751.1666666666666</ele><time>2026-05-02T09:47:12.998Z</time></trkpt><trkpt lat="44.877940751430316" lon="7.233475283127745"><ele>755.0</ele><time>2026-05-02T09:47:14.998Z</time></trkpt><trkpt lat="44.877861374231536" lon="7.233367340913094"><ele>755.0</ele><time>2026-05-02T09:47:16.998Z</time></trkpt><trkpt lat="44.87777550177002" lon="7.233304192902195"><ele>755.0</ele><time>2026-05-02T09:47:18.998Z</time></trkpt><trkpt lat="44.87771248537001" lon="7.233351749221195"><ele>755.0</ele><time>2026-05-02T09:47:36.998Z</time></trkpt><trkpt lat="44.87766825277333" lon="7.2334465991815655"><ele>755.0</ele><time>2026-05-02T09:47:39.998Z</time></trkpt><trkpt lat="44.87768831873753" lon="7.233579247284925"><ele>755.0</ele><time>2026-05-02T09:47:41.997Z</time></trkpt><trkpt lat="44.87771521567291" lon="7.233717243312161"><ele>755.0</ele><time>2026-05-02T09:47:43.997Z</time></trkpt><trkpt lat="44.87773455994458" lon="7.233875273284825"><ele>750.4</ele><time>2026-05-02T09:47:45.997Z</time></trkpt><trkpt lat="44.87774704769389" lon="7.2340419415498625"><ele>745.8</ele><time>2026-05-02T09:47:47.997Z</time></trkpt><trkpt lat="44.877748322091485" lon="7.2341380672773"><ele>741.2</ele><time>2026-05-02T09:47:48.997Z</time></trkpt><trkpt lat="44.8777432305788" lon="7.2342706525109"><ele>736.6</ele><time>2026-05-02T09:47:51Z</time></trkpt><trkpt lat="44.8777642464294" lon="7.234405952673044"><ele>732.0</ele><time>2026-05-02T09:47:54Z</time></trkpt><trkpt lat="44.87774571329957" lon="7.234527313433086"><ele>732.0</ele><time>2026-05-02T09:47:56Z</time></trkpt><trkpt lat="44.877742388273845" lon="7.234616987910295"><ele>732.0</ele><time>2026-05-02T09:47:58Z</time></trkpt><trkpt lat="44.87773234843819" lon="7.234705101554291"><ele>732.0</ele><time>2026-05-02T09:48:00Z</time></trkpt><trkpt lat="44.87773897588077" lon="7.234958923118174"><ele>732.0</ele><time>2026-05-02T09:48:01Z</time></trkpt><trkpt lat="44.87772888411282" lon="7.235076467085031"><ele>732.0</ele><time>2026-05-02T09:48:03Z</time></trkpt><trkpt lat="44.87776398416102" lon="7.235159132379469"><ele>732.0</ele><time>2026-05-02T09:48:06Z</time></trkpt><trkpt lat="44.877704431533026" lon="7.235207918388688"><ele>732.0</ele><time>2026-05-02T09:48:36.999Z</time></trkpt><trkpt lat="44.877719119947244" lon="7.2350910246618945"><ele>732.0</ele><time>2026-05-02T09:48:45.999Z</time></trkpt><trkpt lat="44.877693536172444" lon="7.235007456855007"><ele>732.0</ele><time>2026-05-02T09:48:48.999Z</time></trkpt><trkpt lat="44.877702120033995" lon="7.234889289661362"><ele>732.0</ele><time>2026-05-02T09:48:53.999Z</time></trkpt><trkpt lat="44.87769731205516" lon="7.234782446008637"><ele>732.0</ele><time>2026-05-02T09:48:55.999Z</time></trkpt><trkpt lat="44.877705737670055" lon="7.23463580339551"><ele>732.0</ele><time>2026-05-02T09:48:57.998Z</time></trkpt><trkpt lat="44.87770382423379" lon="7.234527345738318"><ele>732.0</ele><time>2026-05-02T09:48:58.998Z</time></trkpt><trkpt lat="44.8777021275327" lon="7.234404786157193"><ele>732.0</ele><time>2026-05-02T09:48:59.998Z</time></trkpt><trkpt lat="44.87773270341155" lon="7.234219572668262"><ele>732.0</ele><time>2026-05-02T09:49:01.998Z</time></trkpt><trkpt lat="44.87772051272818" lon="7.234062103456607"><ele>732.0</ele><time>2026-05-02T09:49:03.998Z</time></trkpt><trkpt lat="44.877694470718765" lon="7.233893754635615"><ele>735.8333333333334</ele><time>2026-05-02T09:49:05.998Z</time></trkpt><trkpt lat="44.877683508070284" lon="7.233767190461605"><ele>739.6666666666666</ele><time>2026-05-02T09:49:07.998Z</time></trkpt><trkpt lat="44.877667809821666" lon="7.2336335016264535"><ele>743.5</ele><time>2026-05-02T09:49:09.998Z</time></trkpt><trkpt lat="44.87764221258205" lon="7.233495804293363"><ele>747.3333333333333</ele><time>2026-05-02T09:49:11.998Z</time></trkpt><trkpt lat="44.8776612115233" lon="7.233409725503484"><ele>751.1666666666666</ele><time>2026-05-02T09:49:13.998Z</time></trkpt><trkpt lat="44.87774229263048" lon="7.2333363157381285"><ele>755.0</ele><time>2026-05-02T09:49:15.998Z</time></trkpt><trkpt lat="44.877798090683164" lon="7.233392184578914"><ele>755.0</ele><time>2026-05-02T09:49:17.998Z</time></trkpt><trkpt lat="44.87787344438657" lon="7.23336118523855"><ele>755.0</ele><time>2026-05-02T09:49:18.998Z</time></trkpt><trkpt lat="44.877924298760654" lon="7.2334284302471685"><ele>755.0</ele><time>2026-05-02T09:49:19.998Z</time></trkpt><trkpt lat="44.877983078356415" lon="7.233516492551034"><ele>755.0</ele><time>2026-05-02T09:49:20.998Z</time></trkpt><trkpt lat="44.87804957069042" lon="7.233626772728163"><ele>755.0</ele><time>2026-05-02T09:49:21.998Z</time></trkpt><trkpt lat="44.878111643336204" lon="7.233753774674943"><ele>755.0</ele><time>2026-05-02T09:49:22.998Z</time></trkpt><trkpt lat="44.87816813904971" lon="7.233870920048899"><ele>750.4</ele><time>2026-05-02T09:49:23.998Z</time></trkpt><trkpt lat="44.87821486396223" lon="7.233994335330169"><ele>745.8</ele><time>2026-05-02T09:49:24.998Z</time></trkpt><trkpt lat="44.878253269234726" lon="7.23413533117488"><ele>741.2</ele><time>2026-05-02T09:49:25.998Z</time></trkpt><trkpt lat="44.87829213092362" lon="7.234281230840135"><ele>736.6</ele><time>2026-05-02T09:49:26.998Z</time></trkpt><trkpt lat="44.878331371009935" lon="7.234426406158704"><ele>732.0</ele><time>2026-05-02T09:49:27.998Z</time></trkpt><trkpt lat="44.878363608569344" lon="7.234567999381512"><ele>732.0</ele><time>2026-05-02T09:49:28.998Z</time></trkpt><trkpt lat="44.87840368465991" lon="7.23471384837895"><ele>732.0</ele><time>2026-05-02T09:49:29.998Z</time></trkpt><trkpt lat="44.878440394062004" lon="7.2348612996037085"><ele>732.0</ele><time>2026-05-02T09:49:30.998Z</time></trkpt><trkpt lat="44.87847638375401" lon="7.234999917920559"><ele>732.0</ele><time>2026-05-02T09:49:31.998Z</time></trkpt><trkpt lat="44.87850931702579" lon="7.235136793806253"><ele>732.0</ele><time>2026-05-02T09:49:32.998Z</time></trkpt><trkpt lat="44.87854107954908" lon="7.235268474078347"><ele>731.0</ele><time>2026-05-02T09:49:33.998Z</time></trkpt><trkpt lat="44.878575731713234" lon="7.235401922358246"><ele>730.0</ele><time>2026-05-02T09:49:34.998Z</time></trkpt><trkpt lat="44.87860705408533" lon="7.2355311061580565"><ele>729.0</ele><time>2026-05-02T09:49:35.998Z</time></trkpt><trkpt lat="44.87863680478424" lon="7.235651010815061"><ele>728.0</ele><time>2026-05-02T09:49:36.998Z</time></trkpt><trkpt lat="44.878670696545264" lon="7.235762911312704"><ele>727.0</ele><time>2026-05-02T09:49:37.998Z</time></trkpt><trkpt lat="44.87871537631661" lon="7.235917027021998"><ele>723.3333333333334</ele><time>2026-05-02T09:49:38.998Z</time></trkpt><trkpt lat="44.87876456753496" lon="7.2360252702830685"><ele>719.6666666666667</ele><time>2026-05-02T09:49:39.998Z</time></trkpt><trkpt lat="44.87882162020501" lon="7.236126728026408"><ele>716.0</ele><time>2026-05-02T09:49:40.998Z</time></trkpt><trkpt lat="44.87885902889614" lon="7.236201424133772"><ele>712.3333333333334</ele><time>2026-05-02T09:49:41.998Z</time></trkpt><trkpt lat="44.878936455957295" lon="7.236249850311696"><ele>708.6666666666666</ele><time>2026-05-02T09:49:43.997Z</time></trkpt><trkpt lat="44.878981949540304" lon="7.236145602478768"><ele>705.0</ele><time>2026-05-02T09:49:44.997Z</time></trkpt><trkpt lat="44.87900666121807" lon="7.236027884469284"><ele>705.0</ele><time>2026-05-02T09:49:45.997Z</time></trkpt><trkpt lat="44.87902591995274" lon="7.235922450964135"><ele>705.0</ele><time>2026-05-02T09:49:46.997Z</time></trkpt><trkpt lat="44.87907486526272" lon="7.235829463705939"><ele>705.0</ele><time>2026-05-02T09:49:47.997Z</time></trkpt><trkpt lat="44.87912739595492" lon="7.235703255916281"><ele>705.0</ele><time>2026-05-02T09:49:48.997Z</time></trkpt><trkpt lat="44.879162412410075" lon="7.235561345054653"><ele>705.0</ele><time>2026-05-02T09:49:49.997Z</time></trkpt><trkpt lat="44.87918950865744" lon="7.235422303664424"><ele>708.4</ele><time>2026-05-02T09:49:50.997Z</time></trkpt><trkpt lat="44.879245737236744" lon="7.23535062545979"><ele>711.8</ele><time>2026-05-02T09:49:51.997Z</time></trkpt><trkpt lat="44.879284846137004" lon="7.235266135884814"><ele>715.2</ele><time>2026-05-02T09:49:52.997Z</time></trkpt><trkpt lat="44.87936210350664" lon="7.235184406734841"><ele>718.6</ele><time>2026-05-02T09:49:53.997Z</time></trkpt><trkpt lat="44.87946421578577" lon="7.235084914774961"><ele>722.0</ele><time>2026-05-02T09:49:56Z</time></trkpt><trkpt lat="44.879586098966556" lon="7.235126791264021"><ele>722.0</ele><time>2026-05-02T09:49:58Z</time></trkpt><trkpt lat="44.879661462575726" lon="7.235198831702758"><ele>722.0</ele><time>2026-05-02T09:49:59Z</time></trkpt><trkpt lat="44.87971032041131" lon="7.235273138346137"><ele>722.0</ele><time>2026-05-02T09:50:00Z</time></trkpt><trkpt lat="44.87975092624758" lon="7.235378339059303"><ele>722.0</ele><time>2026-05-02T09:50:01Z</time></trkpt><trkpt lat="44.87975036190811" lon="7.2354891568996385"><ele>722.0</ele><time>2026-05-02T09:50:02Z</time></trkpt><trkpt lat="44.879719216966656" lon="7.235592239513965"><ele>722.0</ele><time>2026-05-02T09:50:03Z</time></trkpt><trkpt lat="44.87968958927313" lon="7.235686505833163"><ele>719.0</ele><time>2026-05-02T09:50:04Z</time></trkpt><trkpt lat="44.879675369265996" lon="7.235789980736019"><ele>716.0</ele><time>2026-05-02T09:50:05Z</time></trkpt><trkpt lat="44.879675830726" lon="7.2358972578437575"><ele>713.0</ele><time>2026-05-02T09:50:06Z</time></trkpt><trkpt lat="44.87969270990734" lon="7.235991121171282"><ele>710.0</ele><time>2026-05-02T09:50:07Z</time></trkpt><trkpt lat="44.87970999755507" lon="7.23611277743424"><ele>707.0</ele><time>2026-05-02T09:50:09Z</time></trkpt><trkpt lat="44.879731580912924" lon="7.236233759140844"><ele>704.0</ele><time>2026-05-02T09:50:12Z</time></trkpt><trkpt lat="44.87975148339663" lon="7.236360895055235"><ele>701.8000000000001</ele><time>2026-05-02T09:50:14Z</time></trkpt><trkpt lat="44.87977377331424" lon="7.236509092322088"><ele>699.6</ele><time>2026-05-02T09:50:15.999Z</time></trkpt><trkpt lat="44.879843960968614" lon="7.236641951531974"><ele>697.4</ele><time>2026-05-02T09:50:17.999Z</time></trkpt><trkpt lat="44.87996321622488" lon="7.236672510934364"><ele>695.2</ele><time>2026-05-02T09:50:19.999Z</time></trkpt><trkpt lat="44.880019913415744" lon="7.236729356034056"><ele>693.0</ele><time>2026-05-02T09:50:20.999Z</time></trkpt><trkpt lat="44.88001535369701" lon="7.236897295182122"><ele>693.0</ele><time>2026-05-02T09:50:22.999Z</time></trkpt><trkpt lat="44.87992380638105" lon="7.236967273040493"><ele>693.0</ele><time>2026-05-02T09:50:23.999Z</time></trkpt><trkpt lat="44.879874044810734" lon="7.237183312912078"><ele>693.0</ele><time>2026-05-02T09:50:25.999Z</time></trkpt><trkpt lat="44.87985879305291" lon="7.2373096885579535"><ele>693.0</ele><time>2026-05-02T09:50:26.999Z</time></trkpt><trkpt lat="44.879844721625254" lon="7.237472453421937"><ele>692.8</ele><time>2026-05-02T09:50:27.999Z</time></trkpt><trkpt lat="44.87981109899062" lon="7.237618311606502"><ele>692.5999999999999</ele><time>2026-05-02T09:50:28.999Z</time></trkpt><trkpt lat="44.8797715761343" lon="7.237747294910732"><ele>692.4000000000001</ele><time>2026-05-02T09:50:29.999Z</time></trkpt><trkpt lat="44.879728380791114" lon="7.237882075450357"><ele>692.2</ele><time>2026-05-02T09:50:30.999Z</time></trkpt><trkpt lat="44.87969471664926" lon="7.238016824524315"><ele>692.0</ele><time>2026-05-02T09:50:31.999Z</time></trkpt><trkpt lat="44.87968805545773" lon="7.23812867526858"><ele>691.8333333333333</ele><time>2026-05-02T09:50:32.999Z</time></trkpt><trkpt lat="44.8796657611287" lon="7.238230487373341"><ele>691.6666666666666</ele><time>2026-05-02T09:50:33.999Z</time></trkpt><trkpt lat="44.87965305196766" lon="7.238319775896897"><ele>691.5</ele><time>2026-05-02T09:50:34.999Z</time></trkpt><trkpt lat="44.879667961254704" lon="7.238409205312495"><ele>691.3333333333334</ele><time>2026-05-02T09:50:35.999Z</time></trkpt><trkpt lat="44.879654630374155" lon="7.238615166922212"><ele>691.1666666666667</ele><time>2026-05-02T09:50:37.999Z</time></trkpt><trkpt lat="44.87965884195548" lon="7.238737382367985"><ele>691.0</ele><time>2026-05-02T09:50:38.999Z</time></trkpt><trkpt lat="44.879652965138554" lon="7.238852050690719"><ele>690.3333333333334</ele><time>2026-05-02T09:50:39.999Z</time></trkpt><trkpt lat="44.87964124574188" lon="7.238975851600529"><ele>689.6666666666667</ele><time>2026-05-02T09:50:40.999Z</time></trkpt><trkpt lat="44.87962386724335" lon="7.239087427338538"><ele>689.0</ele><time>2026-05-02T09:50:41.999Z</time></trkpt><trkpt lat="44.879597062564756" lon="7.23920526698442"><ele>688.3333333333334</ele><time>2026-05-02T09:50:42.999Z</time></trkpt><trkpt lat="44.879553452760085" lon="7.2392876242663995"><ele>687.6666666666666</ele><time>2026-05-02T09:50:43.999Z</time></trkpt><trkpt lat="44.87950682550101" lon="7.23938670673405"><ele>687.0</ele><time>2026-05-02T09:50:44.999Z</time></trkpt><trkpt lat="44.87946644867323" lon="7.239493316401195"><ele>687.0</ele><time>2026-05-02T09:50:45.999Z</time></trkpt><trkpt lat="44.87944394667259" lon="7.239592221346094"><ele>687.0</ele><time>2026-05-02T09:50:46.999Z</time></trkpt><trkpt lat="44.879418968482774" lon="7.239691184609296"><ele>687.0</ele><time>2026-05-02T09:50:47.999Z</time></trkpt><trkpt lat="44.87939730274454" lon="7.239779951935029"><ele>687.0</ele><time>2026-05-02T09:50:48.999Z</time></trkpt><trkpt lat="44.87937229338225" lon="7.239889554289751"><ele>687.0</ele><time>2026-05-02T09:50:50.999Z</time></trkpt><trkpt lat="44.87935404725277" lon="7.240004715614401"><ele>687.0</ele><time>2026-05-02T09:50:52.999Z</time></trkpt><trkpt lat="44.87934748370681" lon="7.240102155552525"><ele>687.0</ele><time>2026-05-02T09:50:54.999Z</time></trkpt><trkpt lat="44.87934840403362" lon="7.239897612027876"><ele>687.0</ele><time>2026-05-02T09:51:01.998Z</time></trkpt><trkpt lat="44.879349889125244" lon="7.239802715440561"><ele>687.0</ele><time>2026-05-02T09:51:02.998Z</time></trkpt><trkpt lat="44.87935103522958" lon="7.239694813500726"><ele>687.0</ele><time>2026-05-02T09:51:03.998Z</time></trkpt><trkpt lat="44.87934621962671" lon="7.239582238557306"><ele>687.0</ele><time>2026-05-02T09:51:04.998Z</time></trkpt><trkpt lat="44.87934440550513" lon="7.239474242948641"><ele>687.0</ele><time>2026-05-02T09:51:05.998Z</time></trkpt><trkpt lat="44.87935199413074" lon="7.239367952404323"><ele>687.0</ele><time>2026-05-02T09:51:06.998Z</time></trkpt><trkpt lat="44.879269368343905" lon="7.239271384810124"><ele>680.2857142857143</ele><time>2026-05-02T09:51:08.998Z</time></trkpt><trkpt lat="44.87920478296975" lon="7.239298318079276"><ele>673.5714285714286</ele><time>2026-05-02T09:51:09.998Z</time></trkpt><trkpt lat="44.879154017095075" lon="7.239384735498779"><ele>666.8571428571429</ele><time>2026-05-02T09:51:10.998Z</time></trkpt><trkpt lat="44.87913003751743" lon="7.239489608271923"><ele>660.1428571428571</ele><time>2026-05-02T09:51:11.998Z</time></trkpt><trkpt lat="44.87909899676372" lon="7.239587258264105"><ele>653.4285714285714</ele><time>2026-05-02T09:51:12.998Z</time></trkpt><trkpt lat="44.87906788138133" lon="7.239691015345638"><ele>646.7142857142857</ele><time>2026-05-02T09:51:13.998Z</time></trkpt><trkpt lat="44.879043618384735" lon="7.239781646194351"><ele>640.0</ele><time>2026-05-02T09:51:14.998Z</time></trkpt><trkpt lat="44.879022150208954" lon="7.23988054638022"><ele>638.6666666666667</ele><time>2026-05-02T09:51:16.998Z</time></trkpt><trkpt lat="44.87902649695312" lon="7.239995149584935"><ele>637.3333333333334</ele><time>2026-05-02T09:51:19.998Z</time></trkpt><trkpt lat="44.879032085474755" lon="7.24008885380075"><ele>636.0</ele><time>2026-05-02T09:51:32.998Z</time></trkpt><trkpt lat="44.87907147542549" lon="7.24018906735246"><ele>634.6666666666666</ele><time>2026-05-02T09:51:36.998Z</time></trkpt><trkpt lat="44.87908792192006" lon="7.240289914248629"><ele>633.3333333333333</ele><time>2026-05-02T09:51:38.998Z</time></trkpt><trkpt lat="44.879097341250606" lon="7.240420148017263"><ele>632.0</ele><time>2026-05-02T09:51:40.998Z</time></trkpt><trkpt lat="44.879115843745346" lon="7.240552639460942"><ele>630.5</ele><time>2026-05-02T09:51:42.998Z</time></trkpt><trkpt lat="44.87913268103459" lon="7.240720715302847"><ele>629.0</ele><time>2026-05-02T09:51:44.998Z</time></trkpt><trkpt lat="44.879151789227144" lon="7.24081704175669"><ele>627.5</ele><time>2026-05-02T09:51:45.998Z</time></trkpt><trkpt lat="44.87917219207619" lon="7.240923337922725"><ele>626.0</ele><time>2026-05-02T09:51:46.998Z</time></trkpt><trkpt lat="44.87918719527748" lon="7.241040519582225"><ele>624.5</ele><time>2026-05-02T09:51:47.997Z</time></trkpt><trkpt lat="44.87919562384911" lon="7.241167620974699"><ele>623.0</ele><time>2026-05-02T09:51:48.997Z</time></trkpt><trkpt lat="44.8792039619894" lon="7.241295952943513"><ele>623.0</ele><time>2026-05-02T09:51:49.997Z</time></trkpt><trkpt lat="44.879220922387276" lon="7.241429172924258"><ele>623.0</ele><time>2026-05-02T09:51:50.997Z</time></trkpt><trkpt lat="44.87925945782162" lon="7.241554619377516"><ele>623.0</ele><time>2026-05-02T09:51:51.997Z</time></trkpt><trkpt lat="44.87932503481685" lon="7.241657847461415"><ele>623.0</ele><time>2026-05-02T09:51:52.997Z</time></trkpt><trkpt lat="44.879401784138196" lon="7.241744130835027"><ele>623.0</ele><time>2026-05-02T09:51:53.997Z</time></trkpt><trkpt lat="44.87947539779726" lon="7.24182606478972"><ele>624.3333333333333</ele><time>2026-05-02T09:51:54.997Z</time></trkpt><trkpt lat="44.87954390390009" lon="7.241913708522586"><ele>625.6666666666666</ele><time>2026-05-02T09:51:55.997Z</time></trkpt><trkpt lat="44.879607914424916" lon="7.242001265077463"><ele>627.0</ele><time>2026-05-02T09:51:56.997Z</time></trkpt><trkpt lat="44.87966951644011" lon="7.24208279903965"><ele>628.3333333333334</ele><time>2026-05-02T09:51:57.997Z</time></trkpt><trkpt lat="44.8797479692088" lon="7.242135415424028"><ele>629.6666666666667</ele><time>2026-05-02T09:51:58.997Z</time></trkpt><trkpt lat="44.87983970255184" lon="7.24215413350794"><ele>631.0</ele><time>2026-05-02T09:51:59.997Z</time></trkpt><trkpt lat="44.87990391090276" lon="7.2421782032610045"><ele>631.0</ele><time>2026-05-02T09:52:00.997Z</time></trkpt><trkpt lat="44.8799709630976" lon="7.242220509516742"><ele>631.0</ele><time>2026-05-02T09:52:02Z</time></trkpt><trkpt lat="44.88002542569913" lon="7.24230612550485"><ele>631.0</ele><time>2026-05-02T09:52:03Z</time></trkpt><trkpt lat="44.88007489104676" lon="7.242388734929032"><ele>631.0</ele><time>2026-05-02T09:52:04Z</time></trkpt><trkpt lat="44.88012021780029" lon="7.242473924488292"><ele>631.0</ele><time>2026-05-02T09:52:05Z</time></trkpt><trkpt lat="44.88016131019954" lon="7.242549819673756"><ele>631.0</ele><time>2026-05-02T09:52:06Z</time></trkpt><trkpt lat="44.88022979732514" lon="7.2426625104921944"><ele>633.8</ele><time>2026-05-02T09:52:08Z</time></trkpt><trkpt lat="44.88026173917515" lon="7.242746564284196"><ele>636.6</ele><time>2026-05-02T09:52:10Z</time></trkpt><trkpt lat="44.880198097939676" lon="7.2426773813470575"><ele>639.4</ele><time>2026-05-02T09:52:17Z</time></trkpt><trkpt lat="44.8801588399165" lon="7.242601954549122"><ele>642.2</ele><time>2026-05-02T09:52:18Z</time></trkpt><trkpt lat="44.88016480417765" lon="7.242432933921968"><ele>645.0</ele><time>2026-05-02T09:52:19.999Z</time></trkpt><trkpt lat="44.879989843227335" lon="7.242606335403349"><ele>635.5</ele><time>2026-05-02T09:52:26.999Z</time></trkpt><trkpt lat="44.87996310728177" lon="7.242729102500967"><ele>626.0</ele><time>2026-05-02T09:52:36.999Z</time></trkpt><trkpt lat="44.87996347215405" lon="7.242851407644436"><ele>616.5</ele><time>2026-05-02T09:52:37.999Z</time></trkpt><trkpt lat="44.87997194228049" lon="7.243045649722016"><ele>607.0</ele><time>2026-05-02T09:52:38.999Z</time></trkpt><trkpt lat="44.87998380300282" lon="7.243237866283826"><ele>605.6</ele><time>2026-05-02T09:52:39.999Z</time></trkpt><trkpt lat="44.8800121765869" lon="7.243419118462456"><ele>604.2</ele><time>2026-05-02T09:52:40.999Z</time></trkpt><trkpt lat="44.880037346543766" lon="7.243535829979614"><ele>602.8</ele><time>2026-05-02T09:52:41.999Z</time></trkpt><trkpt lat="44.88005762292388" lon="7.243640400167779"><ele>601.4</ele><time>2026-05-02T09:52:42.999Z</time></trkpt><trkpt lat="44.88006952674981" lon="7.243736504848392"><ele>600.0</ele><time>2026-05-02T09:52:43.999Z</time></trkpt><trkpt lat="44.880036689881486" lon="7.243868649809132"><ele>600.0</ele><time>2026-05-02T09:52:45.999Z</time></trkpt><trkpt lat="44.8799274377424" lon="7.243910843887818"><ele>600.0</ele><time>2026-05-02T09:52:47.999Z</time></trkpt><trkpt lat="44.87986255248664" lon="7.243938089724543"><ele>600.0</ele><time>2026-05-02T09:52:48.999Z</time></trkpt><trkpt lat="44.87979183208417" lon="7.24396130376051"><ele>600.0</ele><time>2026-05-02T09:52:49.999Z</time></trkpt><trkpt lat="44.87972269891042" lon="7.243960923127953"><ele>600.0</ele><time>2026-05-02T09:52:50.999Z</time></trkpt><trkpt lat="44.879658174125616" lon="7.243951364800706"><ele>600.0</ele><time>2026-05-02T09:52:51.999Z</time></trkpt><trkpt lat="44.87955494059995" lon="7.243974760229331"><ele>600.5</ele><time>2026-05-02T09:52:53.999Z</time></trkpt><trkpt lat="44.87952574365802" lon="7.244113191133036"><ele>601.0</ele><time>2026-05-02T09:52:55.999Z</time></trkpt><trkpt lat="44.87954187869692" lon="7.244207123633856"><ele>601.5</ele><time>2026-05-02T09:52:56.999Z</time></trkpt><trkpt lat="44.879574410379604" lon="7.2442948897051505"><ele>602.0</ele><time>2026-05-02T09:52:57.999Z</time></trkpt><trkpt lat="44.8796103116871" lon="7.244370648972031"><ele>602.5</ele><time>2026-05-02T09:52:58.999Z</time></trkpt><trkpt lat="44.87967581363028" lon="7.244493942272773"><ele>603.0</ele><time>2026-05-02T09:53:00.999Z</time></trkpt><trkpt lat="44.87979048685781" lon="7.2445208309749125"><ele>603.0</ele><time>2026-05-02T09:53:02.999Z</time></trkpt><trkpt lat="44.87984344264786" lon="7.24458112833573"><ele>603.0</ele><time>2026-05-02T09:53:03.999Z</time></trkpt><trkpt lat="44.87987258879755" lon="7.2447086640088925"><ele>603.0</ele><time>2026-05-02T09:53:05.999Z</time></trkpt><trkpt lat="44.87992381127791" lon="7.24488475673659"><ele>603.0</ele><time>2026-05-02T09:53:07.998Z</time></trkpt><trkpt lat="44.87997012598719" lon="7.245025259737022"><ele>603.0</ele><time>2026-05-02T09:53:09.998Z</time></trkpt><trkpt lat="44.87996306417545" lon="7.24514272954371"><ele>605.0</ele><time>2026-05-02T09:53:10.998Z</time></trkpt><trkpt lat="44.87996288108819" lon="7.245267727974914"><ele>607.0</ele><time>2026-05-02T09:53:11.998Z</time></trkpt><trkpt lat="44.87997142630399" lon="7.245403357979539"><ele>609.0</ele><time>2026-05-02T09:53:12.998Z</time></trkpt><trkpt lat="44.87998988913567" lon="7.245501240608574"><ele>611.0</ele><time>2026-05-02T09:53:13.998Z</time></trkpt><trkpt lat="44.87998831713803" lon="7.245592328553545"><ele>613.0</ele><time>2026-05-02T09:53:14.998Z</time></trkpt><trkpt lat="44.87998808278497" lon="7.245768701431422"><ele>615.0</ele><time>2026-05-02T09:53:16.998Z</time></trkpt><trkpt lat="44.879992353332824" lon="7.245880136530398"><ele>618.1666666666666</ele><time>2026-05-02T09:53:17.998Z</time></trkpt><trkpt lat="44.87999120894866" lon="7.2459956568059765"><ele>621.3333333333334</ele><time>2026-05-02T09:53:18.998Z</time></trkpt><trkpt lat="44.879983205112204" lon="7.246093546012155"><ele>624.5</ele><time>2026-05-02T09:53:19.998Z</time></trkpt><trkpt lat="44.8799708659895" lon="7.246234238473107"><ele>627.6666666666667</ele><time>2026-05-02T09:53:21.998Z</time></trkpt><trkpt lat="44.87994879038929" lon="7.24637753707518"><ele>630.8333333333334</ele><time>2026-05-02T09:53:23.998Z</time></trkpt><trkpt lat="44.87992563971476" lon="7.246472652933031"><ele>634.0</ele><time>2026-05-02T09:53:24.998Z</time></trkpt><trkpt lat="44.879922314447846" lon="7.2465900896594615"><ele>636.6</ele><time>2026-05-02T09:53:26.998Z</time></trkpt><trkpt lat="44.879954020582794" lon="7.2466723482988185"><ele>639.2</ele><time>2026-05-02T09:53:31.998Z</time></trkpt><trkpt lat="44.87997018127535" lon="7.246762773767852"><ele>641.8000000000001</ele><time>2026-05-02T09:53:32.998Z</time></trkpt><trkpt lat="44.87991762927051" lon="7.2468578817701665"><ele>644.4</ele><time>2026-05-02T09:53:40.998Z</time></trkpt><trkpt lat="44.879845297173766" lon="7.246981478125727"><ele>647.0</ele><time>2026-05-02T09:53:43.998Z</time></trkpt><trkpt lat="44.87972477947862" lon="7.247009948908381"><ele>647.0</ele><time>2026-05-02T09:53:45.998Z</time></trkpt><trkpt lat="44.879658369031894" lon="7.247018805099369"><ele>647.0</ele><time>2026-05-02T09:53:47.998Z</time></trkpt><trkpt lat="44.87959965729315" lon="7.247120134256493"><ele>647.0</ele><time>2026-05-02T09:53:48.998Z</time></trkpt><trkpt lat="44.87953201139706" lon="7.247112515194182"><ele>647.0</ele><time>2026-05-02T09:53:49.998Z</time></trkpt><trkpt lat="44.879463982261015" lon="7.247095692935442"><ele>647.0</ele><time>2026-05-02T09:53:50.998Z</time></trkpt><trkpt lat="44.879398757575984" lon="7.247071223948146"><ele>647.0</ele><time>2026-05-02T09:53:51.998Z</time></trkpt><trkpt lat="44.879284315597666" lon="7.247089083497188"><ele>644.8000000000001</ele><time>2026-05-02T09:53:53.997Z</time></trkpt><trkpt lat="44.87918351525811" lon="7.247144597260765"><ele>642.6</ele><time>2026-05-02T09:53:55.997Z</time></trkpt><trkpt lat="44.87906776356129" lon="7.247213034732856"><ele>640.4000000000001</ele><time>2026-05-02T09:53:57.997Z</time></trkpt><trkpt lat="44.878974005497405" lon="7.247287469601012"><ele>638.2</ele><time>2026-05-02T09:53:59.997Z</time></trkpt><trkpt lat="44.878878016423656" lon="7.247332952336878"><ele>636.0</ele><time>2026-05-02T09:54:01.997Z</time></trkpt><trkpt lat="44.878787980394605" lon="7.24737045775438"><ele>636.0</ele><time>2026-05-02T09:54:03.997Z</time></trkpt><trkpt lat="44.878694383261724" lon="7.247398008324939"><ele>636.0</ele><time>2026-05-02T09:54:05.997Z</time></trkpt><trkpt lat="44.878590585286695" lon="7.247306559026059"><ele>636.0</ele><time>2026-05-02T09:54:08Z</time></trkpt><trkpt lat="44.8786004098991" lon="7.247137523934329"><ele>636.0</ele><time>2026-05-02T09:54:10Z</time></trkpt><trkpt lat="44.87862840019649" lon="7.246947415019872"><ele>638.1666666666666</ele><time>2026-05-02T09:54:11Z</time></trkpt><trkpt lat="44.87860997767803" lon="7.246858845088221"><ele>640.3333333333334</ele><time>2026-05-02T09:54:12Z</time></trkpt><trkpt lat="44.878602953012816" lon="7.246758965708014"><ele>642.5</ele><time>2026-05-02T09:54:13Z</time></trkpt><trkpt lat="44.87856207843105" lon="7.246660643786987"><ele>644.6666666666667</ele><time>2026-05-02T09:54:14Z</time></trkpt><trkpt lat="44.878481532260075" lon="7.246562109081038"><ele>646.8333333333334</ele><time>2026-05-02T09:54:15Z</time></trkpt><trkpt lat="44.878415475332524" lon="7.246487965703219"><ele>649.0</ele><time>2026-05-02T09:54:16Z</time></trkpt><trkpt lat="44.87834962652593" lon="7.246388672511099"><ele>654.2</ele><time>2026-05-02T09:54:18Z</time></trkpt><trkpt lat="44.87828701530332" lon="7.246310165696061"><ele>659.4000000000001</ele><time>2026-05-02T09:54:19Z</time></trkpt><trkpt lat="44.87820265960351" lon="7.246225686578479"><ele>664.6</ele><time>2026-05-02T09:54:20Z</time></trkpt><trkpt lat="44.878100215612605" lon="7.246111686204933"><ele>669.8</ele><time>2026-05-02T09:54:21Z</time></trkpt><trkpt lat="44.878008242368075" lon="7.246080948330255"><ele>675.0</ele><time>2026-05-02T09:54:22Z</time></trkpt><trkpt lat="44.87790240049427" lon="7.246025965597499"><ele>675.0</ele><time>2026-05-02T09:54:23Z</time></trkpt><trkpt lat="44.87778707183711" lon="7.245925176372905"><ele>675.0</ele><time>2026-05-02T09:54:23.999Z</time></trkpt><trkpt lat="44.877662846550784" lon="7.245835617327485"><ele>675.0</ele><time>2026-05-02T09:54:24.999Z</time></trkpt><trkpt lat="44.877527972496615" lon="7.245767243670977"><ele>675.0</ele><time>2026-05-02T09:54:25.999Z</time></trkpt><trkpt lat="44.87739196556451" lon="7.245735269522088"><ele>676.3333333333334</ele><time>2026-05-02T09:54:26.999Z</time></trkpt><trkpt lat="44.87729599325401" lon="7.245704092023579"><ele>677.6666666666666</ele><time>2026-05-02T09:54:27.999Z</time></trkpt><trkpt lat="44.8772264229474" lon="7.245610653642006"><ele>679.0</ele><time>2026-05-02T09:54:28.999Z</time></trkpt><trkpt lat="44.877193203001205" lon="7.245523576521203"><ele>680.3333333333333</ele><time>2026-05-02T09:54:29.999Z</time></trkpt><trkpt lat="44.87715786408679" lon="7.245447925546459"><ele>681.6666666666666</ele><time>2026-05-02T09:54:30.999Z</time></trkpt><trkpt lat="44.87706949620482" lon="7.245360935895881"><ele>683.0</ele><time>2026-05-02T09:54:32.999Z</time></trkpt><trkpt lat="44.87701742900153" lon="7.24541728664212"><ele>683.0</ele><time>2026-05-02T09:54:34.999Z</time></trkpt><trkpt lat="44.876945797465936" lon="7.245510439299203"><ele>683.0</ele><time>2026-05-02T09:54:35.999Z</time></trkpt><trkpt lat="44.87687795530694" lon="7.245584447169842"><ele>683.0</ele><time>2026-05-02T09:54:36.999Z</time></trkpt><trkpt lat="44.876853700227024" lon="7.245710161927818"><ele>683.0</ele><time>2026-05-02T09:54:37.999Z</time></trkpt><trkpt lat="44.87683249112444" lon="7.245824111794386"><ele>683.0</ele><time>2026-05-02T09:54:38.999Z</time></trkpt><trkpt lat="44.8767722939311" lon="7.246092675629925"><ele>680.0</ele><time>2026-05-02T09:54:39.999Z</time></trkpt><trkpt lat="44.876732997331246" lon="7.246359612905907"><ele>677.0</ele><time>2026-05-02T09:54:40.999Z</time></trkpt><trkpt lat="44.87669767225017" lon="7.246568316027425"><ele>674.0</ele><time>2026-05-02T09:54:41.999Z</time></trkpt><trkpt lat="44.876684120563425" lon="7.246735937335861"><ele>673.0</ele><time>2026-05-02T09:54:42.999Z</time></trkpt><trkpt lat="44.87665318420896" lon="7.24689315562715"><ele>672.0</ele><time>2026-05-02T09:54:43.999Z</time></trkpt><trkpt lat="44.8766159991636" lon="7.247019254420955"><ele>671.0</ele><time>2026-05-02T09:54:44.999Z</time></trkpt><trkpt lat="44.87659653777556" lon="7.247107596058845"><ele>670.0</ele><time>2026-05-02T09:54:45.999Z</time></trkpt><trkpt lat="44.87656360335961" lon="7.247224992303165"><ele>669.0</ele><time>2026-05-02T09:54:47.999Z</time></trkpt><trkpt lat="44.876453977273314" lon="7.247305790474315"><ele>669.0</ele><time>2026-05-02T09:54:49.999Z</time></trkpt><trkpt lat="44.87638565436566" lon="7.247304645318778"><ele>669.0</ele><time>2026-05-02T09:54:50.999Z</time></trkpt><trkpt lat="44.876257015790536" lon="7.247283316467582"><ele>669.0</ele><time>2026-05-02T09:54:52.999Z</time></trkpt><trkpt lat="44.876185695149275" lon="7.247262844060577"><ele>669.0</ele><time>2026-05-02T09:54:53.999Z</time></trkpt><trkpt lat="44.876093413580996" lon="7.247235288781418"><ele>669.0</ele><time>2026-05-02T09:54:54.999Z</time></trkpt><trkpt lat="44.87600498453391" lon="7.247216543511918"><ele>669.1666666666666</ele><time>2026-05-02T09:54:55.999Z</time></trkpt><trkpt lat="44.87593407757021" lon="7.247253544514103"><ele>669.3333333333334</ele><time>2026-05-02T09:54:56.999Z</time></trkpt><trkpt lat="44.87585432309408" lon="7.247277857275966"><ele>669.5</ele><time>2026-05-02T09:54:57.999Z</time></trkpt><trkpt lat="44.87576506370452" lon="7.247318082877522"><ele>669.6666666666667</ele><time>2026-05-02T09:54:58.999Z</time></trkpt><trkpt lat="44.875674931080894" lon="7.247387733146891"><ele>669.8333333333334</ele><time>2026-05-02T09:54:59.999Z</time></trkpt><trkpt lat="44.875596810325284" lon="7.247429128061006"><ele>670.0</ele><time>2026-05-02T09:55:00.999Z</time></trkpt><trkpt lat="44.8755058225131" lon="7.247475627478887"><ele>670.0</ele><time>2026-05-02T09:55:01.999Z</time></trkpt><trkpt lat="44.875431231779544" lon="7.247520376108203"><ele>670.0</ele><time>2026-05-02T09:55:02.999Z</time></trkpt><trkpt lat="44.87535725612419" lon="7.247563649888679"><ele>670.0</ele><time>2026-05-02T09:55:03.999Z</time></trkpt><trkpt lat="44.875225631809066" lon="7.247540624717211"><ele>670.0</ele><time>2026-05-02T09:55:05.999Z</time></trkpt><trkpt lat="44.875190931566806" lon="7.247449268495643"><ele>670.0</ele><time>2026-05-02T09:55:06.999Z</time></trkpt><trkpt lat="44.87516523223037" lon="7.247295569767115"><ele>670.2</ele><time>2026-05-02T09:55:08.999Z</time></trkpt><trkpt lat="44.87515840898942" lon="7.247131116838589"><ele>670.4</ele><time>2026-05-02T09:55:10.998Z</time></trkpt><trkpt lat="44.87517479465834" lon="7.246994949982552"><ele>670.5999999999999</ele><time>2026-05-02T09:55:11.998Z</time></trkpt><trkpt lat="44.875174361345145" lon="7.2468303140775685"><ele>670.8</ele><time>2026-05-02T09:55:12.998Z</time></trkpt><trkpt lat="44.87514159491419" lon="7.246699150574888"><ele>671.0</ele><time>2026-05-02T09:55:13.998Z</time></trkpt><trkpt lat="44.87508776345291" lon="7.246603183727741"><ele>671.0</ele><time>2026-05-02T09:55:14.998Z</time></trkpt><trkpt lat="44.87502322786719" lon="7.246476020409884"><ele>671.0</ele><time>2026-05-02T09:55:16.998Z</time></trkpt><trkpt lat="44.87503357672507" lon="7.246361625387372"><ele>671.0</ele><time>2026-05-02T09:55:17.998Z</time></trkpt><trkpt lat="44.87502946028041" lon="7.246218558890055"><ele>671.0</ele><time>2026-05-02T09:55:18.998Z</time></trkpt><trkpt lat="44.87501856000543" lon="7.246118222482264"><ele>671.0</ele><time>2026-05-02T09:55:19.998Z</time></trkpt><trkpt lat="44.87496810833409" lon="7.24601796844791"><ele>675.1999999999999</ele><time>2026-05-02T09:55:20.998Z</time></trkpt><trkpt lat="44.87485063232907" lon="7.245983359012059"><ele>679.4</ele><time>2026-05-02T09:55:22.998Z</time></trkpt><trkpt lat="44.874816110663794" lon="7.2458681745269855"><ele>683.6</ele><time>2026-05-02T09:55:24.998Z</time></trkpt><trkpt lat="44.87475378849705" lon="7.245828425140109"><ele>687.8</ele><time>2026-05-02T09:55:26.998Z</time></trkpt><trkpt lat="44.87466118238322" lon="7.2459300904716635"><ele>692.0</ele><time>2026-05-02T09:55:28.998Z</time></trkpt><trkpt lat="44.874556632794054" lon="7.246017454662544"><ele>692.0</ele><time>2026-05-02T09:55:29.998Z</time></trkpt><trkpt lat="44.874476260084855" lon="7.24616029779309"><ele>692.0</ele><time>2026-05-02T09:55:30.998Z</time></trkpt><trkpt lat="44.87438091897682" lon="7.2462998885190215"><ele>692.0</ele><time>2026-05-02T09:55:31.998Z</time></trkpt><trkpt lat="44.874309909181115" lon="7.246413841591988"><ele>692.0</ele><time>2026-05-02T09:55:32.998Z</time></trkpt><trkpt lat="44.874222276005376" lon="7.246534373702026"><ele>685.25</ele><time>2026-05-02T09:55:33.998Z</time></trkpt><trkpt lat="44.87414675888953" lon="7.246666332651212"><ele>678.5</ele><time>2026-05-02T09:55:34.998Z</time></trkpt><trkpt lat="44.87406576302475" lon="7.246844434474577"><ele>671.75</ele><time>2026-05-02T09:55:35.998Z</time></trkpt><trkpt lat="44.87399055756699" lon="7.246992917560024"><ele>665.0</ele><time>2026-05-02T09:55:36.998Z</time></trkpt><trkpt lat="44.87390548226373" lon="7.247079477682189"><ele>665.0</ele><time>2026-05-02T09:55:37.998Z</time></trkpt><trkpt lat="44.87381181662398" lon="7.24710683471113"><ele>665.0</ele><time>2026-05-02T09:55:39.998Z</time></trkpt><trkpt lat="44.87375956465101" lon="7.2469766842053325"><ele>665.0</ele><time>2026-05-02T09:55:41.998Z</time></trkpt><trkpt lat="44.87372340083532" lon="7.2468970590903155"><ele>665.0</ele><time>2026-05-02T09:55:43.998Z</time></trkpt><trkpt lat="44.87364524274946" lon="7.246930803989204"><ele>665.0</ele><time>2026-05-02T09:55:44.998Z</time></trkpt><trkpt lat="44.87358592674941" lon="7.2468862070772095"><ele>665.0</ele><time>2026-05-02T09:55:47.998Z</time></trkpt><trkpt lat="44.8735510575996" lon="7.246793152273255"><ele>665.0</ele><time>2026-05-02T09:55:49.998Z</time></trkpt><trkpt lat="44.87351921756682" lon="7.246692691405824"><ele>665.0</ele><time>2026-05-02T09:55:50.998Z</time></trkpt><trkpt lat="44.8734418605385" lon="7.246752749295715"><ele>665.0</ele><time>2026-05-02T09:55:51.998Z</time></trkpt><trkpt lat="44.873372555000074" lon="7.246782919658446"><ele>665.0</ele><time>2026-05-02T09:55:52.998Z</time></trkpt><trkpt lat="44.87332016548911" lon="7.246855063787633"><ele>665.0</ele><time>2026-05-02T09:55:56.997Z</time></trkpt><trkpt lat="44.8732955497375" lon="7.246993531418218"><ele>665.0</ele><time>2026-05-02T09:55:58.997Z</time></trkpt><trkpt lat="44.87317755617122" lon="7.247125121528519"><ele>664.25</ele><time>2026-05-02T09:55:59.997Z</time></trkpt><trkpt lat="44.87304855993099" lon="7.247263603250775"><ele>663.5</ele><time>2026-05-02T09:56:00.997Z</time></trkpt><trkpt lat="44.872929514582225" lon="7.247369630131428"><ele>662.75</ele><time>2026-05-02T09:56:01.997Z</time></trkpt><trkpt lat="44.872828300078595" lon="7.247428622087243"><ele>662.0</ele><time>2026-05-02T09:56:02.997Z</time></trkpt><trkpt lat="44.87274105382327" lon="7.247450271722644"><ele>659.0</ele><time>2026-05-02T09:56:03.997Z</time></trkpt><trkpt lat="44.872666684981084" lon="7.247422598357678"><ele>656.0</ele><time>2026-05-02T09:56:04.997Z</time></trkpt><trkpt lat="44.87257619736155" lon="7.247386040178967"><ele>653.0</ele><time>2026-05-02T09:56:05.997Z</time></trkpt><trkpt lat="44.87247613590151" lon="7.2473219658698"><ele>650.0</ele><time>2026-05-02T09:56:06.997Z</time></trkpt><trkpt lat="44.872348053530835" lon="7.247263104232739"><ele>647.0</ele><time>2026-05-02T09:56:07.997Z</time></trkpt><trkpt lat="44.87222252953825" lon="7.247173446773643"><ele>653.0</ele><time>2026-05-02T09:56:08.997Z</time></trkpt><trkpt lat="44.87213975307704" lon="7.24709861305392"><ele>659.0</ele><time>2026-05-02T09:56:09.997Z</time></trkpt><trkpt lat="44.87208010957025" lon="7.247048746525493"><ele>665.0</ele><time>2026-05-02T09:56:10.997Z</time></trkpt><trkpt lat="44.87201406126044" lon="7.246983691784984"><ele>671.0</ele><time>2026-05-02T09:56:11.997Z</time></trkpt><trkpt lat="44.87196675200818" lon="7.2468742140762"><ele>677.0</ele><time>2026-05-02T09:56:12.997Z</time></trkpt><trkpt lat="44.871894129118765" lon="7.246736413498122"><ele>677.0</ele><time>2026-05-02T09:56:14Z</time></trkpt><trkpt lat="44.871819992122084" lon="7.246688920935738"><ele>677.0</ele><time>2026-05-02T09:56:15Z</time></trkpt><trkpt lat="44.8716529767415" lon="7.246672349259529"><ele>677.0</ele><time>2026-05-02T09:56:17Z</time></trkpt><trkpt lat="44.87155897109178" lon="7.246596243549781"><ele>677.0</ele><time>2026-05-02T09:56:18Z</time></trkpt><trkpt lat="44.871520900576925" lon="7.246519125601486"><ele>677.0</ele><time>2026-05-02T09:56:18.999Z</time></trkpt><trkpt lat="44.871464619672885" lon="7.246440941511756"><ele>678.8333333333333</ele><time>2026-05-02T09:56:20.001Z</time></trkpt><trkpt lat="44.87142412546486" lon="7.24632388312776"><ele>680.6666666666666</ele><time>2026-05-02T09:56:21.001Z</time></trkpt><trkpt lat="44.87139019054722" lon="7.2462160250527665"><ele>682.5</ele><time>2026-05-02T09:56:22Z</time></trkpt><trkpt lat="44.87136530160948" lon="7.246117186424361"><ele>684.3333333333334</ele><time>2026-05-02T09:56:23Z</time></trkpt><trkpt lat="44.871323996644335" lon="7.245963400948279"><ele>686.1666666666667</ele><time>2026-05-02T09:56:25Z</time></trkpt><trkpt lat="44.87125653822615" lon="7.245935351485293"><ele>688.0</ele><time>2026-05-02T09:56:27.001Z</time></trkpt><trkpt lat="44.871178398944785" lon="7.245928997817285"><ele>688.0</ele><time>2026-05-02T09:56:28Z</time></trkpt><trkpt lat="44.87107989760342" lon="7.245964863315523"><ele>688.0</ele><time>2026-05-02T09:56:29Z</time></trkpt><trkpt lat="44.870991628886685" lon="7.2459467867835325"><ele>688.0</ele><time>2026-05-02T09:56:30Z</time></trkpt><trkpt lat="44.87092756748862" lon="7.245970356256155"><ele>688.0</ele><time>2026-05-02T09:56:31Z</time></trkpt><trkpt lat="44.87092261750837" lon="7.246099332361718"><ele>688.0</ele><time>2026-05-02T09:56:37Z</time></trkpt><trkpt lat="44.87085638995135" lon="7.2462632452667375"><ele>688.0</ele><time>2026-05-02T09:56:39Z</time></trkpt><trkpt lat="44.87080840534175" lon="7.2463643338129335"><ele>688.0</ele><time>2026-05-02T09:56:40Z</time></trkpt><trkpt lat="44.87075545554439" lon="7.246493235518762"><ele>688.0</ele><time>2026-05-02T09:56:42Z</time></trkpt><trkpt lat="44.87071338500142" lon="7.246563336888663"><ele>688.0</ele><time>2026-05-02T09:56:43Z</time></trkpt><trkpt lat="44.87065721582743" lon="7.246639041245033"><ele>688.0</ele><time>2026-05-02T09:56:44Z</time></trkpt><trkpt lat="44.87056947758391" lon="7.2467531725708945"><ele>684.5999999999999</ele><time>2026-05-02T09:56:46Z</time></trkpt><trkpt lat="44.8705153287971" lon="7.246914468134498"><ele>681.1999999999999</ele><time>2026-05-02T09:56:48Z</time></trkpt><trkpt lat="44.870471838961905" lon="7.2470282492573235"><ele>677.8</ele><time>2026-05-02T09:56:50Z</time></trkpt><trkpt lat="44.87040465486778" lon="7.2470469579270675"><ele>674.4</ele><time>2026-05-02T09:56:52Z</time></trkpt><trkpt lat="44.87028149546871" lon="7.247043782890361"><ele>671.0</ele><time>2026-05-02T09:56:54Z</time></trkpt><trkpt lat="44.8701919208875" lon="7.247057542825106"><ele>671.0</ele><time>2026-05-02T09:56:55Z</time></trkpt><trkpt lat="44.87011012277358" lon="7.2470560084394915"><ele>671.0</ele><time>2026-05-02T09:56:56Z</time></trkpt><trkpt lat="44.870033449838814" lon="7.247030482275332"><ele>671.0</ele><time>2026-05-02T09:56:57Z</time></trkpt><trkpt lat="44.869904504293594" lon="7.246946704268762"><ele>671.0</ele><time>2026-05-02T09:56:59Z</time></trkpt><trkpt lat="44.869830411481374" lon="7.246913153127018"><ele>671.0</ele><time>2026-05-02T09:57:00Z</time></trkpt><trkpt lat="44.869767583602105" lon="7.246837644029418"><ele>675.5999999999999</ele><time>2026-05-02T09:57:01Z</time></trkpt><trkpt lat="44.86967952802137" lon="7.246774553314663"><ele>680.2</ele><time>2026-05-02T09:57:02Z</time></trkpt><trkpt lat="44.869609108072034" lon="7.2467312193007105"><ele>684.8</ele><time>2026-05-02T09:57:03Z</time></trkpt><trkpt lat="44.86953440453875" lon="7.246820997804381"><ele>689.4000000000001</ele><time>2026-05-02T09:57:05Z</time></trkpt><trkpt lat="44.869528376210766" lon="7.246939801991428"><ele>694.0</ele><time>2026-05-02T09:57:06Z</time></trkpt><trkpt lat="44.86952371988508" lon="7.2470731187885296"><ele>694.0</ele><time>2026-05-02T09:57:07Z</time></trkpt><trkpt lat="44.869505869778976" lon="7.247161078779845"><ele>694.0</ele><time>2026-05-02T09:57:08Z</time></trkpt><trkpt lat="44.869433670516315" lon="7.247304568782547"><ele>694.0</ele><time>2026-05-02T09:57:10Z</time></trkpt><trkpt lat="44.86942570421379" lon="7.247400393767039"><ele>694.0</ele><time>2026-05-02T09:57:11Z</time></trkpt><trkpt lat="44.86946169316915" lon="7.247525924027242"><ele>694.0</ele><time>2026-05-02T09:57:12Z</time></trkpt><trkpt lat="44.86946778415778" lon="7.247703123400713"><ele>687.5</ele><time>2026-05-02T09:57:13Z</time></trkpt><trkpt lat="44.869460225777885" lon="7.247918840571841"><ele>681.0</ele><time>2026-05-02T09:57:13.999Z</time></trkpt><trkpt lat="44.86946025121938" lon="7.248091087935923"><ele>674.5</ele><time>2026-05-02T09:57:14.999Z</time></trkpt><trkpt lat="44.86947694131687" lon="7.248204576627832"><ele>668.0</ele><time>2026-05-02T09:57:15.999Z</time></trkpt><trkpt lat="44.86946841110223" lon="7.248367746724054"><ele>663.75</ele><time>2026-05-02T09:57:16.999Z</time></trkpt><trkpt lat="44.86944497463366" lon="7.248530202821982"><ele>659.5</ele><time>2026-05-02T09:57:17.999Z</time></trkpt><trkpt lat="44.86943107699757" lon="7.2487073440232175"><ele>655.25</ele><time>2026-05-02T09:57:18.999Z</time></trkpt><trkpt lat="44.86942375465677" lon="7.248856486539182"><ele>651.0</ele><time>2026-05-02T09:57:19.999Z</time></trkpt><trkpt lat="44.86942154813903" lon="7.249012955845339"><ele>649.4</ele><time>2026-05-02T09:57:20.999Z</time></trkpt><trkpt lat="44.869411545509095" lon="7.249161814303914"><ele>647.8</ele><time>2026-05-02T09:57:21.999Z</time></trkpt><trkpt lat="44.86935921931824" lon="7.24929820215419"><ele>646.1999999999999</ele><time>2026-05-02T09:57:22.999Z</time></trkpt><trkpt lat="44.869324466431195" lon="7.2493879332487525"><ele>644.5999999999999</ele><time>2026-05-02T09:57:23.999Z</time></trkpt><trkpt lat="44.86926028284912" lon="7.249495276504943"><ele>643.0</ele><time>2026-05-02T09:57:25.999Z</time></trkpt><trkpt lat="44.86920421439526" lon="7.249540506958788"><ele>646.6666666666667</ele><time>2026-05-02T09:57:26.999Z</time></trkpt><trkpt lat="44.86914187627204" lon="7.249593542580225"><ele>650.3333333333334</ele><time>2026-05-02T09:57:27.999Z</time></trkpt><trkpt lat="44.8690933122935" lon="7.249675909078184"><ele>654.0</ele><time>2026-05-02T09:57:28.999Z</time></trkpt><trkpt lat="44.86905558150054" lon="7.249753793468519"><ele>657.6666666666666</ele><time>2026-05-02T09:57:29.999Z</time></trkpt><trkpt lat="44.86895840572846" lon="7.249884236964202"><ele>661.3333333333333</ele><time>2026-05-02T09:57:31.999Z</time></trkpt><trkpt lat="44.86891553962985" lon="7.249959508363452"><ele>665.0</ele><time>2026-05-02T09:57:32.999Z</time></trkpt><trkpt lat="44.868885459804915" lon="7.250040480404542"><ele>665.0</ele><time>2026-05-02T09:57:33.999Z</time></trkpt><trkpt lat="44.868844567986955" lon="7.250128641703485"><ele>665.0</ele><time>2026-05-02T09:57:34.999Z</time></trkpt><trkpt lat="44.86880607977394" lon="7.2502216420927885"><ele>665.0</ele><time>2026-05-02T09:57:35.999Z</time></trkpt><trkpt lat="44.868767707748844" lon="7.250313367597371"><ele>665.0</ele><time>2026-05-02T09:57:36.999Z</time></trkpt><trkpt lat="44.868731762024105" lon="7.250400936203986"><ele>665.0</ele><time>2026-05-02T09:57:37.999Z</time></trkpt><trkpt lat="44.868671144483876" lon="7.2505465606526585"><ele>665.0</ele><time>2026-05-02T09:57:39.999Z</time></trkpt><trkpt lat="44.86859259350653" lon="7.250680971400898"><ele>663.1666666666666</ele><time>2026-05-02T09:57:41.999Z</time></trkpt><trkpt lat="44.868534162052036" lon="7.250774455554745"><ele>661.3333333333333</ele><time>2026-05-02T09:57:43.999Z</time></trkpt><trkpt lat="44.86854650131937" lon="7.250897932835193"><ele>659.5</ele><time>2026-05-02T09:57:48.999Z</time></trkpt><trkpt lat="44.86863028068983" lon="7.250972330800844"><ele>657.6666666666666</ele><time>2026-05-02T09:57:50.999Z</time></trkpt><trkpt lat="44.86868115743023" lon="7.251040543830525"><ele>655.8333333333334</ele><time>2026-05-02T09:57:52.999Z</time></trkpt><trkpt lat="44.868742596048" lon="7.2509878476831915"><ele>654.0</ele><time>2026-05-02T09:57:55.999Z</time></trkpt><trkpt lat="44.86877841099448" lon="7.250879003272042"><ele>654.0</ele><time>2026-05-02T09:57:58.999Z</time></trkpt><trkpt lat="44.86885421036069" lon="7.250755928622569"><ele>654.0</ele><time>2026-05-02T09:58:01.998Z</time></trkpt><trkpt lat="44.86890474633137" lon="7.250662189339246"><ele>654.0</ele><time>2026-05-02T09:58:02.998Z</time></trkpt><trkpt lat="44.86894773757705" lon="7.250584676373262"><ele>654.0</ele><time>2026-05-02T09:58:03.998Z</time></trkpt><trkpt lat="44.869002842265346" lon="7.250513296787257"><ele>654.0</ele><time>2026-05-02T09:58:04.998Z</time></trkpt><trkpt lat="44.869067657909504" lon="7.250459154439427"><ele>654.0</ele><time>2026-05-02T09:58:05.998Z</time></trkpt><trkpt lat="44.869144504529736" lon="7.250403131811541"><ele>655.8333333333334</ele><time>2026-05-02T09:58:06.998Z</time></trkpt><trkpt lat="44.869220122661176" lon="7.250336996228155"><ele>657.6666666666666</ele><time>2026-05-02T09:58:07.998Z</time></trkpt><trkpt lat="44.869292142033174" lon="7.25026852233975"><ele>659.5</ele><time>2026-05-02T09:58:08.998Z</time></trkpt><trkpt lat="44.869358021578826" lon="7.250193553476684"><ele>661.3333333333333</ele><time>2026-05-02T09:58:09.998Z</time></trkpt><trkpt lat="44.86940428034892" lon="7.250125867960627"><ele>663.1666666666666</ele><time>2026-05-02T09:58:10.998Z</time></trkpt><trkpt lat="44.869472599914666" lon="7.250112981437804"><ele>665.0</ele><time>2026-05-02T09:58:11.998Z</time></trkpt><trkpt lat="44.86958118099106" lon="7.250176652362879"><ele>660.2</ele><time>2026-05-02T09:58:12.998Z</time></trkpt><trkpt lat="44.86970955181284" lon="7.250221967377598"><ele>655.4</ele><time>2026-05-02T09:58:13.998Z</time></trkpt><trkpt lat="44.86981447906526" lon="7.25023498953846"><ele>650.5999999999999</ele><time>2026-05-02T09:58:14.998Z</time></trkpt><trkpt lat="44.869919991537" lon="7.250226136616261"><ele>645.8</ele><time>2026-05-02T09:58:15.998Z</time></trkpt><trkpt lat="44.87001205232612" lon="7.250231766680514"><ele>641.0</ele><time>2026-05-02T09:58:16.998Z</time></trkpt><trkpt lat="44.87009152236718" lon="7.250254785650533"><ele>636.5999999999999</ele><time>2026-05-02T09:58:17.998Z</time></trkpt><trkpt lat="44.870156257457715" lon="7.250273706414501"><ele>632.1999999999999</ele><time>2026-05-02T09:58:18.998Z</time></trkpt><trkpt lat="44.87022567279845" lon="7.250262119836647"><ele>627.8</ele><time>2026-05-02T09:58:20Z</time></trkpt><trkpt lat="44.87035392747734" lon="7.250352007723623"><ele>623.4</ele><time>2026-05-02T09:58:22Z</time></trkpt><trkpt lat="44.87043455548" lon="7.250513687906126"><ele>619.0</ele><time>2026-05-02T09:58:23Z</time></trkpt><trkpt lat="44.870507610799415" lon="7.250559105563167"><ele>619.0</ele><time>2026-05-02T09:58:25Z</time></trkpt><trkpt lat="44.87058461172932" lon="7.250563621447991"><ele>619.0</ele><time>2026-05-02T09:58:37Z</time></trkpt><trkpt lat="44.87069507041793" lon="7.250665197321389"><ele>619.0</ele><time>2026-05-02T09:58:39Z</time></trkpt><trkpt lat="44.870780991296535" lon="7.250729364791358"><ele>619.0</ele><time>2026-05-02T09:58:40Z</time></trkpt><trkpt lat="44.87086883789621" lon="7.250814420252242"><ele>619.0</ele><time>2026-05-02T09:58:41Z</time></trkpt><trkpt lat="44.870927683180774" lon="7.250883846596125"><ele>615.0</ele><time>2026-05-02T09:58:42Z</time></trkpt><trkpt lat="44.8709833597157" lon="7.250954113592136"><ele>611.0</ele><time>2026-05-02T09:58:43Z</time></trkpt><trkpt lat="44.87103508570342" lon="7.251023924548672"><ele>607.0</ele><time>2026-05-02T09:58:44Z</time></trkpt><trkpt lat="44.871084007713954" lon="7.251131519470721"><ele>603.0</ele><time>2026-05-02T09:58:46Z</time></trkpt><trkpt lat="44.871125458671976" lon="7.251257417490922"><ele>599.0</ele><time>2026-05-02T09:58:48Z</time></trkpt><trkpt lat="44.87118403134794" lon="7.251293214181762"><ele>595.0</ele><time>2026-05-02T09:58:49Z</time></trkpt><trkpt lat="44.871276225830286" lon="7.251366193390256"><ele>595.0</ele><time>2026-05-02T09:58:51Z</time></trkpt><trkpt lat="44.871333323483974" lon="7.25144160301191"><ele>595.0</ele><time>2026-05-02T09:58:52Z</time></trkpt><trkpt lat="44.87139345532958" lon="7.251502982202757"><ele>595.0</ele><time>2026-05-02T09:58:53Z</time></trkpt><trkpt lat="44.87145302788975" lon="7.251534245206184"><ele>595.0</ele><time>2026-05-02T09:58:54Z</time></trkpt><trkpt lat="44.87151436319987" lon="7.251564751360807"><ele>595.0</ele><time>2026-05-02T09:58:55Z</time></trkpt><trkpt lat="44.8716072996587" lon="7.251604976002114"><ele>595.0</ele><time>2026-05-02T09:58:57Z</time></trkpt><trkpt lat="44.87164743545655" lon="7.251527325153964"><ele>595.0</ele><time>2026-05-02T09:58:59Z</time></trkpt><trkpt lat="44.87163712014584" lon="7.251438738492298"><ele>595.0</ele><time>2026-05-02T09:59:00Z</time></trkpt><trkpt lat="44.87160614582174" lon="7.251350655722259"><ele>595.0</ele><time>2026-05-02T09:59:01Z</time></trkpt><trkpt lat="44.87157260655062" lon="7.251208052427651"><ele>595.0</ele><time>2026-05-02T09:59:03Z</time></trkpt><trkpt lat="44.87164330898187" lon="7.25116289256707"><ele>595.0</ele><time>2026-05-02T09:59:06Z</time></trkpt><trkpt lat="44.87170447306841" lon="7.251215184949442"><ele>595.0</ele><time>2026-05-02T09:59:07Z</time></trkpt><trkpt lat="44.87181897658267" lon="7.251293138178268"><ele>592.0</ele><time>2026-05-02T09:59:11Z</time></trkpt><trkpt lat="44.871920772029114" lon="7.251373885232169"><ele>589.0</ele><time>2026-05-02T09:59:14Z</time></trkpt><trkpt lat="44.8719884235136" lon="7.251473954364182"><ele>586.0</ele><time>2026-05-02T09:59:17Z</time></trkpt><trkpt lat="44.872027239317376" lon="7.25158171919872"><ele>583.0</ele><time>2026-05-02T09:59:18.999Z</time></trkpt><trkpt lat="44.87205777495221" lon="7.251662840310949"><ele>580.0</ele><time>2026-05-02T09:59:19.999Z</time></trkpt><trkpt lat="44.872132728871904" lon="7.25178374362973"><ele>578.25</ele><time>2026-05-02T09:59:20.999Z</time></trkpt><trkpt lat="44.87220073738046" lon="7.251919741838364"><ele>576.5</ele><time>2026-05-02T09:59:22.999Z</time></trkpt><trkpt lat="44.872289771191724" lon="7.252027786779308"><ele>574.75</ele><time>2026-05-02T09:59:24.999Z</time></trkpt><trkpt lat="44.87238580822269" lon="7.252064134961276"><ele>573.0</ele><time>2026-05-02T09:59:26.999Z</time></trkpt><trkpt lat="44.87250069374212" lon="7.251997079833036"><ele>573.0</ele><time>2026-05-02T09:59:28.999Z</time></trkpt><trkpt lat="44.87256531019014" lon="7.251938865307667"><ele>573.0</ele><time>2026-05-02T09:59:29.999Z</time></trkpt><trkpt lat="44.872631959438145" lon="7.251889950459268"><ele>573.0</ele><time>2026-05-02T09:59:30.999Z</time></trkpt><trkpt lat="44.87272116976694" lon="7.25181556287564"><ele>573.0</ele><time>2026-05-02T09:59:32.999Z</time></trkpt><trkpt lat="44.87277878209038" lon="7.251869488534067"><ele>573.0</ele><time>2026-05-02T09:59:34.999Z</time></trkpt><trkpt lat="44.87273800900182" lon="7.251982631581047"><ele>573.0</ele><time>2026-05-02T09:59:36.999Z</time></trkpt><trkpt lat="44.87264363291294" lon="7.252032547653989"><ele>573.0</ele><time>2026-05-02T09:59:37.999Z</time></trkpt><trkpt lat="44.872593038259495" lon="7.252147650312922"><ele>573.0</ele><time>2026-05-02T09:59:39.999Z</time></trkpt><trkpt lat="44.872558631543946" lon="7.252243524042089"><ele>573.0</ele><time>2026-05-02T09:59:40.999Z</time></trkpt><trkpt lat="44.87251144105612" lon="7.252380701245151"><ele>573.0</ele><time>2026-05-02T09:59:41.999Z</time></trkpt><trkpt lat="44.87244134176176" lon="7.252553089968338"><ele>573.0</ele><time>2026-05-02T09:59:42.999Z</time></trkpt><trkpt lat="44.872351713915066" lon="7.2527023476314"><ele>573.5</ele><time>2026-05-02T09:59:43.999Z</time></trkpt><trkpt lat="44.87223615398926" lon="7.252832937626399"><ele>574.0</ele><time>2026-05-02T09:59:44.999Z</time></trkpt><trkpt lat="44.87210341799115" lon="7.252950948819026"><ele>574.5</ele><time>2026-05-02T09:59:45.999Z</time></trkpt><trkpt lat="44.87199550972427" lon="7.253048180452437"><ele>575.0</ele><time>2026-05-02T09:59:46.999Z</time></trkpt><trkpt lat="44.871901522995884" lon="7.2531203015277645"><ele>576.75</ele><time>2026-05-02T09:59:47.999Z</time></trkpt><trkpt lat="44.871800120518536" lon="7.253216327916308"><ele>578.5</ele><time>2026-05-02T09:59:48.999Z</time></trkpt><trkpt lat="44.87170329597579" lon="7.2533438470774625"><ele>580.25</ele><time>2026-05-02T09:59:49.999Z</time></trkpt><trkpt lat="44.87162668755332" lon="7.253458868431812"><ele>582.0</ele><time>2026-05-02T09:59:50.999Z</time></trkpt><trkpt lat="44.87156502554489" lon="7.253570593816179"><ele>582.0</ele><time>2026-05-02T09:59:51.999Z</time></trkpt><trkpt lat="44.87150659816396" lon="7.253684111432591"><ele>582.0</ele><time>2026-05-02T09:59:52.999Z</time></trkpt><trkpt lat="44.87142860286222" lon="7.253792474810999"><ele>582.0</ele><time>2026-05-02T09:59:53.999Z</time></trkpt><trkpt lat="44.87135146912019" lon="7.253899804712354"><ele>582.0</ele><time>2026-05-02T09:59:54.999Z</time></trkpt><trkpt lat="44.871298149593926" lon="7.253984448105762"><ele>582.0</ele><time>2026-05-02T09:59:55.999Z</time></trkpt><trkpt lat="44.87140309517888" lon="7.254026941165804"><ele>584.3333333333334</ele><time>2026-05-02T10:00:15.998Z</time></trkpt><trkpt lat="44.8714708399586" lon="7.2540437895910195"><ele>586.6666666666666</ele><time>2026-05-02T10:00:16.998Z</time></trkpt><trkpt lat="44.87155244235104" lon="7.254056626583561"><ele>589.0</ele><time>2026-05-02T10:00:17.998Z</time></trkpt><trkpt lat="44.87163964581435" lon="7.254039522960849"><ele>591.3333333333333</ele><time>2026-05-02T10:00:18.998Z</time></trkpt><trkpt lat="44.87172473943738" lon="7.25406515872355"><ele>593.6666666666666</ele><time>2026-05-02T10:00:19.998Z</time></trkpt><trkpt lat="44.871783659764915" lon="7.254107587686309"><ele>596.0</ele><time>2026-05-02T10:00:20.998Z</time></trkpt><trkpt lat="44.87176877814554" lon="7.254240662600047"><ele>596.0</ele><time>2026-05-02T10:00:23.998Z</time></trkpt><trkpt lat="44.87172390765244" lon="7.254310157280769"><ele>596.0</ele><time>2026-05-02T10:00:24.998Z</time></trkpt><trkpt lat="44.87168684164832" lon="7.25440432312759"><ele>596.0</ele><time>2026-05-02T10:00:26Z</time></trkpt><trkpt lat="44.87167842401838" lon="7.254515695739011"><ele>596.0</ele><time>2026-05-02T10:00:27Z</time></trkpt><trkpt lat="44.87167892255551" lon="7.2546315486958965"><ele>596.0</ele><time>2026-05-02T10:00:29Z</time></trkpt><trkpt lat="44.871674055421785" lon="7.25474051778657"><ele>596.0</ele><time>2026-05-02T10:00:31Z</time></trkpt><trkpt lat="44.87165195164891" lon="7.254931151967799"><ele>599.5</ele><time>2026-05-02T10:00:33Z</time></trkpt><trkpt lat="44.87163591824523" lon="7.255047697086727"><ele>603.0</ele><time>2026-05-02T10:00:34Z</time></trkpt><trkpt lat="44.87163321484689" lon="7.255139163427819"><ele>606.5</ele><time>2026-05-02T10:00:36Z</time></trkpt><trkpt lat="44.87158970510489" lon="7.255221583875829"><ele>610.0</ele><time>2026-05-02T10:00:41Z</time></trkpt><trkpt lat="44.871605393261405" lon="7.255308674701561"><ele>613.5</ele><time>2026-05-02T10:00:47Z</time></trkpt><trkpt lat="44.87158114205029" lon="7.255482637346055"><ele>617.0</ele><time>2026-05-02T10:00:50Z</time></trkpt><trkpt lat="44.871586375334026" lon="7.255602377930726"><ele>621.4</ele><time>2026-05-02T10:00:51Z</time></trkpt><trkpt lat="44.871560618723215" lon="7.255694331509403"><ele>625.8000000000001</ele><time>2026-05-02T10:00:52Z</time></trkpt><trkpt lat="44.871549213825126" lon="7.255790261525094"><ele>630.2</ele><time>2026-05-02T10:00:53Z</time></trkpt><trkpt lat="44.87155382954704" lon="7.255972107970269"><ele>634.6</ele><time>2026-05-02T10:00:55Z</time></trkpt><trkpt lat="44.87156053839917" lon="7.25608423519709"><ele>639.0</ele><time>2026-05-02T10:00:56Z</time></trkpt><trkpt lat="44.871609895573215" lon="7.25646425218887"><ele>641.8</ele><time>2026-05-02T10:01:00Z</time></trkpt><trkpt lat="44.87164215265896" lon="7.256540534648798"><ele>644.5999999999999</ele><time>2026-05-02T10:01:01Z</time></trkpt><trkpt lat="44.87168234280118" lon="7.256654737990265"><ele>647.4</ele><time>2026-05-02T10:01:02Z</time></trkpt><trkpt lat="44.87172932708276" lon="7.256770687331106"><ele>650.1999999999999</ele><time>2026-05-02T10:01:03Z</time></trkpt><trkpt lat="44.87178147718997" lon="7.256913476283531"><ele>653.0</ele><time>2026-05-02T10:01:04Z</time></trkpt><trkpt lat="44.87180901574639" lon="7.257050782259242"><ele>660.8</ele><time>2026-05-02T10:01:05Z</time></trkpt><trkpt lat="44.87184842346883" lon="7.257191231051155"><ele>668.5999999999999</ele><time>2026-05-02T10:01:06Z</time></trkpt><trkpt lat="44.87187547809263" lon="7.2572950282494375"><ele>676.4000000000001</ele><time>2026-05-02T10:01:07Z</time></trkpt><trkpt lat="44.87190108794448" lon="7.25739357083471"><ele>684.2</ele><time>2026-05-02T10:01:08Z</time></trkpt><trkpt lat="44.87192992013801" lon="7.257491319634268"><ele>692.0</ele><time>2026-05-02T10:01:09Z</time></trkpt><trkpt lat="44.871991711948" lon="7.257631889317243"><ele>692.75</ele><time>2026-05-02T10:01:11Z</time></trkpt><trkpt lat="44.87205807456033" lon="7.257750215107292"><ele>693.5</ele><time>2026-05-02T10:01:13Z</time></trkpt><trkpt lat="44.872130321626976" lon="7.257850679189823"><ele>694.25</ele><time>2026-05-02T10:01:15Z</time></trkpt><trkpt lat="44.872178356851904" lon="7.257928756608698"><ele>695.0</ele><time>2026-05-02T10:01:17Z</time></trkpt><trkpt lat="44.87234934593404" lon="7.25789135426543"><ele>695.0</ele><time>2026-05-02T10:01:19Z</time></trkpt><trkpt lat="44.872295836279335" lon="7.257956311077462"><ele>695.0</ele><time>2026-05-02T10:01:22.999Z</time></trkpt><trkpt lat="44.87224438961281" lon="7.258011969169733"><ele>695.0</ele><time>2026-05-02T10:01:24.999Z</time></trkpt><trkpt lat="44.87216233207985" lon="7.258153499435723"><ele>695.0</ele><time>2026-05-02T10:01:28.999Z</time></trkpt><trkpt lat="44.87209242970409" lon="7.258188533112818"><ele>695.0</ele><time>2026-05-02T10:01:31.999Z</time></trkpt><trkpt lat="44.87207665061514" lon="7.258285076317608"><ele>695.0</ele><time>2026-05-02T10:01:33.999Z</time></trkpt><trkpt lat="44.87189255523733" lon="7.258440560427019"><ele>694.8</ele><time>2026-05-02T10:01:36.999Z</time></trkpt><trkpt lat="44.87181041212027" lon="7.258482343760169"><ele>694.6</ele><time>2026-05-02T10:01:38.999Z</time></trkpt><trkpt lat="44.87171196176977" lon="7.258537545695116"><ele>694.4000000000001</ele><time>2026-05-02T10:01:40.999Z</time></trkpt><trkpt lat="44.87164489725122" lon="7.258570430089417"><ele>694.2</ele><time>2026-05-02T10:01:41.999Z</time></trkpt><trkpt lat="44.87158770082149" lon="7.258682130090478"><ele>694.0</ele><time>2026-05-02T10:01:46.999Z</time></trkpt><trkpt lat="44.87166906882767" lon="7.258816015559072"><ele>694.0</ele><time>2026-05-02T10:01:48.999Z</time></trkpt><trkpt lat="44.87169914124955" lon="7.258906114150983"><ele>694.0</ele><time>2026-05-02T10:01:49.999Z</time></trkpt><trkpt lat="44.871762326416274" lon="7.258980981612295"><ele>694.0</ele><time>2026-05-02T10:01:50.999Z</time></trkpt><trkpt lat="44.87184402920239" lon="7.259086047657176"><ele>694.0</ele><time>2026-05-02T10:01:51.999Z</time></trkpt><trkpt lat="44.87188502964884" lon="7.259213509050856"><ele>694.0</ele><time>2026-05-02T10:01:52.999Z</time></trkpt><trkpt lat="44.87192003320711" lon="7.259305540186568"><ele>694.0</ele><time>2026-05-02T10:01:54.999Z</time></trkpt><trkpt lat="44.87184559850817" lon="7.259248818474499"><ele>700.3333333333334</ele><time>2026-05-02T10:01:56.999Z</time></trkpt><trkpt lat="44.871794760001116" lon="7.2593028306590135"><ele>706.6666666666667</ele><time>2026-05-02T10:01:58.999Z</time></trkpt><trkpt lat="44.87190353508199" lon="7.259301180036705"><ele>713.0</ele><time>2026-05-02T10:02:26.998Z</time></trkpt><trkpt lat="44.87197783492671" lon="7.2593009296316255"><ele>719.3333333333334</ele><time>2026-05-02T10:02:27.998Z</time></trkpt><trkpt lat="44.8720580254904" lon="7.259322668668015"><ele>725.6666666666666</ele><time>2026-05-02T10:02:28.998Z</time></trkpt><trkpt lat="44.87213121913541" lon="7.259343585772176"><ele>732.0</ele><time>2026-05-02T10:02:29.998Z</time></trkpt><trkpt lat="44.87221613744154" lon="7.259272504380885"><ele>732.0</ele><time>2026-05-02T10:02:31Z</time></trkpt><trkpt lat="44.87232101894714" lon="7.25923236724186"><ele>732.0</ele><time>2026-05-02T10:02:32Z</time></trkpt><trkpt lat="44.872401260936606" lon="7.259173452288261"><ele>732.0</ele><time>2026-05-02T10:02:33Z</time></trkpt><trkpt lat="44.87246767264639" lon="7.2591885794427915"><ele>732.0</ele><time>2026-05-02T10:02:34Z</time></trkpt><trkpt lat="44.872546619544146" lon="7.259180398786478"><ele>732.0</ele><time>2026-05-02T10:02:35Z</time></trkpt><trkpt lat="44.87263576769764" lon="7.259159884097376"><ele>732.0</ele><time>2026-05-02T10:02:36Z</time></trkpt><trkpt lat="44.872720341998686" lon="7.259106117641856"><ele>733.5</ele><time>2026-05-02T10:02:37Z</time></trkpt><trkpt lat="44.87277516329121" lon="7.259019941135386"><ele>735.0</ele><time>2026-05-02T10:02:38Z</time></trkpt><trkpt lat="44.872845743045566" lon="7.258906742524458"><ele>736.5</ele><time>2026-05-02T10:02:40Z</time></trkpt><trkpt lat="44.872870923672956" lon="7.258820455104631"><ele>738.0</ele><time>2026-05-02T10:02:43Z</time></trkpt><trkpt lat="44.87294432527237" lon="7.2588023280200975"><ele>739.5</ele><time>2026-05-02T10:02:45Z</time></trkpt><trkpt lat="44.873014593553165" lon="7.2587583401430225"><ele>741.0</ele><time>2026-05-02T10:02:46Z</time></trkpt><trkpt lat="44.87310946689968" lon="7.258720321657253"><ele>741.0</ele><time>2026-05-02T10:02:47Z</time></trkpt><trkpt lat="44.873212250811875" lon="7.258683463020524"><ele>741.0</ele><time>2026-05-02T10:02:48Z</time></trkpt><trkpt lat="44.87329653875343" lon="7.25864394164231"><ele>741.0</ele><time>2026-05-02T10:02:49Z</time></trkpt><trkpt lat="44.873382461233994" lon="7.258572656917073"><ele>741.0</ele><time>2026-05-02T10:02:51Z</time></trkpt><trkpt lat="44.87344605020707" lon="7.25855291388211"><ele>741.0</ele><time>2026-05-02T10:02:52Z</time></trkpt><trkpt lat="44.873487633736936" lon="7.258471672616719"><ele>741.0</ele><time>2026-05-02T10:02:56Z</time></trkpt><trkpt lat="44.873468789598164" lon="7.258328862264665"><ele>740.6666666666666</ele><time>2026-05-02T10:03:00Z</time></trkpt><trkpt lat="44.87348097003625" lon="7.258219034679579"><ele>740.3333333333334</ele><time>2026-05-02T10:03:02Z</time></trkpt><trkpt lat="44.873462721577404" lon="7.258098192926905"><ele>740.0</ele><time>2026-05-02T10:03:03Z</time></trkpt><trkpt lat="44.873473469577654" lon="7.257960659513112"><ele>739.6666666666667</ele><time>2026-05-02T10:03:05Z</time></trkpt><trkpt lat="44.87354091048563" lon="7.257872473435223"><ele>739.3333333333334</ele><time>2026-05-02T10:03:07Z</time></trkpt><trkpt lat="44.873617161124756" lon="7.25786739134886"><ele>739.0</ele><time>2026-05-02T10:03:09Z</time></trkpt><trkpt lat="44.87368101555417" lon="7.257892402554257"><ele>739.0</ele><time>2026-05-02T10:03:11Z</time></trkpt><trkpt lat="44.87375197878722" lon="7.257892533884027"><ele>739.0</ele><time>2026-05-02T10:04:07.999Z</time></trkpt><trkpt lat="44.87380396190779" lon="7.257985887886316"><ele>739.0</ele><time>2026-05-02T10:04:09.999Z</time></trkpt><trkpt lat="44.873802493002444" lon="7.258082705391151"><ele>739.0</ele><time>2026-05-02T10:04:11.998Z</time></trkpt><trkpt lat="44.87385311454782" lon="7.258144023379434"><ele>739.0</ele><time>2026-05-02T10:04:14.998Z</time></trkpt><trkpt lat="44.873900398535625" lon="7.258296742910628"><ele>739.0</ele><time>2026-05-02T10:04:38Z</time></trkpt><trkpt lat="44.87397960929046" lon="7.2583642938289845"><ele>743.6</ele><time>2026-05-02T10:04:44Z</time></trkpt><trkpt lat="44.87404816758724" lon="7.258410187904446"><ele>748.2</ele><time>2026-05-02T10:04:49Z</time></trkpt><trkpt lat="44.874083649182516" lon="7.258505858653629"><ele>752.8000000000001</ele><time>2026-05-02T10:04:53Z</time></trkpt><trkpt lat="44.87415478058716" lon="7.258615862019394"><ele>757.4000000000001</ele><time>2026-05-02T10:07:02Z</time></trkpt><trkpt lat="44.87417544666178" lon="7.258755685899838"><ele>762.0</ele><time>2026-05-02T10:21:13.998Z</time></trkpt><trkpt lat="44.87418762461556" lon="7.258935447395055"><ele>764.8333333333334</ele><time>2026-05-02T10:21:15.998Z</time></trkpt><trkpt lat="44.8741656029679" lon="7.2590491860627235"><ele>767.6666666666667</ele><time>2026-05-02T10:21:16.998Z</time></trkpt><trkpt lat="44.874125731124515" lon="7.2591386641570175"><ele>770.5</ele><time>2026-05-02T10:21:17.998Z</time></trkpt><trkpt lat="44.87409478202847" lon="7.259221751460422"><ele>773.3333333333334</ele><time>2026-05-02T10:21:18.998Z</time></trkpt><trkpt lat="44.87405346999861" lon="7.259320618152295"><ele>776.1666666666667</ele><time>2026-05-02T10:21:21Z</time></trkpt><trkpt lat="44.87408452045521" lon="7.259476585784048"><ele>779.0</ele><time>2026-05-02T10:21:23Z</time></trkpt><trkpt lat="44.874098033790574" lon="7.259613496144467"><ele>780.6</ele><time>2026-05-02T10:21:25Z</time></trkpt><trkpt lat="44.87406862711422" lon="7.259784436550443"><ele>782.2</ele><time>2026-05-02T10:21:27Z</time></trkpt><trkpt lat="44.87402565956593" lon="7.259896596547976"><ele>783.8000000000001</ele><time>2026-05-02T10:21:28Z</time></trkpt><trkpt lat="44.87397720322318" lon="7.260003608726914"><ele>785.4000000000001</ele><time>2026-05-02T10:21:30Z</time></trkpt><trkpt lat="44.873917175847865" lon="7.2601553631285265"><ele>787.0</ele><time>2026-05-02T10:21:32Z</time></trkpt><trkpt lat="44.87386272749953" lon="7.260205083471541"><ele>787.0</ele><time>2026-05-02T10:21:33Z</time></trkpt><trkpt lat="44.87380040961389" lon="7.26026933301173"><ele>787.0</ele><time>2026-05-02T10:21:35Z</time></trkpt><trkpt lat="44.87376065165501" lon="7.260340368646401"><ele>787.0</ele><time>2026-05-02T10:21:36Z</time></trkpt><trkpt lat="44.8734934686164" lon="7.260800691108088"><ele>790.0</ele><time>2026-05-02T10:21:40Z</time></trkpt><trkpt lat="44.873430684540885" lon="7.260861655124636"><ele>793.0</ele><time>2026-05-02T10:21:41Z</time></trkpt><trkpt lat="44.87339405819958" lon="7.260951384096954"><ele>796.0</ele><time>2026-05-02T10:21:42Z</time></trkpt><trkpt lat="44.873338812128246" lon="7.261051979065951"><ele>799.0</ele><time>2026-05-02T10:21:43Z</time></trkpt><trkpt lat="44.873287008925374" lon="7.261165591067416"><ele>802.0</ele><time>2026-05-02T10:21:44Z</time></trkpt><trkpt lat="44.87317262772636" lon="7.261224614108307"><ele>801.9999999999999</ele><time>2026-05-02T10:21:46Z</time></trkpt><trkpt lat="44.873056870316546" lon="7.26127309038668"><ele>802.0</ele><time>2026-05-02T10:21:48Z</time></trkpt><trkpt lat="44.87299277730791" lon="7.261313680241338"><ele>802.0</ele><time>2026-05-02T10:21:49Z</time></trkpt><trkpt lat="44.87291833467577" lon="7.26135376034535"><ele>802.0</ele><time>2026-05-02T10:21:50Z</time></trkpt><trkpt lat="44.87284221089161" lon="7.261398719096749"><ele>801.9999999999999</ele><time>2026-05-02T10:21:51Z</time></trkpt><trkpt lat="44.87276908731287" lon="7.261452786492892"><ele>802.0</ele><time>2026-05-02T10:21:52Z</time></trkpt><trkpt lat="44.87271102786952" lon="7.261505167833873"><ele>803.3333333333333</ele><time>2026-05-02T10:21:53Z</time></trkpt><trkpt lat="44.87264188027312" lon="7.26155531199046"><ele>804.6666666666666</ele><time>2026-05-02T10:21:54Z</time></trkpt><trkpt lat="44.872577328020725" lon="7.261615517803981"><ele>806.0</ele><time>2026-05-02T10:21:55Z</time></trkpt><trkpt lat="44.872521477738445" lon="7.261691014152404"><ele>807.3333333333333</ele><time>2026-05-02T10:21:56Z</time></trkpt><trkpt lat="44.872477600787356" lon="7.2618457270385806"><ele>808.6666666666666</ele><time>2026-05-02T10:21:57Z</time></trkpt><trkpt lat="44.872453156677174" lon="7.261963034069964"><ele>810.0</ele><time>2026-05-02T10:21:58Z</time></trkpt><trkpt lat="44.87240542373248" lon="7.262100752128302"><ele>810.0</ele><time>2026-05-02T10:21:58.999Z</time></trkpt><trkpt lat="44.87233601171808" lon="7.262248294367541"><ele>810.0</ele><time>2026-05-02T10:21:59.999Z</time></trkpt><trkpt lat="44.87227448143887" lon="7.262406482609119"><ele>810.0</ele><time>2026-05-02T10:22:00.999Z</time></trkpt><trkpt lat="44.872268925566125" lon="7.262584197251729"><ele>810.0</ele><time>2026-05-02T10:22:02.999Z</time></trkpt><trkpt lat="44.87229446083127" lon="7.262685355524673"><ele>813.6</ele><time>2026-05-02T10:22:03.999Z</time></trkpt><trkpt lat="44.87226190410972" lon="7.262853561826686"><ele>817.2</ele><time>2026-05-02T10:22:05.999Z</time></trkpt><trkpt lat="44.872198938267715" lon="7.262941145356388"><ele>820.8</ele><time>2026-05-02T10:22:06.999Z</time></trkpt><trkpt lat="44.872140267633156" lon="7.263041345601357"><ele>824.4</ele><time>2026-05-02T10:22:07.999Z</time></trkpt><trkpt lat="44.872050584546734" lon="7.263181540696478"><ele>828.0</ele><time>2026-05-02T10:22:08.999Z</time></trkpt><trkpt lat="44.87196542358345" lon="7.263308717364405"><ele>825.8</ele><time>2026-05-02T10:22:09.999Z</time></trkpt><trkpt lat="44.871887806715925" lon="7.263449108289249"><ele>823.5999999999999</ele><time>2026-05-02T10:22:10.999Z</time></trkpt><trkpt lat="44.871804231885406" lon="7.263583082112893"><ele>821.4000000000001</ele><time>2026-05-02T10:22:11.999Z</time></trkpt><trkpt lat="44.87175866147199" lon="7.2637041436622605"><ele>819.2</ele><time>2026-05-02T10:22:12.999Z</time></trkpt><trkpt lat="44.87175150263721" lon="7.263800182588595"><ele>817.0</ele><time>2026-05-02T10:22:13.999Z</time></trkpt><trkpt lat="44.87173640016131" lon="7.26390505205482"><ele>823.3333333333333</ele><time>2026-05-02T10:22:15.999Z</time></trkpt><trkpt lat="44.871785555256224" lon="7.264013143422305"><ele>829.6666666666666</ele><time>2026-05-02T10:22:16.999Z</time></trkpt><trkpt lat="44.87181578076941" lon="7.264103437105824"><ele>836.0</ele><time>2026-05-02T10:22:17.999Z</time></trkpt><trkpt lat="44.871845185633106" lon="7.264211843030509"><ele>842.3333333333333</ele><time>2026-05-02T10:22:18.999Z</time></trkpt><trkpt lat="44.87186771373916" lon="7.264310147905036"><ele>848.6666666666666</ele><time>2026-05-02T10:22:19.999Z</time></trkpt><trkpt lat="44.87186180750609" lon="7.264465380671121"><ele>855.0</ele><time>2026-05-02T10:22:21.999Z</time></trkpt><trkpt lat="44.871853884637396" lon="7.26461823019723"><ele>855.0</ele><time>2026-05-02T10:22:23.999Z</time></trkpt><trkpt lat="44.87179851978517" lon="7.264665324034096"><ele>855.0</ele><time>2026-05-02T10:22:24.999Z</time></trkpt><trkpt lat="44.87171842820052" lon="7.2647320886043545"><ele>855.0</ele><time>2026-05-02T10:22:26.999Z</time></trkpt><trkpt lat="44.87167345775406" lon="7.264813676994821"><ele>855.0</ele><time>2026-05-02T10:22:27.999Z</time></trkpt><trkpt lat="44.8715721119751" lon="7.265002508908187"><ele>855.0</ele><time>2026-05-02T10:22:29.999Z</time></trkpt><trkpt lat="44.8714854839575" lon="7.265138075741398"><ele>852.2</ele><time>2026-05-02T10:22:30.999Z</time></trkpt><trkpt lat="44.871420053333196" lon="7.265245669457648"><ele>849.4</ele><time>2026-05-02T10:22:31.999Z</time></trkpt><trkpt lat="44.87137386632641" lon="7.26537124199366"><ele>846.5999999999999</ele><time>2026-05-02T10:22:32.999Z</time></trkpt><trkpt lat="44.8713184945065" lon="7.2654919072005315"><ele>843.8</ele><time>2026-05-02T10:22:33.999Z</time></trkpt><trkpt lat="44.87125650483513" lon="7.265597451243297"><ele>841.0</ele><time>2026-05-02T10:22:34.999Z</time></trkpt><trkpt lat="44.87120358627677" lon="7.265682685084833"><ele>840.9999999999999</ele><time>2026-05-02T10:22:35.999Z</time></trkpt><trkpt lat="44.871168684433854" lon="7.265773572007408"><ele>841.0</ele><time>2026-05-02T10:22:36.999Z</time></trkpt><trkpt lat="44.87111939488573" lon="7.26586206610092"><ele>841.0</ele><time>2026-05-02T10:22:37.999Z</time></trkpt><trkpt lat="44.87104320494863" lon="7.265928520453537"><ele>841.0</ele><time>2026-05-02T10:22:38.999Z</time></trkpt><trkpt lat="44.870969339237085" lon="7.265971225238403"><ele>840.9999999999999</ele><time>2026-05-02T10:22:39.999Z</time></trkpt><trkpt lat="44.870912540337066" lon="7.266075341236545"><ele>841.0</ele><time>2026-05-02T10:22:40.999Z</time></trkpt><trkpt lat="44.870844613883364" lon="7.266174412226904"><ele>836.0</ele><time>2026-05-02T10:22:41.999Z</time></trkpt><trkpt lat="44.87071908062771" lon="7.266173808517787"><ele>831.0</ele><time>2026-05-02T10:22:42.999Z</time></trkpt><trkpt lat="44.87065707399769" lon="7.266192316066638"><ele>826.0</ele><time>2026-05-02T10:22:43.999Z</time></trkpt><trkpt lat="44.87057133716185" lon="7.266309812120203"><ele>821.0</ele><time>2026-05-02T10:22:45.998Z</time></trkpt><trkpt lat="44.87029932289329" lon="7.266615838743608"><ele>821.0000000000001</ele><time>2026-05-02T10:22:47.998Z</time></trkpt><trkpt lat="44.87029061898177" lon="7.26674164871452"><ele>821.0</ele><time>2026-05-02T10:22:48.998Z</time></trkpt><trkpt lat="44.870281787157985" lon="7.266867744150882"><ele>821.0</ele><time>2026-05-02T10:22:49.998Z</time></trkpt><trkpt lat="44.87026088205943" lon="7.266990497840967"><ele>821.0</ele><time>2026-05-02T10:22:50.998Z</time></trkpt><trkpt lat="44.87023397351737" lon="7.267085460995349"><ele>821.0000000000001</ele><time>2026-05-02T10:22:51.998Z</time></trkpt><trkpt lat="44.87018840738435" lon="7.267187690096896"><ele>821.0</ele><time>2026-05-02T10:22:52.998Z</time></trkpt><trkpt lat="44.870121676227086" lon="7.267259163597381"><ele>817.5999999999999</ele><time>2026-05-02T10:22:53.998Z</time></trkpt><trkpt lat="44.87004832007965" lon="7.26732457225067"><ele>814.2</ele><time>2026-05-02T10:22:54.998Z</time></trkpt><trkpt lat="44.86997146761626" lon="7.267401255483281"><ele>810.8</ele><time>2026-05-02T10:22:55.998Z</time></trkpt><trkpt lat="44.8699034476011" lon="7.267492844008977"><ele>807.4000000000001</ele><time>2026-05-02T10:22:56.998Z</time></trkpt><trkpt lat="44.86981370058307" lon="7.267579821157254"><ele>804.0</ele><time>2026-05-02T10:22:57.998Z</time></trkpt><trkpt lat="44.869717573504104" lon="7.2676752826721005"><ele>804.0</ele><time>2026-05-02T10:22:58.998Z</time></trkpt><trkpt lat="44.86962724101072" lon="7.267780381375945"><ele>804.0</ele><time>2026-05-02T10:22:59.998Z</time></trkpt><trkpt lat="44.8695529297845" lon="7.267860075638477"><ele>804.0</ele><time>2026-05-02T10:23:00.998Z</time></trkpt><trkpt lat="44.86949012034505" lon="7.267906855656263"><ele>804.0</ele><time>2026-05-02T10:23:01.998Z</time></trkpt><trkpt lat="44.86942812152303" lon="7.2679264209918"><ele>804.0</ele><time>2026-05-02T10:23:02.998Z</time></trkpt><trkpt lat="44.86935898595786" lon="7.267883627545063"><ele>804.0</ele><time>2026-05-02T10:23:04.998Z</time></trkpt><trkpt lat="44.86928720567057" lon="7.267836198804771"><ele>800.4000000000001</ele><time>2026-05-02T10:23:05.998Z</time></trkpt><trkpt lat="44.86917447133731" lon="7.267705581745382"><ele>796.8</ele><time>2026-05-02T10:23:07.998Z</time></trkpt><trkpt lat="44.86909470251893" lon="7.267615321782478"><ele>793.2</ele><time>2026-05-02T10:23:08.998Z</time></trkpt><trkpt lat="44.869039642511424" lon="7.267558539767533"><ele>789.5999999999999</ele><time>2026-05-02T10:23:09.998Z</time></trkpt><trkpt lat="44.86897788270729" lon="7.267531571480171"><ele>786.0</ele><time>2026-05-02T10:23:10.998Z</time></trkpt><trkpt lat="44.868908912264665" lon="7.267552488072041"><ele>786.0</ele><time>2026-05-02T10:23:11.998Z</time></trkpt><trkpt lat="44.86884305151105" lon="7.267572978699671"><ele>786.0</ele><time>2026-05-02T10:23:12.998Z</time></trkpt><trkpt lat="44.86877870307005" lon="7.267596222368216"><ele>786.0</ele><time>2026-05-02T10:23:13.998Z</time></trkpt><trkpt lat="44.86866375836718" lon="7.267654351840736"><ele>786.0</ele><time>2026-05-02T10:23:15.998Z</time></trkpt><trkpt lat="44.868535252682065" lon="7.267715786638901"><ele>786.0</ele><time>2026-05-02T10:23:17.998Z</time></trkpt><trkpt lat="44.86845506346896" lon="7.26777158100371"><ele>785.0</ele><time>2026-05-02T10:23:18.998Z</time></trkpt><trkpt lat="44.868386238612864" lon="7.2678441264469065"><ele>784.0</ele><time>2026-05-02T10:23:19.998Z</time></trkpt><trkpt lat="44.8683069863138" lon="7.267937180545989"><ele>783.0</ele><time>2026-05-02T10:23:20.998Z</time></trkpt><trkpt lat="44.86822600398992" lon="7.268031730138562"><ele>782.0</ele><time>2026-05-02T10:23:21.998Z</time></trkpt><trkpt lat="44.8681309280748" lon="7.268104796398462"><ele>781.0</ele><time>2026-05-02T10:23:22.998Z</time></trkpt><trkpt lat="44.868034191545064" lon="7.268165616386139"><ele>776.8</ele><time>2026-05-02T10:23:23.998Z</time></trkpt><trkpt lat="44.867943254765855" lon="7.268246199549112"><ele>772.5999999999999</ele><time>2026-05-02T10:23:24.998Z</time></trkpt><trkpt lat="44.86785521616689" lon="7.268332728434808"><ele>768.4</ele><time>2026-05-02T10:23:25.998Z</time></trkpt><trkpt lat="44.86775790721839" lon="7.268394388176401"><ele>764.2</ele><time>2026-05-02T10:23:27Z</time></trkpt><trkpt lat="44.8676698840579" lon="7.268424027528024"><ele>760.0</ele><time>2026-05-02T10:23:28Z</time></trkpt><trkpt lat="44.86758076519363" lon="7.268444665243899"><ele>758.8</ele><time>2026-05-02T10:23:29Z</time></trkpt><trkpt lat="44.867493081040784" lon="7.268426174825394"><ele>757.6</ele><time>2026-05-02T10:23:30Z</time></trkpt><trkpt lat="44.86740335068604" lon="7.268373140537074"><ele>756.4000000000001</ele><time>2026-05-02T10:23:31Z</time></trkpt><trkpt lat="44.867309200940916" lon="7.2683130503092785"><ele>755.2</ele><time>2026-05-02T10:23:32Z</time></trkpt><trkpt lat="44.86722220896595" lon="7.268247025568006"><ele>754.0</ele><time>2026-05-02T10:23:33Z</time></trkpt><trkpt lat="44.867143765942224" lon="7.268172468716419"><ele>754.8333333333334</ele><time>2026-05-02T10:23:34Z</time></trkpt><trkpt lat="44.86706743008224" lon="7.268099228809669"><ele>755.6666666666667</ele><time>2026-05-02T10:23:35Z</time></trkpt><trkpt lat="44.86698398471833" lon="7.268076991223549"><ele>756.5</ele><time>2026-05-02T10:23:36Z</time></trkpt><trkpt lat="44.86691787588682" lon="7.268031858089514"><ele>757.3333333333334</ele><time>2026-05-02T10:23:37Z</time></trkpt><trkpt lat="44.86684405098279" lon="7.268004401879107"><ele>758.1666666666666</ele><time>2026-05-02T10:23:38Z</time></trkpt><trkpt lat="44.866759783286334" lon="7.267993508456468"><ele>759.0</ele><time>2026-05-02T10:23:39Z</time></trkpt><trkpt lat="44.86667964113627" lon="7.267995001086576"><ele>757.2857142857142</ele><time>2026-05-02T10:23:40Z</time></trkpt><trkpt lat="44.866609943468966" lon="7.268010069823611"><ele>755.5714285714286</ele><time>2026-05-02T10:23:41Z</time></trkpt><trkpt lat="44.86654406643245" lon="7.268026285186044"><ele>753.8571428571429</ele><time>2026-05-02T10:23:42Z</time></trkpt><trkpt lat="44.86647559704389" lon="7.268043402528511"><ele>752.1428571428571</ele><time>2026-05-02T10:23:43Z</time></trkpt><trkpt lat="44.86641282773387" lon="7.2680616385303"><ele>750.4285714285714</ele><time>2026-05-02T10:23:44Z</time></trkpt><trkpt lat="44.86634396259116" lon="7.268078919713645"><ele>748.7142857142857</ele><time>2026-05-02T10:23:45Z</time></trkpt><trkpt lat="44.866273529085774" lon="7.268074891796359"><ele>747.0</ele><time>2026-05-02T10:23:46Z</time></trkpt><trkpt lat="44.866192193886576" lon="7.268086951626187"><ele>747.0</ele><time>2026-05-02T10:23:47Z</time></trkpt><trkpt lat="44.866112516986014" lon="7.268048782345661"><ele>747.0</ele><time>2026-05-02T10:23:48Z</time></trkpt><trkpt lat="44.86602426772772" lon="7.268046293802946"><ele>747.0</ele><time>2026-05-02T10:23:49Z</time></trkpt><trkpt lat="44.86594187403834" lon="7.268121520455336"><ele>747.0</ele><time>2026-05-02T10:23:50Z</time></trkpt><trkpt lat="44.86586195811272" lon="7.268171328189151"><ele>747.0</ele><time>2026-05-02T10:23:51Z</time></trkpt><trkpt lat="44.86580260056187" lon="7.268299541512406"><ele>745.6666666666666</ele><time>2026-05-02T10:23:52Z</time></trkpt><trkpt lat="44.86577277088995" lon="7.2684247843825265"><ele>744.3333333333334</ele><time>2026-05-02T10:23:53Z</time></trkpt><trkpt lat="44.865699930063315" lon="7.268455390076152"><ele>743.0</ele><time>2026-05-02T10:23:54Z</time></trkpt><trkpt lat="44.86563219977548" lon="7.26848386020064"><ele>741.6666666666667</ele><time>2026-05-02T10:23:55Z</time></trkpt><trkpt lat="44.86557306109832" lon="7.26853616375829"><ele>740.3333333333334</ele><time>2026-05-02T10:23:56Z</time></trkpt><trkpt lat="44.8654967023247" lon="7.268530540892433"><ele>739.0</ele><time>2026-05-02T10:23:57Z</time></trkpt><trkpt lat="44.86543816911776" lon="7.268569092149515"><ele>739.0</ele><time>2026-05-02T10:23:58Z</time></trkpt><trkpt lat="44.86531829100197" lon="7.268460957886924"><ele>739.0</ele><time>2026-05-02T10:24:00Z</time></trkpt><trkpt lat="44.865257394856336" lon="7.268409937579497"><ele>739.0</ele><time>2026-05-02T10:24:01Z</time></trkpt><trkpt lat="44.865170231620574" lon="7.268357741648058"><ele>739.0</ele><time>2026-05-02T10:24:02Z</time></trkpt><trkpt lat="44.86507136563099" lon="7.268317618493627"><ele>739.0</ele><time>2026-05-02T10:24:03Z</time></trkpt><trkpt lat="44.86497333249796" lon="7.268267011956429"><ele>738.0</ele><time>2026-05-02T10:24:03.999Z</time></trkpt><trkpt lat="44.86480348789434" lon="7.268290671084058"><ele>737.0</ele><time>2026-05-02T10:24:04.999Z</time></trkpt><trkpt lat="44.86472574222726" lon="7.268254573384993"><ele>736.0</ele><time>2026-05-02T10:24:05.999Z</time></trkpt><trkpt lat="44.864659020434296" lon="7.268260491604849"><ele>735.0</ele><time>2026-05-02T10:24:06.999Z</time></trkpt><trkpt lat="44.864614008725205" lon="7.268113913861038"><ele>734.0</ele><time>2026-05-02T10:24:08.999Z</time></trkpt><trkpt lat="44.86457532137201" lon="7.2679496525644005"><ele>732.5714285714286</ele><time>2026-05-02T10:24:10.999Z</time></trkpt><trkpt lat="44.86455318771751" lon="7.267861005432415"><ele>731.1428571428572</ele><time>2026-05-02T10:24:11.999Z</time></trkpt><trkpt lat="44.8645163096599" lon="7.26776607146621"><ele>729.7142857142858</ele><time>2026-05-02T10:24:12.999Z</time></trkpt><trkpt lat="44.86448123243491" lon="7.267670502602682"><ele>728.2857142857142</ele><time>2026-05-02T10:24:13.999Z</time></trkpt><trkpt lat="44.86445203013849" lon="7.267563824483043"><ele>726.8571428571429</ele><time>2026-05-02T10:24:14.999Z</time></trkpt><trkpt lat="44.86441510040052" lon="7.267463286233382"><ele>725.4285714285714</ele><time>2026-05-02T10:24:15.999Z</time></trkpt><trkpt lat="44.86437475063328" lon="7.267385198382656"><ele>724.0</ele><time>2026-05-02T10:24:16.999Z</time></trkpt><trkpt lat="44.86429290445554" lon="7.267272441436334"><ele>722.0</ele><time>2026-05-02T10:24:18.999Z</time></trkpt><trkpt lat="44.864194947551326" lon="7.267215210061924"><ele>720.0</ele><time>2026-05-02T10:24:20.999Z</time></trkpt><trkpt lat="44.864118319584605" lon="7.267192487152385"><ele>718.0</ele><time>2026-05-02T10:24:21.999Z</time></trkpt><trkpt lat="44.86404340941794" lon="7.267197162662447"><ele>716.0</ele><time>2026-05-02T10:24:22.999Z</time></trkpt><trkpt lat="44.86394565804292" lon="7.267214843299503"><ele>714.0</ele><time>2026-05-02T10:24:23.999Z</time></trkpt><trkpt lat="44.86385579651333" lon="7.267248391280172"><ele>716.8000000000001</ele><time>2026-05-02T10:24:24.999Z</time></trkpt><trkpt lat="44.86374878149355" lon="7.2672918147171215"><ele>719.6</ele><time>2026-05-02T10:24:25.999Z</time></trkpt><trkpt lat="44.8636506338042" lon="7.267322392042977"><ele>722.4</ele><time>2026-05-02T10:24:26.999Z</time></trkpt><trkpt lat="44.863567992671605" lon="7.267354961258799"><ele>725.2</ele><time>2026-05-02T10:24:27.999Z</time></trkpt><trkpt lat="44.86348611929869" lon="7.267405409324273"><ele>728.0</ele><time>2026-05-02T10:24:28.999Z</time></trkpt><trkpt lat="44.86341693692378" lon="7.267460596327108"><ele>728.0</ele><time>2026-05-02T10:24:29.999Z</time></trkpt><trkpt lat="44.8633475203932" lon="7.2675445157666605"><ele>728.0</ele><time>2026-05-02T10:24:30.999Z</time></trkpt><trkpt lat="44.863274384029474" lon="7.2676231817096495"><ele>728.0</ele><time>2026-05-02T10:24:31.999Z</time></trkpt><trkpt lat="44.863204653901384" lon="7.267710632886865"><ele>728.0</ele><time>2026-05-02T10:24:32.999Z</time></trkpt><trkpt lat="44.863136286348194" lon="7.267776369110564"><ele>728.0</ele><time>2026-05-02T10:24:33.999Z</time></trkpt><trkpt lat="44.863074486049214" lon="7.267836008470568"><ele>728.0</ele><time>2026-05-02T10:24:34.999Z</time></trkpt><trkpt lat="44.863013007200756" lon="7.2678921658811815"><ele>728.0</ele><time>2026-05-02T10:24:35.999Z</time></trkpt><trkpt lat="44.86295307639059" lon="7.267949875966439"><ele>728.0</ele><time>2026-05-02T10:24:36.999Z</time></trkpt><trkpt lat="44.86289344178957" lon="7.26800016014589"><ele>728.0</ele><time>2026-05-02T10:24:37.999Z</time></trkpt><trkpt lat="44.862781383896014" lon="7.268023603661345"><ele>728.0</ele><time>2026-05-02T10:24:39.999Z</time></trkpt><trkpt lat="44.862727021141175" lon="7.267927030478837"><ele>728.0</ele><time>2026-05-02T10:24:41.999Z</time></trkpt><trkpt lat="44.86275237573879" lon="7.267715313013454"><ele>728.0</ele><time>2026-05-02T10:24:43.999Z</time></trkpt><trkpt lat="44.86274684066994" lon="7.267603585708103"><ele>728.0</ele><time>2026-05-02T10:24:44.999Z</time></trkpt><trkpt lat="44.862766836576036" lon="7.267448842872615"><ele>728.0</ele><time>2026-05-02T10:24:45.999Z</time></trkpt><trkpt lat="44.862712290590984" lon="7.2673101376284635"><ele>728.0</ele><time>2026-05-02T10:24:46.999Z</time></trkpt><trkpt lat="44.86268297612418" lon="7.2671608173503355"><ele>728.0</ele><time>2026-05-02T10:24:47.999Z</time></trkpt><trkpt lat="44.86266807285588" lon="7.267048017626125"><ele>728.8</ele><time>2026-05-02T10:24:48.999Z</time></trkpt><trkpt lat="44.86259893607501" lon="7.266871445516101"><ele>729.5999999999999</ele><time>2026-05-02T10:24:50.998Z</time></trkpt><trkpt lat="44.86252309538582" lon="7.266738574549336"><ele>730.4000000000001</ele><time>2026-05-02T10:24:52.998Z</time></trkpt><trkpt lat="44.86244764397719" lon="7.266680960455923"><ele>731.2</ele><time>2026-05-02T10:24:53.998Z</time></trkpt><trkpt lat="44.86237624513502" lon="7.266637301842779"><ele>732.0</ele><time>2026-05-02T10:24:54.998Z</time></trkpt><trkpt lat="44.862296434592885" lon="7.266605675540515"><ele>732.0</ele><time>2026-05-02T10:24:55.998Z</time></trkpt><trkpt lat="44.86217562054383" lon="7.266637173797561"><ele>732.0</ele><time>2026-05-02T10:24:56.998Z</time></trkpt><trkpt lat="44.8620835109091" lon="7.2666482323774675"><ele>732.0</ele><time>2026-05-02T10:24:57.998Z</time></trkpt><trkpt lat="44.86198091050673" lon="7.26667711793199"><ele>732.0</ele><time>2026-05-02T10:24:58.998Z</time></trkpt><trkpt lat="44.86189707875666" lon="7.266655029658517"><ele>732.0</ele><time>2026-05-02T10:24:59.998Z</time></trkpt><trkpt lat="44.86181110055117" lon="7.266659212599667"><ele>734.6666666666666</ele><time>2026-05-02T10:25:00.998Z</time></trkpt><trkpt lat="44.861740118148866" lon="7.266646043534449"><ele>737.3333333333334</ele><time>2026-05-02T10:25:01.998Z</time></trkpt><trkpt lat="44.86167083721326" lon="7.266640493809352"><ele>740.0</ele><time>2026-05-02T10:25:02.998Z</time></trkpt><trkpt lat="44.86156600247983" lon="7.266606498968898"><ele>742.6666666666667</ele><time>2026-05-02T10:25:04.998Z</time></trkpt><trkpt lat="44.86149376820862" lon="7.266580793394313"><ele>745.3333333333334</ele><time>2026-05-02T10:25:06.998Z</time></trkpt><trkpt lat="44.86142217060184" lon="7.266572087493679"><ele>748.0</ele><time>2026-05-02T10:25:24.998Z</time></trkpt><trkpt lat="44.86133415022679" lon="7.266489883398824"><ele>748.0</ele><time>2026-05-02T10:25:26.998Z</time></trkpt><trkpt lat="44.861269771129656" lon="7.26646716775868"><ele>748.0</ele><time>2026-05-02T10:25:27.998Z</time></trkpt><trkpt lat="44.86119773464103" lon="7.266465197892978"><ele>748.0</ele><time>2026-05-02T10:25:28.998Z</time></trkpt><trkpt lat="44.86111362997497" lon="7.2664847895997875"><ele>748.0</ele><time>2026-05-02T10:25:29.998Z</time></trkpt><trkpt lat="44.86104986999111" lon="7.266492978639884"><ele>748.0</ele><time>2026-05-02T10:25:30.998Z</time></trkpt><trkpt lat="44.860942801215316" lon="7.26645896162858"><ele>748.0</ele><time>2026-05-02T10:25:33Z</time></trkpt><trkpt lat="44.8608504994061" lon="7.266472444712097"><ele>752.4</ele><time>2026-05-02T10:25:34Z</time></trkpt><trkpt lat="44.860778664804684" lon="7.266477391338831"><ele>756.8</ele><time>2026-05-02T10:25:35Z</time></trkpt><trkpt lat="44.86065530081209" lon="7.2664495097646"><ele>761.2</ele><time>2026-05-02T10:25:37Z</time></trkpt><trkpt lat="44.86057633798123" lon="7.266447811712601"><ele>765.6</ele><time>2026-05-02T10:25:38Z</time></trkpt><trkpt lat="44.86044009057182" lon="7.266459793261261"><ele>770.0</ele><time>2026-05-02T10:25:39Z</time></trkpt><trkpt lat="44.86033703574592" lon="7.266479576847563"><ele>770.0000000000001</ele><time>2026-05-02T10:25:41Z</time></trkpt><trkpt lat="44.86026739438352" lon="7.266492016109358"><ele>770.0</ele><time>2026-05-02T10:25:43Z</time></trkpt><trkpt lat="44.860200921861974" lon="7.266517613770882"><ele>770.0</ele><time>2026-05-02T10:25:51Z</time></trkpt><trkpt lat="44.86010997445419" lon="7.266557491335844"><ele>770.0</ele><time>2026-05-02T10:26:18.999Z</time></trkpt><trkpt lat="44.86002216867122" lon="7.266601956200828"><ele>770.0000000000001</ele><time>2026-05-02T10:26:21.999Z</time></trkpt><trkpt lat="44.85996326138264" lon="7.266568123072835"><ele>770.0</ele><time>2026-05-02T10:26:23.999Z</time></trkpt><trkpt lat="44.85991415695487" lon="7.266487978578432"><ele>773.4285714285714</ele><time>2026-05-02T10:27:16.998Z</time></trkpt><trkpt lat="44.85988700694972" lon="7.266400245659472"><ele>776.8571428571429</ele><time>2026-05-02T10:27:23.998Z</time></trkpt><trkpt lat="44.85983155595104" lon="7.266317491899413"><ele>780.2857142857142</ele><time>2026-05-02T10:27:31.998Z</time></trkpt><trkpt lat="44.85978226367388" lon="7.2662209454203115"><ele>783.7142857142858</ele><time>2026-05-02T10:27:33.998Z</time></trkpt><trkpt lat="44.859728896859174" lon="7.266168439204033"><ele>787.1428571428571</ele><time>2026-05-02T10:27:35.998Z</time></trkpt><trkpt lat="44.859672048252826" lon="7.266121473710578"><ele>790.5714285714286</ele><time>2026-05-02T10:27:38Z</time></trkpt><trkpt lat="44.859607837451335" lon="7.266073742373293"><ele>794.0</ele><time>2026-05-02T10:27:40Z</time></trkpt><trkpt lat="44.8595284502358" lon="7.265995683706432"><ele>794.0000000000001</ele><time>2026-05-02T10:27:43Z</time></trkpt><trkpt lat="44.85944341711564" lon="7.266001750504254"><ele>794.0</ele><time>2026-05-02T10:27:45Z</time></trkpt><trkpt lat="44.859335029884434" lon="7.266019205265752"><ele>794.0</ele><time>2026-05-02T10:27:47Z</time></trkpt><trkpt lat="44.85923128666294" lon="7.2660183848034885"><ele>794.0</ele><time>2026-05-02T10:27:49Z</time></trkpt><trkpt lat="44.85919650506496" lon="7.265936691175989"><ele>794.0000000000001</ele><time>2026-05-02T10:27:54Z</time></trkpt><trkpt lat="44.85912205458916" lon="7.265917418996619"><ele>794.0</ele><time>2026-05-02T10:27:59Z</time></trkpt><trkpt lat="44.85906999122631" lon="7.2660042274520205"><ele>797.3333333333334</ele><time>2026-05-02T10:28:15.999Z</time></trkpt><trkpt lat="44.85902595632739" lon="7.266094351289173"><ele>800.6666666666667</ele><time>2026-05-02T10:28:19.999Z</time></trkpt><trkpt lat="44.85895560259531" lon="7.266110093734312"><ele>804.0</ele><time>2026-05-02T10:28:20.999Z</time></trkpt><trkpt lat="44.85888199051022" lon="7.2661763361992096"><ele>807.3333333333333</ele><time>2026-05-02T10:28:23.999Z</time></trkpt><trkpt lat="44.85886569049926" lon="7.266275010890302"><ele>810.6666666666666</ele><time>2026-05-02T10:28:39.999Z</time></trkpt><trkpt lat="44.85881713639186" lon="7.266337315282968"><ele>814.0</ele><time>2026-05-02T10:28:52.999Z</time></trkpt><trkpt lat="44.85873445853051" lon="7.266337579403178"><ele>814.0</ele><time>2026-05-02T10:30:20.999Z</time></trkpt><trkpt lat="44.858647610575986" lon="7.266302262539333"><ele>814.0</ele><time>2026-05-02T10:30:58.999Z</time></trkpt><trkpt lat="44.85857170383682" lon="7.266220372686201"><ele>814.0</ele><time>2026-05-02T10:31:01.998Z</time></trkpt><trkpt lat="44.858498118884526" lon="7.266209341156595"><ele>814.0</ele><time>2026-05-02T10:31:10.998Z</time></trkpt><trkpt lat="44.85843483768496" lon="7.266195213889179"><ele>814.0</ele><time>2026-05-02T10:31:25.998Z</time></trkpt><trkpt lat="44.858411918335" lon="7.265993993050221"><ele>815.8333333333333</ele><time>2026-05-02T10:31:27.998Z</time></trkpt><trkpt lat="44.8583989431691" lon="7.265882112441386"><ele>817.6666666666666</ele><time>2026-05-02T10:31:28.998Z</time></trkpt><trkpt lat="44.85839178272811" lon="7.265776832146486"><ele>819.5</ele><time>2026-05-02T10:31:29.998Z</time></trkpt><trkpt lat="44.858393636055304" lon="7.265682718696328"><ele>821.3333333333333</ele><time>2026-05-02T10:31:30.998Z</time></trkpt><trkpt lat="44.858407189561305" lon="7.265503842843397"><ele>823.1666666666666</ele><time>2026-05-02T10:31:32.998Z</time></trkpt><trkpt lat="44.858429241536925" lon="7.2654095321113115"><ele>825.0</ele><time>2026-05-02T10:31:33.998Z</time></trkpt><trkpt lat="44.858472435511715" lon="7.265286611904765"><ele>825.0</ele><time>2026-05-02T10:31:34.998Z</time></trkpt><trkpt lat="44.85850301224326" lon="7.26515804066841"><ele>825.0</ele><time>2026-05-02T10:31:35.998Z</time></trkpt><trkpt lat="44.858500940826474" lon="7.265032098202285"><ele>825.0</ele><time>2026-05-02T10:31:36.998Z</time></trkpt><trkpt lat="44.85847492979675" lon="7.26490946581553"><ele>825.0</ele><time>2026-05-02T10:31:37.998Z</time></trkpt><trkpt lat="44.85844420770243" lon="7.2647876221456045"><ele>825.0</ele><time>2026-05-02T10:31:38.998Z</time></trkpt><trkpt lat="44.85840194822216" lon="7.264674035191254"><ele>831.0</ele><time>2026-05-02T10:31:39.998Z</time></trkpt><trkpt lat="44.85835161582324" lon="7.264565038150623"><ele>837.0</ele><time>2026-05-02T10:31:40.998Z</time></trkpt><trkpt lat="44.85829059898203" lon="7.264457308377476"><ele>843.0</ele><time>2026-05-02T10:31:41.998Z</time></trkpt><trkpt lat="44.8582530011753" lon="7.2643485902817195"><ele>849.0</ele><time>2026-05-02T10:31:42.998Z</time></trkpt><trkpt lat="44.858229849171884" lon="7.264241581189954"><ele>855.0</ele><time>2026-05-02T10:31:43.998Z</time></trkpt><trkpt lat="44.85823463660305" lon="7.264130347353796"><ele>861.0</ele><time>2026-05-02T10:31:44.998Z</time></trkpt><trkpt lat="44.858249009204336" lon="7.264014883818036"><ele>862.0</ele><time>2026-05-02T10:31:45.998Z</time></trkpt><trkpt lat="44.858293234787716" lon="7.263918312174297"><ele>863.0</ele><time>2026-05-02T10:31:46.997Z</time></trkpt><trkpt lat="44.85837538143948" lon="7.263855330528384"><ele>864.0</ele><time>2026-05-02T10:31:47.997Z</time></trkpt><trkpt lat="44.85847763991895" lon="7.2638201905782065"><ele>865.0</ele><time>2026-05-02T10:31:48.997Z</time></trkpt><trkpt lat="44.858557585781526" lon="7.263797704172446"><ele>866.0</ele><time>2026-05-02T10:31:50Z</time></trkpt><trkpt lat="44.85863762789197" lon="7.263753977582128"><ele>867.0</ele><time>2026-05-02T10:31:51Z</time></trkpt><trkpt lat="44.85871549295563" lon="7.263644971116726"><ele>861.75</ele><time>2026-05-02T10:31:53Z</time></trkpt><trkpt lat="44.858747874061365" lon="7.263520642275991"><ele>856.5</ele><time>2026-05-02T10:31:55Z</time></trkpt><trkpt lat="44.85872008697894" lon="7.26335172646763"><ele>851.25</ele><time>2026-05-02T10:31:57Z</time></trkpt><trkpt lat="44.858688551931124" lon="7.263149506560358"><ele>846.0</ele><time>2026-05-02T10:31:59Z</time></trkpt><trkpt lat="44.85862376407132" lon="7.263015355202548"><ele>845.8</ele><time>2026-05-02T10:32:00Z</time></trkpt><trkpt lat="44.858550773556246" lon="7.26289987749434"><ele>845.5999999999999</ele><time>2026-05-02T10:32:01Z</time></trkpt><trkpt lat="44.8584524480191" lon="7.262840867165706"><ele>845.4</ele><time>2026-05-02T10:32:02Z</time></trkpt><trkpt lat="44.858343716510696" lon="7.262798939432394"><ele>845.2</ele><time>2026-05-02T10:32:03Z</time></trkpt><trkpt lat="44.85823585972649" lon="7.262791760539751"><ele>845.0</ele><time>2026-05-02T10:32:04Z</time></trkpt><trkpt lat="44.85812482071856" lon="7.262800386794419"><ele>845.0</ele><time>2026-05-02T10:32:05Z</time></trkpt><trkpt lat="44.85801703342047" lon="7.262815618623989"><ele>845.0</ele><time>2026-05-02T10:32:06Z</time></trkpt><trkpt lat="44.857906138614474" lon="7.262851910805774"><ele>845.0</ele><time>2026-05-02T10:32:07Z</time></trkpt><trkpt lat="44.857764476541284" lon="7.2627799941174835"><ele>845.0</ele><time>2026-05-02T10:32:08Z</time></trkpt><trkpt lat="44.85765676947135" lon="7.2627116998267"><ele>846.4</ele><time>2026-05-02T10:32:09Z</time></trkpt><trkpt lat="44.85756824260269" lon="7.26258958256782"><ele>847.8</ele><time>2026-05-02T10:32:10Z</time></trkpt><trkpt lat="44.85749048043531" lon="7.262454287924893"><ele>849.2</ele><time>2026-05-02T10:32:12Z</time></trkpt><trkpt lat="44.85744324113299" lon="7.262350298777654"><ele>850.6</ele><time>2026-05-02T10:32:13Z</time></trkpt><trkpt lat="44.857395360449715" lon="7.262243190478936"><ele>852.0</ele><time>2026-05-02T10:32:14Z</time></trkpt><trkpt lat="44.85741928207583" lon="7.262082827476627"><ele>852.0</ele><time>2026-05-02T10:32:15Z</time></trkpt><trkpt lat="44.857442584971814" lon="7.261919864240568"><ele>852.0</ele><time>2026-05-02T10:32:16Z</time></trkpt><trkpt lat="44.85741227458699" lon="7.261797612823662"><ele>852.0</ele><time>2026-05-02T10:32:17Z</time></trkpt><trkpt lat="44.85738191359466" lon="7.261678736161525"><ele>852.0</ele><time>2026-05-02T10:32:18Z</time></trkpt><trkpt lat="44.857366819563005" lon="7.2615511086368505"><ele>852.0</ele><time>2026-05-02T10:32:18.999Z</time></trkpt><trkpt lat="44.857338943117405" lon="7.261429730855503"><ele>850.8</ele><time>2026-05-02T10:32:19.999Z</time></trkpt><trkpt lat="44.857316473233325" lon="7.2613066320836035"><ele>849.6</ele><time>2026-05-02T10:32:20.999Z</time></trkpt><trkpt lat="44.85730970378853" lon="7.261179329101037"><ele>848.4</ele><time>2026-05-02T10:32:21.999Z</time></trkpt><trkpt lat="44.85732763716099" lon="7.261050244764365"><ele>847.1999999999999</ele><time>2026-05-02T10:32:22.999Z</time></trkpt><trkpt lat="44.85733422798921" lon="7.260915323311096"><ele>846.0</ele><time>2026-05-02T10:32:23.999Z</time></trkpt><trkpt lat="44.85735591513127" lon="7.260779563894585"><ele>846.0</ele><time>2026-05-02T10:32:24.999Z</time></trkpt><trkpt lat="44.8573535784808" lon="7.260663105294485"><ele>846.0</ele><time>2026-05-02T10:32:25.999Z</time></trkpt><trkpt lat="44.857336428435225" lon="7.2605592158602015"><ele>846.0</ele><time>2026-05-02T10:32:26.999Z</time></trkpt><trkpt lat="44.85732002856345" lon="7.260426910870593"><ele>846.0</ele><time>2026-05-02T10:32:27.999Z</time></trkpt><trkpt lat="44.85730460303944" lon="7.2603114257272106"><ele>846.0</ele><time>2026-05-02T10:32:28.999Z</time></trkpt><trkpt lat="44.85728666373707" lon="7.2602151554895284"><ele>846.0</ele><time>2026-05-02T10:32:29.999Z</time></trkpt><trkpt lat="44.85720627462588" lon="7.260056181297525"><ele>847.0</ele><time>2026-05-02T10:32:31.999Z</time></trkpt><trkpt lat="44.85712243871253" lon="7.2599916218619605"><ele>848.0</ele><time>2026-05-02T10:32:32.999Z</time></trkpt><trkpt lat="44.85704183392884" lon="7.259955369045889"><ele>849.0</ele><time>2026-05-02T10:32:33.999Z</time></trkpt><trkpt lat="44.85696105911379" lon="7.259947067964051"><ele>850.0</ele><time>2026-05-02T10:32:34.999Z</time></trkpt><trkpt lat="44.85687566291905" lon="7.259953354591637"><ele>851.0</ele><time>2026-05-02T10:32:35.999Z</time></trkpt><trkpt lat="44.85677130928297" lon="7.2599971268518635"><ele>851.0</ele><time>2026-05-02T10:32:36.999Z</time></trkpt><trkpt lat="44.85666655237903" lon="7.260043005634373"><ele>851.0</ele><time>2026-05-02T10:32:37.999Z</time></trkpt><trkpt lat="44.85657064943004" lon="7.260093574009934"><ele>851.0</ele><time>2026-05-02T10:32:38.999Z</time></trkpt><trkpt lat="44.85651092698665" lon="7.260183808343812"><ele>851.0</ele><time>2026-05-02T10:32:39.999Z</time></trkpt><trkpt lat="44.856440842422515" lon="7.260263108551608"><ele>851.0</ele><time>2026-05-02T10:32:40.999Z</time></trkpt><trkpt lat="44.85636682808298" lon="7.260352240290425"><ele>851.0</ele><time>2026-05-02T10:32:41.999Z</time></trkpt><trkpt lat="44.8562856993798" lon="7.260453263377308"><ele>851.0</ele><time>2026-05-02T10:32:42.999Z</time></trkpt><trkpt lat="44.85621324954513" lon="7.260557824764338"><ele>851.0</ele><time>2026-05-02T10:32:43.999Z</time></trkpt><trkpt lat="44.85614342096362" lon="7.26066708046065"><ele>851.0</ele><time>2026-05-02T10:32:44.999Z</time></trkpt><trkpt lat="44.85606754644731" lon="7.260754163984264"><ele>851.0</ele><time>2026-05-02T10:32:45.999Z</time></trkpt><trkpt lat="44.85600535813232" lon="7.260839436774133"><ele>851.6666666666667</ele><time>2026-05-02T10:32:46.999Z</time></trkpt><trkpt lat="44.855937875851836" lon="7.260901259984371"><ele>852.3333333333334</ele><time>2026-05-02T10:32:47.999Z</time></trkpt><trkpt lat="44.85584938460781" lon="7.2609362351782405"><ele>853.0</ele><time>2026-05-02T10:32:48.999Z</time></trkpt><trkpt lat="44.85577112188319" lon="7.260968335536103"><ele>853.6666666666667</ele><time>2026-05-02T10:32:49.999Z</time></trkpt><trkpt lat="44.85569779821827" lon="7.260969950328375"><ele>854.3333333333334</ele><time>2026-05-02T10:32:50.999Z</time></trkpt><trkpt lat="44.855628837466426" lon="7.260947998104822"><ele>855.0</ele><time>2026-05-02T10:32:51.999Z</time></trkpt><trkpt lat="44.85558394229891" lon="7.260876655352639"><ele>855.0</ele><time>2026-05-02T10:32:52.999Z</time></trkpt><trkpt lat="44.85552528806984" lon="7.260798956742876"><ele>855.0</ele><time>2026-05-02T10:32:53.999Z</time></trkpt><trkpt lat="44.85544730219871" lon="7.260718883721072"><ele>855.0</ele><time>2026-05-02T10:32:54.999Z</time></trkpt><trkpt lat="44.85538506180489" lon="7.260592904187177"><ele>855.0</ele><time>2026-05-02T10:32:55.999Z</time></trkpt><trkpt lat="44.8553043845032" lon="7.260465949595029"><ele>855.0</ele><time>2026-05-02T10:32:56.999Z</time></trkpt><trkpt lat="44.85523474396789" lon="7.260339087453985"><ele>855.4</ele><time>2026-05-02T10:32:57.999Z</time></trkpt><trkpt lat="44.85517825909933" lon="7.260216375066477"><ele>855.8</ele><time>2026-05-02T10:32:58.999Z</time></trkpt><trkpt lat="44.855129295461104" lon="7.260082223396647"><ele>856.2</ele><time>2026-05-02T10:32:59.999Z</time></trkpt><trkpt lat="44.855079254850786" lon="7.259925181769823"><ele>856.6</ele><time>2026-05-02T10:33:00.999Z</time></trkpt><trkpt lat="44.855023396648996" lon="7.2597895314290195"><ele>857.0</ele><time>2026-05-02T10:33:01.999Z</time></trkpt><trkpt lat="44.85498519298835" lon="7.259659575472785"><ele>854.6</ele><time>2026-05-02T10:33:02.999Z</time></trkpt><trkpt lat="44.85492978927855" lon="7.25953743075779"><ele>852.2</ele><time>2026-05-02T10:33:03.999Z</time></trkpt><trkpt lat="44.85486580699531" lon="7.259427361037844"><ele>849.8</ele><time>2026-05-02T10:33:04.999Z</time></trkpt><trkpt lat="44.85481073288309" lon="7.259310761781239"><ele>847.4</ele><time>2026-05-02T10:33:05.998Z</time></trkpt><trkpt lat="44.85475366544754" lon="7.259242370151626"><ele>845.0</ele><time>2026-05-02T10:33:06.998Z</time></trkpt><trkpt lat="44.854692890923765" lon="7.2591670201464025"><ele>845.0000000000001</ele><time>2026-05-02T10:33:07.998Z</time></trkpt><trkpt lat="44.85464911801107" lon="7.259085632580209"><ele>845.0</ele><time>2026-05-02T10:33:08.998Z</time></trkpt><trkpt lat="44.85463072379568" lon="7.258978744665688"><ele>845.0</ele><time>2026-05-02T10:33:09.998Z</time></trkpt><trkpt lat="44.85465208453007" lon="7.258852998345896"><ele>845.0</ele><time>2026-05-02T10:33:10.998Z</time></trkpt><trkpt lat="44.8546882237861" lon="7.258726894995815"><ele>845.0000000000001</ele><time>2026-05-02T10:33:11.998Z</time></trkpt><trkpt lat="44.8547176408973" lon="7.258601430454524"><ele>845.0</ele><time>2026-05-02T10:33:12.998Z</time></trkpt><trkpt lat="44.854711127520524" lon="7.258463493446539"><ele>844.4</ele><time>2026-05-02T10:33:13.998Z</time></trkpt><trkpt lat="44.85467056427976" lon="7.258336574993646"><ele>843.8</ele><time>2026-05-02T10:33:14.998Z</time></trkpt><trkpt lat="44.85462388498853" lon="7.258215567375956"><ele>843.2</ele><time>2026-05-02T10:33:15.998Z</time></trkpt><trkpt lat="44.854575938478725" lon="7.258098663373182"><ele>842.6</ele><time>2026-05-02T10:33:16.998Z</time></trkpt><trkpt lat="44.854552207390036" lon="7.2579822069179905"><ele>842.0</ele><time>2026-05-02T10:33:17.998Z</time></trkpt><trkpt lat="44.85453462309736" lon="7.2578651294216"><ele>840.6</ele><time>2026-05-02T10:33:18.998Z</time></trkpt><trkpt lat="44.85451164142987" lon="7.257736702194767"><ele>839.2</ele><time>2026-05-02T10:33:19.998Z</time></trkpt><trkpt lat="44.854476695819706" lon="7.2576105887352345"><ele>837.8</ele><time>2026-05-02T10:33:20.998Z</time></trkpt><trkpt lat="44.854432473744296" lon="7.25750328043963"><ele>836.4</ele><time>2026-05-02T10:33:21.998Z</time></trkpt><trkpt lat="44.854387751087266" lon="7.2573979669607125"><ele>835.0</ele><time>2026-05-02T10:33:22.998Z</time></trkpt><trkpt lat="44.85434094396685" lon="7.257296328502195"><ele>833.6666666666666</ele><time>2026-05-02T10:33:23.998Z</time></trkpt><trkpt lat="44.854293561136515" lon="7.257200614837849"><ele>832.3333333333333</ele><time>2026-05-02T10:33:24.998Z</time></trkpt><trkpt lat="44.85425842272013" lon="7.257103746610976"><ele>831.0</ele><time>2026-05-02T10:33:25.998Z</time></trkpt><trkpt lat="44.85422287892867" lon="7.257011955470385"><ele>829.6666666666667</ele><time>2026-05-02T10:33:26.998Z</time></trkpt><trkpt lat="44.854186570790475" lon="7.256903518028229"><ele>828.3333333333334</ele><time>2026-05-02T10:33:27.998Z</time></trkpt><trkpt lat="44.85414604863711" lon="7.256782645295133"><ele>827.0</ele><time>2026-05-02T10:33:28.998Z</time></trkpt><trkpt lat="44.854105224926634" lon="7.256661665521304"><ele>830.8333333333334</ele><time>2026-05-02T10:33:29.998Z</time></trkpt><trkpt lat="44.854069003820655" lon="7.256547562761532"><ele>834.6666666666667</ele><time>2026-05-02T10:33:30.998Z</time></trkpt><trkpt lat="44.85404250937078" lon="7.256425991836098"><ele>838.5</ele><time>2026-05-02T10:33:31.998Z</time></trkpt><trkpt lat="44.85402202778791" lon="7.256314334059184"><ele>842.3333333333333</ele><time>2026-05-02T10:33:32.998Z</time></trkpt><trkpt lat="44.853998651142064" lon="7.256204995248973"><ele>846.1666666666666</ele><time>2026-05-02T10:33:33.998Z</time></trkpt><trkpt lat="44.85397133403861" lon="7.2560972187385975"><ele>850.0</ele><time>2026-05-02T10:33:34.998Z</time></trkpt><trkpt lat="44.8539376216188" lon="7.255999329646674"><ele>850.6666666666666</ele><time>2026-05-02T10:33:35.998Z</time></trkpt><trkpt lat="44.85390975647901" lon="7.255919194564406"><ele>851.3333333333333</ele><time>2026-05-02T10:33:36.998Z</time></trkpt><trkpt lat="44.85389036525873" lon="7.255799000493024"><ele>852.0</ele><time>2026-05-02T10:33:37.998Z</time></trkpt><trkpt lat="44.853882058642036" lon="7.255635816187998"><ele>852.6666666666667</ele><time>2026-05-02T10:33:39.998Z</time></trkpt><trkpt lat="44.853887978462446" lon="7.255493542138413"><ele>853.3333333333334</ele><time>2026-05-02T10:33:41.998Z</time></trkpt><trkpt lat="44.8538629767982" lon="7.2553962874059925"><ele>854.0</ele><time>2026-05-02T10:33:44.998Z</time></trkpt><trkpt lat="44.85383809408" lon="7.255267733462659"><ele>853.4000000000001</ele><time>2026-05-02T10:33:46.998Z</time></trkpt><trkpt lat="44.85385457361298" lon="7.255140830901556"><ele>852.8000000000001</ele><time>2026-05-02T10:33:48.998Z</time></trkpt><trkpt lat="44.85386017637516" lon="7.255022180054853"><ele>852.2</ele><time>2026-05-02T10:33:50.998Z</time></trkpt><trkpt lat="44.853880091678185" lon="7.2549204870674675"><ele>851.5999999999999</ele><time>2026-05-02T10:33:52.997Z</time></trkpt><trkpt lat="44.853949729718295" lon="7.25474666551986"><ele>851.0</ele><time>2026-05-02T10:33:54.997Z</time></trkpt><trkpt lat="44.85398190920743" lon="7.254660525645799"><ele>851.0</ele><time>2026-05-02T10:33:56Z</time></trkpt><trkpt lat="44.85402777257185" lon="7.254540689116033"><ele>851.0</ele><time>2026-05-02T10:33:57Z</time></trkpt><trkpt lat="44.854063114105074" lon="7.254370439233352"><ele>851.0</ele><time>2026-05-02T10:33:58Z</time></trkpt><trkpt lat="44.85411497784338" lon="7.25421318831767"><ele>851.0</ele><time>2026-05-02T10:33:59Z</time></trkpt><trkpt lat="44.85415614472771" lon="7.254043044538547"><ele>851.0</ele><time>2026-05-02T10:34:00Z</time></trkpt><trkpt lat="44.85417574871663" lon="7.253874602660832"><ele>851.0</ele><time>2026-05-02T10:34:01Z</time></trkpt><trkpt lat="44.854183817610064" lon="7.253693564324757"><ele>851.0</ele><time>2026-05-02T10:34:02Z</time></trkpt><trkpt lat="44.854181305981335" lon="7.253496632181812"><ele>851.0</ele><time>2026-05-02T10:34:03Z</time></trkpt><trkpt lat="44.85415521557908" lon="7.253281503650137"><ele>853.3333333333334</ele><time>2026-05-02T10:34:04Z</time></trkpt><trkpt lat="44.854119992503215" lon="7.253030790838281"><ele>855.6666666666667</ele><time>2026-05-02T10:34:05Z</time></trkpt><trkpt lat="44.85405390741217" lon="7.252788205387671"><ele>858.0</ele><time>2026-05-02T10:34:06Z</time></trkpt><trkpt lat="44.854009450026425" lon="7.252579406478113"><ele>858.0</ele><time>2026-05-02T10:34:07Z</time></trkpt><trkpt lat="44.85398936967884" lon="7.252440891589168"><ele>858.0</ele><time>2026-05-02T10:34:08Z</time></trkpt><trkpt lat="44.85398973600372" lon="7.252216598133164"><ele>858.0</ele><time>2026-05-02T10:34:09Z</time></trkpt><trkpt lat="44.85403343122589" lon="7.252139509867326"><ele>858.0</ele><time>2026-05-02T10:34:10Z</time></trkpt><trkpt lat="44.85407828994839" lon="7.25196716288212"><ele>857.25</ele><time>2026-05-02T10:34:11Z</time></trkpt><trkpt lat="44.85415147052988" lon="7.251831297424083"><ele>856.5</ele><time>2026-05-02T10:34:12Z</time></trkpt><trkpt lat="44.85424275689548" lon="7.251658978911843"><ele>855.75</ele><time>2026-05-02T10:34:13Z</time></trkpt><trkpt lat="44.8543473829773" lon="7.25152409920106"><ele>855.0</ele><time>2026-05-02T10:34:14Z</time></trkpt><trkpt lat="44.854468148219134" lon="7.251387782398871"><ele>855.0</ele><time>2026-05-02T10:34:15Z</time></trkpt><trkpt lat="44.854585553109644" lon="7.251268741162902"><ele>855.0</ele><time>2026-05-02T10:34:16Z</time></trkpt><trkpt lat="44.85464661550417" lon="7.251142447442081"><ele>855.0</ele><time>2026-05-02T10:34:17Z</time></trkpt><trkpt lat="44.8547019795877" lon="7.251038164023285"><ele>855.0</ele><time>2026-05-02T10:34:18Z</time></trkpt><trkpt lat="44.85473252671284" lon="7.250936527486487"><ele>855.0</ele><time>2026-05-02T10:34:19Z</time></trkpt><trkpt lat="44.85473536141325" lon="7.250844227459091"><ele>855.0</ele><time>2026-05-02T10:34:24.999Z</time></trkpt><trkpt lat="44.85478629910553" lon="7.250777266736694"><ele>855.0</ele><time>2026-05-02T10:34:28.999Z</time></trkpt><trkpt lat="44.85482621620006" lon="7.25085957767298"><ele>855.0</ele><time>2026-05-02T10:35:12.998Z</time></trkpt><trkpt lat="44.854840025450954" lon="7.250737467183902"><ele>855.0</ele><time>2026-05-02T11:45:49Z</time></trkpt><trkpt lat="44.85483328691037" lon="7.250638096650769"><ele>855.0</ele><time>2026-05-02T11:45:50Z</time></trkpt><trkpt lat="44.854822801994786" lon="7.250537420090042"><ele>855.0</ele><time>2026-05-02T11:45:51Z</time></trkpt><trkpt lat="44.85481533853627" lon="7.250413245556655"><ele>855.0</ele><time>2026-05-02T11:45:52Z</time></trkpt><trkpt lat="44.85480281160312" lon="7.25029871494375"><ele>855.0</ele><time>2026-05-02T11:45:53Z</time></trkpt><trkpt lat="44.854777292043664" lon="7.2501758818815745"><ele>855.0</ele><time>2026-05-02T11:45:55Z</time></trkpt><trkpt lat="44.85474011516673" lon="7.250100985544699"><ele>855.0</ele><time>2026-05-02T11:45:57Z</time></trkpt><trkpt lat="44.8546278624186" lon="7.249787087452166"><ele>857.0</ele><time>2026-05-02T11:45:58Z</time></trkpt><trkpt lat="44.85448781566926" lon="7.24972228741907"><ele>859.0</ele><time>2026-05-02T11:45:59Z</time></trkpt><trkpt lat="44.85441550885735" lon="7.2497070982159535"><ele>861.0</ele><time>2026-05-02T11:46:00Z</time></trkpt><trkpt lat="44.85431250608831" lon="7.249667091153391"><ele>863.0</ele><time>2026-05-02T11:46:01Z</time></trkpt><trkpt lat="44.854192087385854" lon="7.249607796493808"><ele>863.0000000000001</ele><time>2026-05-02T11:46:02Z</time></trkpt><trkpt lat="44.8541305626093" lon="7.2495661832825045"><ele>863.0</ele><time>2026-05-02T11:46:03Z</time></trkpt><trkpt lat="44.85404351200143" lon="7.249494983693936"><ele>863.0</ele><time>2026-05-02T11:46:04Z</time></trkpt><trkpt lat="44.85399730518845" lon="7.249424991253467"><ele>863.0</ele><time>2026-05-02T11:46:05Z</time></trkpt><trkpt lat="44.85393089404021" lon="7.249305813010046"><ele>863.0000000000001</ele><time>2026-05-02T11:46:07Z</time></trkpt><trkpt lat="44.853987805673576" lon="7.249261787194686"><ele>863.0</ele><time>2026-05-02T11:46:09Z</time></trkpt><trkpt lat="44.85399277490302" lon="7.249172697003423"><ele>863.0</ele><time>2026-05-02T11:46:10.999Z</time></trkpt><trkpt lat="44.854001509052274" lon="7.249063668056896"><ele>863.0</ele><time>2026-05-02T11:46:11.999Z</time></trkpt><trkpt lat="44.85399238268464" lon="7.24894963643292"><ele>863.0</ele><time>2026-05-02T11:46:12.999Z</time></trkpt><trkpt lat="44.853949841244656" lon="7.248845998720012"><ele>863.0</ele><time>2026-05-02T11:46:14.999Z</time></trkpt><trkpt lat="44.85324289655712" lon="7.248969343040202"><ele>858.8333333333334</ele><time>2026-05-02T11:46:15.999Z</time></trkpt><trkpt lat="44.853149459825254" lon="7.248996053919104"><ele>854.6666666666667</ele><time>2026-05-02T11:46:17.999Z</time></trkpt><trkpt lat="44.85305563389313" lon="7.248977839365684"><ele>850.5</ele><time>2026-05-02T11:46:19.999Z</time></trkpt><trkpt lat="44.852990060162334" lon="7.248983367368282"><ele>846.3333333333333</ele><time>2026-05-02T11:46:22.999Z</time></trkpt><trkpt lat="44.852917462009714" lon="7.248994607999727"><ele>842.1666666666666</ele><time>2026-05-02T11:46:25.999Z</time></trkpt><trkpt lat="44.85290918452922" lon="7.24908925973639"><ele>838.0</ele><time>2026-05-02T11:46:31.999Z</time></trkpt><trkpt lat="44.85287963648329" lon="7.249170966850081"><ele>838.0</ele><time>2026-05-02T11:46:41.999Z</time></trkpt><trkpt lat="44.85296828052279" lon="7.249272307582872"><ele>838.0</ele><time>2026-05-02T11:48:58.999Z</time></trkpt><trkpt lat="44.853063910671615" lon="7.24935430990813"><ele>838.0</ele><time>2026-05-02T11:49:00.999Z</time></trkpt><trkpt lat="44.853099401618586" lon="7.249440894690674"><ele>838.0</ele><time>2026-05-02T11:49:01.998Z</time></trkpt><trkpt lat="44.853142089930444" lon="7.249543075560756"><ele>838.0</ele><time>2026-05-02T11:49:02.998Z</time></trkpt><trkpt lat="44.85315648132848" lon="7.249661751038528"><ele>837.9999999999999</ele><time>2026-05-02T11:49:03.998Z</time></trkpt><trkpt lat="44.85316170324544" lon="7.2497820852517645"><ele>838.0</ele><time>2026-05-02T11:49:04.998Z</time></trkpt><trkpt lat="44.85315502682047" lon="7.249897028412522"><ele>838.0</ele><time>2026-05-02T11:49:05.998Z</time></trkpt><trkpt lat="44.85315931567515" lon="7.249997398444617"><ele>838.0</ele><time>2026-05-02T11:49:06.998Z</time></trkpt><trkpt lat="44.85318837565313" lon="7.250105832736311"><ele>837.9999999999999</ele><time>2026-05-02T11:49:07.998Z</time></trkpt><trkpt lat="44.85327012282457" lon="7.250211160049615"><ele>838.0</ele><time>2026-05-02T11:49:09.998Z</time></trkpt><trkpt lat="44.85335550464055" lon="7.250287034327382"><ele>839.25</ele><time>2026-05-02T11:49:10.998Z</time></trkpt><trkpt lat="44.85347673051365" lon="7.250332576557281"><ele>840.5</ele><time>2026-05-02T11:49:11.998Z</time></trkpt><trkpt lat="44.853582270764285" lon="7.250452376043104"><ele>841.75</ele><time>2026-05-02T11:49:12.998Z</time></trkpt><trkpt lat="44.85367100069674" lon="7.250590874429136"><ele>843.0</ele><time>2026-05-02T11:49:13.998Z</time></trkpt><trkpt lat="44.853735090982106" lon="7.250655817867426"><ele>843.0</ele><time>2026-05-02T11:49:14.998Z</time></trkpt><trkpt lat="44.853793950441656" lon="7.250707573256901"><ele>843.0</ele><time>2026-05-02T11:49:15.998Z</time></trkpt><trkpt lat="44.853821340517754" lon="7.250795729394477"><ele>843.0</ele><time>2026-05-02T11:49:16.998Z</time></trkpt><trkpt lat="44.85381276977437" lon="7.250895165788319"><ele>843.0</ele><time>2026-05-02T11:49:17.998Z</time></trkpt><trkpt lat="44.85376629944495" lon="7.251029536010617"><ele>843.0</ele><time>2026-05-02T11:49:18.998Z</time></trkpt><trkpt lat="44.85368421313859" lon="7.251136015635612"><ele>843.0</ele><time>2026-05-02T11:49:19.998Z</time></trkpt><trkpt lat="44.8535973758619" lon="7.251226151358606"><ele>843.0</ele><time>2026-05-02T11:49:20.998Z</time></trkpt><trkpt lat="44.85353637773831" lon="7.251401328354829"><ele>843.0</ele><time>2026-05-02T11:49:21.998Z</time></trkpt><trkpt lat="44.85349884680232" lon="7.251549669829206"><ele>843.0</ele><time>2026-05-02T11:49:22.998Z</time></trkpt><trkpt lat="44.85346060749846" lon="7.2516571106643255"><ele>843.0</ele><time>2026-05-02T11:49:24Z</time></trkpt><trkpt lat="44.85345254043151" lon="7.251761959371884"><ele>843.0</ele><time>2026-05-02T11:49:25Z</time></trkpt><trkpt lat="44.85346842764881" lon="7.251893134761053"><ele>844.4</ele><time>2026-05-02T11:49:26Z</time></trkpt><trkpt lat="44.85347099672324" lon="7.252016134583484"><ele>845.8</ele><time>2026-05-02T11:49:27Z</time></trkpt><trkpt lat="44.85347472147262" lon="7.2521341129247485"><ele>847.2</ele><time>2026-05-02T11:49:28Z</time></trkpt><trkpt lat="44.85347291593622" lon="7.252286243301056"><ele>848.6</ele><time>2026-05-02T11:49:29Z</time></trkpt><trkpt lat="44.853500159525936" lon="7.252443016171224"><ele>850.0</ele><time>2026-05-02T11:49:30Z</time></trkpt><trkpt lat="44.85353596730424" lon="7.25255185980548"><ele>852.0</ele><time>2026-05-02T11:49:31Z</time></trkpt><trkpt lat="44.85357445307864" lon="7.252666901510665"><ele>854.0</ele><time>2026-05-02T11:49:32Z</time></trkpt><trkpt lat="44.853702936141374" lon="7.252807514259695"><ele>856.0</ele><time>2026-05-02T11:49:33Z</time></trkpt><trkpt lat="44.8537805737193" lon="7.252961361574197"><ele>858.0</ele><time>2026-05-02T11:49:34Z</time></trkpt><trkpt lat="44.85384317335091" lon="7.253113789447743"><ele>856.5999999999999</ele><time>2026-05-02T11:49:35Z</time></trkpt><trkpt lat="44.85387929795914" lon="7.253233524402052"><ele>855.1999999999999</ele><time>2026-05-02T11:49:36Z</time></trkpt><trkpt lat="44.85392324495116" lon="7.253399071840377"><ele>853.8</ele><time>2026-05-02T11:49:37Z</time></trkpt><trkpt lat="44.85396832084648" lon="7.253555523234567"><ele>852.4</ele><time>2026-05-02T11:49:38Z</time></trkpt><trkpt lat="44.85399720166483" lon="7.253691560818895"><ele>851.0</ele><time>2026-05-02T11:49:39Z</time></trkpt><trkpt lat="44.85400907074236" lon="7.253827946782436"><ele>851.0</ele><time>2026-05-02T11:49:40Z</time></trkpt><trkpt lat="44.85401639444437" lon="7.25397697268058"><ele>851.0</ele><time>2026-05-02T11:49:41Z</time></trkpt><trkpt lat="44.85397667953676" lon="7.254144589121208"><ele>851.0</ele><time>2026-05-02T11:49:42Z</time></trkpt><trkpt lat="44.85402679159832" lon="7.254392802212046"><ele>851.0</ele><time>2026-05-02T11:49:43Z</time></trkpt><trkpt lat="44.85395527295383" lon="7.254581958452799"><ele>851.0</ele><time>2026-05-02T11:49:44Z</time></trkpt><trkpt lat="44.85390253631295" lon="7.254722196085651"><ele>851.0</ele><time>2026-05-02T11:49:45Z</time></trkpt><trkpt lat="44.85386212426402" lon="7.254826401726039"><ele>851.0</ele><time>2026-05-02T11:49:46Z</time></trkpt><trkpt lat="44.85381881736775" lon="7.25491196558096"><ele>851.0</ele><time>2026-05-02T11:50:01Z</time></trkpt><trkpt lat="44.853800843718794" lon="7.255048199309283"><ele>851.0</ele><time>2026-05-02T11:50:03Z</time></trkpt><trkpt lat="44.853818425085535" lon="7.255225973396187"><ele>851.5000000000001</ele><time>2026-05-02T11:50:05Z</time></trkpt><trkpt lat="44.853820158321106" lon="7.255322692864208"><ele>852.0</ele><time>2026-05-02T11:50:06Z</time></trkpt><trkpt lat="44.853836149009176" lon="7.2554249927175904"><ele>852.5</ele><time>2026-05-02T11:50:07Z</time></trkpt><trkpt lat="44.853833316198354" lon="7.255527643368756"><ele>853.0</ele><time>2026-05-02T11:50:08Z</time></trkpt><trkpt lat="44.85382977430865" lon="7.255620418427724"><ele>853.5000000000001</ele><time>2026-05-02T11:50:09Z</time></trkpt><trkpt lat="44.853818064674904" lon="7.255764337145473"><ele>854.0</ele><time>2026-05-02T11:50:11Z</time></trkpt><trkpt lat="44.85384824919675" lon="7.255853288294498"><ele>854.0</ele><time>2026-05-02T11:50:13Z</time></trkpt><trkpt lat="44.85366069834399" lon="7.255982995936441"><ele>854.0</ele><time>2026-05-02T11:50:17Z</time></trkpt><trkpt lat="44.853574143029675" lon="7.255997705422131"><ele>854.0</ele><time>2026-05-02T11:50:20.999Z</time></trkpt><trkpt lat="44.85345269086656" lon="7.256038065669215"><ele>854.0</ele><time>2026-05-02T11:50:23.999Z</time></trkpt><trkpt lat="44.85336837027586" lon="7.256068077498123"><ele>855.5</ele><time>2026-05-02T11:50:24.999Z</time></trkpt><trkpt lat="44.85325973581778" lon="7.256125398662028"><ele>857.0</ele><time>2026-05-02T11:50:25.999Z</time></trkpt><trkpt lat="44.85315490088873" lon="7.256216740469572"><ele>858.5</ele><time>2026-05-02T11:50:26.999Z</time></trkpt><trkpt lat="44.85304219858535" lon="7.256313517693463"><ele>860.0</ele><time>2026-05-02T11:50:27.999Z</time></trkpt><trkpt lat="44.85294463173546" lon="7.256456346640474"><ele>860.0</ele><time>2026-05-02T11:50:28.999Z</time></trkpt><trkpt lat="44.85289385014226" lon="7.256626667121236"><ele>860.0</ele><time>2026-05-02T11:50:29.999Z</time></trkpt><trkpt lat="44.852838572149" lon="7.256778486636033"><ele>860.0</ele><time>2026-05-02T11:50:30.999Z</time></trkpt><trkpt lat="44.85279905576744" lon="7.256892487353327"><ele>860.0</ele><time>2026-05-02T11:50:31.999Z</time></trkpt><trkpt lat="44.85277809353685" lon="7.2569787526078295"><ele>860.0</ele><time>2026-05-02T11:50:32.999Z</time></trkpt><trkpt lat="44.852720176208386" lon="7.257078695294319"><ele>860.0</ele><time>2026-05-02T11:50:34.999Z</time></trkpt><trkpt lat="44.852685066481065" lon="7.257164784374479"><ele>860.0</ele><time>2026-05-02T11:50:35.999Z</time></trkpt><trkpt lat="44.85262198677979" lon="7.257307732439328"><ele>860.0</ele><time>2026-05-02T11:50:36.999Z</time></trkpt><trkpt lat="44.8525609708702" lon="7.257473560295689"><ele>860.0</ele><time>2026-05-02T11:50:37.999Z</time></trkpt><trkpt lat="44.85253627345988" lon="7.257683595580737"><ele>864.0</ele><time>2026-05-02T11:50:38.999Z</time></trkpt><trkpt lat="44.852657576134675" lon="7.2579170398447825"><ele>868.0</ele><time>2026-05-02T11:50:39.999Z</time></trkpt><trkpt lat="44.852630410048114" lon="7.258023035916988"><ele>872.0</ele><time>2026-05-02T11:50:40.999Z</time></trkpt><trkpt lat="44.8525890862457" lon="7.258192788123719"><ele>876.0</ele><time>2026-05-02T11:50:42.999Z</time></trkpt><trkpt lat="44.85256852724169" lon="7.258277937404944"><ele>876.0</ele><time>2026-05-02T11:50:43.999Z</time></trkpt><trkpt lat="44.85253010559509" lon="7.258448752970225"><ele>876.0</ele><time>2026-05-02T11:50:45.999Z</time></trkpt><trkpt lat="44.85251090676934" lon="7.258544539922399"><ele>876.0</ele><time>2026-05-02T11:50:46.999Z</time></trkpt><trkpt lat="44.85249027714403" lon="7.258641238104649"><ele>876.0</ele><time>2026-05-02T11:50:47.999Z</time></trkpt><trkpt lat="44.85245951925639" lon="7.2587370952663655"><ele>876.0</ele><time>2026-05-02T11:50:48.999Z</time></trkpt><trkpt lat="44.85245373891103" lon="7.258848766215453"><ele>876.0</ele><time>2026-05-02T11:50:49.999Z</time></trkpt><trkpt lat="44.852439437095775" lon="7.259001212883326"><ele>877.0</ele><time>2026-05-02T11:50:50.999Z</time></trkpt><trkpt lat="44.85243174444091" lon="7.2591787032992015"><ele>877.9999999999999</ele><time>2026-05-02T11:50:51.999Z</time></trkpt><trkpt lat="44.85242540316287" lon="7.259328908196498"><ele>878.9999999999999</ele><time>2026-05-02T11:50:52.999Z</time></trkpt><trkpt lat="44.852417510266974" lon="7.259442165943773"><ele>880.0</ele><time>2026-05-02T11:50:53.999Z</time></trkpt><trkpt lat="44.85241326016907" lon="7.25953130020877"><ele>881.0</ele><time>2026-05-02T11:50:54.999Z</time></trkpt><trkpt lat="44.852402583963816" lon="7.259697156298251"><ele>882.5</ele><time>2026-05-02T11:50:56.999Z</time></trkpt><trkpt lat="44.85240260663882" lon="7.259847409834935"><ele>884.0</ele><time>2026-05-02T11:50:58.999Z</time></trkpt><trkpt lat="44.85256803747345" lon="7.259859975519043"><ele>885.5</ele><time>2026-05-02T11:51:00.999Z</time></trkpt><trkpt lat="44.85270808419273" lon="7.259871240636874"><ele>887.0</ele><time>2026-05-02T11:51:02.999Z</time></trkpt><trkpt lat="44.85277965631032" lon="7.25987422010463"><ele>888.0000000000001</ele><time>2026-05-02T11:51:03.999Z</time></trkpt><trkpt lat="44.85285166219951" lon="7.25987542787905"><ele>889.0</ele><time>2026-05-02T11:51:04.999Z</time></trkpt><trkpt lat="44.852928854177094" lon="7.259887819730314"><ele>890.0</ele><time>2026-05-02T11:51:05.999Z</time></trkpt><trkpt lat="44.85300706176698" lon="7.259892423290456"><ele>891.0</ele><time>2026-05-02T11:51:06.999Z</time></trkpt><trkpt lat="44.85310932431257" lon="7.259916279232234"><ele>892.0000000000001</ele><time>2026-05-02T11:51:08.998Z</time></trkpt><trkpt lat="44.85320365154639" lon="7.259934325920725"><ele>893.0</ele><time>2026-05-02T11:51:10.998Z</time></trkpt><trkpt lat="44.85329152756357" lon="7.259973110558377"><ele>893.0</ele><time>2026-05-02T11:51:12.998Z</time></trkpt><trkpt lat="44.853339906434684" lon="7.260130904518435"><ele>893.0</ele><time>2026-05-02T11:51:14.998Z</time></trkpt><trkpt lat="44.85344282350295" lon="7.260304012250118"><ele>893.0</ele><time>2026-05-02T11:51:16.998Z</time></trkpt><trkpt lat="44.85350994602446" lon="7.260425102855271"><ele>893.0</ele><time>2026-05-02T11:51:17.998Z</time></trkpt><trkpt lat="44.85356409792082" lon="7.260502939817867"><ele>893.5000000000001</ele><time>2026-05-02T11:51:18.998Z</time></trkpt><trkpt lat="44.85361720349558" lon="7.26058881280117"><ele>894.0</ele><time>2026-05-02T11:51:19.998Z</time></trkpt><trkpt lat="44.85367800822845" lon="7.260688713758548"><ele>894.5</ele><time>2026-05-02T11:51:20.998Z</time></trkpt><trkpt lat="44.85373483006228" lon="7.260786593608653"><ele>895.0</ele><time>2026-05-02T11:51:21.998Z</time></trkpt><trkpt lat="44.85378686774807" lon="7.2608843429427905"><ele>895.5000000000001</ele><time>2026-05-02T11:51:22.998Z</time></trkpt><trkpt lat="44.853837881491145" lon="7.260974715226339"><ele>896.0</ele><time>2026-05-02T11:51:23.998Z</time></trkpt><trkpt lat="44.85388734170696" lon="7.261052616343264"><ele>896.0000000000001</ele><time>2026-05-02T11:51:24.998Z</time></trkpt><trkpt lat="44.853940454150944" lon="7.261131812583579"><ele>896.0</ele><time>2026-05-02T11:51:25.998Z</time></trkpt><trkpt lat="44.85398700256742" lon="7.261209785579647"><ele>896.0</ele><time>2026-05-02T11:51:26.998Z</time></trkpt><trkpt lat="44.85405843137207" lon="7.261330733302962"><ele>896.0</ele><time>2026-05-02T11:51:28.998Z</time></trkpt><trkpt lat="44.85409326955396" lon="7.261485737084283"><ele>896.0000000000001</ele><time>2026-05-02T11:51:31Z</time></trkpt><trkpt lat="44.854085833993004" lon="7.261574692308194"><ele>896.0</ele><time>2026-05-02T11:51:32Z</time></trkpt><trkpt lat="44.854072765131676" lon="7.26174151160868"><ele>895.8</ele><time>2026-05-02T11:51:34Z</time></trkpt><trkpt lat="44.85409159262062" lon="7.261874518055379"><ele>895.5999999999999</ele><time>2026-05-02T11:51:36Z</time></trkpt><trkpt lat="44.85415870465631" lon="7.261920379277722"><ele>895.4</ele><time>2026-05-02T11:51:38Z</time></trkpt><trkpt lat="44.854269384398364" lon="7.261903114612546"><ele>895.2</ele><time>2026-05-02T11:51:40Z</time></trkpt><trkpt lat="44.85438097273816" lon="7.261906795270765"><ele>895.0</ele><time>2026-05-02T11:51:42Z</time></trkpt><trkpt lat="44.854451554115165" lon="7.261913726072944"><ele>895.0</ele><time>2026-05-02T11:51:45Z</time></trkpt><trkpt lat="44.85457541524601" lon="7.261947535265849"><ele>895.0</ele><time>2026-05-02T11:51:46Z</time></trkpt><trkpt lat="44.854708659188354" lon="7.261990803718659"><ele>895.0</ele><time>2026-05-02T11:51:48Z</time></trkpt><trkpt lat="44.85481241115247" lon="7.262036764981901"><ele>895.0</ele><time>2026-05-02T11:51:49Z</time></trkpt><trkpt lat="44.85490269052637" lon="7.262059777489215"><ele>894.9999999999999</ele><time>2026-05-02T11:51:50Z</time></trkpt><trkpt lat="44.85496922634735" lon="7.262068890022046"><ele>895.0</ele><time>2026-05-02T11:51:51Z</time></trkpt><trkpt lat="44.85504141145874" lon="7.26208967119636"><ele>895.0</ele><time>2026-05-02T11:51:52Z</time></trkpt><trkpt lat="44.855104217845124" lon="7.26213463837848"><ele>895.0</ele><time>2026-05-02T11:51:53Z</time></trkpt><trkpt lat="44.8551689589278" lon="7.262198161390679"><ele>894.9999999999999</ele><time>2026-05-02T11:51:54Z</time></trkpt><trkpt lat="44.85525311988311" lon="7.262278434761789"><ele>895.0</ele><time>2026-05-02T11:51:56Z</time></trkpt><trkpt lat="44.85531047693612" lon="7.262351945011034"><ele>896.9999999999999</ele><time>2026-05-02T11:51:58Z</time></trkpt><trkpt lat="44.855382066289266" lon="7.262396898262436"><ele>899.0</ele><time>2026-05-02T11:52:00Z</time></trkpt><trkpt lat="44.85544810298932" lon="7.262456451886262"><ele>901.0</ele><time>2026-05-02T11:52:02Z</time></trkpt><trkpt lat="44.85555119569357" lon="7.262525243066855"><ele>903.0</ele><time>2026-05-02T11:52:04Z</time></trkpt><trkpt lat="44.855626903623694" lon="7.262586286976013"><ele>904.9999999999999</ele><time>2026-05-02T11:52:06Z</time></trkpt><trkpt lat="44.85569035901417" lon="7.262551564051278"><ele>907.0</ele><time>2026-05-02T11:52:10Z</time></trkpt><trkpt lat="44.85580145278375" lon="7.262525667341302"><ele>907.0</ele><time>2026-05-02T11:52:13Z</time></trkpt><trkpt lat="44.855874076562095" lon="7.262451520124371"><ele>907.0</ele><time>2026-05-02T11:52:15Z</time></trkpt><trkpt lat="44.85596214829642" lon="7.262422774717463"><ele>907.0</ele><time>2026-05-02T11:52:17Z</time></trkpt><trkpt lat="44.85602155930171" lon="7.262373837660877"><ele>907.0</ele><time>2026-05-02T11:52:19Z</time></trkpt><trkpt lat="44.85625448199004" lon="7.2621691560361326"><ele>903.6666666666666</ele><time>2026-05-02T11:52:22Z</time></trkpt><trkpt lat="44.85631293223006" lon="7.26209557784"><ele>900.3333333333333</ele><time>2026-05-02T11:52:25Z</time></trkpt><trkpt lat="44.85636184915818" lon="7.262038887371021"><ele>897.0</ele><time>2026-05-02T11:52:25.999Z</time></trkpt><trkpt lat="44.85646377010253" lon="7.261963900240247"><ele>893.6666666666667</ele><time>2026-05-02T11:52:27.999Z</time></trkpt><trkpt lat="44.85653020400885" lon="7.261915740339231"><ele>890.3333333333334</ele><time>2026-05-02T11:52:28.999Z</time></trkpt><trkpt lat="44.85661727659884" lon="7.261899864508579"><ele>887.0</ele><time>2026-05-02T11:52:31.999Z</time></trkpt><trkpt lat="44.856698248982454" lon="7.2619386999737285"><ele>887.0000000000001</ele><time>2026-05-02T11:52:33.999Z</time></trkpt><trkpt lat="44.856718522873386" lon="7.262059181174689"><ele>887.0</ele><time>2026-05-02T11:52:36.999Z</time></trkpt><trkpt lat="44.85672168516861" lon="7.2621488368000335"><ele>887.0</ele><time>2026-05-02T11:52:38.999Z</time></trkpt><trkpt lat="44.856769703449096" lon="7.262304020760148"><ele>887.0</ele><time>2026-05-02T11:52:40.999Z</time></trkpt><trkpt lat="44.85678508510732" lon="7.262439245560529"><ele>887.0000000000001</ele><time>2026-05-02T11:52:41.999Z</time></trkpt><trkpt lat="44.856804212142116" lon="7.262537014418144"><ele>887.0</ele><time>2026-05-02T11:52:42.999Z</time></trkpt><trkpt lat="44.856828389774556" lon="7.262705552404406"><ele>886.8</ele><time>2026-05-02T11:52:43.999Z</time></trkpt><trkpt lat="44.85687275268219" lon="7.262822470986558"><ele>886.6</ele><time>2026-05-02T11:52:44.999Z</time></trkpt><trkpt lat="44.856910407535885" lon="7.262950989544434"><ele>886.3999999999999</ele><time>2026-05-02T11:52:45.999Z</time></trkpt><trkpt lat="44.85694820594316" lon="7.263063536092763"><ele>886.1999999999999</ele><time>2026-05-02T11:52:46.999Z</time></trkpt><trkpt lat="44.856994153932405" lon="7.263155879735918"><ele>886.0</ele><time>2026-05-02T11:52:47.999Z</time></trkpt><trkpt lat="44.85708002992305" lon="7.263284774590478"><ele>886.0</ele><time>2026-05-02T11:52:48.999Z</time></trkpt><trkpt lat="44.85714575082091" lon="7.263377133708668"><ele>885.9999999999999</ele><time>2026-05-02T11:52:49.999Z</time></trkpt><trkpt lat="44.8572034119431" lon="7.263464345574158"><ele>885.9999999999999</ele><time>2026-05-02T11:52:50.999Z</time></trkpt><trkpt lat="44.85729643706178" lon="7.263510974970699"><ele>886.0</ele><time>2026-05-02T11:52:51.999Z</time></trkpt><trkpt lat="44.85737879066402" lon="7.263560996531323"><ele>886.0</ele><time>2026-05-02T11:52:52.999Z</time></trkpt><trkpt lat="44.8574722283321" lon="7.263638424837437"><ele>885.9999999999999</ele><time>2026-05-02T11:52:54.999Z</time></trkpt><trkpt lat="44.85743147188005" lon="7.263725201257957"><ele>886.0</ele><time>2026-05-02T11:53:00.999Z</time></trkpt><trkpt lat="44.85733085515508" lon="7.263818650025047"><ele>886.0</ele><time>2026-05-02T11:53:02.999Z</time></trkpt><trkpt lat="44.8572631540231" lon="7.263901488639227"><ele>886.0</ele><time>2026-05-02T11:53:03.999Z</time></trkpt><trkpt lat="44.85722060386294" lon="7.264003034119583"><ele>885.9999999999999</ele><time>2026-05-02T11:53:04.999Z</time></trkpt><trkpt lat="44.85721665567295" lon="7.264096228379244"><ele>886.0</ele><time>2026-05-02T11:53:05.999Z</time></trkpt><trkpt lat="44.8572364113399" lon="7.264191854753055"><ele>888.25</ele><time>2026-05-02T11:53:06.999Z</time></trkpt><trkpt lat="44.85728129835815" lon="7.264305362324462"><ele>890.5</ele><time>2026-05-02T11:53:07.999Z</time></trkpt><trkpt lat="44.857320569914556" lon="7.264447358894137"><ele>892.75</ele><time>2026-05-02T11:53:08.999Z</time></trkpt><trkpt lat="44.857347804914504" lon="7.264603937893619"><ele>895.0</ele><time>2026-05-02T11:53:09.999Z</time></trkpt><trkpt lat="44.85739020248973" lon="7.264792078352007"><ele>895.4999999999999</ele><time>2026-05-02T11:53:10.999Z</time></trkpt><trkpt lat="44.857429452827894" lon="7.264917607279864"><ele>896.0</ele><time>2026-05-02T11:53:11.998Z</time></trkpt><trkpt lat="44.857450617047974" lon="7.265010572670602"><ele>896.5</ele><time>2026-05-02T11:53:12.998Z</time></trkpt><trkpt lat="44.85744869827325" lon="7.265121669644802"><ele>897.0</ele><time>2026-05-02T11:53:14.998Z</time></trkpt><trkpt lat="44.85741622374143" lon="7.2652014070811"><ele>897.4999999999999</ele><time>2026-05-02T11:53:15.998Z</time></trkpt><trkpt lat="44.857383589458834" lon="7.265289153564869"><ele>898.0</ele><time>2026-05-02T11:53:16.998Z</time></trkpt><trkpt lat="44.857350675629604" lon="7.265380314416105"><ele>898.0</ele><time>2026-05-02T11:53:17.998Z</time></trkpt><trkpt lat="44.85731029753522" lon="7.265466540389531"><ele>898.0</ele><time>2026-05-02T11:53:18.998Z</time></trkpt><trkpt lat="44.85725661630254" lon="7.265568798600728"><ele>898.0</ele><time>2026-05-02T11:53:19.998Z</time></trkpt><trkpt lat="44.857228496622724" lon="7.265699240521768"><ele>898.0</ele><time>2026-05-02T11:53:20.998Z</time></trkpt><trkpt lat="44.85722937066459" lon="7.26583881686595"><ele>898.0</ele><time>2026-05-02T11:53:21.998Z</time></trkpt><trkpt lat="44.85725833298255" lon="7.2660239469093195"><ele>897.75</ele><time>2026-05-02T11:53:22.998Z</time></trkpt><trkpt lat="44.857282238867654" lon="7.266233991047034"><ele>897.5</ele><time>2026-05-02T11:53:23.998Z</time></trkpt><trkpt lat="44.85729176472396" lon="7.266423941111123"><ele>897.25</ele><time>2026-05-02T11:53:24.998Z</time></trkpt><trkpt lat="44.857331193737984" lon="7.266547786619747"><ele>897.0</ele><time>2026-05-02T11:53:25.998Z</time></trkpt><trkpt lat="44.857400823259475" lon="7.266676932194134"><ele>897.4000000000001</ele><time>2026-05-02T11:53:26.998Z</time></trkpt><trkpt lat="44.85744506605856" lon="7.266835403836657"><ele>897.8000000000001</ele><time>2026-05-02T11:53:27.998Z</time></trkpt><trkpt lat="44.857468995555664" lon="7.266932152999102"><ele>898.2</ele><time>2026-05-02T11:53:28.998Z</time></trkpt><trkpt lat="44.857489086009316" lon="7.2670304240969825"><ele>898.6</ele><time>2026-05-02T11:53:29.998Z</time></trkpt><trkpt lat="44.857512168296594" lon="7.267243377223802"><ele>899.0</ele><time>2026-05-02T11:53:31.998Z</time></trkpt><trkpt lat="44.85750851031997" lon="7.267343785853124"><ele>900.5000000000001</ele><time>2026-05-02T11:53:32.998Z</time></trkpt><trkpt lat="44.85752709071044" lon="7.267490482425807"><ele>902.0</ele><time>2026-05-02T11:53:33.998Z</time></trkpt><trkpt lat="44.85753559111864" lon="7.267605538179213"><ele>903.5</ele><time>2026-05-02T11:53:34.998Z</time></trkpt><trkpt lat="44.857604245005895" lon="7.267662764434573"><ele>905.0</ele><time>2026-05-02T11:53:36Z</time></trkpt><trkpt lat="44.85766780487537" lon="7.267720101273134"><ele>906.5000000000001</ele><time>2026-05-02T11:53:37Z</time></trkpt><trkpt lat="44.85772872968253" lon="7.267798868683032"><ele>908.0</ele><time>2026-05-02T11:53:38Z</time></trkpt><trkpt lat="44.85778931502504" lon="7.267875919400181"><ele>902.0000000000001</ele><time>2026-05-02T11:53:39Z</time></trkpt><trkpt lat="44.85784506186069" lon="7.267947912598016"><ele>896.0</ele><time>2026-05-02T11:53:40Z</time></trkpt><trkpt lat="44.857892623753976" lon="7.26803032728863"><ele>890.0</ele><time>2026-05-02T11:53:41Z</time></trkpt><trkpt lat="44.85793949735844" lon="7.268111473413909"><ele>884.0</ele><time>2026-05-02T11:53:42Z</time></trkpt><trkpt lat="44.85799656596502" lon="7.2681868617290775"><ele>878.0000000000001</ele><time>2026-05-02T11:53:43Z</time></trkpt><trkpt lat="44.85806327223104" lon="7.268277795113101"><ele>872.0</ele><time>2026-05-02T11:53:44Z</time></trkpt><trkpt lat="44.858114683985306" lon="7.2683465743543225"><ele>872.0000000000001</ele><time>2026-05-02T11:53:45Z</time></trkpt><trkpt lat="44.85820093293151" lon="7.268432697666113"><ele>872.0</ele><time>2026-05-02T11:53:47Z</time></trkpt><trkpt lat="44.85824272061787" lon="7.268499857567885"><ele>872.0</ele><time>2026-05-02T11:53:48Z</time></trkpt><trkpt lat="44.85829313216183" lon="7.268558069188457"><ele>872.0</ele><time>2026-05-02T11:53:49Z</time></trkpt><trkpt lat="44.85833998914634" lon="7.26862132549833"><ele>872.0000000000001</ele><time>2026-05-02T11:53:50Z</time></trkpt><trkpt lat="44.85842478896877" lon="7.268750658858341"><ele>872.0</ele><time>2026-05-02T11:53:52Z</time></trkpt><trkpt lat="44.858490502075654" lon="7.2688747434204055"><ele>871.6666666666667</ele><time>2026-05-02T11:53:54Z</time></trkpt><trkpt lat="44.85851862422655" lon="7.268962658525184"><ele>871.3333333333334</ele><time>2026-05-02T11:53:55Z</time></trkpt><trkpt lat="44.858573057165266" lon="7.269094022848127"><ele>871.0</ele><time>2026-05-02T11:53:57Z</time></trkpt><trkpt lat="44.85862747510548" lon="7.269221120543013"><ele>870.6666666666667</ele><time>2026-05-02T11:53:59Z</time></trkpt><trkpt lat="44.858571474616554" lon="7.269295250469441"><ele>870.3333333333334</ele><time>2026-05-02T11:54:03Z</time></trkpt><trkpt lat="44.858500263181334" lon="7.269359493110448"><ele>870.0</ele><time>2026-05-02T11:54:07Z</time></trkpt><trkpt lat="44.85821568874569" lon="7.269555517065781"><ele>870.0</ele><time>2026-05-02T11:54:09Z</time></trkpt><trkpt lat="44.858116626017846" lon="7.269576352122042"><ele>870.0</ele><time>2026-05-02T11:54:10Z</time></trkpt><trkpt lat="44.85801598337743" lon="7.269593698880074"><ele>870.0</ele><time>2026-05-02T11:54:11Z</time></trkpt><trkpt lat="44.85789126662164" lon="7.26958632401553"><ele>870.0</ele><time>2026-05-02T11:54:12Z</time></trkpt><trkpt lat="44.85778574615183" lon="7.2695814233518785"><ele>870.0</ele><time>2026-05-02T11:54:13Z</time></trkpt><trkpt lat="44.85769495370629" lon="7.269581698162465"><ele>874.5</ele><time>2026-05-02T11:54:14Z</time></trkpt><trkpt lat="44.85758145460695" lon="7.269568226247068"><ele>879.0</ele><time>2026-05-02T11:54:15Z</time></trkpt><trkpt lat="44.857463834985374" lon="7.269506723765755"><ele>883.5</ele><time>2026-05-02T11:54:16Z</time></trkpt><trkpt lat="44.857315979588115" lon="7.269383605494228"><ele>888.0</ele><time>2026-05-02T11:54:17Z</time></trkpt><trkpt lat="44.857215747836314" lon="7.269346733265994"><ele>888.0</ele><time>2026-05-02T11:54:18Z</time></trkpt><trkpt lat="44.857109126663524" lon="7.269419718122727"><ele>888.0</ele><time>2026-05-02T11:54:20Z</time></trkpt><trkpt lat="44.857034334054894" lon="7.269489393991747"><ele>888.0</ele><time>2026-05-02T11:54:21Z</time></trkpt><trkpt lat="44.85695046186711" lon="7.269527932762541"><ele>888.0</ele><time>2026-05-02T11:54:22Z</time></trkpt><trkpt lat="44.85684848644493" lon="7.269595943879105"><ele>888.0</ele><time>2026-05-02T11:54:23Z</time></trkpt><trkpt lat="44.8567514522257" lon="7.2696897474413635"><ele>890.0</ele><time>2026-05-02T11:54:24Z</time></trkpt><trkpt lat="44.85668234462655" lon="7.26974524472432"><ele>892.0</ele><time>2026-05-02T11:54:25Z</time></trkpt><trkpt lat="44.85660927675215" lon="7.26975491727773"><ele>894.0</ele><time>2026-05-02T11:54:26Z</time></trkpt><trkpt lat="44.85652937940235" lon="7.269778632075214"><ele>896.0</ele><time>2026-05-02T11:54:27Z</time></trkpt><trkpt lat="44.85643264795683" lon="7.269791458710796"><ele>898.0</ele><time>2026-05-02T11:54:27.999Z</time></trkpt><trkpt lat="44.85633620975913" lon="7.269802951490617"><ele>900.0</ele><time>2026-05-02T11:54:28.999Z</time></trkpt><trkpt lat="44.85625387813534" lon="7.269820281359486"><ele>891.75</ele><time>2026-05-02T11:54:29.999Z</time></trkpt><trkpt lat="44.85612362395378" lon="7.269813480915431"><ele>883.5</ele><time>2026-05-02T11:54:30.999Z</time></trkpt><trkpt lat="44.85598517510908" lon="7.26980473223169"><ele>875.25</ele><time>2026-05-02T11:54:31.999Z</time></trkpt><trkpt lat="44.85585674139176" lon="7.269813732356192"><ele>867.0</ele><time>2026-05-02T11:54:32.999Z</time></trkpt><trkpt lat="44.85572555682558" lon="7.269850299601468"><ele>867.0</ele><time>2026-05-02T11:54:33.999Z</time></trkpt><trkpt lat="44.85558925470236" lon="7.269872472809328"><ele>867.0</ele><time>2026-05-02T11:54:34.999Z</time></trkpt><trkpt lat="44.85544144783272" lon="7.2699032584347645"><ele>867.0</ele><time>2026-05-02T11:54:35.999Z</time></trkpt><trkpt lat="44.85534264732543" lon="7.269925253606232"><ele>867.0</ele><time>2026-05-02T11:54:36.999Z</time></trkpt><trkpt lat="44.85527164841516" lon="7.269926026962818"><ele>867.0</ele><time>2026-05-02T11:54:37.999Z</time></trkpt><trkpt lat="44.85514940413023" lon="7.269959321094891"><ele>867.0</ele><time>2026-05-02T11:54:38.999Z</time></trkpt><trkpt lat="44.85505400286854" lon="7.269971508059056"><ele>867.0</ele><time>2026-05-02T11:54:39.999Z</time></trkpt><trkpt lat="44.85494988638479" lon="7.269985011047929"><ele>867.0</ele><time>2026-05-02T11:54:40.999Z</time></trkpt><trkpt lat="44.85485679208656" lon="7.269950277497374"><ele>867.0</ele><time>2026-05-02T11:54:41.999Z</time></trkpt><trkpt lat="44.85474808250492" lon="7.269958046784456"><ele>867.5</ele><time>2026-05-02T11:54:42.999Z</time></trkpt><trkpt lat="44.85464046421328" lon="7.269972588429118"><ele>868.0</ele><time>2026-05-02T11:54:43.999Z</time></trkpt><trkpt lat="44.854573177345294" lon="7.269970255059936"><ele>868.5</ele><time>2026-05-02T11:54:44.999Z</time></trkpt><trkpt lat="44.85448532713076" lon="7.269959422078548"><ele>869.0</ele><time>2026-05-02T11:54:47.999Z</time></trkpt><trkpt lat="44.85439878377118" lon="7.269949441900591"><ele>869.5</ele><time>2026-05-02T11:54:49.999Z</time></trkpt><trkpt lat="44.85445536887503" lon="7.270057039628406"><ele>870.0</ele><time>2026-05-02T11:54:52.999Z</time></trkpt><trkpt lat="44.85450654096747" lon="7.270004062290378"><ele>870.0000000000001</ele><time>2026-05-02T11:54:55.999Z</time></trkpt><trkpt lat="44.85447388623471" lon="7.269920791744755"><ele>870.0</ele><time>2026-05-02T11:54:59.999Z</time></trkpt><trkpt lat="44.85445034324048" lon="7.2700059209850405"><ele>870.0</ele><time>2026-05-02T11:55:02.999Z</time></trkpt><trkpt lat="44.854518864737535" lon="7.270027273652407"><ele>870.0</ele><time>2026-05-02T11:55:16.998Z</time></trkpt><trkpt lat="44.85454232306448" lon="7.26994208504723"><ele>870.0</ele><time>2026-05-02T11:55:24.998Z</time></trkpt><trkpt lat="44.85447621469716" lon="7.269980316032414"><ele>870.0000000000001</ele><time>2026-05-02T11:55:29.998Z</time></trkpt><trkpt lat="44.85453079752415" lon="7.270041302349492"><ele>870.0</ele><time>2026-05-02T11:55:35.998Z</time></trkpt><trkpt lat="44.85453761976164" lon="7.269947043138874"><ele>870.0</ele><time>2026-05-02T11:55:42Z</time></trkpt><trkpt lat="44.854469436194904" lon="7.270008582093476"><ele>870.0</ele><time>2026-05-02T11:55:45Z</time></trkpt><trkpt lat="44.85454847765122" lon="7.270122363725193"><ele>870.0</ele><time>2026-05-02T11:55:47Z</time></trkpt><trkpt lat="44.85461762073067" lon="7.2702084722887905"><ele>870.0</ele><time>2026-05-02T11:55:48Z</time></trkpt><trkpt lat="44.85469254328393" lon="7.270332088391007"><ele>870.0</ele><time>2026-05-02T11:55:49Z</time></trkpt><trkpt lat="44.854733142192366" lon="7.27045121310348"><ele>870.0</ele><time>2026-05-02T11:55:50Z</time></trkpt><trkpt lat="44.85475041579834" lon="7.270544438636833"><ele>870.0</ele><time>2026-05-02T11:55:51Z</time></trkpt><trkpt lat="44.85472933686748" lon="7.270655321858257"><ele>870.0</ele><time>2026-05-02T11:55:53Z</time></trkpt><trkpt lat="44.85464675952751" lon="7.270720995520256"><ele>870.0</ele><time>2026-05-02T11:55:55Z</time></trkpt><trkpt lat="44.85460800536584" lon="7.2708257718120795"><ele>870.0</ele><time>2026-05-02T11:55:56Z</time></trkpt><trkpt lat="44.85457816811871" lon="7.270930916818011"><ele>870.0</ele><time>2026-05-02T11:55:57Z</time></trkpt><trkpt lat="44.85453883639691" lon="7.271032821347358"><ele>868.1666666666666</ele><time>2026-05-02T11:55:58Z</time></trkpt><trkpt lat="44.8545065811136" lon="7.271112615913333"><ele>866.3333333333333</ele><time>2026-05-02T11:55:59Z</time></trkpt><trkpt lat="44.85444056066804" lon="7.271181405403158"><ele>864.5</ele><time>2026-05-02T11:56:00Z</time></trkpt><trkpt lat="44.85437497393452" lon="7.2712779974480615"><ele>862.6666666666666</ele><time>2026-05-02T11:56:01Z</time></trkpt><trkpt lat="44.85432430327877" lon="7.271390120948026"><ele>860.8333333333333</ele><time>2026-05-02T11:56:02Z</time></trkpt><trkpt lat="44.85427370004508" lon="7.271473425327899"><ele>859.0</ele><time>2026-05-02T11:56:03Z</time></trkpt><trkpt lat="44.85420403994017" lon="7.2715466207427655"><ele>859.0</ele><time>2026-05-02T11:56:04Z</time></trkpt><trkpt lat="44.854109996816454" lon="7.271607898677315"><ele>859.0000000000001</ele><time>2026-05-02T11:56:05Z</time></trkpt><trkpt lat="44.854003957090846" lon="7.271651744270025"><ele>859.0000000000001</ele><time>2026-05-02T11:56:06Z</time></trkpt><trkpt lat="44.85390462986955" lon="7.271705803264008"><ele>859.0</ele><time>2026-05-02T11:56:07Z</time></trkpt><trkpt lat="44.8538139891973" lon="7.271794872703793"><ele>859.0</ele><time>2026-05-02T11:56:08Z</time></trkpt><trkpt lat="44.853742605544724" lon="7.2718949200605865"><ele>859.0</ele><time>2026-05-02T11:56:09Z</time></trkpt><trkpt lat="44.85368219887336" lon="7.271993117013404"><ele>859.0000000000001</ele><time>2026-05-02T11:56:10Z</time></trkpt><trkpt lat="44.85359915038107" lon="7.272084264209182"><ele>859.0000000000001</ele><time>2026-05-02T11:56:11Z</time></trkpt><trkpt lat="44.853521482423105" lon="7.272175217909296"><ele>859.0</ele><time>2026-05-02T11:56:12Z</time></trkpt><trkpt lat="44.85345830053325" lon="7.272265377943895"><ele>859.0</ele><time>2026-05-02T11:56:13Z</time></trkpt><trkpt lat="44.85339067482874" lon="7.272362075753946"><ele>861.6</ele><time>2026-05-02T11:56:14Z</time></trkpt><trkpt lat="44.85331913910334" lon="7.2724395972131495"><ele>864.2</ele><time>2026-05-02T11:56:15Z</time></trkpt><trkpt lat="44.85324437338098" lon="7.272528137776485"><ele>866.8000000000001</ele><time>2026-05-02T11:56:16Z</time></trkpt><trkpt lat="44.85316170865919" lon="7.272625962283279"><ele>869.4000000000001</ele><time>2026-05-02T11:56:17Z</time></trkpt><trkpt lat="44.85310224585131" lon="7.272704476764232"><ele>872.0</ele><time>2026-05-02T11:56:18Z</time></trkpt><trkpt lat="44.853023232804986" lon="7.272807049744245"><ele>872.0000000000001</ele><time>2026-05-02T11:56:19Z</time></trkpt><trkpt lat="44.85297308426894" lon="7.272910644506076"><ele>872.0</ele><time>2026-05-02T11:56:20Z</time></trkpt><trkpt lat="44.85292891903875" lon="7.273014406452159"><ele>872.0</ele><time>2026-05-02T11:56:21Z</time></trkpt><trkpt lat="44.85288416016136" lon="7.273096900306461"><ele>872.0</ele><time>2026-05-02T11:56:22Z</time></trkpt><trkpt lat="44.85281785188201" lon="7.273175498101932"><ele>872.0000000000001</ele><time>2026-05-02T11:56:23Z</time></trkpt><trkpt lat="44.85273264497861" lon="7.273251699539315"><ele>872.0</ele><time>2026-05-02T11:56:24Z</time></trkpt><trkpt lat="44.8526503561687" lon="7.2733289160391825"><ele>872.8333333333334</ele><time>2026-05-02T11:56:25Z</time></trkpt><trkpt lat="44.85258136018288" lon="7.2734033936191205"><ele>873.6666666666667</ele><time>2026-05-02T11:56:26Z</time></trkpt><trkpt lat="44.85253287853502" lon="7.273471946462202"><ele>874.5</ele><time>2026-05-02T11:56:27Z</time></trkpt><trkpt lat="44.85245826491638" lon="7.273552993102214"><ele>875.3333333333333</ele><time>2026-05-02T11:56:29Z</time></trkpt><trkpt lat="44.85241504591007" lon="7.273652193479659"><ele>876.1666666666666</ele><time>2026-05-02T11:56:31Z</time></trkpt><trkpt lat="44.85236384988093" lon="7.273770662311264"><ele>877.0</ele><time>2026-05-02T11:56:32.999Z</time></trkpt><trkpt lat="44.852369194034864" lon="7.273879613745996"><ele>873.4000000000001</ele><time>2026-05-02T11:56:35.999Z</time></trkpt><trkpt lat="44.85237244601672" lon="7.27397592380881"><ele>869.8000000000001</ele><time>2026-05-02T11:56:37.999Z</time></trkpt><trkpt lat="44.852369828900486" lon="7.274065050797362"><ele>866.2</ele><time>2026-05-02T11:56:39.999Z</time></trkpt><trkpt lat="44.85240886492892" lon="7.274166423728666"><ele>862.6</ele><time>2026-05-02T11:56:42.999Z</time></trkpt><trkpt lat="44.85241627763911" lon="7.274264603878272"><ele>859.0</ele><time>2026-05-02T11:56:45.999Z</time></trkpt><trkpt lat="44.852663919779765" lon="7.274826710587256"><ele>855.3333333333333</ele><time>2026-05-02T11:56:47.999Z</time></trkpt><trkpt lat="44.852673951432905" lon="7.27495175329392"><ele>851.6666666666666</ele><time>2026-05-02T11:56:49.999Z</time></trkpt><trkpt lat="44.852642281078325" lon="7.275059786220405"><ele>848.0</ele><time>2026-05-02T11:56:51.999Z</time></trkpt><trkpt lat="44.85262099605991" lon="7.275163191292963"><ele>844.3333333333333</ele><time>2026-05-02T11:56:53.999Z</time></trkpt><trkpt lat="44.85260121101309" lon="7.27527333215107"><ele>840.6666666666666</ele><time>2026-05-02T11:56:57.999Z</time></trkpt><trkpt lat="44.852604568385644" lon="7.275399239781492"><ele>837.0</ele><time>2026-05-02T11:57:00.999Z</time></trkpt><trkpt lat="44.85263095213514" lon="7.275507124335006"><ele>833.1666666666666</ele><time>2026-05-02T11:57:02.999Z</time></trkpt><trkpt lat="44.852613015561694" lon="7.2756144932287"><ele>829.3333333333333</ele><time>2026-05-02T11:57:06.999Z</time></trkpt><trkpt lat="44.85264699459836" lon="7.275708350802216"><ele>825.5</ele><time>2026-05-02T11:57:09.999Z</time></trkpt><trkpt lat="44.85268579923637" lon="7.275810606907085"><ele>821.6666666666666</ele><time>2026-05-02T11:57:12.999Z</time></trkpt><trkpt lat="44.85270455073982" lon="7.275926164767658"><ele>817.8333333333333</ele><time>2026-05-02T11:57:15.999Z</time></trkpt><trkpt lat="44.8527956344889" lon="7.276009958013033"><ele>814.0</ele><time>2026-05-02T11:57:20.998Z</time></trkpt><trkpt lat="44.85284312755896" lon="7.276147107852659"><ele>811.2</ele><time>2026-05-02T11:57:31.998Z</time></trkpt><trkpt lat="44.852884131702396" lon="7.276300197365561"><ele>808.4000000000001</ele><time>2026-05-02T11:57:33.998Z</time></trkpt><trkpt lat="44.852918958456556" lon="7.276449413545071"><ele>805.6</ele><time>2026-05-02T11:57:35.998Z</time></trkpt><trkpt lat="44.85299555338905" lon="7.276555711218976"><ele>802.8</ele><time>2026-05-02T11:57:37.998Z</time></trkpt><trkpt lat="44.85306439890732" lon="7.2766196612486445"><ele>800.0</ele><time>2026-05-02T11:57:38.998Z</time></trkpt><trkpt lat="44.85314341179414" lon="7.2767274314046615"><ele>795.4</ele><time>2026-05-02T11:57:40.998Z</time></trkpt><trkpt lat="44.85317612978208" lon="7.276840627829804"><ele>790.8</ele><time>2026-05-02T11:57:42.998Z</time></trkpt><trkpt lat="44.85317721206269" lon="7.276963547184345"><ele>786.2</ele><time>2026-05-02T11:57:44.998Z</time></trkpt><trkpt lat="44.853164172988265" lon="7.277054893397716"><ele>781.6</ele><time>2026-05-02T11:57:46.998Z</time></trkpt><trkpt lat="44.85319224792823" lon="7.277153220587524"><ele>777.0</ele><time>2026-05-02T11:57:49Z</time></trkpt><trkpt lat="44.85328009222434" lon="7.27747522018336"><ele>772.6</ele><time>2026-05-02T11:57:51Z</time></trkpt><trkpt lat="44.85330490245012" lon="7.27760781446835"><ele>768.2</ele><time>2026-05-02T11:57:53Z</time></trkpt><trkpt lat="44.85332124026302" lon="7.277703094790905"><ele>763.8</ele><time>2026-05-02T11:57:55Z</time></trkpt><trkpt lat="44.85328054121059" lon="7.2778479302947785"><ele>759.4</ele><time>2026-05-02T11:57:58Z</time></trkpt><trkpt lat="44.853262180609384" lon="7.278021868096881"><ele>755.0</ele><time>2026-05-02T11:58:00Z</time></trkpt><trkpt lat="44.85332059285485" lon="7.278122377407793"><ele>755.0</ele><time>2026-05-02T11:58:02Z</time></trkpt><trkpt lat="44.85338777989493" lon="7.278108914839221"><ele>755.0</ele><time>2026-05-02T11:59:41.998Z</time></trkpt><trkpt lat="44.85344767804731" lon="7.2780532517250025"><ele>755.0</ele><time>2026-05-02T11:59:43.998Z</time></trkpt><trkpt lat="44.853503415171424" lon="7.277929297205046"><ele>755.0</ele><time>2026-05-02T11:59:45.998Z</time></trkpt><trkpt lat="44.8535854827551" lon="7.277772805182205"><ele>755.0</ele><time>2026-05-02T11:59:47.998Z</time></trkpt><trkpt lat="44.85365325650563" lon="7.277707046659645"><ele>754.0</ele><time>2026-05-02T11:59:48.998Z</time></trkpt><trkpt lat="44.85372415570843" lon="7.277621016532996"><ele>753.0</ele><time>2026-05-02T11:59:49.998Z</time></trkpt><trkpt lat="44.85378006466221" lon="7.277547658689332"><ele>752.0</ele><time>2026-05-02T11:59:50.998Z</time></trkpt><trkpt lat="44.85384140264448" lon="7.277473134946147"><ele>751.0</ele><time>2026-05-02T11:59:51.998Z</time></trkpt><trkpt lat="44.853898817753155" lon="7.277395428549497"><ele>750.0</ele><time>2026-05-02T11:59:52.998Z</time></trkpt><trkpt lat="44.85393268021953" lon="7.277320246771884"><ele>749.0</ele><time>2026-05-02T11:59:54Z</time></trkpt><trkpt lat="44.853964593353474" lon="7.277227874002664"><ele>749.0</ele><time>2026-05-02T11:59:55Z</time></trkpt><trkpt lat="44.8539908633374" lon="7.277109546850644"><ele>749.0</ele><time>2026-05-02T11:59:56Z</time></trkpt><trkpt lat="44.854058236681276" lon="7.276999980657188"><ele>749.0</ele><time>2026-05-02T11:59:57Z</time></trkpt><trkpt lat="44.85414162229426" lon="7.276914072353126"><ele>749.0</ele><time>2026-05-02T11:59:58Z</time></trkpt><trkpt lat="44.854227292233475" lon="7.276851232535713"><ele>749.0</ele><time>2026-05-02T11:59:59Z</time></trkpt><trkpt lat="44.85431605608112" lon="7.276813613956727"><ele>747.0</ele><time>2026-05-02T12:00:00Z</time></trkpt><trkpt lat="44.85440335433439" lon="7.276738739535763"><ele>745.0</ele><time>2026-05-02T12:00:01Z</time></trkpt><trkpt lat="44.854469766241245" lon="7.27669294433259"><ele>743.0</ele><time>2026-05-02T12:00:02Z</time></trkpt><trkpt lat="44.85458380542189" lon="7.276620661608284"><ele>741.0</ele><time>2026-05-02T12:00:03Z</time></trkpt><trkpt lat="44.85471205957822" lon="7.27665104890701"><ele>739.0</ele><time>2026-05-02T12:00:05Z</time></trkpt><trkpt lat="44.85481223124665" lon="7.276717248379822"><ele>739.0</ele><time>2026-05-02T12:00:06Z</time></trkpt><trkpt lat="44.8550138770827" lon="7.276849136826087"><ele>739.0</ele><time>2026-05-02T12:00:07Z</time></trkpt><trkpt lat="44.85512791345717" lon="7.27692875781985"><ele>739.0</ele><time>2026-05-02T12:00:08Z</time></trkpt><trkpt lat="44.85521126934482" lon="7.276969806364574"><ele>739.0</ele><time>2026-05-02T12:00:09Z</time></trkpt><trkpt lat="44.855288835592475" lon="7.276979693524577"><ele>737.2</ele><time>2026-05-02T12:00:10Z</time></trkpt><trkpt lat="44.855363878533765" lon="7.276872616627733"><ele>735.4000000000001</ele><time>2026-05-02T12:00:12Z</time></trkpt><trkpt lat="44.855440665426414" lon="7.276809564533206"><ele>733.6</ele><time>2026-05-02T12:00:13Z</time></trkpt><trkpt lat="44.85551703818904" lon="7.276760126053771"><ele>731.8</ele><time>2026-05-02T12:00:14Z</time></trkpt><trkpt lat="44.85560298099061" lon="7.2766914853525595"><ele>730.0</ele><time>2026-05-02T12:00:16Z</time></trkpt><trkpt lat="44.85567740976011" lon="7.276635203086946"><ele>730.0000000000001</ele><time>2026-05-02T12:00:19Z</time></trkpt><trkpt lat="44.855741999986634" lon="7.276640826345923"><ele>730.0</ele><time>2026-05-02T12:00:22Z</time></trkpt><trkpt lat="44.85579622128971" lon="7.276713022892067"><ele>730.0</ele><time>2026-05-02T12:00:24Z</time></trkpt><trkpt lat="44.85582729845705" lon="7.276800904587412"><ele>730.0</ele><time>2026-05-02T12:00:27Z</time></trkpt><trkpt lat="44.85584938913803" lon="7.276907483380378"><ele>730.0</ele><time>2026-05-02T12:00:30Z</time></trkpt><trkpt lat="44.85590362262688" lon="7.2769567103144475"><ele>730.0000000000001</ele><time>2026-05-02T12:00:32Z</time></trkpt><trkpt lat="44.855936969256575" lon="7.277041698291461"><ele>730.0</ele><time>2026-05-02T12:00:35Z</time></trkpt><trkpt lat="44.855980361201816" lon="7.277108302809624"><ele>729.1428571428572</ele><time>2026-05-02T12:00:38Z</time></trkpt><trkpt lat="44.856038082133374" lon="7.277146876175553"><ele>728.2857142857143</ele><time>2026-05-02T12:00:43.999Z</time></trkpt><trkpt lat="44.85610484485896" lon="7.277192502196198"><ele>727.4285714285714</ele><time>2026-05-02T12:00:49.999Z</time></trkpt><trkpt lat="44.85618328620227" lon="7.277193716216404"><ele>726.5714285714287</ele><time>2026-05-02T12:01:05.999Z</time></trkpt><trkpt lat="44.85625667878559" lon="7.277230524732816"><ele>725.7142857142857</ele><time>2026-05-02T12:02:14Z</time></trkpt><trkpt lat="44.85629763274033" lon="7.277310298041363"><ele>724.8571428571429</ele><time>2026-05-02T12:03:04.999Z</time></trkpt><trkpt lat="44.856379610954214" lon="7.277328190224269"><ele>724.0</ele><time>2026-05-02T12:03:56.998Z</time></trkpt><trkpt lat="44.856505642700434" lon="7.277329435666501"><ele>724.0</ele><time>2026-05-02T12:03:58.998Z</time></trkpt><trkpt lat="44.85657072943035" lon="7.277318568132535"><ele>724.0</ele><time>2026-05-02T12:03:59.998Z</time></trkpt><trkpt lat="44.856662813817245" lon="7.277275588925652"><ele>724.0</ele><time>2026-05-02T12:04:01.998Z</time></trkpt><trkpt lat="44.856725448251126" lon="7.277219991369641"><ele>724.0</ele><time>2026-05-02T12:04:02.998Z</time></trkpt><trkpt lat="44.856815107646774" lon="7.277115818884051"><ele>724.0</ele><time>2026-05-02T12:04:04.998Z</time></trkpt><trkpt lat="44.856899870369865" lon="7.277081874293781"><ele>724.0</ele><time>2026-05-02T12:04:07Z</time></trkpt><trkpt lat="44.85702956193414" lon="7.277107273592372"><ele>719.6666666666667</ele><time>2026-05-02T12:04:09Z</time></trkpt><trkpt lat="44.857100277439955" lon="7.277138248808123"><ele>715.3333333333334</ele><time>2026-05-02T12:04:10Z</time></trkpt><trkpt lat="44.857160443926354" lon="7.277187770778192"><ele>711.0</ele><time>2026-05-02T12:04:11Z</time></trkpt><trkpt lat="44.85721193819943" lon="7.2772542847927735"><ele>706.6666666666666</ele><time>2026-05-02T12:04:12Z</time></trkpt><trkpt lat="44.8572739973652" lon="7.2773521226365725"><ele>702.3333333333333</ele><time>2026-05-02T12:04:14Z</time></trkpt><trkpt lat="44.857349442261786" lon="7.277266937174222"><ele>698.0</ele><time>2026-05-02T12:04:17Z</time></trkpt><trkpt lat="44.85734917628265" lon="7.2769507975923515"><ele>698.0</ele><time>2026-05-02T12:04:20Z</time></trkpt><trkpt lat="44.85738189725866" lon="7.276856026334486"><ele>698.0</ele><time>2026-05-02T12:04:22Z</time></trkpt><trkpt lat="44.85739951559459" lon="7.276758783274845"><ele>698.0</ele><time>2026-05-02T12:04:25Z</time></trkpt><trkpt lat="44.857463798210546" lon="7.276819412246341"><ele>698.0</ele><time>2026-05-02T12:04:42Z</time></trkpt><trkpt lat="44.85752571454276" lon="7.276967176766624"><ele>698.0</ele><time>2026-05-02T12:04:44Z</time></trkpt><trkpt lat="44.857599400305055" lon="7.2770714619121835"><ele>698.0</ele><time>2026-05-02T12:04:45Z</time></trkpt><trkpt lat="44.857643803072314" lon="7.277174161198572"><ele>693.0</ele><time>2026-05-02T12:04:46Z</time></trkpt><trkpt lat="44.85766587024639" lon="7.277321639895048"><ele>688.0</ele><time>2026-05-02T12:04:48Z</time></trkpt><trkpt lat="44.85764286928792" lon="7.277451274576103"><ele>683.0</ele><time>2026-05-02T12:04:48.999Z</time></trkpt><trkpt lat="44.857622564818215" lon="7.27758165385543"><ele>678.0</ele><time>2026-05-02T12:04:49.999Z</time></trkpt><trkpt lat="44.85764288818147" lon="7.277667783994009"><ele>673.0</ele><time>2026-05-02T12:04:50.999Z</time></trkpt><trkpt lat="44.857709545724084" lon="7.277719535784704"><ele>668.0</ele><time>2026-05-02T12:04:52.999Z</time></trkpt><trkpt lat="44.85783160823582" lon="7.277703513773849"><ele>668.0</ele><time>2026-05-02T12:04:54.999Z</time></trkpt><trkpt lat="44.85792394741864" lon="7.27764348100805"><ele>668.0</ele><time>2026-05-02T12:04:56.999Z</time></trkpt><trkpt lat="44.85798855271559" lon="7.277594527913719"><ele>668.0</ele><time>2026-05-02T12:04:57.999Z</time></trkpt><trkpt lat="44.85807050118947" lon="7.277517013484554"><ele>668.0</ele><time>2026-05-02T12:04:58.999Z</time></trkpt><trkpt lat="44.85813628460358" lon="7.2774739638669566"><ele>668.0</ele><time>2026-05-02T12:04:59.999Z</time></trkpt><trkpt lat="44.85823705222751" lon="7.277443996979628"><ele>668.0</ele><time>2026-05-02T12:05:01.999Z</time></trkpt><trkpt lat="44.8583109145834" lon="7.277458242644133"><ele>668.0</ele><time>2026-05-02T12:05:02.999Z</time></trkpt><trkpt lat="44.858439456556766" lon="7.277430552034807"><ele>668.0</ele><time>2026-05-02T12:05:03.999Z</time></trkpt><trkpt lat="44.85850513012808" lon="7.277472214933136"><ele>668.0</ele><time>2026-05-02T12:05:04.999Z</time></trkpt><trkpt lat="44.858590737499505" lon="7.277582357896565"><ele>668.0</ele><time>2026-05-02T12:05:06.999Z</time></trkpt><trkpt lat="44.85863836799619" lon="7.277643507740597"><ele>668.0</ele><time>2026-05-02T12:05:07.999Z</time></trkpt><trkpt lat="44.85868487345452" lon="7.277720294862476"><ele>664.1666666666666</ele><time>2026-05-02T12:05:08.999Z</time></trkpt><trkpt lat="44.85870585460637" lon="7.277834601094449"><ele>660.3333333333333</ele><time>2026-05-02T12:05:10.999Z</time></trkpt><trkpt lat="44.858701523361" lon="7.277960041245904"><ele>656.5</ele><time>2026-05-02T12:05:12.999Z</time></trkpt><trkpt lat="44.85870511003713" lon="7.278104088136243"><ele>652.6666666666666</ele><time>2026-05-02T12:05:14.999Z</time></trkpt><trkpt lat="44.85873085367294" lon="7.278195681217355"><ele>648.8333333333334</ele><time>2026-05-02T12:05:15.999Z</time></trkpt><trkpt lat="44.858771295575814" lon="7.278301564896393"><ele>645.0</ele><time>2026-05-02T12:05:16.999Z</time></trkpt><trkpt lat="44.858804846852536" lon="7.278405938941211"><ele>644.3333333333334</ele><time>2026-05-02T12:05:17.999Z</time></trkpt><trkpt lat="44.85880796640861" lon="7.278558843703125"><ele>643.6666666666666</ele><time>2026-05-02T12:05:19.999Z</time></trkpt><trkpt lat="44.85880071423884" lon="7.278652254133643"><ele>643.0</ele><time>2026-05-02T12:05:20.999Z</time></trkpt><trkpt lat="44.85879246783435" lon="7.2787469020974855"><ele>642.3333333333333</ele><time>2026-05-02T12:05:21.999Z</time></trkpt><trkpt lat="44.85876978872205" lon="7.278834954784746"><ele>641.6666666666666</ele><time>2026-05-02T12:05:22.999Z</time></trkpt><trkpt lat="44.85871799123907" lon="7.2789229389657715"><ele>641.0</ele><time>2026-05-02T12:05:23.999Z</time></trkpt><trkpt lat="44.85868372460043" lon="7.279023792824292"><ele>639.6666666666666</ele><time>2026-05-02T12:05:24.999Z</time></trkpt><trkpt lat="44.85873982931615" lon="7.279133902242156"><ele>638.3333333333333</ele><time>2026-05-02T12:05:26.999Z</time></trkpt><trkpt lat="44.85880701810418" lon="7.279176000447179"><ele>637.0</ele><time>2026-05-02T12:05:27.999Z</time></trkpt><trkpt lat="44.85887234067115" lon="7.2792342206594585"><ele>635.6666666666666</ele><time>2026-05-02T12:05:28.999Z</time></trkpt><trkpt lat="44.8589299145701" lon="7.279312682682075"><ele>634.3333333333334</ele><time>2026-05-02T12:05:29.999Z</time></trkpt><trkpt lat="44.85899164625546" lon="7.279390549835788"><ele>633.0</ele><time>2026-05-02T12:05:30.999Z</time></trkpt><trkpt lat="44.85906801941406" lon="7.279499107519656"><ele>633.0</ele><time>2026-05-02T12:05:32.999Z</time></trkpt><trkpt lat="44.85913387304904" lon="7.279550104704827"><ele>633.0</ele><time>2026-05-02T12:05:33.999Z</time></trkpt><trkpt lat="44.859209183513165" lon="7.279541323416427"><ele>633.0</ele><time>2026-05-02T12:05:34.998Z</time></trkpt><trkpt lat="44.85928896975234" lon="7.279593337173242"><ele>633.0</ele><time>2026-05-02T12:05:35.998Z</time></trkpt><trkpt lat="44.85937224275596" lon="7.279654376622034"><ele>633.0</ele><time>2026-05-02T12:05:36.998Z</time></trkpt><trkpt lat="44.859448034084544" lon="7.279720113910925"><ele>633.0</ele><time>2026-05-02T12:05:37.998Z</time></trkpt><trkpt lat="44.85951251256033" lon="7.279784817482886"><ele>627.0</ele><time>2026-05-02T12:05:38.998Z</time></trkpt><trkpt lat="44.859564752993585" lon="7.279866049019353"><ele>621.0</ele><time>2026-05-02T12:05:39.998Z</time></trkpt><trkpt lat="44.85964927996901" lon="7.279993786579662"><ele>615.0</ele><time>2026-05-02T12:05:41.998Z</time></trkpt><trkpt lat="44.85974120380591" lon="7.280106779411826"><ele>609.0</ele><time>2026-05-02T12:05:43.998Z</time></trkpt><trkpt lat="44.85979502220381" lon="7.280176405733433"><ele>603.0</ele><time>2026-05-02T12:05:44.998Z</time></trkpt><trkpt lat="44.85992319251901" lon="7.280256371859316"><ele>603.0</ele><time>2026-05-02T12:05:46.998Z</time></trkpt><trkpt lat="44.85997444194054" lon="7.280316395793194"><ele>603.0</ele><time>2026-05-02T12:05:47.998Z</time></trkpt><trkpt lat="44.86005326816537" lon="7.280414813187831"><ele>603.0</ele><time>2026-05-02T12:05:49.998Z</time></trkpt><trkpt lat="44.86010829946077" lon="7.280467325023286"><ele>603.0</ele><time>2026-05-02T12:05:50.998Z</time></trkpt><trkpt lat="44.860162279495746" lon="7.280524852619298"><ele>603.0</ele><time>2026-05-02T12:05:51.998Z</time></trkpt><trkpt lat="44.8602209671974" lon="7.280563392528436"><ele>603.0</ele><time>2026-05-02T12:05:52.998Z</time></trkpt><trkpt lat="44.860298025578" lon="7.28059656882889"><ele>596.8</ele><time>2026-05-02T12:05:54.998Z</time></trkpt><trkpt lat="44.8603440465686" lon="7.280533680410926"><ele>590.5999999999999</ele><time>2026-05-02T12:05:55.998Z</time></trkpt><trkpt lat="44.860415982593885" lon="7.28050263261056"><ele>584.4000000000001</ele><time>2026-05-02T12:05:57.998Z</time></trkpt><trkpt lat="44.86045229739291" lon="7.2806239743253025"><ele>578.2</ele><time>2026-05-02T12:06:00.998Z</time></trkpt><trkpt lat="44.86050334801375" lon="7.28082943018962"><ele>572.0</ele><time>2026-05-02T12:06:03.998Z</time></trkpt><trkpt lat="44.86043021397888" lon="7.280875969175141"><ele>570.8333333333333</ele><time>2026-05-02T12:06:04.998Z</time></trkpt><trkpt lat="44.86037972262002" lon="7.2809334378153725"><ele>569.6666666666666</ele><time>2026-05-02T12:06:05.998Z</time></trkpt><trkpt lat="44.86032116589783" lon="7.281077220853204"><ele>568.5</ele><time>2026-05-02T12:06:07.998Z</time></trkpt><trkpt lat="44.86029191248771" lon="7.281174635942844"><ele>567.3333333333334</ele><time>2026-05-02T12:06:09.998Z</time></trkpt><trkpt lat="44.860283698163" lon="7.281282663023861"><ele>566.1666666666667</ele><time>2026-05-02T12:06:12Z</time></trkpt><trkpt lat="44.86034153623449" lon="7.281346033469037"><ele>565.0</ele><time>2026-05-02T12:06:13Z</time></trkpt><trkpt lat="44.86041151931912" lon="7.2814305840065225"><ele>565.0</ele><time>2026-05-02T12:06:15Z</time></trkpt><trkpt lat="44.86050374212764" lon="7.281422026969717"><ele>565.0</ele><time>2026-05-02T12:06:17Z</time></trkpt><trkpt lat="44.8606125660373" lon="7.281393702991796"><ele>565.0</ele><time>2026-05-02T12:06:19Z</time></trkpt><trkpt lat="44.86068595697411" lon="7.281387676334766"><ele>565.0</ele><time>2026-05-02T12:06:20Z</time></trkpt><trkpt lat="44.860752423631624" lon="7.281435738428166"><ele>565.0</ele><time>2026-05-02T12:06:23Z</time></trkpt><trkpt lat="44.86090318608634" lon="7.281458338806242"><ele>560.2</ele><time>2026-05-02T12:06:24Z</time></trkpt><trkpt lat="44.860962745470474" lon="7.281548967297756"><ele>555.4</ele><time>2026-05-02T12:06:25Z</time></trkpt><trkpt lat="44.86101043950037" lon="7.281608816882373"><ele>550.6</ele><time>2026-05-02T12:06:26Z</time></trkpt><trkpt lat="44.861095188979476" lon="7.281702555606195"><ele>545.8</ele><time>2026-05-02T12:06:28Z</time></trkpt><trkpt lat="44.861124929160695" lon="7.281858946834204"><ele>541.0</ele><time>2026-05-02T12:06:30Z</time></trkpt><trkpt lat="44.86111406215888" lon="7.282022710011482"><ele>541.0000000000001</ele><time>2026-05-02T12:06:32Z</time></trkpt><trkpt lat="44.86110279751564" lon="7.28211380434876"><ele>541.0</ele><time>2026-05-02T12:06:34Z</time></trkpt><trkpt lat="44.8610757414914" lon="7.28220713503208"><ele>541.0</ele><time>2026-05-02T12:06:37Z</time></trkpt><trkpt lat="44.861098292197326" lon="7.282338725381056"><ele>541.0</ele><time>2026-05-02T12:06:39Z</time></trkpt><trkpt lat="44.86111639722571" lon="7.282452157822142"><ele>541.0</ele><time>2026-05-02T12:06:40Z</time></trkpt><trkpt lat="44.86112744038215" lon="7.282546482817679"><ele>541.0000000000001</ele><time>2026-05-02T12:06:41Z</time></trkpt><trkpt lat="44.86113748109566" lon="7.282637708064786"><ele>541.0</ele><time>2026-05-02T12:06:42Z</time></trkpt><trkpt lat="44.86114587280323" lon="7.2827493435155315"><ele>539.8</ele><time>2026-05-02T12:06:43Z</time></trkpt><trkpt lat="44.8611567893235" lon="7.282866043010065"><ele>538.6</ele><time>2026-05-02T12:06:44Z</time></trkpt><trkpt lat="44.86117498813082" lon="7.282993136823444"><ele>537.4</ele><time>2026-05-02T12:06:45Z</time></trkpt><trkpt lat="44.86119571542416" lon="7.283120372465299"><ele>536.2</ele><time>2026-05-02T12:06:46Z</time></trkpt><trkpt lat="44.86121210319451" lon="7.283227411626966"><ele>535.0</ele><time>2026-05-02T12:06:47Z</time></trkpt><trkpt lat="44.86123754342718" lon="7.283419184667715"><ele>533.8</ele><time>2026-05-02T12:06:49Z</time></trkpt><trkpt lat="44.86123238925474" lon="7.283544702661344"><ele>532.6</ele><time>2026-05-02T12:06:50Z</time></trkpt><trkpt lat="44.861221782349595" lon="7.283679814363876"><ele>531.4</ele><time>2026-05-02T12:06:51Z</time></trkpt><trkpt lat="44.86120113439313" lon="7.283820864624814"><ele>530.2</ele><time>2026-05-02T12:06:52Z</time></trkpt><trkpt lat="44.86119900425594" lon="7.28396145301649"><ele>529.0</ele><time>2026-05-02T12:06:53Z</time></trkpt><trkpt lat="44.86120731139887" lon="7.284098486379506"><ele>526.8</ele><time>2026-05-02T12:06:53.999Z</time></trkpt><trkpt lat="44.86120799039502" lon="7.28423123785407"><ele>524.5999999999999</ele><time>2026-05-02T12:06:54.999Z</time></trkpt><trkpt lat="44.86122228428109" lon="7.284369616850902"><ele>522.4</ele><time>2026-05-02T12:06:55.999Z</time></trkpt><trkpt lat="44.86124616010784" lon="7.28450396510817"><ele>520.1999999999999</ele><time>2026-05-02T12:06:56.999Z</time></trkpt><trkpt lat="44.86125648926381" lon="7.28464081711358"><ele>518.0</ele><time>2026-05-02T12:06:57.999Z</time></trkpt><trkpt lat="44.8612857372423" lon="7.284769101858621"><ele>516.8</ele><time>2026-05-02T12:06:58.999Z</time></trkpt><trkpt lat="44.861317715072886" lon="7.284895824563254"><ele>515.5999999999999</ele><time>2026-05-02T12:06:59.999Z</time></trkpt><trkpt lat="44.8613544815012" lon="7.285020270220257"><ele>514.4000000000001</ele><time>2026-05-02T12:07:00.999Z</time></trkpt><trkpt lat="44.861399772401754" lon="7.285141462571453"><ele>513.2</ele><time>2026-05-02T12:07:01.999Z</time></trkpt><trkpt lat="44.861442733953766" lon="7.2852636889936955"><ele>512.0</ele><time>2026-05-02T12:07:02.999Z</time></trkpt><trkpt lat="44.86148532448901" lon="7.285400608856976"><ele>512.0</ele><time>2026-05-02T12:07:03.999Z</time></trkpt><trkpt lat="44.86151890584856" lon="7.285557670137162"><ele>512.0</ele><time>2026-05-02T12:07:04.999Z</time></trkpt><trkpt lat="44.86155132878451" lon="7.285728714891713"><ele>512.0</ele><time>2026-05-02T12:07:05.999Z</time></trkpt><trkpt lat="44.861590988273775" lon="7.2859050009738775"><ele>512.0</ele><time>2026-05-02T12:07:06.999Z</time></trkpt><trkpt lat="44.86164183009715" lon="7.286084225471573"><ele>511.0</ele><time>2026-05-02T12:07:07.999Z</time></trkpt><trkpt lat="44.861739917448915" lon="7.286235448338328"><ele>510.0</ele><time>2026-05-02T12:07:08.999Z</time></trkpt><trkpt lat="44.861824459646684" lon="7.286379566149776"><ele>509.0</ele><time>2026-05-02T12:07:09.999Z</time></trkpt><trkpt lat="44.8619198806228" lon="7.286517910293125"><ele>508.0</ele><time>2026-05-02T12:07:10.999Z</time></trkpt><trkpt lat="44.862007488799044" lon="7.286660776099809"><ele>504.0</ele><time>2026-05-02T12:07:11.999Z</time></trkpt><trkpt lat="44.86207452917449" lon="7.286829245110998"><ele>500.0</ele><time>2026-05-02T12:07:12.999Z</time></trkpt><trkpt lat="44.86211447439078" lon="7.2870145930807615"><ele>496.0</ele><time>2026-05-02T12:07:13.999Z</time></trkpt><trkpt lat="44.862134908075554" lon="7.287191029484382"><ele>492.0</ele><time>2026-05-02T12:07:14.999Z</time></trkpt><trkpt lat="44.86212998101879" lon="7.287363546063954"><ele>490.6</ele><time>2026-05-02T12:07:15.999Z</time></trkpt><trkpt lat="44.86208876702075" lon="7.287514388897034"><ele>489.20000000000005</ele><time>2026-05-02T12:07:16.999Z</time></trkpt><trkpt lat="44.862025588453314" lon="7.287637090336426"><ele>487.8</ele><time>2026-05-02T12:07:17.999Z</time></trkpt><trkpt lat="44.86196273470507" lon="7.287749969310115"><ele>486.4</ele><time>2026-05-02T12:07:18.999Z</time></trkpt><trkpt lat="44.86196359991364" lon="7.287892078371246"><ele>485.0</ele><time>2026-05-02T12:07:19.999Z</time></trkpt><trkpt lat="44.862015665693605" lon="7.288023343348146"><ele>483.8</ele><time>2026-05-02T12:07:20.999Z</time></trkpt><trkpt lat="44.86207979107833" lon="7.2881310320822275"><ele>482.6</ele><time>2026-05-02T12:07:21.999Z</time></trkpt><trkpt lat="44.8620980203024" lon="7.2882455539891"><ele>481.4</ele><time>2026-05-02T12:07:22.999Z</time></trkpt><trkpt lat="44.862122079122955" lon="7.288361640825135"><ele>480.2</ele><time>2026-05-02T12:07:23.999Z</time></trkpt><trkpt lat="44.862114652723974" lon="7.288493961276014"><ele>479.0</ele><time>2026-05-02T12:07:24.999Z</time></trkpt><trkpt lat="44.86210841655886" lon="7.288624123911304"><ele>478.99999999999994</ele><time>2026-05-02T12:07:25.999Z</time></trkpt><trkpt lat="44.862103061494395" lon="7.288753826394017"><ele>479.0</ele><time>2026-05-02T12:07:26.999Z</time></trkpt><trkpt lat="44.862104207608866" lon="7.288877198115475"><ele>479.0</ele><time>2026-05-02T12:07:27.999Z</time></trkpt><trkpt lat="44.86210708463313" lon="7.289002830604594"><ele>479.0</ele><time>2026-05-02T12:07:28.999Z</time></trkpt><trkpt lat="44.862113731689895" lon="7.289130366963282"><ele>478.99999999999994</ele><time>2026-05-02T12:07:29.999Z</time></trkpt><trkpt lat="44.86212021783471" lon="7.289253295445957"><ele>479.0</ele><time>2026-05-02T12:07:30.999Z</time></trkpt><trkpt lat="44.862126493954676" lon="7.289378938330977"><ele>478.79999999999995</ele><time>2026-05-02T12:07:31.999Z</time></trkpt><trkpt lat="44.86214432649668" lon="7.289501645253229"><ele>478.59999999999997</ele><time>2026-05-02T12:07:32.999Z</time></trkpt><trkpt lat="44.86217555243966" lon="7.289624244407202"><ele>478.4</ele><time>2026-05-02T12:07:33.999Z</time></trkpt><trkpt lat="44.862213096403636" lon="7.289739539421028"><ele>478.2</ele><time>2026-05-02T12:07:34.999Z</time></trkpt><trkpt lat="44.862254687135106" lon="7.289853046717508"><ele>478.0</ele><time>2026-05-02T12:07:35.999Z</time></trkpt><trkpt lat="44.86229533949427" lon="7.289967819990973"><ele>477.2</ele><time>2026-05-02T12:07:36.999Z</time></trkpt><trkpt lat="44.86233038015544" lon="7.290086172113907"><ele>476.4</ele><time>2026-05-02T12:07:37.999Z</time></trkpt><trkpt lat="44.862355440727384" lon="7.29021108027324"><ele>475.59999999999997</ele><time>2026-05-02T12:07:38.999Z</time></trkpt><trkpt lat="44.86237617778818" lon="7.290337846538953"><ele>474.79999999999995</ele><time>2026-05-02T12:07:39.999Z</time></trkpt><trkpt lat="44.86239470276351" lon="7.290466670344939"><ele>474.0</ele><time>2026-05-02T12:07:40.998Z</time></trkpt><trkpt lat="44.86241402092546" lon="7.290592222298037"><ele>473.2</ele><time>2026-05-02T12:07:41.998Z</time></trkpt><trkpt lat="44.8624336885393" lon="7.290720274964361"><ele>472.4</ele><time>2026-05-02T12:07:42.998Z</time></trkpt><trkpt lat="44.862458714444855" lon="7.290847988444357"><ele>471.6</ele><time>2026-05-02T12:07:43.998Z</time></trkpt><trkpt lat="44.862492094456385" lon="7.290967913778174"><ele>470.8</ele><time>2026-05-02T12:07:44.998Z</time></trkpt><trkpt lat="44.86252917666916" lon="7.291083036104804"><ele>470.0</ele><time>2026-05-02T12:07:45.998Z</time></trkpt><trkpt lat="44.862563454510685" lon="7.291196300876492"><ele>469.99999999999994</ele><time>2026-05-02T12:07:46.998Z</time></trkpt><trkpt lat="44.86259726575193" lon="7.291309154743116"><ele>470.0</ele><time>2026-05-02T12:07:47.998Z</time></trkpt><trkpt lat="44.862628739680794" lon="7.291415835504453"><ele>470.0</ele><time>2026-05-02T12:07:48.998Z</time></trkpt><trkpt lat="44.8626636160265" lon="7.2915220768502165"><ele>470.0</ele><time>2026-05-02T12:07:49.998Z</time></trkpt><trkpt lat="44.862697240213635" lon="7.291628104443765"><ele>469.99999999999994</ele><time>2026-05-02T12:07:50.998Z</time></trkpt><trkpt lat="44.8627319610748" lon="7.291734959770031"><ele>470.0</ele><time>2026-05-02T12:07:51.998Z</time></trkpt><trkpt lat="44.86277611791189" lon="7.2918360128318"><ele>468.0</ele><time>2026-05-02T12:07:52.998Z</time></trkpt><trkpt lat="44.862841025776376" lon="7.291914386070643"><ele>466.0</ele><time>2026-05-02T12:07:53.998Z</time></trkpt><trkpt lat="44.86290994248655" lon="7.291999698892891"><ele>464.0</ele><time>2026-05-02T12:07:54.998Z</time></trkpt><trkpt lat="44.862984846872834" lon="7.292076102228301"><ele>462.0</ele><time>2026-05-02T12:07:55.998Z</time></trkpt><trkpt lat="44.86306582796365" lon="7.292158703868573"><ele>460.0</ele><time>2026-05-02T12:07:56.998Z</time></trkpt><trkpt lat="44.86314591812573" lon="7.292242199241703"><ele>460.0</ele><time>2026-05-02T12:07:57.998Z</time></trkpt><trkpt lat="44.86323336482694" lon="7.292316224853076"><ele>460.0</ele><time>2026-05-02T12:07:58.998Z</time></trkpt><trkpt lat="44.8633165938802" lon="7.29240044780762"><ele>460.0</ele><time>2026-05-02T12:07:59.998Z</time></trkpt><trkpt lat="44.86339079691299" lon="7.292473329531371"><ele>460.0</ele><time>2026-05-02T12:08:00.998Z</time></trkpt><trkpt lat="44.86346915699152" lon="7.292510828558343"><ele>460.0</ele><time>2026-05-02T12:08:01.998Z</time></trkpt><trkpt lat="44.863546976639405" lon="7.2925212432447335"><ele>458.50000000000006</ele><time>2026-05-02T12:08:02.998Z</time></trkpt><trkpt lat="44.863638531575106" lon="7.292510054273549"><ele>457.0</ele><time>2026-05-02T12:08:03.998Z</time></trkpt><trkpt lat="44.86372681364808" lon="7.292428722677087"><ele>455.5</ele><time>2026-05-02T12:08:04.998Z</time></trkpt><trkpt lat="44.863800242834714" lon="7.292344840254181"><ele>454.0</ele><time>2026-05-02T12:08:05.998Z</time></trkpt><trkpt lat="44.86386160739394" lon="7.292267504015281"><ele>452.50000000000006</ele><time>2026-05-02T12:08:06.998Z</time></trkpt><trkpt lat="44.863912538435805" lon="7.292194979453282"><ele>451.0</ele><time>2026-05-02T12:08:07.998Z</time></trkpt><trkpt lat="44.863966748481104" lon="7.292116411169731"><ele>450.6666666666667</ele><time>2026-05-02T12:08:08.998Z</time></trkpt><trkpt lat="44.86402514918942" lon="7.292045485452478"><ele>450.33333333333337</ele><time>2026-05-02T12:08:09.998Z</time></trkpt><trkpt lat="44.86409223022668" lon="7.291994658087735"><ele>450.0</ele><time>2026-05-02T12:08:10.998Z</time></trkpt><trkpt lat="44.86416602795226" lon="7.291964461559128"><ele>449.66666666666663</ele><time>2026-05-02T12:08:11.998Z</time></trkpt><trkpt lat="44.864244936023766" lon="7.291948721830689"><ele>449.3333333333333</ele><time>2026-05-02T12:08:12.998Z</time></trkpt><trkpt lat="44.86431760315604" lon="7.291947505579029"><ele>449.0</ele><time>2026-05-02T12:08:13.998Z</time></trkpt><trkpt lat="44.8643895108262" lon="7.2919584740019605"><ele>448.3333333333333</ele><time>2026-05-02T12:08:14.998Z</time></trkpt><trkpt lat="44.86445224601402" lon="7.2919666965703795"><ele>447.66666666666663</ele><time>2026-05-02T12:08:15.998Z</time></trkpt><trkpt lat="44.86454074954099" lon="7.292052953756335"><ele>447.0</ele><time>2026-05-02T12:08:18Z</time></trkpt><trkpt lat="44.86463018258763" lon="7.292153707037406"><ele>446.33333333333337</ele><time>2026-05-02T12:08:20Z</time></trkpt><trkpt lat="44.86468348204896" lon="7.292218892351951"><ele>445.6666666666667</ele><time>2026-05-02T12:08:21Z</time></trkpt><trkpt lat="44.8647476865557" lon="7.292303420393668"><ele>445.0</ele><time>2026-05-02T12:08:22Z</time></trkpt><trkpt lat="44.86482085078958" lon="7.292371968563045"><ele>444.83333333333337</ele><time>2026-05-02T12:08:23Z</time></trkpt><trkpt lat="44.86487817376549" lon="7.2924522404470915"><ele>444.6666666666667</ele><time>2026-05-02T12:08:24Z</time></trkpt><trkpt lat="44.864928711128904" lon="7.292531080500423"><ele>444.5</ele><time>2026-05-02T12:08:25Z</time></trkpt><trkpt lat="44.86498389860993" lon="7.292604235091106"><ele>444.33333333333337</ele><time>2026-05-02T12:08:26Z</time></trkpt><trkpt lat="44.86503068011438" lon="7.292691012255284"><ele>444.1666666666667</ele><time>2026-05-02T12:08:27Z</time></trkpt><trkpt lat="44.865092180463996" lon="7.292758486769384"><ele>444.0</ele><time>2026-05-02T12:08:28Z</time></trkpt><trkpt lat="44.865160049638604" lon="7.292802861672582"><ele>442.4</ele><time>2026-05-02T12:08:29Z</time></trkpt><trkpt lat="44.86521676767049" lon="7.292867536871639"><ele>440.79999999999995</ele><time>2026-05-02T12:08:30Z</time></trkpt><trkpt lat="44.86527576654422" lon="7.292938768229304"><ele>439.20000000000005</ele><time>2026-05-02T12:08:31Z</time></trkpt><trkpt lat="44.86535201313211" lon="7.293018011199123"><ele>437.6</ele><time>2026-05-02T12:08:32Z</time></trkpt><trkpt lat="44.86544177605706" lon="7.2931027575007"><ele>436.0</ele><time>2026-05-02T12:08:33Z</time></trkpt><trkpt lat="44.86554646786769" lon="7.293199015248415"><ele>435.25</ele><time>2026-05-02T12:08:34Z</time></trkpt><trkpt lat="44.86565530361116" lon="7.293293214361068"><ele>434.5</ele><time>2026-05-02T12:08:35Z</time></trkpt><trkpt lat="44.865754325235656" lon="7.2934176996387565"><ele>433.75</ele><time>2026-05-02T12:08:36Z</time></trkpt><trkpt lat="44.865834796520346" lon="7.293564742481215"><ele>433.0</ele><time>2026-05-02T12:08:37Z</time></trkpt><trkpt lat="44.86591229952431" lon="7.293713743914959"><ele>433.0</ele><time>2026-05-02T12:08:38Z</time></trkpt><trkpt lat="44.86599143733096" lon="7.293848149121341"><ele>433.0</ele><time>2026-05-02T12:08:39Z</time></trkpt><trkpt lat="44.86608389659923" lon="7.293954135942495"><ele>433.0</ele><time>2026-05-02T12:08:40Z</time></trkpt><trkpt lat="44.86619661122064" lon="7.29402715726229"><ele>433.0</ele><time>2026-05-02T12:08:41Z</time></trkpt><trkpt lat="44.86630621056268" lon="7.2941048256828065"><ele>433.00000000000006</ele><time>2026-05-02T12:08:42Z</time></trkpt><trkpt lat="44.866399155127034" lon="7.294158464058266"><ele>433.0</ele><time>2026-05-02T12:08:43Z</time></trkpt><trkpt lat="44.86647439760614" lon="7.294182030944693"><ele>433.0</ele><time>2026-05-02T12:08:44Z</time></trkpt><trkpt lat="44.86652175362456" lon="7.294249672822349"><ele>433.0</ele><time>2026-05-02T12:08:46Z</time></trkpt><trkpt lat="44.86647896938282" lon="7.294376921588436"><ele>433.00000000000006</ele><time>2026-05-02T12:08:47Z</time></trkpt><trkpt lat="44.86642964799327" lon="7.294471230501336"><ele>433.0</ele><time>2026-05-02T12:08:48Z</time></trkpt><trkpt lat="44.866376050029544" lon="7.294573089784964"><ele>433.0</ele><time>2026-05-02T12:08:49Z</time></trkpt><trkpt lat="44.866312317526244" lon="7.294671353945422"><ele>432.99999999999994</ele><time>2026-05-02T12:08:50Z</time></trkpt><trkpt lat="44.86624676032169" lon="7.294767193833605"><ele>432.99999999999994</ele><time>2026-05-02T12:08:51Z</time></trkpt><trkpt lat="44.86619296152936" lon="7.294864871903701"><ele>433.0</ele><time>2026-05-02T12:08:52Z</time></trkpt><trkpt lat="44.866150678115716" lon="7.294986940789736"><ele>433.0</ele><time>2026-05-02T12:08:53Z</time></trkpt><trkpt lat="44.86612681060297" lon="7.295112325081788"><ele>433.1666666666667</ele><time>2026-05-02T12:08:54Z</time></trkpt><trkpt lat="44.86612867073161" lon="7.295223446505205"><ele>433.33333333333337</ele><time>2026-05-02T12:08:55Z</time></trkpt><trkpt lat="44.866135038839914" lon="7.295313585373699"><ele>433.5</ele><time>2026-05-02T12:08:56Z</time></trkpt><trkpt lat="44.86614049274817" lon="7.295459090511711"><ele>433.66666666666663</ele><time>2026-05-02T12:08:57.999Z</time></trkpt><trkpt lat="44.86615199374071" lon="7.295606923036125"><ele>433.8333333333333</ele><time>2026-05-02T12:08:59.999Z</time></trkpt><trkpt lat="44.86617308061649" lon="7.29570122881418"><ele>434.0</ele><time>2026-05-02T12:09:00.999Z</time></trkpt><trkpt lat="44.86616041099047" lon="7.2958125735472095"><ele>433.3333333333333</ele><time>2026-05-02T12:09:01.999Z</time></trkpt><trkpt lat="44.86616104115405" lon="7.295914876244523"><ele>432.66666666666663</ele><time>2026-05-02T12:09:02.999Z</time></trkpt><trkpt lat="44.86616215048692" lon="7.296063491892909"><ele>432.0</ele><time>2026-05-02T12:09:04.999Z</time></trkpt><trkpt lat="44.866169807621" lon="7.296154660154031"><ele>431.33333333333337</ele><time>2026-05-02T12:09:07.999Z</time></trkpt><trkpt lat="44.86616890075699" lon="7.2962666574764246"><ele>430.6666666666667</ele><time>2026-05-02T12:10:22.998Z</time></trkpt><trkpt lat="44.86622104774476" lon="7.2963366461563615"><ele>430.0</ele><time>2026-05-02T12:10:24Z</time></trkpt><trkpt lat="44.86628060791624" lon="7.296400193889578"><ele>429.33333333333337</ele><time>2026-05-02T12:10:25Z</time></trkpt><trkpt lat="44.866383183131674" lon="7.296499970661561"><ele>428.6666666666667</ele><time>2026-05-02T12:10:27Z</time></trkpt><trkpt lat="44.866443471062965" lon="7.296561921798947"><ele>428.0</ele><time>2026-05-02T12:10:28Z</time></trkpt><trkpt lat="44.86646816938869" lon="7.296657794919567"><ele>427.33333333333337</ele><time>2026-05-02T12:10:29Z</time></trkpt><trkpt lat="44.866476360138265" lon="7.296753464743342"><ele>426.6666666666667</ele><time>2026-05-02T12:10:30Z</time></trkpt><trkpt lat="44.86648540766329" lon="7.29686145336779"><ele>426.0</ele><time>2026-05-02T12:10:31Z</time></trkpt><trkpt lat="44.866437902054095" lon="7.296964879217266"><ele>426.0</ele><time>2026-05-02T12:10:32Z</time></trkpt><trkpt lat="44.86642276044803" lon="7.29708148873104"><ele>426.0</ele><time>2026-05-02T12:10:33Z</time></trkpt><trkpt lat="44.866385781698185" lon="7.297223930444857"><ele>426.0</ele><time>2026-05-02T12:10:34Z</time></trkpt><trkpt lat="44.86634480367135" lon="7.297338429505067"><ele>426.0</ele><time>2026-05-02T12:10:35Z</time></trkpt><trkpt lat="44.86632248451719" lon="7.297441676534816"><ele>426.0</ele><time>2026-05-02T12:10:36Z</time></trkpt><trkpt lat="44.86630025895288" lon="7.297551988682869"><ele>426.0</ele><time>2026-05-02T12:10:37Z</time></trkpt><trkpt lat="44.86627344626153" lon="7.29767449004027"><ele>425.6</ele><time>2026-05-02T12:10:38Z</time></trkpt><trkpt lat="44.86624413958579" lon="7.297823282687133"><ele>425.20000000000005</ele><time>2026-05-02T12:10:39Z</time></trkpt><trkpt lat="44.866206327910064" lon="7.297984912053591"><ele>424.79999999999995</ele><time>2026-05-02T12:10:40Z</time></trkpt><trkpt lat="44.8661731175531" lon="7.298127394713214"><ele>424.4</ele><time>2026-05-02T12:10:41Z</time></trkpt><trkpt lat="44.86614402096907" lon="7.298258242196096"><ele>424.0</ele><time>2026-05-02T12:10:42Z</time></trkpt><trkpt lat="44.86613009065827" lon="7.298366033741067"><ele>423.33333333333337</ele><time>2026-05-02T12:10:43Z</time></trkpt><trkpt lat="44.866088324883215" lon="7.298516294429671"><ele>422.6666666666667</ele><time>2026-05-02T12:10:45Z</time></trkpt><trkpt lat="44.866059467480675" lon="7.298605223884851"><ele>422.0</ele><time>2026-05-02T12:10:47Z</time></trkpt><trkpt lat="44.86612239779286" lon="7.298632090322492"><ele>421.33333333333337</ele><time>2026-05-02T12:10:48Z</time></trkpt><trkpt lat="44.86619386518635" lon="7.298658883523885"><ele>420.6666666666667</ele><time>2026-05-02T12:10:49Z</time></trkpt><trkpt lat="44.86626906282802" lon="7.298705446526804"><ele>420.0</ele><time>2026-05-02T12:10:50Z</time></trkpt><trkpt lat="44.86635298142987" lon="7.29875624114784"><ele>420.0</ele><time>2026-05-02T12:10:51Z</time></trkpt><trkpt lat="44.866435990581465" lon="7.298804490921795"><ele>420.0</ele><time>2026-05-02T12:10:52Z</time></trkpt><trkpt lat="44.86652563923699" lon="7.298855675946948"><ele>420.0</ele><time>2026-05-02T12:10:53Z</time></trkpt><trkpt lat="44.86661856693158" lon="7.2989077192842755"><ele>420.0</ele><time>2026-05-02T12:10:54Z</time></trkpt><trkpt lat="44.866695140566804" lon="7.298950435538974"><ele>420.0</ele><time>2026-05-02T12:10:55Z</time></trkpt><trkpt lat="44.8667625968575" lon="7.298990870412036"><ele>420.0</ele><time>2026-05-02T12:10:56Z</time></trkpt><trkpt lat="44.86682437313654" lon="7.299038390693337"><ele>420.4</ele><time>2026-05-02T12:10:57Z</time></trkpt><trkpt lat="44.86689257388906" lon="7.299086477098001"><ele>420.8</ele><time>2026-05-02T12:10:58Z</time></trkpt><trkpt lat="44.86693793880354" lon="7.299185197228009"><ele>421.20000000000005</ele><time>2026-05-02T12:10:59Z</time></trkpt><trkpt lat="44.86703265149711" lon="7.299240314800693"><ele>421.6</ele><time>2026-05-02T12:11:00Z</time></trkpt><trkpt lat="44.86714722236933" lon="7.299228097849139"><ele>422.0</ele><time>2026-05-02T12:11:00.999Z</time></trkpt><trkpt lat="44.86723350899449" lon="7.2992781857729465"><ele>422.0</ele><time>2026-05-02T12:11:01.999Z</time></trkpt><trkpt lat="44.86735680256513" lon="7.299386346453511"><ele>422.0</ele><time>2026-05-02T12:11:03.999Z</time></trkpt><trkpt lat="44.867460708205364" lon="7.299456885657339"><ele>422.0</ele><time>2026-05-02T12:11:04.999Z</time></trkpt><trkpt lat="44.867552601196785" lon="7.299506597976832"><ele>422.0</ele><time>2026-05-02T12:11:05.999Z</time></trkpt><trkpt lat="44.867636011100736" lon="7.299575699197018"><ele>422.20000000000005</ele><time>2026-05-02T12:11:06.999Z</time></trkpt><trkpt lat="44.8677052121883" lon="7.2996621905959955"><ele>422.4</ele><time>2026-05-02T12:11:07.999Z</time></trkpt><trkpt lat="44.8677632336669" lon="7.299750207692824"><ele>422.6</ele><time>2026-05-02T12:11:08.999Z</time></trkpt><trkpt lat="44.867799920817156" lon="7.299850282226643"><ele>422.79999999999995</ele><time>2026-05-02T12:11:09.999Z</time></trkpt><trkpt lat="44.867811110083906" lon="7.299956031106982"><ele>423.0</ele><time>2026-05-02T12:11:10.999Z</time></trkpt><trkpt lat="44.86775883814902" lon="7.30010778595002"><ele>423.0</ele><time>2026-05-02T12:11:11.999Z</time></trkpt><trkpt lat="44.867723266969946" lon="7.300221507479846"><ele>423.0</ele><time>2026-05-02T12:11:12.999Z</time></trkpt><trkpt lat="44.867688490914915" lon="7.30033565904343"><ele>423.0</ele><time>2026-05-02T12:11:13.999Z</time></trkpt><trkpt lat="44.86765340250093" lon="7.300470158216559"><ele>423.0</ele><time>2026-05-02T12:11:15.999Z</time></trkpt><trkpt lat="44.86764231598336" lon="7.3005914804464"><ele>423.0</ele><time>2026-05-02T12:11:17.999Z</time></trkpt><trkpt lat="44.86771680026642" lon="7.300729931166754"><ele>422.2</ele><time>2026-05-02T12:11:19.999Z</time></trkpt><trkpt lat="44.867803580792156" lon="7.300902292503755"><ele>421.4</ele><time>2026-05-02T12:11:21.999Z</time></trkpt><trkpt lat="44.86785387538696" lon="7.301000789422541"><ele>420.59999999999997</ele><time>2026-05-02T12:11:22.999Z</time></trkpt><trkpt lat="44.86790218685502" lon="7.301095402624281"><ele>419.79999999999995</ele><time>2026-05-02T12:11:23.999Z</time></trkpt><trkpt lat="44.86794434721037" lon="7.301178621307261"><ele>419.0</ele><time>2026-05-02T12:11:24.999Z</time></trkpt><trkpt lat="44.86798301171659" lon="7.301255008276055"><ele>418.99999999999994</ele><time>2026-05-02T12:11:25.999Z</time></trkpt><trkpt lat="44.86801913566659" lon="7.301341803430686"><ele>419.0</ele><time>2026-05-02T12:11:26.999Z</time></trkpt><trkpt lat="44.868024252565405" lon="7.3014547317946"><ele>419.0</ele><time>2026-05-02T12:11:27.999Z</time></trkpt><trkpt lat="44.86805630748798" lon="7.301544448669932"><ele>419.0</ele><time>2026-05-02T12:11:28.999Z</time></trkpt><trkpt lat="44.868128987031774" lon="7.301619625957265"><ele>418.99999999999994</ele><time>2026-05-02T12:11:29.999Z</time></trkpt><trkpt lat="44.86820063712571" lon="7.301693542358581"><ele>419.0</ele><time>2026-05-02T12:11:30.999Z</time></trkpt><trkpt lat="44.868265364560436" lon="7.301759301473791"><ele>418.66666666666663</ele><time>2026-05-02T12:11:31.999Z</time></trkpt><trkpt lat="44.86832948216341" lon="7.301815065470002"><ele>418.3333333333333</ele><time>2026-05-02T12:11:32.999Z</time></trkpt><trkpt lat="44.868400337004964" lon="7.301862753050395"><ele>418.0</ele><time>2026-05-02T12:11:33.999Z</time></trkpt><trkpt lat="44.86848516125854" lon="7.301893837535172"><ele>417.66666666666663</ele><time>2026-05-02T12:11:34.999Z</time></trkpt><trkpt lat="44.868575622988665" lon="7.301900746255987"><ele>417.3333333333333</ele><time>2026-05-02T12:11:35.999Z</time></trkpt><trkpt lat="44.86867136289214" lon="7.301886869653192"><ele>417.0</ele><time>2026-05-02T12:11:36.999Z</time></trkpt><trkpt lat="44.868770272741784" lon="7.3018814505798435"><ele>415.40000000000003</ele><time>2026-05-02T12:11:37.999Z</time></trkpt><trkpt lat="44.86886043952095" lon="7.3018336300474305"><ele>413.8</ele><time>2026-05-02T12:11:38.999Z</time></trkpt><trkpt lat="44.86894708703184" lon="7.30177003200871"><ele>412.2</ele><time>2026-05-02T12:11:39.999Z</time></trkpt><trkpt lat="44.86903030836161" lon="7.301703942245874"><ele>410.6</ele><time>2026-05-02T12:11:40.999Z</time></trkpt><trkpt lat="44.86911253674102" lon="7.301637915819482"><ele>409.0</ele><time>2026-05-02T12:11:41.999Z</time></trkpt><trkpt lat="44.86920166184762" lon="7.301566351542149"><ele>410.0</ele><time>2026-05-02T12:11:42.999Z</time></trkpt><trkpt lat="44.86930484450851" lon="7.3014834995343065"><ele>411.0</ele><time>2026-05-02T12:11:43.999Z</time></trkpt><trkpt lat="44.869428800193106" lon="7.3013916442191995"><ele>412.0</ele><time>2026-05-02T12:11:44.999Z</time></trkpt><trkpt lat="44.86956697454848" lon="7.3013115217793505"><ele>413.0</ele><time>2026-05-02T12:11:45.999Z</time></trkpt><trkpt lat="44.86970488109924" lon="7.301255930808214"><ele>413.0</ele><time>2026-05-02T12:11:46.999Z</time></trkpt><trkpt lat="44.86984324211671" lon="7.301218988288039"><ele>413.0</ele><time>2026-05-02T12:11:47.998Z</time></trkpt><trkpt lat="44.86997913069888" lon="7.301178187069814"><ele>413.0</ele><time>2026-05-02T12:11:48.998Z</time></trkpt><trkpt lat="44.870107644435805" lon="7.30117670008375"><ele>413.0</ele><time>2026-05-02T12:11:49.998Z</time></trkpt><trkpt lat="44.870224612266405" lon="7.3011880366116735"><ele>409.75</ele><time>2026-05-02T12:11:50.998Z</time></trkpt><trkpt lat="44.87034160821109" lon="7.301189128526217"><ele>406.5</ele><time>2026-05-02T12:11:51.998Z</time></trkpt><trkpt lat="44.87045438524496" lon="7.301190770191165"><ele>403.25</ele><time>2026-05-02T12:11:52.998Z</time></trkpt><trkpt lat="44.87056092889003" lon="7.301224059298425"><ele>400.0</ele><time>2026-05-02T12:11:53.998Z</time></trkpt><trkpt lat="44.870646331123915" lon="7.301323276957506"><ele>398.5</ele><time>2026-05-02T12:11:54.998Z</time></trkpt><trkpt lat="44.870716752185906" lon="7.3014584703683205"><ele>397.0</ele><time>2026-05-02T12:11:55.998Z</time></trkpt><trkpt lat="44.870763430650236" lon="7.301659671103275"><ele>395.5</ele><time>2026-05-02T12:11:56.998Z</time></trkpt><trkpt lat="44.87081982537324" lon="7.301843831506352"><ele>394.0</ele><time>2026-05-02T12:11:57.998Z</time></trkpt><trkpt lat="44.870868177072026" lon="7.302016459292485"><ele>394.0</ele><time>2026-05-02T12:11:58.998Z</time></trkpt><trkpt lat="44.87091501992053" lon="7.302177897017193"><ele>394.0</ele><time>2026-05-02T12:11:59.998Z</time></trkpt><trkpt lat="44.870960865537455" lon="7.302334373321554"><ele>394.0</ele><time>2026-05-02T12:12:00.998Z</time></trkpt><trkpt lat="44.871000266688995" lon="7.302498163783203"><ele>394.0</ele><time>2026-05-02T12:12:01.998Z</time></trkpt><trkpt lat="44.871039569525614" lon="7.302657122210365"><ele>392.5</ele><time>2026-05-02T12:12:02.998Z</time></trkpt><trkpt lat="44.871080553703834" lon="7.302820545949881"><ele>391.0</ele><time>2026-05-02T12:12:03.998Z</time></trkpt><trkpt lat="44.87112067117463" lon="7.302988896386105"><ele>389.5</ele><time>2026-05-02T12:12:04.998Z</time></trkpt><trkpt lat="44.87116343703381" lon="7.30314174291561"><ele>388.0</ele><time>2026-05-02T12:12:05.998Z</time></trkpt><trkpt lat="44.87120165385872" lon="7.3032875338350225"><ele>388.0</ele><time>2026-05-02T12:12:06.998Z</time></trkpt><trkpt lat="44.87123820605931" lon="7.303423293804892"><ele>388.0</ele><time>2026-05-02T12:12:07.998Z</time></trkpt><trkpt lat="44.87128987843857" lon="7.30355226529862"><ele>388.0</ele><time>2026-05-02T12:12:08.998Z</time></trkpt><trkpt lat="44.8713744049847" lon="7.303672121197713"><ele>388.0</ele><time>2026-05-02T12:12:09.998Z</time></trkpt><trkpt lat="44.87148045930678" lon="7.303760412206633"><ele>388.0</ele><time>2026-05-02T12:12:10.998Z</time></trkpt><trkpt lat="44.87158691564005" lon="7.303811073032774"><ele>388.0</ele><time>2026-05-02T12:12:11.998Z</time></trkpt><trkpt lat="44.87168549160352" lon="7.303865448709291"><ele>388.0</ele><time>2026-05-02T12:12:12.998Z</time></trkpt><trkpt lat="44.871775793901534" lon="7.303942157718518"><ele>388.0</ele><time>2026-05-02T12:12:13.998Z</time></trkpt><trkpt lat="44.871869912791915" lon="7.304048206415307"><ele>388.0</ele><time>2026-05-02T12:12:14.998Z</time></trkpt><trkpt lat="44.8719571946026" lon="7.304172446976764"><ele>387.75</ele><time>2026-05-02T12:12:15.998Z</time></trkpt><trkpt lat="44.872029422890506" lon="7.304309900394573"><ele>387.5</ele><time>2026-05-02T12:12:16.998Z</time></trkpt><trkpt lat="44.87208555699458" lon="7.304455914447971"><ele>387.25</ele><time>2026-05-02T12:12:17.998Z</time></trkpt><trkpt lat="44.872137523740186" lon="7.304611223269328"><ele>387.0</ele><time>2026-05-02T12:12:18.998Z</time></trkpt><trkpt lat="44.87218926875145" lon="7.304766529714901"><ele>386.5</ele><time>2026-05-02T12:12:19.998Z</time></trkpt><trkpt lat="44.872244818218036" lon="7.304931849438481"><ele>386.0</ele><time>2026-05-02T12:12:20.998Z</time></trkpt><trkpt lat="44.87229352767784" lon="7.30508695446751"><ele>385.5</ele><time>2026-05-02T12:12:21.998Z</time></trkpt><trkpt lat="44.87232950983888" lon="7.305234675807937"><ele>385.0</ele><time>2026-05-02T12:12:22.998Z</time></trkpt><trkpt lat="44.87236321908576" lon="7.3053778482607"><ele>385.0</ele><time>2026-05-02T12:12:23.998Z</time></trkpt><trkpt lat="44.8723977227311" lon="7.305533200709712"><ele>385.0</ele><time>2026-05-02T12:12:24.998Z</time></trkpt><trkpt lat="44.872440868485825" lon="7.305703631613736"><ele>385.0</ele><time>2026-05-02T12:12:25.998Z</time></trkpt><trkpt lat="44.872491804847435" lon="7.305857639891692"><ele>385.0</ele><time>2026-05-02T12:12:26.998Z</time></trkpt><trkpt lat="44.87255939663547" lon="7.305991062181602"><ele>384.75</ele><time>2026-05-02T12:12:27.998Z</time></trkpt><trkpt lat="44.872645182093514" lon="7.3061129712381"><ele>384.5</ele><time>2026-05-02T12:12:28.998Z</time></trkpt><trkpt lat="44.872743103581506" lon="7.30620712332486"><ele>384.25</ele><time>2026-05-02T12:12:30Z</time></trkpt><trkpt lat="44.87284993299177" lon="7.306273764161415"><ele>384.0</ele><time>2026-05-02T12:12:31Z</time></trkpt><trkpt lat="44.872968117013144" lon="7.306332209893029"><ele>384.0</ele><time>2026-05-02T12:12:32Z</time></trkpt><trkpt lat="44.87308006439945" lon="7.306383390975167"><ele>384.0</ele><time>2026-05-02T12:12:33Z</time></trkpt><trkpt lat="44.8731871739283" lon="7.306424721747973"><ele>384.0</ele><time>2026-05-02T12:12:34Z</time></trkpt><trkpt lat="44.87329019637426" lon="7.3064542472923355"><ele>384.0</ele><time>2026-05-02T12:12:35Z</time></trkpt><trkpt lat="44.87338963973655" lon="7.306474884835193"><ele>384.0</ele><time>2026-05-02T12:12:36Z</time></trkpt><trkpt lat="44.87348293185091" lon="7.306509208664977"><ele>384.2</ele><time>2026-05-02T12:12:37Z</time></trkpt><trkpt lat="44.8735754983823" lon="7.306562394801516"><ele>384.4</ele><time>2026-05-02T12:12:38Z</time></trkpt><trkpt lat="44.87366912871175" lon="7.306643890547882"><ele>384.6</ele><time>2026-05-02T12:12:39Z</time></trkpt><trkpt lat="44.87374145971366" lon="7.306737187069364"><ele>384.8</ele><time>2026-05-02T12:12:40Z</time></trkpt><trkpt lat="44.87379676571627" lon="7.306869373235085"><ele>385.0</ele><time>2026-05-02T12:12:41Z</time></trkpt><trkpt lat="44.873851055715875" lon="7.306990351462204"><ele>385.0</ele><time>2026-05-02T12:12:42Z</time></trkpt><trkpt lat="44.87385082186087" lon="7.307170176252029"><ele>385.0</ele><time>2026-05-02T12:12:43Z</time></trkpt><trkpt lat="44.873863963230626" lon="7.3073384896098235"><ele>385.0</ele><time>2026-05-02T12:12:44Z</time></trkpt><trkpt lat="44.87387472704238" lon="7.307491599957228"><ele>385.0</ele><time>2026-05-02T12:12:45Z</time></trkpt><trkpt lat="44.8738846778956" lon="7.307643153532235"><ele>385.0</ele><time>2026-05-02T12:12:46Z</time></trkpt><trkpt lat="44.873897847971755" lon="7.3077936756125235"><ele>385.0</ele><time>2026-05-02T12:12:47Z</time></trkpt><trkpt lat="44.87390933022517" lon="7.307928094160684"><ele>385.0</ele><time>2026-05-02T12:12:48Z</time></trkpt><trkpt lat="44.87392216651595" lon="7.308058649731104"><ele>385.0</ele><time>2026-05-02T12:12:49Z</time></trkpt><trkpt lat="44.87393397877331" lon="7.308189303884143"><ele>385.0</ele><time>2026-05-02T12:12:50Z</time></trkpt><trkpt lat="44.87394409782643" lon="7.308324878968134"><ele>385.00000000000006</ele><time>2026-05-02T12:12:51Z</time></trkpt><trkpt lat="44.8739613591053" lon="7.3084449676983185"><ele>385.0</ele><time>2026-05-02T12:12:52Z</time></trkpt><trkpt lat="44.87398929967943" lon="7.308534782359733"><ele>385.0</ele><time>2026-05-02T12:12:53Z</time></trkpt><trkpt lat="44.87402345332448" lon="7.308616889057845"><ele>385.0</ele><time>2026-05-02T12:12:54Z</time></trkpt><trkpt lat="44.8740540346057" lon="7.30872477807136"><ele>385.00000000000006</ele><time>2026-05-02T12:12:55Z</time></trkpt><trkpt lat="44.874083167283246" lon="7.3088401192870895"><ele>385.0</ele><time>2026-05-02T12:12:56Z</time></trkpt><trkpt lat="44.87411683342764" lon="7.308962027411714"><ele>385.0</ele><time>2026-05-02T12:12:57Z</time></trkpt><trkpt lat="44.87415553648519" lon="7.309089121666133"><ele>385.0</ele><time>2026-05-02T12:12:58Z</time></trkpt><trkpt lat="44.874193294114754" lon="7.309218701217017"><ele>385.0</ele><time>2026-05-02T12:12:59Z</time></trkpt><trkpt lat="44.874236896945895" lon="7.309336395506321"><ele>385.0</ele><time>2026-05-02T12:13:00Z</time></trkpt><trkpt lat="44.8742681066346" lon="7.309442854473701"><ele>385.0</ele><time>2026-05-02T12:13:01Z</time></trkpt><trkpt lat="44.87431018824788" lon="7.3095390569201335"><ele>384.4</ele><time>2026-05-02T12:13:02Z</time></trkpt><trkpt lat="44.874355140976284" lon="7.309643443836369"><ele>383.8</ele><time>2026-05-02T12:13:03Z</time></trkpt><trkpt lat="44.87440515117709" lon="7.309760232873626"><ele>383.20000000000005</ele><time>2026-05-02T12:13:04Z</time></trkpt><trkpt lat="44.87446057858855" lon="7.309883311071845"><ele>382.6</ele><time>2026-05-02T12:13:05Z</time></trkpt><trkpt lat="44.87452549793051" lon="7.3100131949829175"><ele>382.0</ele><time>2026-05-02T12:13:05.999Z</time></trkpt><trkpt lat="44.874594811735186" lon="7.310149570999487"><ele>381.5</ele><time>2026-05-02T12:13:06.999Z</time></trkpt><trkpt lat="44.874668019121586" lon="7.310280552172622"><ele>381.0</ele><time>2026-05-02T12:13:07.999Z</time></trkpt><trkpt lat="44.87475126656573" lon="7.310423858422985"><ele>380.5</ele><time>2026-05-02T12:13:08.999Z</time></trkpt><trkpt lat="44.87484956423723" lon="7.310578106183929"><ele>380.0</ele><time>2026-05-02T12:13:09.999Z</time></trkpt><trkpt lat="44.87494629949562" lon="7.310719975901549"><ele>379.75</ele><time>2026-05-02T12:13:10.999Z</time></trkpt><trkpt lat="44.8750408261095" lon="7.310845609472312"><ele>379.5</ele><time>2026-05-02T12:13:11.999Z</time></trkpt><trkpt lat="44.87514774991699" lon="7.31097639406174"><ele>379.25</ele><time>2026-05-02T12:13:12.999Z</time></trkpt><trkpt lat="44.87526803777916" lon="7.311109238385664"><ele>379.0</ele><time>2026-05-02T12:13:13.999Z</time></trkpt><trkpt lat="44.875383397228156" lon="7.311224445883655"><ele>379.25</ele><time>2026-05-02T12:13:14.999Z</time></trkpt><trkpt lat="44.87550454452421" lon="7.3113323856796475"><ele>379.5</ele><time>2026-05-02T12:13:15.999Z</time></trkpt><trkpt lat="44.87561808289183" lon="7.311429267294019"><ele>379.75</ele><time>2026-05-02T12:13:16.999Z</time></trkpt><trkpt lat="44.8757235589107" lon="7.3115138151735675"><ele>380.0</ele><time>2026-05-02T12:13:17.999Z</time></trkpt><trkpt lat="44.87583061497571" lon="7.311593183119337"><ele>380.5</ele><time>2026-05-02T12:13:18.999Z</time></trkpt><trkpt lat="44.87593917190657" lon="7.311675955214141"><ele>381.0</ele><time>2026-05-02T12:13:19.999Z</time></trkpt><trkpt lat="44.87604557220281" lon="7.311761606472437"><ele>381.5</ele><time>2026-05-02T12:13:20.999Z</time></trkpt><trkpt lat="44.876161374140636" lon="7.3118539073391124"><ele>382.0</ele><time>2026-05-02T12:13:21.999Z</time></trkpt><trkpt lat="44.87628669855053" lon="7.311959685961745"><ele>382.0</ele><time>2026-05-02T12:13:22.999Z</time></trkpt><trkpt lat="44.876400533391525" lon="7.312058971735478"><ele>382.0</ele><time>2026-05-02T12:13:23.999Z</time></trkpt><trkpt lat="44.87651463162543" lon="7.312163058041448"><ele>382.0</ele><time>2026-05-02T12:13:24.999Z</time></trkpt><trkpt lat="44.876619822907486" lon="7.312267109944429"><ele>382.0</ele><time>2026-05-02T12:13:25.999Z</time></trkpt><trkpt lat="44.87672538493928" lon="7.312371763412018"><ele>382.40000000000003</ele><time>2026-05-02T12:13:26.999Z</time></trkpt><trkpt lat="44.876815162402075" lon="7.312463421655073"><ele>382.8</ele><time>2026-05-02T12:13:27.999Z</time></trkpt><trkpt lat="44.876891561427655" lon="7.312542937447393"><ele>383.2</ele><time>2026-05-02T12:13:28.999Z</time></trkpt><trkpt lat="44.87697148594369" lon="7.312631745041933"><ele>383.6</ele><time>2026-05-02T12:13:29.999Z</time></trkpt><trkpt lat="44.87706598022841" lon="7.312731615191793"><ele>384.0</ele><time>2026-05-02T12:13:30.999Z</time></trkpt><trkpt lat="44.87717338674228" lon="7.312837039885797"><ele>384.0</ele><time>2026-05-02T12:13:31.999Z</time></trkpt><trkpt lat="44.87726867254574" lon="7.312924768084477"><ele>384.0</ele><time>2026-05-02T12:13:32.999Z</time></trkpt><trkpt lat="44.87735257977574" lon="7.312993509134857"><ele>384.0</ele><time>2026-05-02T12:13:33.999Z</time></trkpt><trkpt lat="44.87743276850662" lon="7.313047076865699"><ele>384.0</ele><time>2026-05-02T12:13:34.999Z</time></trkpt><trkpt lat="44.877516921083576" lon="7.31308709175283"><ele>384.0</ele><time>2026-05-02T12:13:35.999Z</time></trkpt><trkpt lat="44.87760398478086" lon="7.313117540312346"><ele>384.0</ele><time>2026-05-02T12:13:36.999Z</time></trkpt><trkpt lat="44.87769108816362" lon="7.313147203021653"><ele>384.0</ele><time>2026-05-02T12:13:37.999Z</time></trkpt><trkpt lat="44.87777497579722" lon="7.3131701079181015"><ele>384.0</ele><time>2026-05-02T12:13:38.999Z</time></trkpt><trkpt lat="44.87786670435381" lon="7.313193962705136"><ele>384.0</ele><time>2026-05-02T12:13:39.999Z</time></trkpt><trkpt lat="44.87795593691324" lon="7.313229609671654"><ele>384.0</ele><time>2026-05-02T12:13:40.999Z</time></trkpt><trkpt lat="44.87802736429182" lon="7.31326222824162"><ele>384.0</ele><time>2026-05-02T12:13:41.999Z</time></trkpt><trkpt lat="44.8780919349301" lon="7.313288525239574"><ele>383.99999999999994</ele><time>2026-05-02T12:13:42.999Z</time></trkpt><trkpt lat="44.87815412983637" lon="7.313309643447011"><ele>384.0</ele><time>2026-05-02T12:13:43.999Z</time></trkpt><trkpt lat="44.87821608725289" lon="7.313329945570484"><ele>384.0</ele><time>2026-05-02T12:13:44.999Z</time></trkpt><trkpt lat="44.87828915730062" lon="7.313350449045627"><ele>384.0</ele><time>2026-05-02T12:13:45.999Z</time></trkpt><trkpt lat="44.87836565428724" lon="7.31337481469594"><ele>384.0</ele><time>2026-05-02T12:13:46.999Z</time></trkpt><trkpt lat="44.87843202111807" lon="7.313399650269521"><ele>383.99999999999994</ele><time>2026-05-02T12:13:47.999Z</time></trkpt><trkpt lat="44.87850830606919" lon="7.313427095518787"><ele>384.0</ele><time>2026-05-02T12:13:48.999Z</time></trkpt><trkpt lat="44.87859357652027" lon="7.313460444206764"><ele>384.2</ele><time>2026-05-02T12:13:49.999Z</time></trkpt><trkpt lat="44.8786902460314" lon="7.313497314049974"><ele>384.4</ele><time>2026-05-02T12:13:50.999Z</time></trkpt><trkpt lat="44.87879485627461" lon="7.313547658169717"><ele>384.6</ele><time>2026-05-02T12:13:51.999Z</time></trkpt><trkpt lat="44.8788949445309" lon="7.313605073696018"><ele>384.8</ele><time>2026-05-02T12:13:52.998Z</time></trkpt><trkpt lat="44.87898446469764" lon="7.313659838920223"><ele>385.0</ele><time>2026-05-02T12:13:53.998Z</time></trkpt><trkpt lat="44.879071498691694" lon="7.313723723418197"><ele>385.0</ele><time>2026-05-02T12:13:54.998Z</time></trkpt><trkpt lat="44.87915010145827" lon="7.3137846674819915"><ele>385.0</ele><time>2026-05-02T12:13:55.998Z</time></trkpt><trkpt lat="44.87922558950561" lon="7.313841957047294"><ele>385.0</ele><time>2026-05-02T12:13:56.998Z</time></trkpt><trkpt lat="44.879307143325775" lon="7.3139117019720565"><ele>385.0</ele><time>2026-05-02T12:13:57.998Z</time></trkpt><trkpt lat="44.87940396920547" lon="7.313985925778334"><ele>385.0</ele><time>2026-05-02T12:13:58.998Z</time></trkpt><trkpt lat="44.879517345637815" lon="7.314074343371808"><ele>385.0</ele><time>2026-05-02T12:13:59.998Z</time></trkpt><trkpt lat="44.87963335626574" lon="7.314161357128355"><ele>385.0</ele><time>2026-05-02T12:14:00.998Z</time></trkpt><trkpt lat="44.87973659708304" lon="7.314243593316073"><ele>385.0</ele><time>2026-05-02T12:14:01.998Z</time></trkpt><trkpt lat="44.879835400447114" lon="7.314318736501403"><ele>385.0</ele><time>2026-05-02T12:14:02.998Z</time></trkpt><trkpt lat="44.87993479448937" lon="7.314386365988975"><ele>385.0</ele><time>2026-05-02T12:14:03.998Z</time></trkpt><trkpt lat="44.88003346556841" lon="7.314454667797621"><ele>385.0</ele><time>2026-05-02T12:14:04.998Z</time></trkpt><trkpt lat="44.88011038570555" lon="7.314515633354537"><ele>385.0</ele><time>2026-05-02T12:14:05.998Z</time></trkpt><trkpt lat="44.88017338329291" lon="7.314562191805367"><ele>385.0</ele><time>2026-05-02T12:14:06.998Z</time></trkpt><trkpt lat="44.880269453546504" lon="7.314643430683701"><ele>385.0</ele><time>2026-05-02T12:14:08.998Z</time></trkpt><trkpt lat="44.8802655019315" lon="7.314793362647788"><ele>385.00000000000006</ele><time>2026-05-02T12:14:09.998Z</time></trkpt><trkpt lat="44.880280879314505" lon="7.314893992397801"><ele>385.0</ele><time>2026-05-02T12:14:10.998Z</time></trkpt><trkpt lat="44.88032675098022" lon="7.314960586652008"><ele>385.0</ele><time>2026-05-02T12:14:11.998Z</time></trkpt><trkpt lat="44.88040246686723" lon="7.3149932923594445"><ele>385.0</ele><time>2026-05-02T12:14:12.998Z</time></trkpt><trkpt lat="44.88048777815841" lon="7.3149735768246495"><ele>385.00000000000006</ele><time>2026-05-02T12:14:13.998Z</time></trkpt><trkpt lat="44.88056212190268" lon="7.31490011905533"><ele>385.0</ele><time>2026-05-02T12:14:14.998Z</time></trkpt><trkpt lat="44.880631990025734" lon="7.31478172923971"><ele>385.0</ele><time>2026-05-02T12:14:15.998Z</time></trkpt><trkpt lat="44.880714315809485" lon="7.314667970463886"><ele>385.0</ele><time>2026-05-02T12:14:16.998Z</time></trkpt><trkpt lat="44.880825923544656" lon="7.314612744823873"><ele>385.0</ele><time>2026-05-02T12:14:17.998Z</time></trkpt><trkpt lat="44.88096962422161" lon="7.3146092582325375"><ele>385.0</ele><time>2026-05-02T12:14:18.998Z</time></trkpt><trkpt lat="44.88111665922831" lon="7.314629653329271"><ele>385.0</ele><time>2026-05-02T12:14:19.998Z</time></trkpt><trkpt lat="44.8812408181839" lon="7.314642285151079"><ele>385.0</ele><time>2026-05-02T12:14:20.998Z</time></trkpt><trkpt lat="44.88136033563676" lon="7.314646274873624"><ele>385.0</ele><time>2026-05-02T12:14:21.998Z</time></trkpt><trkpt lat="44.88148044370324" lon="7.314648514695342"><ele>385.0</ele><time>2026-05-02T12:14:22.998Z</time></trkpt><trkpt lat="44.88159789173827" lon="7.314651796255605"><ele>385.0</ele><time>2026-05-02T12:14:23.998Z</time></trkpt><trkpt lat="44.881722269804165" lon="7.314656372556075"><ele>385.0</ele><time>2026-05-02T12:14:24.998Z</time></trkpt><trkpt lat="44.88185006980051" lon="7.314659433352579"><ele>385.0</ele><time>2026-05-02T12:14:25.998Z</time></trkpt><trkpt lat="44.88198287629428" lon="7.3146606449177005"><ele>385.0</ele><time>2026-05-02T12:14:26.998Z</time></trkpt><trkpt lat="44.88210814684467" lon="7.314663091287476"><ele>385.0</ele><time>2026-05-02T12:14:27.998Z</time></trkpt><trkpt lat="44.88223784754016" lon="7.314663137060883"><ele>385.0</ele><time>2026-05-02T12:14:28.998Z</time></trkpt><trkpt lat="44.88236908179677" lon="7.314664111375335"><ele>385.0</ele><time>2026-05-02T12:14:29.998Z</time></trkpt><trkpt lat="44.882488814230754" lon="7.314667345788523"><ele>385.0</ele><time>2026-05-02T12:14:30.998Z</time></trkpt><trkpt lat="44.88260570401227" lon="7.314666641109501"><ele>385.5</ele><time>2026-05-02T12:14:31.998Z</time></trkpt><trkpt lat="44.88273386088636" lon="7.314671679651059"><ele>386.0</ele><time>2026-05-02T12:14:32.998Z</time></trkpt><trkpt lat="44.88286221157281" lon="7.314673659478595"><ele>386.5</ele><time>2026-05-02T12:14:33.998Z</time></trkpt><trkpt lat="44.88298190287045" lon="7.314681904726964"><ele>387.0</ele><time>2026-05-02T12:14:34.998Z</time></trkpt><trkpt lat="44.88310976596421" lon="7.314690942877069"><ele>387.0</ele><time>2026-05-02T12:14:36Z</time></trkpt><trkpt lat="44.8832500461485" lon="7.314693719775988"><ele>387.0</ele><time>2026-05-02T12:14:37Z</time></trkpt><trkpt lat="44.8833733606457" lon="7.314679791053196"><ele>387.0</ele><time>2026-05-02T12:14:38Z</time></trkpt><trkpt lat="44.88349515544977" lon="7.3146929607177364"><ele>387.0</ele><time>2026-05-02T12:14:39Z</time></trkpt><trkpt lat="44.883605001003296" lon="7.3146964785207"><ele>386.8</ele><time>2026-05-02T12:14:40Z</time></trkpt><trkpt lat="44.883710169905754" lon="7.314692926604009"><ele>386.6</ele><time>2026-05-02T12:14:41Z</time></trkpt><trkpt lat="44.88381627172018" lon="7.3146962017099275"><ele>386.40000000000003</ele><time>2026-05-02T12:14:42Z</time></trkpt><trkpt lat="44.88390747975738" lon="7.314699585874637"><ele>386.20000000000005</ele><time>2026-05-02T12:14:43Z</time></trkpt><trkpt lat="44.88398277698826" lon="7.314678732837554"><ele>386.0</ele><time>2026-05-02T12:14:44Z</time></trkpt><trkpt lat="44.88405997338993" lon="7.31469563965862"><ele>385.99999999999994</ele><time>2026-05-02T12:14:46Z</time></trkpt><trkpt lat="44.88417713776214" lon="7.314653998792141"><ele>386.0</ele><time>2026-05-02T12:15:05Z</time></trkpt><trkpt lat="44.88408637414678" lon="7.31463747812993"><ele>386.0</ele><time>2026-05-02T12:17:49.999Z</time></trkpt><trkpt lat="44.88406885182322" lon="7.314544683974275"><ele>386.0</ele><time>2026-05-02T12:17:53.999Z</time></trkpt><trkpt lat="44.88411192317308" lon="7.314621751268848"><ele>385.99999999999994</ele><time>2026-05-02T12:17:55.999Z</time></trkpt><trkpt lat="44.88419565887771" lon="7.314633748250445"><ele>386.0</ele><time>2026-05-02T12:17:56.999Z</time></trkpt><trkpt lat="44.88430175900737" lon="7.314640239476231"><ele>386.4</ele><time>2026-05-02T12:17:57.999Z</time></trkpt><trkpt lat="44.88443174914769" lon="7.314650732256993"><ele>386.8</ele><time>2026-05-02T12:17:58.999Z</time></trkpt><trkpt lat="44.884536525484386" lon="7.314684935859903"><ele>387.2</ele><time>2026-05-02T12:17:59.999Z</time></trkpt><trkpt lat="44.88465906008579" lon="7.314674059530313"><ele>387.59999999999997</ele><time>2026-05-02T12:18:01.998Z</time></trkpt><trkpt lat="44.8847253260224" lon="7.314662850097692"><ele>388.0</ele><time>2026-05-02T12:18:18.998Z</time></trkpt><trkpt lat="44.88481076783291" lon="7.314672220552125"><ele>388.0</ele><time>2026-05-02T12:18:19.998Z</time></trkpt><trkpt lat="44.88493108476187" lon="7.314676618824102"><ele>388.0</ele><time>2026-05-02T12:18:20.998Z</time></trkpt><trkpt lat="44.88505386882882" lon="7.314651188805703"><ele>388.0</ele><time>2026-05-02T12:18:21.998Z</time></trkpt><trkpt lat="44.88520969392672" lon="7.31465268882122"><ele>388.0</ele><time>2026-05-02T12:18:22.998Z</time></trkpt><trkpt lat="44.88532997115712" lon="7.314639920246381"><ele>388.2</ele><time>2026-05-02T12:18:23.998Z</time></trkpt><trkpt lat="44.88542314811243" lon="7.314659418319618"><ele>388.4</ele><time>2026-05-02T12:18:24.998Z</time></trkpt><trkpt lat="44.88549151777717" lon="7.314667318122199"><ele>388.59999999999997</ele><time>2026-05-02T12:18:25.998Z</time></trkpt><trkpt lat="44.88555902342452" lon="7.314680040051915"><ele>388.79999999999995</ele><time>2026-05-02T12:19:26.999Z</time></trkpt><trkpt lat="44.885638206564046" lon="7.314674477735033"><ele>389.0</ele><time>2026-05-02T12:19:28.999Z</time></trkpt><trkpt lat="44.88565676241146" lon="7.3144228149091886"><ele>389.0</ele><time>2026-05-02T12:19:29.999Z</time></trkpt><trkpt lat="44.88564785082651" lon="7.314238054260585"><ele>389.0</ele><time>2026-05-02T12:19:30.999Z</time></trkpt><trkpt lat="44.88565093447398" lon="7.3140069476025165"><ele>389.0</ele><time>2026-05-02T12:19:31.999Z</time></trkpt><trkpt lat="44.885650588718995" lon="7.313753112111069"><ele>389.5</ele><time>2026-05-02T12:19:32.999Z</time></trkpt><trkpt lat="44.885656063705014" lon="7.31344803628805"><ele>390.0</ele><time>2026-05-02T12:19:33.999Z</time></trkpt><trkpt lat="44.88567128262565" lon="7.313089228178664"><ele>390.0</ele><time>2026-05-02T12:19:34.999Z</time></trkpt><trkpt lat="44.8857152292182" lon="7.312768061106506"><ele>390.0</ele><time>2026-05-02T12:19:35.999Z</time></trkpt><trkpt lat="44.88572961864755" lon="7.3125339949748485"><ele>390.0</ele><time>2026-05-02T12:19:36.999Z</time></trkpt><trkpt lat="44.88574244037007" lon="7.312361849950715"><ele>390.4</ele><time>2026-05-02T12:19:37.999Z</time></trkpt><trkpt lat="44.885750494963524" lon="7.312237069246651"><ele>390.8</ele><time>2026-05-02T12:19:38.999Z</time></trkpt><trkpt lat="44.8857448610253" lon="7.312120762307697"><ele>391.20000000000005</ele><time>2026-05-02T12:19:39.999Z</time></trkpt><trkpt lat="44.88578410862188" lon="7.312021557178032"><ele>391.6</ele><time>2026-05-02T12:19:40.999Z</time></trkpt><trkpt lat="44.88583486838811" lon="7.311961215267019"><ele>392.0</ele><time>2026-05-02T12:19:41.999Z</time></trkpt><trkpt lat="44.88594985875643" lon="7.311864492017988"><ele>392.0</ele><time>2026-05-02T12:19:43.999Z</time></trkpt><trkpt lat="44.88599930679868" lon="7.312032545691185"><ele>392.0</ele><time>2026-05-02T12:19:44.999Z</time></trkpt><trkpt lat="44.88610261614175" lon="7.312112797434454"><ele>392.0</ele><time>2026-05-02T12:19:45.999Z</time></trkpt><trkpt lat="44.88620631442318" lon="7.312242695207754"><ele>392.0</ele><time>2026-05-02T12:19:46.999Z</time></trkpt><trkpt lat="44.88629668705425" lon="7.312350162613048"><ele>392.0</ele><time>2026-05-02T12:19:47.999Z</time></trkpt><trkpt lat="44.886396843968626" lon="7.312469888704049"><ele>392.0</ele><time>2026-05-02T12:19:48.999Z</time></trkpt><trkpt lat="44.88651862285069" lon="7.312605759070815"><ele>392.0</ele><time>2026-05-02T12:19:49.999Z</time></trkpt><trkpt lat="44.88658070880808" lon="7.312660673425516"><ele>392.0</ele><time>2026-05-02T12:19:50.999Z</time></trkpt><trkpt lat="44.88663041813694" lon="7.312771556079047"><ele>392.0</ele><time>2026-05-02T12:19:51.999Z</time></trkpt><trkpt lat="44.88670870196205" lon="7.312867593031757"><ele>392.0</ele><time>2026-05-02T12:19:52.999Z</time></trkpt><trkpt lat="44.88672191166371" lon="7.313118437862174"><ele>392.0</ele><time>2026-05-02T12:19:53.999Z</time></trkpt><trkpt lat="44.88677637110361" lon="7.313371542940592"><ele>392.0</ele><time>2026-05-02T12:19:54.999Z</time></trkpt><trkpt lat="44.88684452730717" lon="7.313665240594904"><ele>392.0</ele><time>2026-05-02T12:19:55.999Z</time></trkpt><trkpt lat="44.886900090581385" lon="7.313911693299126"><ele>392.0</ele><time>2026-05-02T12:19:56.999Z</time></trkpt><trkpt lat="44.88691883507379" lon="7.314110551979833"><ele>392.20000000000005</ele><time>2026-05-02T12:19:57.999Z</time></trkpt><trkpt lat="44.886952934050726" lon="7.3142786592300775"><ele>392.4</ele><time>2026-05-02T12:19:58.999Z</time></trkpt><trkpt lat="44.887017748035746" lon="7.3143854148156855"><ele>392.6</ele><time>2026-05-02T12:19:59.999Z</time></trkpt><trkpt lat="44.88710755288618" lon="7.314388019116521"><ele>392.79999999999995</ele><time>2026-05-02T12:20:00.999Z</time></trkpt><trkpt lat="44.88721858078861" lon="7.314370282910729"><ele>393.0</ele><time>2026-05-02T12:20:01.999Z</time></trkpt><trkpt lat="44.887332663582484" lon="7.314311926556952"><ele>393.0</ele><time>2026-05-02T12:20:02.999Z</time></trkpt><trkpt lat="44.88749106382774" lon="7.314245620550672"><ele>393.0</ele><time>2026-05-02T12:20:03.998Z</time></trkpt><trkpt lat="44.88765129944446" lon="7.314230123189075"><ele>393.0</ele><time>2026-05-02T12:20:04.998Z</time></trkpt><trkpt lat="44.887860342003506" lon="7.314167330678831"><ele>393.0</ele><time>2026-05-02T12:20:05.998Z</time></trkpt><trkpt lat="44.8880668372596" lon="7.314083016397852"><ele>393.0</ele><time>2026-05-02T12:20:06.998Z</time></trkpt><trkpt lat="44.88824558839925" lon="7.3140179858234395"><ele>393.0</ele><time>2026-05-02T12:20:07.998Z</time></trkpt><trkpt lat="44.888409729416104" lon="7.313949102136001"><ele>393.75</ele><time>2026-05-02T12:20:08.998Z</time></trkpt><trkpt lat="44.88856057384178" lon="7.3138896839754715"><ele>394.5</ele><time>2026-05-02T12:20:09.998Z</time></trkpt><trkpt lat="44.88870404137222" lon="7.313811767967228"><ele>395.25</ele><time>2026-05-02T12:20:10.998Z</time></trkpt><trkpt lat="44.88883097267408" lon="7.313762278722804"><ele>396.0</ele><time>2026-05-02T12:20:11.998Z</time></trkpt><trkpt lat="44.88893392723171" lon="7.31371978529016"><ele>396.0</ele><time>2026-05-02T12:20:12.998Z</time></trkpt><trkpt lat="44.88901279372995" lon="7.313677993629884"><ele>396.0</ele><time>2026-05-02T12:20:13.998Z</time></trkpt><trkpt lat="44.88911243355355" lon="7.313622241103747"><ele>396.0</ele><time>2026-05-02T12:20:15.998Z</time></trkpt><trkpt lat="44.8892000852407" lon="7.3137301581257494"><ele>396.0</ele><time>2026-05-02T12:20:16.998Z</time></trkpt><trkpt lat="44.88928257255103" lon="7.313788380402683"><ele>396.0</ele><time>2026-05-02T12:20:17.998Z</time></trkpt><trkpt lat="44.88938902128685" lon="7.313870660617438"><ele>396.25</ele><time>2026-05-02T12:20:18.998Z</time></trkpt><trkpt lat="44.88949854955357" lon="7.313969039865126"><ele>396.5</ele><time>2026-05-02T12:20:19.998Z</time></trkpt><trkpt lat="44.88959781330567" lon="7.314094692322723"><ele>396.75</ele><time>2026-05-02T12:20:20.998Z</time></trkpt><trkpt lat="44.88968823793196" lon="7.31423703729634"><ele>397.0</ele><time>2026-05-02T12:20:21.998Z</time></trkpt><trkpt lat="44.88978289303912" lon="7.314379813495083"><ele>397.0</ele><time>2026-05-02T12:20:22.998Z</time></trkpt><trkpt lat="44.889871406502046" lon="7.314509493496657"><ele>397.0</ele><time>2026-05-02T12:20:23.998Z</time></trkpt><trkpt lat="44.8899883586789" lon="7.314593151287075"><ele>397.0</ele><time>2026-05-02T12:20:24.998Z</time></trkpt><trkpt lat="44.890119911750645" lon="7.314632711510744"><ele>397.0</ele><time>2026-05-02T12:20:25.998Z</time></trkpt><trkpt lat="44.89028949834503" lon="7.3146751754593815"><ele>396.75</ele><time>2026-05-02T12:20:26.998Z</time></trkpt><trkpt lat="44.89044750791775" lon="7.314726426962176"><ele>396.5</ele><time>2026-05-02T12:20:27.998Z</time></trkpt><trkpt lat="44.890577273749315" lon="7.314816845647492"><ele>396.25</ele><time>2026-05-02T12:20:28.998Z</time></trkpt><trkpt lat="44.89069223211791" lon="7.314904266672313"><ele>396.0</ele><time>2026-05-02T12:20:29.998Z</time></trkpt><trkpt lat="44.89080466579034" lon="7.314985603437929"><ele>396.33333333333337</ele><time>2026-05-02T12:20:30.998Z</time></trkpt><trkpt lat="44.890938870653805" lon="7.315038866963428"><ele>396.6666666666667</ele><time>2026-05-02T12:20:31.998Z</time></trkpt><trkpt lat="44.891094889516275" lon="7.315033846537846"><ele>397.0</ele><time>2026-05-02T12:20:32.998Z</time></trkpt><trkpt lat="44.8912554765309" lon="7.315054076120091"><ele>397.0</ele><time>2026-05-02T12:20:33.998Z</time></trkpt><trkpt lat="44.89139397706742" lon="7.31504764872073"><ele>397.0</ele><time>2026-05-02T12:20:34.998Z</time></trkpt><trkpt lat="44.891535232349575" lon="7.315024347746423"><ele>397.0</ele><time>2026-05-02T12:20:35.998Z</time></trkpt><trkpt lat="44.891660511090144" lon="7.314982454405454"><ele>397.0</ele><time>2026-05-02T12:20:36.998Z</time></trkpt><trkpt lat="44.89175268486829" lon="7.3149375520641655"><ele>397.25</ele><time>2026-05-02T12:20:37.998Z</time></trkpt><trkpt lat="44.89182182779488" lon="7.314848781952625"><ele>397.5</ele><time>2026-05-02T12:20:38.998Z</time></trkpt><trkpt lat="44.89190038455629" lon="7.314694084488478"><ele>397.75</ele><time>2026-05-02T12:20:39.998Z</time></trkpt><trkpt lat="44.89201768242253" lon="7.314515236648942"><ele>398.0</ele><time>2026-05-02T12:20:40.998Z</time></trkpt><trkpt lat="44.89214384368949" lon="7.314341456347276"><ele>398.66666666666663</ele><time>2026-05-02T12:20:41.998Z</time></trkpt><trkpt lat="44.89226624027747" lon="7.314220849508245"><ele>399.33333333333337</ele><time>2026-05-02T12:20:42.998Z</time></trkpt><trkpt lat="44.89240627062919" lon="7.314125982007562"><ele>400.0</ele><time>2026-05-02T12:20:43.998Z</time></trkpt><trkpt lat="44.8925602688824" lon="7.314048840431187"><ele>400.0</ele><time>2026-05-02T12:20:44.998Z</time></trkpt><trkpt lat="44.8926601358636" lon="7.3139237451734145"><ele>400.0</ele><time>2026-05-02T12:20:45.998Z</time></trkpt><trkpt lat="44.89274166735834" lon="7.313745780481315"><ele>400.0</ele><time>2026-05-02T12:20:46.998Z</time></trkpt><trkpt lat="44.89282244891307" lon="7.313605029394574"><ele>400.0</ele><time>2026-05-02T12:20:47.998Z</time></trkpt><trkpt lat="44.892921207630636" lon="7.313494169755247"><ele>401.6666666666667</ele><time>2026-05-02T12:20:48.998Z</time></trkpt><trkpt lat="44.89304695717547" lon="7.313414072574576"><ele>403.33333333333337</ele><time>2026-05-02T12:20:49.998Z</time></trkpt><trkpt lat="44.893196259561506" lon="7.313354187543387"><ele>405.0</ele><time>2026-05-02T12:20:50.997Z</time></trkpt><trkpt lat="44.893351937296764" lon="7.313312066149575"><ele>407.5</ele><time>2026-05-02T12:20:51.997Z</time></trkpt><trkpt lat="44.89351673569773" lon="7.313290870524978"><ele>410.0</ele><time>2026-05-02T12:20:52.997Z</time></trkpt><trkpt lat="44.89365666733104" lon="7.313291208065174"><ele>412.5</ele><time>2026-05-02T12:20:54Z</time></trkpt><trkpt lat="44.893744935307936" lon="7.313236112771393"><ele>415.0</ele><time>2026-05-02T12:20:55Z</time></trkpt><trkpt lat="44.89381221554882" lon="7.313122631760746"><ele>417.25</ele><time>2026-05-02T12:20:56Z</time></trkpt><trkpt lat="44.893881669744594" lon="7.312965636234077"><ele>419.5</ele><time>2026-05-02T12:20:57Z</time></trkpt><trkpt lat="44.89395821072276" lon="7.312776716911924"><ele>421.75</ele><time>2026-05-02T12:20:58Z</time></trkpt><trkpt lat="44.894009368110076" lon="7.312598691566283"><ele>424.0</ele><time>2026-05-02T12:20:59Z</time></trkpt><trkpt lat="44.894015190119404" lon="7.312408120147058"><ele>424.75</ele><time>2026-05-02T12:21:00Z</time></trkpt><trkpt lat="44.8940235856324" lon="7.312192358284011"><ele>425.5</ele><time>2026-05-02T12:21:01Z</time></trkpt><trkpt lat="44.89406573895401" lon="7.312024457135769"><ele>426.25</ele><time>2026-05-02T12:21:02Z</time></trkpt><trkpt lat="44.89412949586602" lon="7.311871862949874"><ele>427.0</ele><time>2026-05-02T12:21:03Z</time></trkpt><trkpt lat="44.89422771520365" lon="7.311723126869114"><ele>428.6666666666667</ele><time>2026-05-02T12:21:04Z</time></trkpt><trkpt lat="44.89434632234087" lon="7.3115635587284595"><ele>430.33333333333337</ele><time>2026-05-02T12:21:05Z</time></trkpt><trkpt lat="44.89447916862078" lon="7.311381544239736"><ele>432.0</ele><time>2026-05-02T12:21:06Z</time></trkpt><trkpt lat="44.89461204677019" lon="7.311207683476019"><ele>432.66666666666663</ele><time>2026-05-02T12:21:07Z</time></trkpt><trkpt lat="44.89473964629111" lon="7.311077228413608"><ele>433.3333333333333</ele><time>2026-05-02T12:21:08Z</time></trkpt><trkpt lat="44.89488766287962" lon="7.310975393355971"><ele>434.0</ele><time>2026-05-02T12:21:09Z</time></trkpt><trkpt lat="44.895053268946846" lon="7.310806882323711"><ele>435.66666666666663</ele><time>2026-05-02T12:21:10Z</time></trkpt><trkpt lat="44.89519534094269" lon="7.310653118783765"><ele>437.33333333333337</ele><time>2026-05-02T12:21:11Z</time></trkpt><trkpt lat="44.895301161544985" lon="7.310502571857548"><ele>439.0</ele><time>2026-05-02T12:21:12Z</time></trkpt><trkpt lat="44.89540166957846" lon="7.310326271141754"><ele>439.0</ele><time>2026-05-02T12:21:13Z</time></trkpt><trkpt lat="44.895502920866704" lon="7.310140765401362"><ele>439.0</ele><time>2026-05-02T12:21:14Z</time></trkpt><trkpt lat="44.895595758234826" lon="7.309974930830726"><ele>439.0</ele><time>2026-05-02T12:21:15Z</time></trkpt><trkpt lat="44.89568220634862" lon="7.309821970890605"><ele>438.5</ele><time>2026-05-02T12:21:16Z</time></trkpt><trkpt lat="44.89577140810085" lon="7.309680799398956"><ele>438.0</ele><time>2026-05-02T12:21:17Z</time></trkpt><trkpt lat="44.89586228606056" lon="7.309511089303064"><ele>437.5</ele><time>2026-05-02T12:21:18Z</time></trkpt><trkpt lat="44.89595588545062" lon="7.309343076413697"><ele>437.0</ele><time>2026-05-02T12:21:19Z</time></trkpt><trkpt lat="44.89602851228063" lon="7.309166867744691"><ele>437.0</ele><time>2026-05-02T12:21:20Z</time></trkpt><trkpt lat="44.896097588893774" lon="7.308973352167035"><ele>437.0</ele><time>2026-05-02T12:21:21Z</time></trkpt><trkpt lat="44.896166370268205" lon="7.308742295633672"><ele>437.0</ele><time>2026-05-02T12:21:21.999Z</time></trkpt><trkpt lat="44.896240548976735" lon="7.3085130241788265"><ele>438.5</ele><time>2026-05-02T12:21:22.999Z</time></trkpt><trkpt lat="44.896271208441384" lon="7.308316424122686"><ele>440.0</ele><time>2026-05-02T12:21:23.999Z</time></trkpt><trkpt lat="44.89629155086569" lon="7.308150955014701"><ele>441.5</ele><time>2026-05-02T12:21:24.999Z</time></trkpt><trkpt lat="44.89634013123919" lon="7.30800277667074"><ele>443.0</ele><time>2026-05-02T12:21:25.999Z</time></trkpt><trkpt lat="44.89642862447687" lon="7.307837355940642"><ele>445.66666666666663</ele><time>2026-05-02T12:21:26.999Z</time></trkpt><trkpt lat="44.896533195377216" lon="7.30765413953075"><ele>448.33333333333337</ele><time>2026-05-02T12:21:27.999Z</time></trkpt><trkpt lat="44.89660503676632" lon="7.307445883437208"><ele>451.0</ele><time>2026-05-02T12:21:28.999Z</time></trkpt><trkpt lat="44.89664585003161" lon="7.307261943985204"><ele>452.8</ele><time>2026-05-02T12:21:29.999Z</time></trkpt><trkpt lat="44.89666089742588" lon="7.307105981573402"><ele>454.6</ele><time>2026-05-02T12:21:30.999Z</time></trkpt><trkpt lat="44.89663208390924" lon="7.306978000253701"><ele>456.4</ele><time>2026-05-02T12:21:31.999Z</time></trkpt><trkpt lat="44.896579734258296" lon="7.306881956309455"><ele>458.2</ele><time>2026-05-02T12:21:32.999Z</time></trkpt><trkpt lat="44.896475442324444" lon="7.306813809964407"><ele>460.0</ele><time>2026-05-02T12:21:33.999Z</time></trkpt><trkpt lat="44.896388669976126" lon="7.306735687428398"><ele>460.0</ele><time>2026-05-02T12:21:34.999Z</time></trkpt><trkpt lat="44.89633759368729" lon="7.3066707309642025"><ele>460.0</ele><time>2026-05-02T12:21:35.999Z</time></trkpt><trkpt lat="44.896365931650585" lon="7.306473227342055"><ele>460.0</ele><time>2026-05-02T12:21:37.999Z</time></trkpt><trkpt lat="44.896429422540976" lon="7.306345825751667"><ele>460.0</ele><time>2026-05-02T12:21:38.999Z</time></trkpt><trkpt lat="44.89648843065383" lon="7.306204367686321"><ele>460.0</ele><time>2026-05-02T12:21:39.999Z</time></trkpt><trkpt lat="44.89655218425128" lon="7.3060598466514115"><ele>460.4</ele><time>2026-05-02T12:21:40.999Z</time></trkpt><trkpt lat="44.8966358339396" lon="7.305934809809261"><ele>460.8</ele><time>2026-05-02T12:21:41.999Z</time></trkpt><trkpt lat="44.896729632827636" lon="7.305836448239459"><ele>461.20000000000005</ele><time>2026-05-02T12:21:42.999Z</time></trkpt><trkpt lat="44.8968202962366" lon="7.305755548867175"><ele>461.6</ele><time>2026-05-02T12:21:43.999Z</time></trkpt><trkpt lat="44.89690701661398" lon="7.3057304820116205"><ele>462.0</ele><time>2026-05-02T12:21:44.999Z</time></trkpt><trkpt lat="44.89700114585665" lon="7.305763320161688"><ele>463.20000000000005</ele><time>2026-05-02T12:21:45.999Z</time></trkpt><trkpt lat="44.89710391124288" lon="7.305813501577229"><ele>464.40000000000003</ele><time>2026-05-02T12:21:46.999Z</time></trkpt><trkpt lat="44.89718826641239" lon="7.3058221633163445"><ele>465.59999999999997</ele><time>2026-05-02T12:21:47.999Z</time></trkpt><trkpt lat="44.89726582727382" lon="7.3057565859705935"><ele>466.79999999999995</ele><time>2026-05-02T12:21:48.999Z</time></trkpt><trkpt lat="44.89735090763358" lon="7.305638379977717"><ele>468.0</ele><time>2026-05-02T12:21:49.999Z</time></trkpt><trkpt lat="44.8974519922775" lon="7.305477440654519"><ele>470.66666666666663</ele><time>2026-05-02T12:21:50.999Z</time></trkpt><trkpt lat="44.89756858499575" lon="7.305294486961634"><ele>473.3333333333333</ele><time>2026-05-02T12:21:51.999Z</time></trkpt><trkpt lat="44.89770891617616" lon="7.305081193266842"><ele>476.0</ele><time>2026-05-02T12:21:52.999Z</time></trkpt><trkpt lat="44.897846678932616" lon="7.304826843758631"><ele>479.3333333333333</ele><time>2026-05-02T12:21:53.999Z</time></trkpt><trkpt lat="44.897979480509434" lon="7.3045711389383055"><ele>482.66666666666663</ele><time>2026-05-02T12:21:54.999Z</time></trkpt><trkpt lat="44.89809044646966" lon="7.304346000505974"><ele>486.0</ele><time>2026-05-02T12:21:55.999Z</time></trkpt><trkpt lat="44.89813369474784" lon="7.304143983105906"><ele>486.0</ele><time>2026-05-02T12:21:56.999Z</time></trkpt><trkpt lat="44.89816145580605" lon="7.303980635691396"><ele>486.0</ele><time>2026-05-02T12:21:57.999Z</time></trkpt><trkpt lat="44.8981760901329" lon="7.303771480544485"><ele>486.0</ele><time>2026-05-02T12:21:58.999Z</time></trkpt><trkpt lat="44.898214188237674" lon="7.303634317147195"><ele>486.0</ele><time>2026-05-02T12:21:59.999Z</time></trkpt><trkpt lat="44.898264334103274" lon="7.30353126225934"><ele>488.6</ele><time>2026-05-02T12:22:00.999Z</time></trkpt><trkpt lat="44.89833534408727" lon="7.303441278075542"><ele>491.20000000000005</ele><time>2026-05-02T12:22:01.999Z</time></trkpt><trkpt lat="44.89839674552677" lon="7.303475410852215"><ele>493.79999999999995</ele><time>2026-05-02T12:22:02.999Z</time></trkpt><trkpt lat="44.89847578199423" lon="7.303566581144493"><ele>496.4</ele><time>2026-05-02T12:22:03.999Z</time></trkpt><trkpt lat="44.89855509446256" lon="7.303607384054395"><ele>499.0</ele><time>2026-05-02T12:22:04.999Z</time></trkpt><trkpt lat="44.89863470945829" lon="7.303703949644205"><ele>499.0</ele><time>2026-05-02T12:22:05.999Z</time></trkpt><trkpt lat="44.89871723552872" lon="7.303721923367348"><ele>499.0</ele><time>2026-05-02T12:22:06.999Z</time></trkpt><trkpt lat="44.89879409285764" lon="7.303721794759853"><ele>499.0</ele><time>2026-05-02T12:22:07.999Z</time></trkpt><trkpt lat="44.89888549863492" lon="7.3037162837272085"><ele>499.0</ele><time>2026-05-02T12:22:08.998Z</time></trkpt><trkpt lat="44.898964354556234" lon="7.3036225975149165"><ele>499.0</ele><time>2026-05-02T12:22:09.998Z</time></trkpt><trkpt lat="44.899055209426606" lon="7.3035214962087425"><ele>499.0</ele><time>2026-05-02T12:22:10.998Z</time></trkpt><trkpt lat="44.89912448238228" lon="7.303380040846024"><ele>499.0</ele><time>2026-05-02T12:22:11.998Z</time></trkpt><trkpt lat="44.89919355570521" lon="7.303276596233616"><ele>499.0</ele><time>2026-05-02T12:22:12.998Z</time></trkpt><trkpt lat="44.89925206065037" lon="7.3032087036540405"><ele>499.0</ele><time>2026-05-02T12:22:13.998Z</time></trkpt><trkpt lat="44.89934189595907" lon="7.303252338287043"><ele>499.0</ele><time>2026-05-02T12:22:15.998Z</time></trkpt><trkpt lat="44.89935281369807" lon="7.303362290893002"><ele>499.0</ele><time>2026-05-02T12:22:16.998Z</time></trkpt><trkpt lat="44.89924530647745" lon="7.303474321753569"><ele>499.0</ele><time>2026-05-02T12:22:17.998Z</time></trkpt><trkpt lat="44.899239539406295" lon="7.30359259018692"><ele>499.0</ele><time>2026-05-02T12:22:18.998Z</time></trkpt><trkpt lat="44.89927032470896" lon="7.303773791127481"><ele>499.0</ele><time>2026-05-02T12:22:20.998Z</time></trkpt><trkpt lat="44.89930366922554" lon="7.303886405347254"><ele>499.0</ele><time>2026-05-02T12:22:21.998Z</time></trkpt><trkpt lat="44.899371612091734" lon="7.304032374533641"><ele>500.25</ele><time>2026-05-02T12:22:22.998Z</time></trkpt><trkpt lat="44.8994215160513" lon="7.30419718439318"><ele>501.5</ele><time>2026-05-02T12:22:23.998Z</time></trkpt><trkpt lat="44.89949504292416" lon="7.3043400296507865"><ele>502.75</ele><time>2026-05-02T12:22:24.998Z</time></trkpt><trkpt lat="44.899571290329924" lon="7.304475596031237"><ele>504.0</ele><time>2026-05-02T12:22:25.998Z</time></trkpt><trkpt lat="44.89961659346101" lon="7.304572380450451"><ele>504.0</ele><time>2026-05-02T12:22:26.998Z</time></trkpt><trkpt lat="44.899651687404116" lon="7.304691415811389"><ele>504.0</ele><time>2026-05-02T12:22:27.998Z</time></trkpt><trkpt lat="44.899733902754576" lon="7.304837695165284"><ele>504.0</ele><time>2026-05-02T12:22:29.998Z</time></trkpt><trkpt lat="44.89980079951187" lon="7.304913592414325"><ele>504.0</ele><time>2026-05-02T12:22:30.998Z</time></trkpt><trkpt lat="44.89989672053416" lon="7.304973223712046"><ele>504.0</ele><time>2026-05-02T12:22:31.998Z</time></trkpt><trkpt lat="44.90001046269486" lon="7.304987958199668"><ele>501.66666666666663</ele><time>2026-05-02T12:22:32.998Z</time></trkpt><trkpt lat="44.90016482887635" lon="7.304953667015329"><ele>499.3333333333333</ele><time>2026-05-02T12:22:33.998Z</time></trkpt><trkpt lat="44.900353229371056" lon="7.304895661410139"><ele>497.0</ele><time>2026-05-02T12:22:34.998Z</time></trkpt><trkpt lat="44.90058043135151" lon="7.304860660324685"><ele>497.0</ele><time>2026-05-02T12:22:35.998Z</time></trkpt><trkpt lat="44.90076730340067" lon="7.304820658126547"><ele>497.0</ele><time>2026-05-02T12:22:36.998Z</time></trkpt><trkpt lat="44.90088732685172" lon="7.304792980950864"><ele>497.0</ele><time>2026-05-02T12:22:37.998Z</time></trkpt><trkpt lat="44.90098044264275" lon="7.304759299748128"><ele>497.0</ele><time>2026-05-02T12:22:38.998Z</time></trkpt><trkpt lat="44.90107225012921" lon="7.304684052587338"><ele>499.40000000000003</ele><time>2026-05-02T12:22:40.998Z</time></trkpt><trkpt lat="44.90113305048151" lon="7.304635234884278"><ele>501.80000000000007</ele><time>2026-05-02T12:22:41.998Z</time></trkpt><trkpt lat="44.90122235602453" lon="7.3045776255954316"><ele>504.2</ele><time>2026-05-02T12:22:42.998Z</time></trkpt><trkpt lat="44.90130108543096" lon="7.304527159897174"><ele>506.6</ele><time>2026-05-02T12:22:43.998Z</time></trkpt><trkpt lat="44.90143448467801" lon="7.304440723893988"><ele>509.0</ele><time>2026-05-02T12:22:44.998Z</time></trkpt><trkpt lat="44.901549150525874" lon="7.304319991207136"><ele>509.0</ele><time>2026-05-02T12:22:45.998Z</time></trkpt><trkpt lat="44.90162862773414" lon="7.3041809241607325"><ele>509.0</ele><time>2026-05-02T12:22:46.998Z</time></trkpt><trkpt lat="44.901731582708656" lon="7.303983489484335"><ele>509.0</ele><time>2026-05-02T12:22:47.998Z</time></trkpt><trkpt lat="44.90179455871401" lon="7.304043004559439"><ele>509.0</ele><time>2026-05-02T12:22:48.998Z</time></trkpt><trkpt lat="44.901868920134866" lon="7.303967185563687"><ele>509.6</ele><time>2026-05-02T12:22:49.998Z</time></trkpt><trkpt lat="44.901928880962764" lon="7.303918610134964"><ele>510.2</ele><time>2026-05-02T12:22:50.998Z</time></trkpt><trkpt lat="44.90200681208507" lon="7.303838942327009"><ele>510.80000000000007</ele><time>2026-05-02T12:22:52.998Z</time></trkpt><trkpt lat="44.90206237224207" lon="7.303790005242967"><ele>511.40000000000003</ele><time>2026-05-02T12:22:53.998Z</time></trkpt><trkpt lat="44.90217407626221" lon="7.303919639470616"><ele>512.0</ele><time>2026-05-02T12:22:55.997Z</time></trkpt><trkpt lat="44.90217794187285" lon="7.304085738922169"><ele>512.0</ele><time>2026-05-02T12:22:56.997Z</time></trkpt><trkpt lat="44.90227120941035" lon="7.304224043100253"><ele>512.0</ele><time>2026-05-02T12:22:57.997Z</time></trkpt><trkpt lat="44.90235402136017" lon="7.3042977250900725"><ele>512.0</ele><time>2026-05-02T12:22:58.997Z</time></trkpt><trkpt lat="44.90250112938196" lon="7.304311372951908"><ele>512.0</ele><time>2026-05-02T12:23:00Z</time></trkpt><trkpt lat="44.902630458988355" lon="7.304312986330697"><ele>512.75</ele><time>2026-05-02T12:23:01Z</time></trkpt><trkpt lat="44.90276627403448" lon="7.3042898224745985"><ele>513.5</ele><time>2026-05-02T12:23:02Z</time></trkpt><trkpt lat="44.9028865148015" lon="7.3042416298038075"><ele>514.25</ele><time>2026-05-02T12:23:03Z</time></trkpt><trkpt lat="44.903009216144646" lon="7.304195685262056"><ele>515.0</ele><time>2026-05-02T12:23:04Z</time></trkpt><trkpt lat="44.9031140380205" lon="7.304157362311769"><ele>515.0</ele><time>2026-05-02T12:23:05Z</time></trkpt><trkpt lat="44.903196554208925" lon="7.30410556174487"><ele>515.0</ele><time>2026-05-02T12:23:06Z</time></trkpt><trkpt lat="44.90328812910129" lon="7.304096360949737"><ele>515.0</ele><time>2026-05-02T12:23:08Z</time></trkpt><trkpt lat="44.9032926534204" lon="7.304201027509614"><ele>515.0</ele><time>2026-05-02T12:23:10Z</time></trkpt><trkpt lat="44.903223736110164" lon="7.30436554419926"><ele>515.0</ele><time>2026-05-02T12:23:11Z</time></trkpt><trkpt lat="44.90323281470463" lon="7.304550766234146"><ele>512.6666666666666</ele><time>2026-05-02T12:23:12Z</time></trkpt><trkpt lat="44.903132386750464" lon="7.304837856502633"><ele>510.33333333333337</ele><time>2026-05-02T12:23:13Z</time></trkpt><trkpt lat="44.903093006397285" lon="7.305007557839134"><ele>508.0</ele><time>2026-05-02T12:23:14Z</time></trkpt><trkpt lat="44.90305547792467" lon="7.305144827844294"><ele>508.00000000000006</ele><time>2026-05-02T12:23:15Z</time></trkpt><trkpt lat="44.90304341267912" lon="7.305280441428617"><ele>508.0</ele><time>2026-05-02T12:23:16Z</time></trkpt><trkpt lat="44.90305640131093" lon="7.305396837839237"><ele>508.0</ele><time>2026-05-02T12:23:17Z</time></trkpt><trkpt lat="44.903063178020744" lon="7.305496571661281"><ele>508.0</ele><time>2026-05-02T12:23:18Z</time></trkpt><trkpt lat="44.90306304264909" lon="7.305613937718262"><ele>508.00000000000006</ele><time>2026-05-02T12:23:19Z</time></trkpt><trkpt lat="44.903063304472354" lon="7.305702899716426"><ele>508.0</ele><time>2026-05-02T12:23:20Z</time></trkpt><trkpt lat="44.90312640496797" lon="7.305782086591968"><ele>508.1666666666667</ele><time>2026-05-02T12:23:21Z</time></trkpt><trkpt lat="44.903216535537545" lon="7.305826482166227"><ele>508.33333333333337</ele><time>2026-05-02T12:23:22Z</time></trkpt><trkpt lat="44.90332101439469" lon="7.305842651210069"><ele>508.5</ele><time>2026-05-02T12:23:23Z</time></trkpt><trkpt lat="44.903396471578645" lon="7.305877487866517"><ele>508.66666666666663</ele><time>2026-05-02T12:23:24Z</time></trkpt><trkpt lat="44.90346605980758" lon="7.305923483019121"><ele>508.8333333333333</ele><time>2026-05-02T12:23:25Z</time></trkpt><trkpt lat="44.90352672305298" lon="7.305968831724884"><ele>509.0</ele><time>2026-05-02T12:23:25.999Z</time></trkpt><trkpt lat="44.90362968311482" lon="7.306004468795958"><ele>509.0</ele><time>2026-05-02T12:23:26.999Z</time></trkpt><trkpt lat="44.903678068201465" lon="7.3061003234947375"><ele>509.0</ele><time>2026-05-02T12:23:27.999Z</time></trkpt><trkpt lat="44.90372708118315" lon="7.306212459231647"><ele>509.0</ele><time>2026-05-02T12:23:28.999Z</time></trkpt><trkpt lat="44.90376978661774" lon="7.3063603950017875"><ele>509.0</ele><time>2026-05-02T12:23:29.999Z</time></trkpt><trkpt lat="44.903736260407065" lon="7.3066111118005"><ele>507.5</ele><time>2026-05-02T12:23:30.999Z</time></trkpt><trkpt lat="44.90378118080525" lon="7.306798124398021"><ele>506.0</ele><time>2026-05-02T12:23:31.999Z</time></trkpt><trkpt lat="44.90384450431893" lon="7.306976042815605"><ele>504.5</ele><time>2026-05-02T12:23:32.999Z</time></trkpt><trkpt lat="44.90392126214754" lon="7.307159924450707"><ele>503.0</ele><time>2026-05-02T12:23:33.999Z</time></trkpt><trkpt lat="44.90400644538678" lon="7.307351112385791"><ele>500.3333333333333</ele><time>2026-05-02T12:23:34.999Z</time></trkpt><trkpt lat="44.90407806057559" lon="7.307553280778225"><ele>497.66666666666663</ele><time>2026-05-02T12:23:35.999Z</time></trkpt><trkpt lat="44.904147356864264" lon="7.3077404511879305"><ele>495.0</ele><time>2026-05-02T12:23:36.999Z</time></trkpt><trkpt lat="44.904202971040164" lon="7.307923164087322"><ele>493.33333333333337</ele><time>2026-05-02T12:23:37.999Z</time></trkpt><trkpt lat="44.90420405969797" lon="7.308250052671417"><ele>491.6666666666667</ele><time>2026-05-02T12:23:38.999Z</time></trkpt><trkpt lat="44.90418963342244" lon="7.308477615543735"><ele>490.0</ele><time>2026-05-02T12:23:39.999Z</time></trkpt><trkpt lat="44.904184891935486" lon="7.308726698728017"><ele>489.5</ele><time>2026-05-02T12:23:40.999Z</time></trkpt><trkpt lat="44.904195279897365" lon="7.308940496644144"><ele>489.0</ele><time>2026-05-02T12:23:41.999Z</time></trkpt><trkpt lat="44.90420474092062" lon="7.309095208930036"><ele>488.5</ele><time>2026-05-02T12:23:42.999Z</time></trkpt><trkpt lat="44.904284486033575" lon="7.30925363806243"><ele>488.0</ele><time>2026-05-02T12:23:43.999Z</time></trkpt><trkpt lat="44.90439879938248" lon="7.309360919691963"><ele>488.0</ele><time>2026-05-02T12:23:44.999Z</time></trkpt><trkpt lat="44.90451170462782" lon="7.309408069067847"><ele>488.0</ele><time>2026-05-02T12:23:45.999Z</time></trkpt><trkpt lat="44.90458562922707" lon="7.309424544987846"><ele>488.0</ele><time>2026-05-02T12:23:46.999Z</time></trkpt><trkpt lat="44.90452455467219" lon="7.30966636434371"><ele>488.0</ele><time>2026-05-02T12:23:49.999Z</time></trkpt><trkpt lat="44.9044518438953" lon="7.30981236323626"><ele>485.3333333333333</ele><time>2026-05-02T12:23:50.999Z</time></trkpt><trkpt lat="44.90438321501653" lon="7.309981630679255"><ele>482.66666666666663</ele><time>2026-05-02T12:23:51.999Z</time></trkpt><trkpt lat="44.90431616321825" lon="7.3101836325072265"><ele>480.0</ele><time>2026-05-02T12:23:52.999Z</time></trkpt><trkpt lat="44.90424776138907" lon="7.310387210386532"><ele>478.0</ele><time>2026-05-02T12:23:53.999Z</time></trkpt><trkpt lat="44.904175450255586" lon="7.310583306843802"><ele>476.0</ele><time>2026-05-02T12:23:54.999Z</time></trkpt><trkpt lat="44.90411355568573" lon="7.310779064081944"><ele>474.0</ele><time>2026-05-02T12:23:55.999Z</time></trkpt><trkpt lat="44.90406142703692" lon="7.31096757066247"><ele>474.0</ele><time>2026-05-02T12:23:56.999Z</time></trkpt><trkpt lat="44.90400986103033" lon="7.311136015464597"><ele>474.0</ele><time>2026-05-02T12:23:57.999Z</time></trkpt><trkpt lat="44.903962015138674" lon="7.311304455826627"><ele>474.0</ele><time>2026-05-02T12:23:58.999Z</time></trkpt><trkpt lat="44.903917122383554" lon="7.311460485776261"><ele>474.0</ele><time>2026-05-02T12:23:59.999Z</time></trkpt><trkpt lat="44.903871162405984" lon="7.311603472243247"><ele>472.2</ele><time>2026-05-02T12:24:00.999Z</time></trkpt><trkpt lat="44.90384703148994" lon="7.311727856352072"><ele>470.4</ele><time>2026-05-02T12:24:01.999Z</time></trkpt><trkpt lat="44.90384195402647" lon="7.311844799668407"><ele>468.6</ele><time>2026-05-02T12:24:02.999Z</time></trkpt><trkpt lat="44.90392471492361" lon="7.31194756092393"><ele>466.8</ele><time>2026-05-02T12:24:03.999Z</time></trkpt><trkpt lat="44.904035420689105" lon="7.311981965071748"><ele>465.0</ele><time>2026-05-02T12:24:04.999Z</time></trkpt><trkpt lat="44.90415748291277" lon="7.311966600797244"><ele>464.0</ele><time>2026-05-02T12:24:05.999Z</time></trkpt><trkpt lat="44.90429585340758" lon="7.311992067599119"><ele>463.0</ele><time>2026-05-02T12:24:06.999Z</time></trkpt><trkpt lat="44.904423398100136" lon="7.312037265084097"><ele>462.0</ele><time>2026-05-02T12:24:07.999Z</time></trkpt><trkpt lat="44.90456627906365" lon="7.312078980574325"><ele>461.0</ele><time>2026-05-02T12:24:08.999Z</time></trkpt><trkpt lat="44.90469767030989" lon="7.31209418718426"><ele>461.0</ele><time>2026-05-02T12:24:09.999Z</time></trkpt><trkpt lat="44.90482638829681" lon="7.312053351918927"><ele>461.0</ele><time>2026-05-02T12:24:10.999Z</time></trkpt><trkpt lat="44.90497616886591" lon="7.311953392604893"><ele>461.0</ele><time>2026-05-02T12:24:11.999Z</time></trkpt><trkpt lat="44.905149000329544" lon="7.311885825420208"><ele>459.0</ele><time>2026-05-02T12:24:12.998Z</time></trkpt><trkpt lat="44.90533471823837" lon="7.3118422681532955"><ele>457.0</ele><time>2026-05-02T12:24:13.998Z</time></trkpt><trkpt lat="44.905541460805374" lon="7.311794678628791"><ele>455.0</ele><time>2026-05-02T12:24:14.998Z</time></trkpt><trkpt lat="44.905719056232336" lon="7.311783588152275"><ele>455.0</ele><time>2026-05-02T12:24:15.998Z</time></trkpt><trkpt lat="44.90585705248142" lon="7.31181302538546"><ele>455.0</ele><time>2026-05-02T12:24:16.998Z</time></trkpt><trkpt lat="44.90596800455699" lon="7.311892237802863"><ele>455.0</ele><time>2026-05-02T12:24:17.998Z</time></trkpt><trkpt lat="44.906063178876046" lon="7.312012700514671"><ele>455.0</ele><time>2026-05-02T12:24:18.998Z</time></trkpt><trkpt lat="44.90619028704558" lon="7.312142894193843"><ele>453.0</ele><time>2026-05-02T12:24:19.998Z</time></trkpt><trkpt lat="44.90632849601358" lon="7.312328340976235"><ele>451.0</ele><time>2026-05-02T12:24:20.998Z</time></trkpt><trkpt lat="44.90650887213409" lon="7.312504253810061"><ele>449.0</ele><time>2026-05-02T12:24:21.998Z</time></trkpt><trkpt lat="44.90672944131383" lon="7.312683471142457"><ele>449.66666666666663</ele><time>2026-05-02T12:24:22.998Z</time></trkpt><trkpt lat="44.90693872556983" lon="7.312824416630559"><ele>450.33333333333337</ele><time>2026-05-02T12:24:23.998Z</time></trkpt><trkpt lat="44.90708986389076" lon="7.312918870420587"><ele>451.0</ele><time>2026-05-02T12:24:24.998Z</time></trkpt><trkpt lat="44.90720014849264" lon="7.312981384133535"><ele>451.0</ele><time>2026-05-02T12:24:25.998Z</time></trkpt><trkpt lat="44.907279912282426" lon="7.31303023406682"><ele>451.0</ele><time>2026-05-02T12:24:26.998Z</time></trkpt><trkpt lat="44.90737887335455" lon="7.313097962988695"><ele>451.0</ele><time>2026-05-02T12:24:28.998Z</time></trkpt><trkpt lat="44.907464070473" lon="7.312903463700288"><ele>451.0</ele><time>2026-05-02T12:24:33.998Z</time></trkpt><trkpt lat="44.90745446498642" lon="7.31276786947743"><ele>451.0</ele><time>2026-05-02T12:24:34.998Z</time></trkpt><trkpt lat="44.9074703615315" lon="7.312616994584089"><ele>451.0</ele><time>2026-05-02T12:24:35.998Z</time></trkpt><trkpt lat="44.90750116548579" lon="7.312423598840621"><ele>451.0</ele><time>2026-05-02T12:24:36.998Z</time></trkpt><trkpt lat="44.90754024935206" lon="7.312198223638126"><ele>451.0</ele><time>2026-05-02T12:24:37.998Z</time></trkpt><trkpt lat="44.90758654798974" lon="7.311920553622355"><ele>452.5</ele><time>2026-05-02T12:24:38.998Z</time></trkpt><trkpt lat="44.90760345472766" lon="7.311594694283113"><ele>454.0</ele><time>2026-05-02T12:24:39.998Z</time></trkpt><trkpt lat="44.90759497938511" lon="7.311275547280616"><ele>457.33333333333337</ele><time>2026-05-02T12:24:40.998Z</time></trkpt><trkpt lat="44.90754973181904" lon="7.311001767818909"><ele>460.66666666666663</ele><time>2026-05-02T12:24:41.998Z</time></trkpt><trkpt lat="44.90750761867656" lon="7.31079084625517"><ele>464.0</ele><time>2026-05-02T12:24:42.998Z</time></trkpt><trkpt lat="44.907489008874386" lon="7.3106352516434505"><ele>466.0</ele><time>2026-05-02T12:24:43.998Z</time></trkpt><trkpt lat="44.907504720999995" lon="7.3105029054401465"><ele>468.0</ele><time>2026-05-02T12:24:44.998Z</time></trkpt><trkpt lat="44.90759043664805" lon="7.310387978116031"><ele>470.0</ele><time>2026-05-02T12:24:45.998Z</time></trkpt><trkpt lat="44.9076977280437" lon="7.310285113590223"><ele>472.0</ele><time>2026-05-02T12:24:46.998Z</time></trkpt><trkpt lat="44.90781449467638" lon="7.310179892065816"><ele>472.5</ele><time>2026-05-02T12:24:47.998Z</time></trkpt><trkpt lat="44.90792815370342" lon="7.310050249525542"><ele>473.0</ele><time>2026-05-02T12:24:48.998Z</time></trkpt><trkpt lat="44.907995774969486" lon="7.309909532940341"><ele>473.5</ele><time>2026-05-02T12:24:49.998Z</time></trkpt><trkpt lat="44.90802563219236" lon="7.309748970785395"><ele>474.0</ele><time>2026-05-02T12:24:50.998Z</time></trkpt><trkpt lat="44.90799298846561" lon="7.309577319516449"><ele>477.5</ele><time>2026-05-02T12:24:51.998Z</time></trkpt><trkpt lat="44.90792962009651" lon="7.309406037475609"><ele>481.0</ele><time>2026-05-02T12:24:52.998Z</time></trkpt><trkpt lat="44.907847462403744" lon="7.309239693166768"><ele>484.5</ele><time>2026-05-02T12:24:53.998Z</time></trkpt><trkpt lat="44.90776178872355" lon="7.309053867782362"><ele>488.0</ele><time>2026-05-02T12:24:54.998Z</time></trkpt><trkpt lat="44.9076778029987" lon="7.308852846023151"><ele>489.0</ele><time>2026-05-02T12:24:55.998Z</time></trkpt><trkpt lat="44.90758479101441" lon="7.308633554151515"><ele>490.0</ele><time>2026-05-02T12:24:56.998Z</time></trkpt><trkpt lat="44.90750074644872" lon="7.308437828574846"><ele>491.0</ele><time>2026-05-02T12:24:57.998Z</time></trkpt><trkpt lat="44.90742933118253" lon="7.308270068067058"><ele>491.0</ele><time>2026-05-02T12:24:58.997Z</time></trkpt><trkpt lat="44.9073696007491" lon="7.308121687177737"><ele>491.0</ele><time>2026-05-02T12:24:59.997Z</time></trkpt><trkpt lat="44.907321700509286" lon="7.307982771518457"><ele>491.0</ele><time>2026-05-02T12:25:00.997Z</time></trkpt><trkpt lat="44.90728762533645" lon="7.307844730760572"><ele>491.0</ele><time>2026-05-02T12:25:01.997Z</time></trkpt><trkpt lat="44.90726282222048" lon="7.307711406598514"><ele>491.0</ele><time>2026-05-02T12:25:02.997Z</time></trkpt><trkpt lat="44.90724936060459" lon="7.307591137367396"><ele>492.8</ele><time>2026-05-02T12:25:03.997Z</time></trkpt><trkpt lat="44.90724922202201" lon="7.307492987968949"><ele>494.6</ele><time>2026-05-02T12:25:04.997Z</time></trkpt><trkpt lat="44.90727992107872" lon="7.307358740828998"><ele>496.4</ele><time>2026-05-02T12:25:07Z</time></trkpt><trkpt lat="44.907328113513216" lon="7.307174049690772"><ele>498.2</ele><time>2026-05-02T12:25:09Z</time></trkpt><trkpt lat="44.907369422871746" lon="7.307045049040799"><ele>500.0</ele><time>2026-05-02T12:25:10Z</time></trkpt><trkpt lat="44.90738013344549" lon="7.306896654252233"><ele>501.5</ele><time>2026-05-02T12:25:11Z</time></trkpt><trkpt lat="44.907331999270916" lon="7.306736133921732"><ele>503.0</ele><time>2026-05-02T12:25:12Z</time></trkpt><trkpt lat="44.907235394921834" lon="7.306588749573102"><ele>504.5</ele><time>2026-05-02T12:25:13Z</time></trkpt><trkpt lat="44.907151791995325" lon="7.3064611110002735"><ele>506.0</ele><time>2026-05-02T12:25:14Z</time></trkpt><trkpt lat="44.907118678671694" lon="7.306357671115783"><ele>509.0</ele><time>2026-05-02T12:25:15Z</time></trkpt><trkpt lat="44.90717472897686" lon="7.306272532415712"><ele>512.0</ele><time>2026-05-02T12:25:16Z</time></trkpt><trkpt lat="44.90728370186727" lon="7.306238815611987"><ele>515.0</ele><time>2026-05-02T12:25:17Z</time></trkpt><trkpt lat="44.9074076074165" lon="7.3062086264785755"><ele>518.0</ele><time>2026-05-02T12:25:18Z</time></trkpt><trkpt lat="44.90753864898068" lon="7.306148975626037"><ele>520.8</ele><time>2026-05-02T12:25:19Z</time></trkpt><trkpt lat="44.90767498210745" lon="7.306066606543646"><ele>523.5999999999999</ele><time>2026-05-02T12:25:20Z</time></trkpt><trkpt lat="44.907786683841344" lon="7.306039868065397"><ele>526.4000000000001</ele><time>2026-05-02T12:25:21Z</time></trkpt><trkpt lat="44.90784619001412" lon="7.306010260423382"><ele>529.2</ele><time>2026-05-02T12:25:22Z</time></trkpt><trkpt lat="44.90784705351938" lon="7.3059147031114025"><ele>532.0</ele><time>2026-05-02T12:25:23Z</time></trkpt><trkpt lat="44.90777047496486" lon="7.305808097917961"><ele>532.0</ele><time>2026-05-02T12:25:24Z</time></trkpt><trkpt lat="44.90763403115333" lon="7.305733458871633"><ele>532.0</ele><time>2026-05-02T12:25:25Z</time></trkpt><trkpt lat="44.90749694321903" lon="7.305669044630529"><ele>532.0</ele><time>2026-05-02T12:25:26Z</time></trkpt><trkpt lat="44.90738918246788" lon="7.30555044425189"><ele>532.0</ele><time>2026-05-02T12:25:27Z</time></trkpt><trkpt lat="44.90732885435179" lon="7.30537552815892"><ele>529.75</ele><time>2026-05-02T12:25:28Z</time></trkpt><trkpt lat="44.9073179096748" lon="7.305209674967906"><ele>527.5</ele><time>2026-05-02T12:25:29Z</time></trkpt><trkpt lat="44.90734376358584" lon="7.305071622390384"><ele>525.25</ele><time>2026-05-02T12:25:29.999Z</time></trkpt><trkpt lat="44.90741910305171" lon="7.304964115418827"><ele>523.0</ele><time>2026-05-02T12:25:30.999Z</time></trkpt><trkpt lat="44.90755809642609" lon="7.304946248227918"><ele>528.75</ele><time>2026-05-02T12:25:31.999Z</time></trkpt><trkpt lat="44.90771015374448" lon="7.304923625211618"><ele>534.5</ele><time>2026-05-02T12:25:32.999Z</time></trkpt><trkpt lat="44.90785689654098" lon="7.304916839793387"><ele>540.25</ele><time>2026-05-02T12:25:33.999Z</time></trkpt><trkpt lat="44.9079586320736" lon="7.305052634440108"><ele>546.0</ele><time>2026-05-02T12:25:34.999Z</time></trkpt><trkpt lat="44.90811608335196" lon="7.3052207485915766"><ele>546.0</ele><time>2026-05-02T12:25:35.999Z</time></trkpt><trkpt lat="44.90829453057151" lon="7.305387491642461"><ele>546.0</ele><time>2026-05-02T12:25:36.999Z</time></trkpt><trkpt lat="44.90846373731204" lon="7.305593773062912"><ele>546.0</ele><time>2026-05-02T12:25:37.999Z</time></trkpt><trkpt lat="44.9086475061061" lon="7.305760426544879"><ele>545.0</ele><time>2026-05-02T12:25:38.999Z</time></trkpt><trkpt lat="44.90878984564072" lon="7.305834654923983"><ele>544.0</ele><time>2026-05-02T12:25:39.999Z</time></trkpt><trkpt lat="44.90892243945779" lon="7.3058410360031"><ele>543.0</ele><time>2026-05-02T12:25:40.999Z</time></trkpt><trkpt lat="44.909054280489784" lon="7.305784652218986"><ele>542.0</ele><time>2026-05-02T12:25:41.999Z</time></trkpt><trkpt lat="44.90917419414444" lon="7.305664134573586"><ele>548.3333333333333</ele><time>2026-05-02T12:25:42.999Z</time></trkpt><trkpt lat="44.90929171081899" lon="7.305525402166012"><ele>554.6666666666666</ele><time>2026-05-02T12:25:43.999Z</time></trkpt><trkpt lat="44.909326405080286" lon="7.30528089615945"><ele>561.0</ele><time>2026-05-02T12:25:44.999Z</time></trkpt><trkpt lat="44.90933593096024" lon="7.305098412849009"><ele>561.0</ele><time>2026-05-02T12:25:45.999Z</time></trkpt><trkpt lat="44.909294491336645" lon="7.304966353144731"><ele>561.0</ele><time>2026-05-02T12:25:46.999Z</time></trkpt><trkpt lat="44.909196074943225" lon="7.304863469809084"><ele>561.0</ele><time>2026-05-02T12:25:47.999Z</time></trkpt><trkpt lat="44.90906077971634" lon="7.3048030529266335"><ele>561.0</ele><time>2026-05-02T12:25:48.999Z</time></trkpt><trkpt lat="44.90894437861667" lon="7.304734591956776"><ele>564.5</ele><time>2026-05-02T12:25:49.999Z</time></trkpt><trkpt lat="44.908877625104004" lon="7.304628147811968"><ele>568.0</ele><time>2026-05-02T12:25:50.999Z</time></trkpt><trkpt lat="44.90886661910344" lon="7.304514818677926"><ele>571.5</ele><time>2026-05-02T12:25:51.999Z</time></trkpt><trkpt lat="44.90883782567446" lon="7.30442366702179"><ele>575.0</ele><time>2026-05-02T12:25:52.999Z</time></trkpt><trkpt lat="44.90903959223653" lon="7.304307344289792"><ele>575.0</ele><time>2026-05-02T12:25:53.999Z</time></trkpt><trkpt lat="44.90914459236536" lon="7.304143707933125"><ele>575.0</ele><time>2026-05-02T12:25:54.999Z</time></trkpt><trkpt lat="44.909253287472886" lon="7.303963332832135"><ele>575.0</ele><time>2026-05-02T12:25:55.999Z</time></trkpt><trkpt lat="44.909379543491504" lon="7.303748495660646"><ele>582.3333333333333</ele><time>2026-05-02T12:25:56.999Z</time></trkpt><trkpt lat="44.90953484382096" lon="7.30355599607434"><ele>589.6666666666666</ele><time>2026-05-02T12:25:57.999Z</time></trkpt><trkpt lat="44.90969364759942" lon="7.303367474150693"><ele>597.0</ele><time>2026-05-02T12:25:58.999Z</time></trkpt><trkpt lat="44.90985472664735" lon="7.3031641000055405"><ele>598.75</ele><time>2026-05-02T12:25:59.999Z</time></trkpt><trkpt lat="44.90999911387206" lon="7.302956704286479"><ele>600.5</ele><time>2026-05-02T12:26:00.999Z</time></trkpt><trkpt lat="44.91010497702311" lon="7.302806003788144"><ele>602.25</ele><time>2026-05-02T12:26:01.999Z</time></trkpt><trkpt lat="44.91015392631037" lon="7.302734625468699"><ele>604.0</ele><time>2026-05-02T12:26:02.999Z</time></trkpt><trkpt lat="44.91011011620059" lon="7.302611196832624"><ele>604.0000000000001</ele><time>2026-05-02T12:27:20Z</time></trkpt><trkpt lat="44.910069966678066" lon="7.302530711347307"><ele>604.0</ele><time>2026-05-02T12:28:16.999Z</time></trkpt><trkpt lat="44.90999036263847" lon="7.302507813720366"><ele>604.0</ele><time>2026-05-02T12:28:28.998Z</time></trkpt><trkpt lat="44.90997486307858" lon="7.302594155815217"><ele>604.0</ele><time>2026-05-02T12:28:36.998Z</time></trkpt><trkpt lat="44.909983779270824" lon="7.302690169029371"><ele>604.0</ele><time>2026-05-02T12:28:42.998Z</time></trkpt><trkpt lat="44.91004736449984" lon="7.3027080954650385"><ele>604.0000000000001</ele><time>2026-05-02T12:28:46.998Z</time></trkpt><trkpt lat="44.91008955034534" lon="7.302807963041726"><ele>604.0</ele><time>2026-05-02T12:28:50.998Z</time></trkpt><trkpt lat="44.91013740929607" lon="7.302880602719158"><ele>609.0</ele><time>2026-05-02T12:29:00.998Z</time></trkpt></trkseg></trk></gpx>